<?xml version="1.0" encoding="UTF-8" standalone="no" ?>
<gpx xmlns="http://www.topografix.com/GPX/1/1" xmlns:xsi="http://www.w3.org/2001/XMLSchema-instance" xsi:schemaLocation="http://www.topografix.com/GPX/1/1 http://www.topografix.com/GPX/1/1/gpx.xsd" version="1.1" creator="VisuGPX - https://www.visugpx.com">
  <metadata>
    <name>12854805-floirac meyrueis calleraugue mont aigoual floirac</name>
  </metadata>
  <trk>
    <name><![CDATA[12854805-floirac meyrueis calleraugue mont aigoual floirac]]></name>
    <trkseg>
      <trkpt lat="44.27095" lon="3.58811">
        <ele>609</ele>
        <time>2021-04-12T18:08:05Z</time>
      </trkpt>
      <trkpt lat="44.27104" lon="3.58802">
        <ele>610</ele>
        <time>2021-04-12T18:08:20Z</time>
      </trkpt>
      <trkpt lat="44.2713" lon="3.58776">
        <ele>614</ele>
        <time>2021-04-12T18:09:02Z</time>
      </trkpt>
      <trkpt lat="44.27062" lon="3.58685">
        <ele>608</ele>
        <time>2021-04-12T18:11:08Z</time>
      </trkpt>
      <trkpt lat="44.27046" lon="3.58661">
        <ele>608</ele>
        <time>2021-04-12T18:11:39Z</time>
      </trkpt>
      <trkpt lat="44.27014" lon="3.58597">
        <ele>605</ele>
        <time>2021-04-12T18:12:54Z</time>
      </trkpt>
      <trkpt lat="44.26977" lon="3.58511">
        <ele>609</ele>
        <time>2021-04-12T18:14:30Z</time>
      </trkpt>
      <trkpt lat="44.26933" lon="3.58429">
        <ele>610</ele>
        <time>2021-04-12T18:16:08Z</time>
      </trkpt>
      <trkpt lat="44.26884" lon="3.5832">
        <ele>617</ele>
        <time>2021-04-12T18:18:11Z</time>
      </trkpt>
      <trkpt lat="44.26864" lon="3.58285">
        <ele>620</ele>
        <time>2021-04-12T18:18:54Z</time>
      </trkpt>
      <trkpt lat="44.2685" lon="3.58266">
        <ele>620</ele>
        <time>2021-04-12T18:19:20Z</time>
      </trkpt>
      <trkpt lat="44.26818" lon="3.58228">
        <ele>621</ele>
        <time>2021-04-12T18:20:16Z</time>
      </trkpt>
      <trkpt lat="44.26709" lon="3.58113">
        <ele>620</ele>
        <time>2021-04-12T18:23:18Z</time>
      </trkpt>
      <trkpt lat="44.26683" lon="3.58082">
        <ele>617</ele>
        <time>2021-04-12T18:24:04Z</time>
      </trkpt>
      <trkpt lat="44.26661" lon="3.58052">
        <ele>618</ele>
        <time>2021-04-12T18:24:45Z</time>
      </trkpt>
      <trkpt lat="44.2665" lon="3.58045">
        <ele>620</ele>
        <time>2021-04-12T18:25:01Z</time>
      </trkpt>
      <trkpt lat="44.26637" lon="3.58044">
        <ele>620</ele>
        <time>2021-04-12T18:25:18Z</time>
      </trkpt>
      <trkpt lat="44.2662" lon="3.58052">
        <ele>619</ele>
        <time>2021-04-12T18:25:42Z</time>
      </trkpt>
      <trkpt lat="44.26572" lon="3.58093">
        <ele>616</ele>
        <time>2021-04-12T18:26:57Z</time>
      </trkpt>
      <trkpt lat="44.26553" lon="3.58109">
        <ele>617</ele>
        <time>2021-04-12T18:27:27Z</time>
      </trkpt>
      <trkpt lat="44.26544" lon="3.58114">
        <ele>618</ele>
        <time>2021-04-12T18:27:40Z</time>
      </trkpt>
      <trkpt lat="44.26522" lon="3.58117">
        <ele>620</ele>
        <time>2021-04-12T18:28:09Z</time>
      </trkpt>
      <trkpt lat="44.26496" lon="3.58115">
        <ele>624</ele>
        <time>2021-04-12T18:28:44Z</time>
      </trkpt>
      <trkpt lat="44.26488" lon="3.58118">
        <ele>625</ele>
        <time>2021-04-12T18:28:55Z</time>
      </trkpt>
      <trkpt lat="44.2648" lon="3.58123">
        <ele>626</ele>
        <time>2021-04-12T18:29:07Z</time>
      </trkpt>
      <trkpt lat="44.26468" lon="3.58134">
        <ele>627</ele>
        <time>2021-04-12T18:29:26Z</time>
      </trkpt>
      <trkpt lat="44.26446" lon="3.58161">
        <ele>628</ele>
        <time>2021-04-12T18:30:05Z</time>
      </trkpt>
      <trkpt lat="44.26389" lon="3.58238">
        <ele>621</ele>
        <time>2021-04-12T18:31:51Z</time>
      </trkpt>
      <trkpt lat="44.26372" lon="3.58252">
        <ele>620</ele>
        <time>2021-04-12T18:32:17Z</time>
      </trkpt>
      <trkpt lat="44.26361" lon="3.58256">
        <ele>620</ele>
        <time>2021-04-12T18:32:32Z</time>
      </trkpt>
      <trkpt lat="44.2635" lon="3.58259">
        <ele>621</ele>
        <time>2021-04-12T18:32:47Z</time>
      </trkpt>
      <trkpt lat="44.26335" lon="3.58259">
        <ele>622</ele>
        <time>2021-04-12T18:33:07Z</time>
      </trkpt>
      <trkpt lat="44.2626" lon="3.58237">
        <ele>628</ele>
        <time>2021-04-12T18:34:50Z</time>
      </trkpt>
      <trkpt lat="44.26236" lon="3.58233">
        <ele>629</ele>
        <time>2021-04-12T18:35:22Z</time>
      </trkpt>
      <trkpt lat="44.2619" lon="3.58233">
        <ele>629</ele>
        <time>2021-04-12T18:36:23Z</time>
      </trkpt>
      <trkpt lat="44.26165" lon="3.58234">
        <ele>629</ele>
        <time>2021-04-12T18:36:57Z</time>
      </trkpt>
      <trkpt lat="44.26127" lon="3.58243">
        <ele>629</ele>
        <time>2021-04-12T18:37:48Z</time>
      </trkpt>
      <trkpt lat="44.2608" lon="3.5824">
        <ele>633</ele>
        <time>2021-04-12T18:38:51Z</time>
      </trkpt>
      <trkpt lat="44.26066" lon="3.58243">
        <ele>632</ele>
        <time>2021-04-12T18:39:10Z</time>
      </trkpt>
      <trkpt lat="44.26035" lon="3.58255">
        <ele>631</ele>
        <time>2021-04-12T18:39:53Z</time>
      </trkpt>
      <trkpt lat="44.2602" lon="3.58257">
        <ele>631</ele>
        <time>2021-04-12T18:40:13Z</time>
      </trkpt>
      <trkpt lat="44.26005" lon="3.58257">
        <ele>632</ele>
        <time>2021-04-12T18:40:33Z</time>
      </trkpt>
      <trkpt lat="44.25966" lon="3.58249">
        <ele>634</ele>
        <time>2021-04-12T18:41:25Z</time>
      </trkpt>
      <trkpt lat="44.25943" lon="3.58263">
        <ele>634</ele>
        <time>2021-04-12T18:41:59Z</time>
      </trkpt>
      <trkpt lat="44.25934" lon="3.58264">
        <ele>634</ele>
        <time>2021-04-12T18:42:11Z</time>
      </trkpt>
      <trkpt lat="44.25888" lon="3.58258">
        <ele>636</ele>
        <time>2021-04-12T18:43:13Z</time>
      </trkpt>
      <trkpt lat="44.25866" lon="3.58259">
        <ele>637</ele>
        <time>2021-04-12T18:43:42Z</time>
      </trkpt>
      <trkpt lat="44.25858" lon="3.58227">
        <ele>641</ele>
        <time>2021-04-12T18:44:14Z</time>
      </trkpt>
      <trkpt lat="44.25845" lon="3.58224">
        <ele>642</ele>
        <time>2021-04-12T18:44:32Z</time>
      </trkpt>
      <trkpt lat="44.25835" lon="3.58213">
        <ele>645</ele>
        <time>2021-04-12T18:44:49Z</time>
      </trkpt>
      <trkpt lat="44.25822" lon="3.58209">
        <ele>647</ele>
        <time>2021-04-12T18:45:07Z</time>
      </trkpt>
      <trkpt lat="44.25797" lon="3.58208">
        <ele>650</ele>
        <time>2021-04-12T18:45:40Z</time>
      </trkpt>
      <trkpt lat="44.25788" lon="3.5821">
        <ele>651</ele>
        <time>2021-04-12T18:45:52Z</time>
      </trkpt>
      <trkpt lat="44.25784" lon="3.58214">
        <ele>651</ele>
        <time>2021-04-12T18:45:59Z</time>
      </trkpt>
      <trkpt lat="44.25781" lon="3.58224">
        <ele>650</ele>
        <time>2021-04-12T18:46:09Z</time>
      </trkpt>
      <trkpt lat="44.25763" lon="3.58232">
        <ele>651</ele>
        <time>2021-04-12T18:46:34Z</time>
      </trkpt>
      <trkpt lat="44.25726" lon="3.58259">
        <ele>648</ele>
        <time>2021-04-12T18:47:30Z</time>
      </trkpt>
      <trkpt lat="44.25705" lon="3.5827">
        <ele>646</ele>
        <time>2021-04-12T18:48:00Z</time>
      </trkpt>
      <trkpt lat="44.25685" lon="3.58275">
        <ele>645</ele>
        <time>2021-04-12T18:48:27Z</time>
      </trkpt>
      <trkpt lat="44.2568" lon="3.58274">
        <ele>645</ele>
        <time>2021-04-12T18:48:34Z</time>
      </trkpt>
      <trkpt lat="44.25674" lon="3.58268">
        <ele>645</ele>
        <time>2021-04-12T18:48:44Z</time>
      </trkpt>
      <trkpt lat="44.25662" lon="3.58249">
        <ele>647</ele>
        <time>2021-04-12T18:49:08Z</time>
      </trkpt>
      <trkpt lat="44.25643" lon="3.58233">
        <ele>649</ele>
        <time>2021-04-12T18:49:37Z</time>
      </trkpt>
      <trkpt lat="44.25625" lon="3.58207">
        <ele>652</ele>
        <time>2021-04-12T18:50:12Z</time>
      </trkpt>
      <trkpt lat="44.25614" lon="3.58195">
        <ele>653</ele>
        <time>2021-04-12T18:50:31Z</time>
      </trkpt>
      <trkpt lat="44.25607" lon="3.58191">
        <ele>654</ele>
        <time>2021-04-12T18:50:41Z</time>
      </trkpt>
      <trkpt lat="44.25602" lon="3.58192">
        <ele>653</ele>
        <time>2021-04-12T18:50:47Z</time>
      </trkpt>
      <trkpt lat="44.25599" lon="3.582">
        <ele>652</ele>
        <time>2021-04-12T18:50:56Z</time>
      </trkpt>
      <trkpt lat="44.25593" lon="3.58239">
        <ele>647</ele>
        <time>2021-04-12T18:51:34Z</time>
      </trkpt>
      <trkpt lat="44.25583" lon="3.58244">
        <ele>646</ele>
        <time>2021-04-12T18:51:48Z</time>
      </trkpt>
      <trkpt lat="44.25569" lon="3.58274">
        <ele>642</ele>
        <time>2021-04-12T18:52:23Z</time>
      </trkpt>
      <trkpt lat="44.25558" lon="3.58285">
        <ele>641</ele>
        <time>2021-04-12T18:52:41Z</time>
      </trkpt>
      <trkpt lat="44.25548" lon="3.58285">
        <ele>641</ele>
        <time>2021-04-12T18:52:54Z</time>
      </trkpt>
      <trkpt lat="44.2552" lon="3.58267">
        <ele>645</ele>
        <time>2021-04-12T18:53:35Z</time>
      </trkpt>
      <trkpt lat="44.25492" lon="3.58259">
        <ele>646</ele>
        <time>2021-04-12T18:54:13Z</time>
      </trkpt>
      <trkpt lat="44.25481" lon="3.58253">
        <ele>646</ele>
        <time>2021-04-12T18:54:29Z</time>
      </trkpt>
      <trkpt lat="44.25473" lon="3.58246">
        <ele>646</ele>
        <time>2021-04-12T18:54:42Z</time>
      </trkpt>
      <trkpt lat="44.25462" lon="3.58248">
        <ele>645</ele>
        <time>2021-04-12T18:54:56Z</time>
      </trkpt>
      <trkpt lat="44.25443" lon="3.58271">
        <ele>639</ele>
        <time>2021-04-12T18:55:30Z</time>
      </trkpt>
      <trkpt lat="44.25436" lon="3.5827">
        <ele>639</ele>
        <time>2021-04-12T18:55:39Z</time>
      </trkpt>
      <trkpt lat="44.25417" lon="3.5823">
        <ele>645</ele>
        <time>2021-04-12T18:56:25Z</time>
      </trkpt>
      <trkpt lat="44.25415" lon="3.58216">
        <ele>648</ele>
        <time>2021-04-12T18:56:39Z</time>
      </trkpt>
      <trkpt lat="44.25417" lon="3.58201">
        <ele>652</ele>
        <time>2021-04-12T18:56:54Z</time>
      </trkpt>
      <trkpt lat="44.25394" lon="3.58169">
        <ele>658</ele>
        <time>2021-04-12T18:57:37Z</time>
      </trkpt>
      <trkpt lat="44.25393" lon="3.5815">
        <ele>661</ele>
        <time>2021-04-12T18:57:55Z</time>
      </trkpt>
      <trkpt lat="44.25382" lon="3.58122">
        <ele>666</ele>
        <time>2021-04-12T18:58:26Z</time>
      </trkpt>
      <trkpt lat="44.25379" lon="3.58067">
        <ele>677</ele>
        <time>2021-04-12T18:59:18Z</time>
      </trkpt>
      <trkpt lat="44.25373" lon="3.58057">
        <ele>680</ele>
        <time>2021-04-12T18:59:31Z</time>
      </trkpt>
      <trkpt lat="44.25349" lon="3.58053">
        <ele>684</ele>
        <time>2021-04-12T19:00:03Z</time>
      </trkpt>
      <trkpt lat="44.25332" lon="3.58046">
        <ele>687</ele>
        <time>2021-04-12T19:00:27Z</time>
      </trkpt>
      <trkpt lat="44.2532" lon="3.58035">
        <ele>689</ele>
        <time>2021-04-12T19:00:46Z</time>
      </trkpt>
      <trkpt lat="44.25335" lon="3.5802">
        <ele>693</ele>
        <time>2021-04-12T19:01:10Z</time>
      </trkpt>
      <trkpt lat="44.25337" lon="3.58007">
        <ele>696</ele>
        <time>2021-04-12T19:01:23Z</time>
      </trkpt>
      <trkpt lat="44.25339" lon="3.5795">
        <ele>705</ele>
        <time>2021-04-12T19:02:18Z</time>
      </trkpt>
      <trkpt lat="44.25334" lon="3.57941">
        <ele>708</ele>
        <time>2021-04-12T19:02:29Z</time>
      </trkpt>
      <trkpt lat="44.25325" lon="3.57932">
        <ele>709</ele>
        <time>2021-04-12T19:02:43Z</time>
      </trkpt>
      <trkpt lat="44.25318" lon="3.57917">
        <ele>711</ele>
        <time>2021-04-12T19:03:01Z</time>
      </trkpt>
      <trkpt lat="44.25291" lon="3.57842">
        <ele>719</ele>
        <time>2021-04-12T19:04:21Z</time>
      </trkpt>
      <trkpt lat="44.25278" lon="3.57815">
        <ele>723</ele>
        <time>2021-04-12T19:04:52Z</time>
      </trkpt>
      <trkpt lat="44.2527" lon="3.57748">
        <ele>734</ele>
        <time>2021-04-12T19:05:57Z</time>
      </trkpt>
      <trkpt lat="44.25273" lon="3.57724">
        <ele>739</ele>
        <time>2021-04-12T19:06:20Z</time>
      </trkpt>
      <trkpt lat="44.25286" lon="3.57715">
        <ele>740</ele>
        <time>2021-04-12T19:06:39Z</time>
      </trkpt>
      <trkpt lat="44.25299" lon="3.57692">
        <ele>743</ele>
        <time>2021-04-12T19:07:07Z</time>
      </trkpt>
      <trkpt lat="44.25324" lon="3.57628">
        <ele>758</ele>
        <time>2021-04-12T19:08:17Z</time>
      </trkpt>
      <trkpt lat="44.25344" lon="3.57585">
        <ele>769</ele>
        <time>2021-04-12T19:09:06Z</time>
      </trkpt>
      <trkpt lat="44.25357" lon="3.57561">
        <ele>772</ele>
        <time>2021-04-12T19:09:35Z</time>
      </trkpt>
      <trkpt lat="44.25384" lon="3.57526">
        <ele>774</ele>
        <time>2021-04-12T19:10:24Z</time>
      </trkpt>
      <trkpt lat="44.25392" lon="3.57509">
        <ele>776</ele>
        <time>2021-04-12T19:10:43Z</time>
      </trkpt>
      <trkpt lat="44.25403" lon="3.57478">
        <ele>780</ele>
        <time>2021-04-12T19:11:17Z</time>
      </trkpt>
      <trkpt lat="44.25417" lon="3.57428">
        <ele>787</ele>
        <time>2021-04-12T19:12:08Z</time>
      </trkpt>
      <trkpt lat="44.25422" lon="3.57389">
        <ele>798</ele>
        <time>2021-04-12T19:12:46Z</time>
      </trkpt>
      <trkpt lat="44.25431" lon="3.57379">
        <ele>800</ele>
        <time>2021-04-12T19:13:01Z</time>
      </trkpt>
      <trkpt lat="44.25443" lon="3.57371">
        <ele>802</ele>
        <time>2021-04-12T19:13:19Z</time>
      </trkpt>
      <trkpt lat="44.25459" lon="3.57365">
        <ele>804</ele>
        <time>2021-04-12T19:13:41Z</time>
      </trkpt>
      <trkpt lat="44.2546" lon="3.57361">
        <ele>804</ele>
        <time>2021-04-12T19:13:45Z</time>
      </trkpt>
      <trkpt lat="44.25455" lon="3.57358">
        <ele>805</ele>
        <time>2021-04-12T19:13:52Z</time>
      </trkpt>
      <trkpt lat="44.25439" lon="3.57355">
        <ele>806</ele>
        <time>2021-04-12T19:14:14Z</time>
      </trkpt>
      <trkpt lat="44.25424" lon="3.57345">
        <ele>810</ele>
        <time>2021-04-12T19:14:36Z</time>
      </trkpt>
      <trkpt lat="44.25419" lon="3.57335">
        <ele>812</ele>
        <time>2021-04-12T19:14:48Z</time>
      </trkpt>
      <trkpt lat="44.25448" lon="3.57321">
        <ele>816</ele>
        <time>2021-04-12T19:15:29Z</time>
      </trkpt>
      <trkpt lat="44.25455" lon="3.57312">
        <ele>818</ele>
        <time>2021-04-12T19:15:41Z</time>
      </trkpt>
      <trkpt lat="44.25456" lon="3.57299">
        <ele>822</ele>
        <time>2021-04-12T19:15:54Z</time>
      </trkpt>
      <trkpt lat="44.25466" lon="3.57282">
        <ele>826</ele>
        <time>2021-04-12T19:16:15Z</time>
      </trkpt>
      <trkpt lat="44.25472" lon="3.57276">
        <ele>827</ele>
        <time>2021-04-12T19:16:25Z</time>
      </trkpt>
      <trkpt lat="44.25484" lon="3.57283">
        <ele>824</ele>
        <time>2021-04-12T19:16:42Z</time>
      </trkpt>
      <trkpt lat="44.25503" lon="3.57286">
        <ele>822</ele>
        <time>2021-04-12T19:17:08Z</time>
      </trkpt>
      <trkpt lat="44.25535" lon="3.57282">
        <ele>827</ele>
        <time>2021-04-12T19:17:50Z</time>
      </trkpt>
      <trkpt lat="44.25544" lon="3.57287">
        <ele>827</ele>
        <time>2021-04-12T19:18:03Z</time>
      </trkpt>
      <trkpt lat="44.25548" lon="3.573">
        <ele>825</ele>
        <time>2021-04-12T19:18:17Z</time>
      </trkpt>
      <trkpt lat="44.25557" lon="3.57319">
        <ele>822</ele>
        <time>2021-04-12T19:18:39Z</time>
      </trkpt>
      <trkpt lat="44.25566" lon="3.57335">
        <ele>821</ele>
        <time>2021-04-12T19:18:58Z</time>
      </trkpt>
      <trkpt lat="44.25573" lon="3.57334">
        <ele>822</ele>
        <time>2021-04-12T19:19:07Z</time>
      </trkpt>
      <trkpt lat="44.25583" lon="3.57328">
        <ele>825</ele>
        <time>2021-04-12T19:19:22Z</time>
      </trkpt>
      <trkpt lat="44.25591" lon="3.57319">
        <ele>824</ele>
        <time>2021-04-12T19:19:36Z</time>
      </trkpt>
      <trkpt lat="44.25595" lon="3.57309">
        <ele>825</ele>
        <time>2021-04-12T19:19:47Z</time>
      </trkpt>
      <trkpt lat="44.25597" lon="3.57294">
        <ele>828</ele>
        <time>2021-04-12T19:20:01Z</time>
      </trkpt>
      <trkpt lat="44.25598" lon="3.57256">
        <ele>835</ele>
        <time>2021-04-12T19:20:38Z</time>
      </trkpt>
      <trkpt lat="44.25602" lon="3.57242">
        <ele>839</ele>
        <time>2021-04-12T19:20:52Z</time>
      </trkpt>
      <trkpt lat="44.25601" lon="3.57233">
        <ele>842</ele>
        <time>2021-04-12T19:21:01Z</time>
      </trkpt>
      <trkpt lat="44.25582" lon="3.57204">
        <ele>853</ele>
        <time>2021-04-12T19:21:38Z</time>
      </trkpt>
      <trkpt lat="44.25574" lon="3.57197">
        <ele>855</ele>
        <time>2021-04-12T19:21:51Z</time>
      </trkpt>
      <trkpt lat="44.25566" lon="3.57195">
        <ele>854</ele>
        <time>2021-04-12T19:22:02Z</time>
      </trkpt>
      <trkpt lat="44.25527" lon="3.57193">
        <ele>851</ele>
        <time>2021-04-12T19:22:54Z</time>
      </trkpt>
      <trkpt lat="44.25516" lon="3.57186">
        <ele>851</ele>
        <time>2021-04-12T19:23:10Z</time>
      </trkpt>
      <trkpt lat="44.2548" lon="3.57154">
        <ele>861</ele>
        <time>2021-04-12T19:24:07Z</time>
      </trkpt>
      <trkpt lat="44.2547" lon="3.57151">
        <ele>863</ele>
        <time>2021-04-12T19:24:20Z</time>
      </trkpt>
      <trkpt lat="44.25456" lon="3.57155">
        <ele>862</ele>
        <time>2021-04-12T19:24:40Z</time>
      </trkpt>
      <trkpt lat="44.25399" lon="3.57179">
        <ele>860</ele>
        <time>2021-04-12T19:25:59Z</time>
      </trkpt>
      <trkpt lat="44.25377" lon="3.57192">
        <ele>862</ele>
        <time>2021-04-12T19:26:31Z</time>
      </trkpt>
      <trkpt lat="44.25364" lon="3.57206">
        <ele>861</ele>
        <time>2021-04-12T19:26:53Z</time>
      </trkpt>
      <trkpt lat="44.25342" lon="3.5724">
        <ele>858</ele>
        <time>2021-04-12T19:27:37Z</time>
      </trkpt>
      <trkpt lat="44.25315" lon="3.57239">
        <ele>860</ele>
        <time>2021-04-12T19:28:13Z</time>
      </trkpt>
      <trkpt lat="44.25266" lon="3.57209">
        <ele>870</ele>
        <time>2021-04-12T19:29:24Z</time>
      </trkpt>
      <trkpt lat="44.25244" lon="3.57201">
        <ele>873</ele>
        <time>2021-04-12T19:29:54Z</time>
      </trkpt>
      <trkpt lat="44.25228" lon="3.57188">
        <ele>874</ele>
        <time>2021-04-12T19:30:19Z</time>
      </trkpt>
      <trkpt lat="44.25204" lon="3.5718">
        <ele>873</ele>
        <time>2021-04-12T19:30:52Z</time>
      </trkpt>
      <trkpt lat="44.25187" lon="3.57178">
        <ele>871</ele>
        <time>2021-04-12T19:31:15Z</time>
      </trkpt>
      <trkpt lat="44.25174" lon="3.57161">
        <ele>876</ele>
        <time>2021-04-12T19:31:39Z</time>
      </trkpt>
      <trkpt lat="44.25118" lon="3.5713">
        <ele>889</ele>
        <time>2021-04-12T19:32:59Z</time>
      </trkpt>
      <trkpt lat="44.25107" lon="3.57128">
        <ele>889</ele>
        <time>2021-04-12T19:33:14Z</time>
      </trkpt>
      <trkpt lat="44.25069" lon="3.57153">
        <ele>881</ele>
        <time>2021-04-12T19:34:10Z</time>
      </trkpt>
      <trkpt lat="44.25037" lon="3.57165">
        <ele>880</ele>
        <time>2021-04-12T19:34:54Z</time>
      </trkpt>
      <trkpt lat="44.24994" lon="3.57175">
        <ele>883</ele>
        <time>2021-04-12T19:35:52Z</time>
      </trkpt>
      <trkpt lat="44.24971" lon="3.57176">
        <ele>883</ele>
        <time>2021-04-12T19:36:23Z</time>
      </trkpt>
      <trkpt lat="44.24962" lon="3.57173">
        <ele>884</ele>
        <time>2021-04-12T19:36:35Z</time>
      </trkpt>
      <trkpt lat="44.24937" lon="3.57148">
        <ele>892</ele>
        <time>2021-04-12T19:37:16Z</time>
      </trkpt>
      <trkpt lat="44.24928" lon="3.57142">
        <ele>894</ele>
        <time>2021-04-12T19:37:30Z</time>
      </trkpt>
      <trkpt lat="44.249" lon="3.57136">
        <ele>895</ele>
        <time>2021-04-12T19:38:07Z</time>
      </trkpt>
      <trkpt lat="44.24864" lon="3.57122">
        <ele>896</ele>
        <time>2021-04-12T19:38:57Z</time>
      </trkpt>
      <trkpt lat="44.24849" lon="3.57118">
        <ele>896</ele>
        <time>2021-04-12T19:39:18Z</time>
      </trkpt>
      <trkpt lat="44.24828" lon="3.5712">
        <ele>894</ele>
        <time>2021-04-12T19:39:46Z</time>
      </trkpt>
      <trkpt lat="44.248" lon="3.57113">
        <ele>897</ele>
        <time>2021-04-12T19:40:24Z</time>
      </trkpt>
      <trkpt lat="44.2477" lon="3.57118">
        <ele>897</ele>
        <time>2021-04-12T19:41:04Z</time>
      </trkpt>
      <trkpt lat="44.24761" lon="3.57112">
        <ele>898</ele>
        <time>2021-04-12T19:41:17Z</time>
      </trkpt>
      <trkpt lat="44.24676" lon="3.57106">
        <ele>906</ele>
        <time>2021-04-12T19:43:11Z</time>
      </trkpt>
      <trkpt lat="44.24644" lon="3.57095">
        <ele>905</ele>
        <time>2021-04-12T19:43:55Z</time>
      </trkpt>
      <trkpt lat="44.24626" lon="3.57068">
        <ele>907</ele>
        <time>2021-04-12T19:44:30Z</time>
      </trkpt>
      <trkpt lat="44.24616" lon="3.57053">
        <ele>909</ele>
        <time>2021-04-12T19:44:50Z</time>
      </trkpt>
      <trkpt lat="44.24605" lon="3.57031">
        <ele>911</ele>
        <time>2021-04-12T19:45:15Z</time>
      </trkpt>
      <trkpt lat="44.24583" lon="3.57">
        <ele>910</ele>
        <time>2021-04-12T19:45:57Z</time>
      </trkpt>
      <trkpt lat="44.24582" lon="3.56992">
        <ele>911</ele>
        <time>2021-04-12T19:46:05Z</time>
      </trkpt>
      <trkpt lat="44.24568" lon="3.56968">
        <ele>909</ele>
        <time>2021-04-12T19:46:34Z</time>
      </trkpt>
      <trkpt lat="44.24557" lon="3.56924">
        <ele>913</ele>
        <time>2021-04-12T19:47:19Z</time>
      </trkpt>
      <trkpt lat="44.24539" lon="3.56893">
        <ele>912</ele>
        <time>2021-04-12T19:47:57Z</time>
      </trkpt>
      <trkpt lat="44.24531" lon="3.56869">
        <ele>914</ele>
        <time>2021-04-12T19:48:22Z</time>
      </trkpt>
      <trkpt lat="44.24523" lon="3.5685">
        <ele>915</ele>
        <time>2021-04-12T19:48:43Z</time>
      </trkpt>
      <trkpt lat="44.2451" lon="3.56826">
        <ele>916</ele>
        <time>2021-04-12T19:49:12Z</time>
      </trkpt>
      <trkpt lat="44.24488" lon="3.56802">
        <ele>916</ele>
        <time>2021-04-12T19:49:50Z</time>
      </trkpt>
      <trkpt lat="44.24486" lon="3.5678">
        <ele>921</ele>
        <time>2021-04-12T19:50:11Z</time>
      </trkpt>
      <trkpt lat="44.24478" lon="3.56763">
        <ele>924</ele>
        <time>2021-04-12T19:50:30Z</time>
      </trkpt>
      <trkpt lat="44.24464" lon="3.56753">
        <ele>924</ele>
        <time>2021-04-12T19:50:51Z</time>
      </trkpt>
      <trkpt lat="44.24444" lon="3.56747">
        <ele>924</ele>
        <time>2021-04-12T19:51:18Z</time>
      </trkpt>
      <trkpt lat="44.2438" lon="3.56734">
        <ele>925</ele>
        <time>2021-04-12T19:52:45Z</time>
      </trkpt>
      <trkpt lat="44.24354" lon="3.56726">
        <ele>927</ele>
        <time>2021-04-12T19:53:20Z</time>
      </trkpt>
      <trkpt lat="44.2433" lon="3.56716">
        <ele>928</ele>
        <time>2021-04-12T19:53:54Z</time>
      </trkpt>
      <trkpt lat="44.24306" lon="3.56702">
        <ele>927</ele>
        <time>2021-04-12T19:54:28Z</time>
      </trkpt>
      <trkpt lat="44.24296" lon="3.56683">
        <ele>927</ele>
        <time>2021-04-12T19:54:51Z</time>
      </trkpt>
      <trkpt lat="44.24283" lon="3.56649">
        <ele>928</ele>
        <time>2021-04-12T19:55:28Z</time>
      </trkpt>
      <trkpt lat="44.24254" lon="3.56492">
        <ele>921</ele>
        <time>2021-04-12T19:58:03Z</time>
      </trkpt>
      <trkpt lat="44.24261" lon="3.56446">
        <ele>921</ele>
        <time>2021-04-12T19:58:48Z</time>
      </trkpt>
      <trkpt lat="44.24281" lon="3.56343">
        <ele>912</ele>
        <time>2021-04-12T20:00:30Z</time>
      </trkpt>
      <trkpt lat="44.24291" lon="3.56309">
        <ele>907</ele>
        <time>2021-04-12T20:01:05Z</time>
      </trkpt>
      <trkpt lat="44.24305" lon="3.56278">
        <ele>903</ele>
        <time>2021-04-12T20:01:40Z</time>
      </trkpt>
      <trkpt lat="44.2433" lon="3.56244">
        <ele>901</ele>
        <time>2021-04-12T20:02:27Z</time>
      </trkpt>
      <trkpt lat="44.24339" lon="3.56222">
        <ele>900</ele>
        <time>2021-04-12T20:02:51Z</time>
      </trkpt>
      <trkpt lat="44.24351" lon="3.56209">
        <ele>902</ele>
        <time>2021-04-12T20:03:11Z</time>
      </trkpt>
      <trkpt lat="44.24367" lon="3.56188">
        <ele>904</ele>
        <time>2021-04-12T20:03:40Z</time>
      </trkpt>
      <trkpt lat="44.24387" lon="3.56146">
        <ele>902</ele>
        <time>2021-04-12T20:04:29Z</time>
      </trkpt>
      <trkpt lat="44.24391" lon="3.5613">
        <ele>901</ele>
        <time>2021-04-12T20:04:45Z</time>
      </trkpt>
      <trkpt lat="44.24409" lon="3.56102">
        <ele>901</ele>
        <time>2021-04-12T20:05:21Z</time>
      </trkpt>
      <trkpt lat="44.2442" lon="3.56067">
        <ele>901</ele>
        <time>2021-04-12T20:05:57Z</time>
      </trkpt>
      <trkpt lat="44.24421" lon="3.56057">
        <ele>900</ele>
        <time>2021-04-12T20:06:07Z</time>
      </trkpt>
      <trkpt lat="44.24425" lon="3.56041">
        <ele>902</ele>
        <time>2021-04-12T20:06:23Z</time>
      </trkpt>
      <trkpt lat="44.24426" lon="3.56">
        <ele>899</ele>
        <time>2021-04-12T20:07:02Z</time>
      </trkpt>
      <trkpt lat="44.24425" lon="3.55992">
        <ele>899</ele>
        <time>2021-04-12T20:07:10Z</time>
      </trkpt>
      <trkpt lat="44.24423" lon="3.55982">
        <ele>898</ele>
        <time>2021-04-12T20:07:20Z</time>
      </trkpt>
      <trkpt lat="44.24411" lon="3.55957">
        <ele>893</ele>
        <time>2021-04-12T20:07:49Z</time>
      </trkpt>
      <trkpt lat="44.24415" lon="3.55956">
        <ele>894</ele>
        <time>2021-04-12T20:07:54Z</time>
      </trkpt>
      <trkpt lat="44.24417" lon="3.55913">
        <ele>897</ele>
        <time>2021-04-12T20:08:35Z</time>
      </trkpt>
      <trkpt lat="44.24418" lon="3.55893">
        <ele>898</ele>
        <time>2021-04-12T20:08:55Z</time>
      </trkpt>
      <trkpt lat="44.24419" lon="3.55856">
        <ele>900</ele>
        <time>2021-04-12T20:09:30Z</time>
      </trkpt>
      <trkpt lat="44.24418" lon="3.55842">
        <ele>900</ele>
        <time>2021-04-12T20:09:43Z</time>
      </trkpt>
      <trkpt lat="44.24414" lon="3.55832">
        <ele>898</ele>
        <time>2021-04-12T20:09:54Z</time>
      </trkpt>
      <trkpt lat="44.24404" lon="3.55818">
        <ele>896</ele>
        <time>2021-04-12T20:10:13Z</time>
      </trkpt>
      <trkpt lat="44.24391" lon="3.55766">
        <ele>899</ele>
        <time>2021-04-12T20:11:06Z</time>
      </trkpt>
      <trkpt lat="44.24386" lon="3.55758">
        <ele>899</ele>
        <time>2021-04-12T20:11:16Z</time>
      </trkpt>
      <trkpt lat="44.24379" lon="3.5575">
        <ele>898</ele>
        <time>2021-04-12T20:11:28Z</time>
      </trkpt>
      <trkpt lat="44.24389" lon="3.55755">
        <ele>900</ele>
        <time>2021-04-12T20:11:42Z</time>
      </trkpt>
      <trkpt lat="44.24393" lon="3.55761">
        <ele>901</ele>
        <time>2021-04-12T20:11:50Z</time>
      </trkpt>
      <trkpt lat="44.24399" lon="3.55764">
        <ele>902</ele>
        <time>2021-04-12T20:11:59Z</time>
      </trkpt>
      <trkpt lat="44.244" lon="3.55759">
        <ele>903</ele>
        <time>2021-04-12T20:12:04Z</time>
      </trkpt>
      <trkpt lat="44.24397" lon="3.55739">
        <ele>908</ele>
        <time>2021-04-12T20:12:23Z</time>
      </trkpt>
      <trkpt lat="44.24398" lon="3.55734">
        <ele>910</ele>
        <time>2021-04-12T20:12:28Z</time>
      </trkpt>
      <trkpt lat="44.24403" lon="3.55733">
        <ele>912</ele>
        <time>2021-04-12T20:12:35Z</time>
      </trkpt>
      <trkpt lat="44.24408" lon="3.55735">
        <ele>913</ele>
        <time>2021-04-12T20:12:42Z</time>
      </trkpt>
      <trkpt lat="44.24412" lon="3.55741">
        <ele>911</ele>
        <time>2021-04-12T20:12:50Z</time>
      </trkpt>
      <trkpt lat="44.24416" lon="3.55761">
        <ele>907</ele>
        <time>2021-04-12T20:13:09Z</time>
      </trkpt>
      <trkpt lat="44.24427" lon="3.55796">
        <ele>910</ele>
        <time>2021-04-12T20:13:46Z</time>
      </trkpt>
      <trkpt lat="44.24431" lon="3.55799">
        <ele>913</ele>
        <time>2021-04-12T20:13:52Z</time>
      </trkpt>
      <trkpt lat="44.24435" lon="3.55799">
        <ele>916</ele>
        <time>2021-04-12T20:13:57Z</time>
      </trkpt>
      <trkpt lat="44.24447" lon="3.55786">
        <ele>925</ele>
        <time>2021-04-12T20:14:18Z</time>
      </trkpt>
      <trkpt lat="44.24453" lon="3.55764">
        <ele>930</ele>
        <time>2021-04-12T20:14:40Z</time>
      </trkpt>
      <trkpt lat="44.24457" lon="3.55737">
        <ele>937</ele>
        <time>2021-04-12T20:15:07Z</time>
      </trkpt>
      <trkpt lat="44.24457" lon="3.55727">
        <ele>940</ele>
        <time>2021-04-12T20:15:16Z</time>
      </trkpt>
      <trkpt lat="44.24453" lon="3.55718">
        <ele>940</ele>
        <time>2021-04-12T20:15:26Z</time>
      </trkpt>
      <trkpt lat="44.24439" lon="3.55701">
        <ele>939</ele>
        <time>2021-04-12T20:15:51Z</time>
      </trkpt>
      <trkpt lat="44.24432" lon="3.55687">
        <ele>941</ele>
        <time>2021-04-12T20:16:07Z</time>
      </trkpt>
      <trkpt lat="44.24425" lon="3.5568">
        <ele>941</ele>
        <time>2021-04-12T20:16:19Z</time>
      </trkpt>
      <trkpt lat="44.24413" lon="3.55675">
        <ele>938</ele>
        <time>2021-04-12T20:16:35Z</time>
      </trkpt>
      <trkpt lat="44.24379" lon="3.55653">
        <ele>936</ele>
        <time>2021-04-12T20:17:25Z</time>
      </trkpt>
      <trkpt lat="44.24372" lon="3.55647">
        <ele>936</ele>
        <time>2021-04-12T20:17:36Z</time>
      </trkpt>
      <trkpt lat="44.24368" lon="3.55639">
        <ele>937</ele>
        <time>2021-04-12T20:17:46Z</time>
      </trkpt>
      <trkpt lat="44.24363" lon="3.55632">
        <ele>938</ele>
        <time>2021-04-12T20:17:55Z</time>
      </trkpt>
      <trkpt lat="44.24359" lon="3.55622">
        <ele>940</ele>
        <time>2021-04-12T20:18:06Z</time>
      </trkpt>
      <trkpt lat="44.24357" lon="3.55612">
        <ele>942</ele>
        <time>2021-04-12T20:18:16Z</time>
      </trkpt>
      <trkpt lat="44.24354" lon="3.55567">
        <ele>956</ele>
        <time>2021-04-12T20:18:59Z</time>
      </trkpt>
      <trkpt lat="44.24351" lon="3.55558">
        <ele>958</ele>
        <time>2021-04-12T20:19:09Z</time>
      </trkpt>
      <trkpt lat="44.24348" lon="3.55552">
        <ele>958</ele>
        <time>2021-04-12T20:19:16Z</time>
      </trkpt>
      <trkpt lat="44.24336" lon="3.55539">
        <ele>956</ele>
        <time>2021-04-12T20:19:36Z</time>
      </trkpt>
      <trkpt lat="44.24331" lon="3.55517">
        <ele>960</ele>
        <time>2021-04-12T20:19:58Z</time>
      </trkpt>
      <trkpt lat="44.24321" lon="3.55486">
        <ele>966</ele>
        <time>2021-04-12T20:20:31Z</time>
      </trkpt>
      <trkpt lat="44.24311" lon="3.55468">
        <ele>967</ele>
        <time>2021-04-12T20:20:52Z</time>
      </trkpt>
      <trkpt lat="44.24306" lon="3.55422">
        <ele>982</ele>
        <time>2021-04-12T20:21:37Z</time>
      </trkpt>
      <trkpt lat="44.24299" lon="3.55385">
        <ele>991</ele>
        <time>2021-04-12T20:22:13Z</time>
      </trkpt>
      <trkpt lat="44.24294" lon="3.55352">
        <ele>999</ele>
        <time>2021-04-12T20:22:46Z</time>
      </trkpt>
      <trkpt lat="44.24295" lon="3.55349">
        <ele>1001</ele>
        <time>2021-04-12T20:22:49Z</time>
      </trkpt>
      <trkpt lat="44.24301" lon="3.55354">
        <ele>1001</ele>
        <time>2021-04-12T20:22:58Z</time>
      </trkpt>
      <trkpt lat="44.24309" lon="3.55377">
        <ele>997</ele>
        <time>2021-04-12T20:23:23Z</time>
      </trkpt>
      <trkpt lat="44.24323" lon="3.55405">
        <ele>995</ele>
        <time>2021-04-12T20:23:55Z</time>
      </trkpt>
      <trkpt lat="44.24334" lon="3.55431">
        <ele>992</ele>
        <time>2021-04-12T20:24:24Z</time>
      </trkpt>
      <trkpt lat="44.24336" lon="3.55431">
        <ele>994</ele>
        <time>2021-04-12T20:24:27Z</time>
      </trkpt>
      <trkpt lat="44.24337" lon="3.55425">
        <ele>996</ele>
        <time>2021-04-12T20:24:33Z</time>
      </trkpt>
      <trkpt lat="44.24332" lon="3.55394">
        <ele>1002</ele>
        <time>2021-04-12T20:25:03Z</time>
      </trkpt>
      <trkpt lat="44.24327" lon="3.55339">
        <ele>1013</ele>
        <time>2021-04-12T20:25:56Z</time>
      </trkpt>
      <trkpt lat="44.24329" lon="3.55319">
        <ele>1019</ele>
        <time>2021-04-12T20:26:15Z</time>
      </trkpt>
      <trkpt lat="44.24328" lon="3.55308">
        <ele>1021</ele>
        <time>2021-04-12T20:26:26Z</time>
      </trkpt>
      <trkpt lat="44.24326" lon="3.55292">
        <ele>1025</ele>
        <time>2021-04-12T20:26:42Z</time>
      </trkpt>
      <trkpt lat="44.24321" lon="3.55282">
        <ele>1028</ele>
        <time>2021-04-12T20:26:53Z</time>
      </trkpt>
      <trkpt lat="44.24316" lon="3.55276">
        <ele>1029</ele>
        <time>2021-04-12T20:27:02Z</time>
      </trkpt>
      <trkpt lat="44.24304" lon="3.55269">
        <ele>1030</ele>
        <time>2021-04-12T20:27:19Z</time>
      </trkpt>
      <trkpt lat="44.24296" lon="3.55266">
        <ele>1030</ele>
        <time>2021-04-12T20:27:30Z</time>
      </trkpt>
      <trkpt lat="44.24272" lon="3.55264">
        <ele>1030</ele>
        <time>2021-04-12T20:28:02Z</time>
      </trkpt>
      <trkpt lat="44.24261" lon="3.55265">
        <ele>1028</ele>
        <time>2021-04-12T20:28:17Z</time>
      </trkpt>
      <trkpt lat="44.24237" lon="3.55277">
        <ele>1024</ele>
        <time>2021-04-12T20:28:51Z</time>
      </trkpt>
      <trkpt lat="44.24208" lon="3.55274">
        <ele>1031</ele>
        <time>2021-04-12T20:29:30Z</time>
      </trkpt>
      <trkpt lat="44.24193" lon="3.55277">
        <ele>1033</ele>
        <time>2021-04-12T20:29:50Z</time>
      </trkpt>
      <trkpt lat="44.24168" lon="3.55296">
        <ele>1029</ele>
        <time>2021-04-12T20:30:28Z</time>
      </trkpt>
      <trkpt lat="44.2415" lon="3.55306">
        <ele>1024</ele>
        <time>2021-04-12T20:30:54Z</time>
      </trkpt>
      <trkpt lat="44.24103" lon="3.55291">
        <ele>1028</ele>
        <time>2021-04-12T20:31:58Z</time>
      </trkpt>
      <trkpt lat="44.24103" lon="3.55288">
        <ele>1029</ele>
        <time>2021-04-12T20:32:01Z</time>
      </trkpt>
      <trkpt lat="44.24118" lon="3.55283">
        <ele>1032</ele>
        <time>2021-04-12T20:32:22Z</time>
      </trkpt>
      <trkpt lat="44.24138" lon="3.55272">
        <ele>1038</ele>
        <time>2021-04-12T20:32:51Z</time>
      </trkpt>
      <trkpt lat="44.24159" lon="3.55249">
        <ele>1049</ele>
        <time>2021-04-12T20:33:26Z</time>
      </trkpt>
      <trkpt lat="44.24189" lon="3.55208">
        <ele>1066</ele>
        <time>2021-04-12T20:34:22Z</time>
      </trkpt>
      <trkpt lat="44.24199" lon="3.55199">
        <ele>1069</ele>
        <time>2021-04-12T20:34:38Z</time>
      </trkpt>
      <trkpt lat="44.24217" lon="3.55197">
        <ele>1067</ele>
        <time>2021-04-12T20:35:02Z</time>
      </trkpt>
      <trkpt lat="44.24228" lon="3.55193">
        <ele>1068</ele>
        <time>2021-04-12T20:35:17Z</time>
      </trkpt>
      <trkpt lat="44.24246" lon="3.55178">
        <ele>1073</ele>
        <time>2021-04-12T20:35:45Z</time>
      </trkpt>
      <trkpt lat="44.24248" lon="3.55175">
        <ele>1074</ele>
        <time>2021-04-12T20:35:49Z</time>
      </trkpt>
      <trkpt lat="44.24247" lon="3.55173">
        <ele>1075</ele>
        <time>2021-04-12T20:35:52Z</time>
      </trkpt>
      <trkpt lat="44.24227" lon="3.55178">
        <ele>1076</ele>
        <time>2021-04-12T20:36:19Z</time>
      </trkpt>
      <trkpt lat="44.24218" lon="3.55176">
        <ele>1078</ele>
        <time>2021-04-12T20:36:31Z</time>
      </trkpt>
      <trkpt lat="44.24212" lon="3.55171">
        <ele>1081</ele>
        <time>2021-04-12T20:36:40Z</time>
      </trkpt>
      <trkpt lat="44.24204" lon="3.55167">
        <ele>1084</ele>
        <time>2021-04-12T20:36:52Z</time>
      </trkpt>
      <trkpt lat="44.24189" lon="3.55162">
        <ele>1089</ele>
        <time>2021-04-12T20:37:12Z</time>
      </trkpt>
      <trkpt lat="44.24182" lon="3.55164">
        <ele>1089</ele>
        <time>2021-04-12T20:37:22Z</time>
      </trkpt>
      <trkpt lat="44.24162" lon="3.55176">
        <ele>1086</ele>
        <time>2021-04-12T20:37:51Z</time>
      </trkpt>
      <trkpt lat="44.24142" lon="3.55191">
        <ele>1080</ele>
        <time>2021-04-12T20:38:21Z</time>
      </trkpt>
      <trkpt lat="44.24125" lon="3.55202">
        <ele>1075</ele>
        <time>2021-04-12T20:38:46Z</time>
      </trkpt>
      <trkpt lat="44.2412" lon="3.55201">
        <ele>1075</ele>
        <time>2021-04-12T20:38:53Z</time>
      </trkpt>
      <trkpt lat="44.24109" lon="3.5519">
        <ele>1082</ele>
        <time>2021-04-12T20:39:11Z</time>
      </trkpt>
      <trkpt lat="44.24097" lon="3.55186">
        <ele>1086</ele>
        <time>2021-04-12T20:39:27Z</time>
      </trkpt>
      <trkpt lat="44.24056" lon="3.5516">
        <ele>1093</ele>
        <time>2021-04-12T20:40:27Z</time>
      </trkpt>
      <trkpt lat="44.2403" lon="3.5516">
        <ele>1085</ele>
        <time>2021-04-12T20:41:02Z</time>
      </trkpt>
      <trkpt lat="44.24022" lon="3.55153">
        <ele>1085</ele>
        <time>2021-04-12T20:41:15Z</time>
      </trkpt>
      <trkpt lat="44.24013" lon="3.55142">
        <ele>1086</ele>
        <time>2021-04-12T20:41:31Z</time>
      </trkpt>
      <trkpt lat="44.23992" lon="3.55105">
        <ele>1093</ele>
        <time>2021-04-12T20:42:16Z</time>
      </trkpt>
      <trkpt lat="44.23976" lon="3.55094">
        <ele>1094</ele>
        <time>2021-04-12T20:42:40Z</time>
      </trkpt>
      <trkpt lat="44.23951" lon="3.55068">
        <ele>1096</ele>
        <time>2021-04-12T20:43:21Z</time>
      </trkpt>
      <trkpt lat="44.23917" lon="3.55028">
        <ele>1094</ele>
        <time>2021-04-12T20:44:20Z</time>
      </trkpt>
      <trkpt lat="44.23878" lon="3.54989">
        <ele>1093</ele>
        <time>2021-04-12T20:45:24Z</time>
      </trkpt>
      <trkpt lat="44.23859" lon="3.54947">
        <ele>1093</ele>
        <time>2021-04-12T20:46:12Z</time>
      </trkpt>
      <trkpt lat="44.23849" lon="3.54919">
        <ele>1094</ele>
        <time>2021-04-12T20:46:42Z</time>
      </trkpt>
      <trkpt lat="44.23839" lon="3.54877">
        <ele>1094</ele>
        <time>2021-04-12T20:47:24Z</time>
      </trkpt>
      <trkpt lat="44.23833" lon="3.54862">
        <ele>1093</ele>
        <time>2021-04-12T20:47:41Z</time>
      </trkpt>
      <trkpt lat="44.23827" lon="3.5486">
        <ele>1093</ele>
        <time>2021-04-12T20:47:49Z</time>
      </trkpt>
      <trkpt lat="44.23818" lon="3.54849">
        <ele>1093</ele>
        <time>2021-04-12T20:48:05Z</time>
      </trkpt>
      <trkpt lat="44.23799" lon="3.54795">
        <ele>1092</ele>
        <time>2021-04-12T20:49:02Z</time>
      </trkpt>
      <trkpt lat="44.2379" lon="3.54762">
        <ele>1093</ele>
        <time>2021-04-12T20:49:36Z</time>
      </trkpt>
      <trkpt lat="44.23792" lon="3.5475">
        <ele>1093</ele>
        <time>2021-04-12T20:49:48Z</time>
      </trkpt>
      <trkpt lat="44.2379" lon="3.54733">
        <ele>1094</ele>
        <time>2021-04-12T20:50:04Z</time>
      </trkpt>
      <trkpt lat="44.2378" lon="3.547">
        <ele>1095</ele>
        <time>2021-04-12T20:50:39Z</time>
      </trkpt>
      <trkpt lat="44.23776" lon="3.54694">
        <ele>1095</ele>
        <time>2021-04-12T20:50:46Z</time>
      </trkpt>
      <trkpt lat="44.23769" lon="3.54691">
        <ele>1095</ele>
        <time>2021-04-12T20:50:56Z</time>
      </trkpt>
      <trkpt lat="44.23755" lon="3.54668">
        <ele>1095</ele>
        <time>2021-04-12T20:51:25Z</time>
      </trkpt>
      <trkpt lat="44.23738" lon="3.54618">
        <ele>1096</ele>
        <time>2021-04-12T20:52:18Z</time>
      </trkpt>
      <trkpt lat="44.23728" lon="3.546">
        <ele>1096</ele>
        <time>2021-04-12T20:52:40Z</time>
      </trkpt>
      <trkpt lat="44.23718" lon="3.54589">
        <ele>1095</ele>
        <time>2021-04-12T20:52:57Z</time>
      </trkpt>
      <trkpt lat="44.23696" lon="3.54584">
        <ele>1092</ele>
        <time>2021-04-12T20:53:26Z</time>
      </trkpt>
      <trkpt lat="44.23685" lon="3.54586">
        <ele>1091</ele>
        <time>2021-04-12T20:53:41Z</time>
      </trkpt>
      <trkpt lat="44.23663" lon="3.54559">
        <ele>1089</ele>
        <time>2021-04-12T20:54:20Z</time>
      </trkpt>
      <trkpt lat="44.23638" lon="3.54519">
        <ele>1088</ele>
        <time>2021-04-12T20:55:11Z</time>
      </trkpt>
      <trkpt lat="44.236" lon="3.54451">
        <ele>1089</ele>
        <time>2021-04-12T20:56:34Z</time>
      </trkpt>
      <trkpt lat="44.23576" lon="3.54425">
        <ele>1089</ele>
        <time>2021-04-12T20:57:14Z</time>
      </trkpt>
      <trkpt lat="44.23513" lon="3.54389">
        <ele>1089</ele>
        <time>2021-04-12T20:58:45Z</time>
      </trkpt>
      <trkpt lat="44.23471" lon="3.54359">
        <ele>1090</ele>
        <time>2021-04-12T20:59:48Z</time>
      </trkpt>
      <trkpt lat="44.23435" lon="3.54308">
        <ele>1092</ele>
        <time>2021-04-12T21:00:56Z</time>
      </trkpt>
      <trkpt lat="44.2342" lon="3.54279">
        <ele>1092</ele>
        <time>2021-04-12T21:01:31Z</time>
      </trkpt>
      <trkpt lat="44.23413" lon="3.5427">
        <ele>1093</ele>
        <time>2021-04-12T21:01:43Z</time>
      </trkpt>
      <trkpt lat="44.23403" lon="3.54263">
        <ele>1092</ele>
        <time>2021-04-12T21:01:58Z</time>
      </trkpt>
      <trkpt lat="44.23389" lon="3.54258">
        <ele>1092</ele>
        <time>2021-04-12T21:02:18Z</time>
      </trkpt>
      <trkpt lat="44.23331" lon="3.54243">
        <ele>1089</ele>
        <time>2021-04-12T21:03:36Z</time>
      </trkpt>
      <trkpt lat="44.23316" lon="3.54234">
        <ele>1090</ele>
        <time>2021-04-12T21:03:58Z</time>
      </trkpt>
      <trkpt lat="44.23308" lon="3.54226">
        <ele>1090</ele>
        <time>2021-04-12T21:04:11Z</time>
      </trkpt>
      <trkpt lat="44.23302" lon="3.54217">
        <ele>1090</ele>
        <time>2021-04-12T21:04:23Z</time>
      </trkpt>
      <trkpt lat="44.23298" lon="3.54207">
        <ele>1090</ele>
        <time>2021-04-12T21:04:34Z</time>
      </trkpt>
      <trkpt lat="44.23295" lon="3.54195">
        <ele>1090</ele>
        <time>2021-04-12T21:04:46Z</time>
      </trkpt>
      <trkpt lat="44.23295" lon="3.54149">
        <ele>1090</ele>
        <time>2021-04-12T21:05:30Z</time>
      </trkpt>
      <trkpt lat="44.23292" lon="3.54126">
        <ele>1090</ele>
        <time>2021-04-12T21:05:52Z</time>
      </trkpt>
      <trkpt lat="44.23286" lon="3.54097">
        <ele>1089</ele>
        <time>2021-04-12T21:06:21Z</time>
      </trkpt>
      <trkpt lat="44.2328" lon="3.54078">
        <ele>1089</ele>
        <time>2021-04-12T21:06:41Z</time>
      </trkpt>
      <trkpt lat="44.23272" lon="3.54063">
        <ele>1089</ele>
        <time>2021-04-12T21:06:59Z</time>
      </trkpt>
      <trkpt lat="44.23251" lon="3.54032">
        <ele>1088</ele>
        <time>2021-04-12T21:07:40Z</time>
      </trkpt>
      <trkpt lat="44.23243" lon="3.54014">
        <ele>1087</ele>
        <time>2021-04-12T21:08:00Z</time>
      </trkpt>
      <trkpt lat="44.23228" lon="3.53971">
        <ele>1086</ele>
        <time>2021-04-12T21:08:46Z</time>
      </trkpt>
      <trkpt lat="44.23215" lon="3.53925">
        <ele>1084</ele>
        <time>2021-04-12T21:09:33Z</time>
      </trkpt>
      <trkpt lat="44.2321" lon="3.53865">
        <ele>1084</ele>
        <time>2021-04-12T21:10:31Z</time>
      </trkpt>
      <trkpt lat="44.23205" lon="3.53838">
        <ele>1084</ele>
        <time>2021-04-12T21:10:57Z</time>
      </trkpt>
      <trkpt lat="44.23193" lon="3.53796">
        <ele>1084</ele>
        <time>2021-04-12T21:11:41Z</time>
      </trkpt>
      <trkpt lat="44.23187" lon="3.53781">
        <ele>1084</ele>
        <time>2021-04-12T21:11:57Z</time>
      </trkpt>
      <trkpt lat="44.2318" lon="3.53766">
        <ele>1084</ele>
        <time>2021-04-12T21:12:14Z</time>
      </trkpt>
      <trkpt lat="44.23163" lon="3.53742">
        <ele>1083</ele>
        <time>2021-04-12T21:12:46Z</time>
      </trkpt>
      <trkpt lat="44.23153" lon="3.53725">
        <ele>1084</ele>
        <time>2021-04-12T21:13:07Z</time>
      </trkpt>
      <trkpt lat="44.23145" lon="3.53706">
        <ele>1084</ele>
        <time>2021-04-12T21:13:29Z</time>
      </trkpt>
      <trkpt lat="44.23139" lon="3.5369">
        <ele>1084</ele>
        <time>2021-04-12T21:13:46Z</time>
      </trkpt>
      <trkpt lat="44.23135" lon="3.53674">
        <ele>1085</ele>
        <time>2021-04-12T21:14:02Z</time>
      </trkpt>
      <trkpt lat="44.23132" lon="3.53656">
        <ele>1086</ele>
        <time>2021-04-12T21:14:20Z</time>
      </trkpt>
      <trkpt lat="44.23136" lon="3.53621">
        <ele>1089</ele>
        <time>2021-04-12T21:14:54Z</time>
      </trkpt>
      <trkpt lat="44.23134" lon="3.53614">
        <ele>1090</ele>
        <time>2021-04-12T21:15:01Z</time>
      </trkpt>
      <trkpt lat="44.2313" lon="3.53608">
        <ele>1089</ele>
        <time>2021-04-12T21:15:09Z</time>
      </trkpt>
      <trkpt lat="44.23103" lon="3.5359">
        <ele>1086</ele>
        <time>2021-04-12T21:15:49Z</time>
      </trkpt>
      <trkpt lat="44.23094" lon="3.5358">
        <ele>1085</ele>
        <time>2021-04-12T21:16:04Z</time>
      </trkpt>
      <trkpt lat="44.23084" lon="3.53556">
        <ele>1085</ele>
        <time>2021-04-12T21:16:30Z</time>
      </trkpt>
      <trkpt lat="44.2307" lon="3.53498">
        <ele>1089</ele>
        <time>2021-04-12T21:17:29Z</time>
      </trkpt>
      <trkpt lat="44.23054" lon="3.5346">
        <ele>1089</ele>
        <time>2021-04-12T21:18:11Z</time>
      </trkpt>
      <trkpt lat="44.23048" lon="3.53437">
        <ele>1089</ele>
        <time>2021-04-12T21:18:35Z</time>
      </trkpt>
      <trkpt lat="44.23042" lon="3.5339">
        <ele>1091</ele>
        <time>2021-04-12T21:19:20Z</time>
      </trkpt>
      <trkpt lat="44.23039" lon="3.53332">
        <ele>1093</ele>
        <time>2021-04-12T21:20:16Z</time>
      </trkpt>
      <trkpt lat="44.2303" lon="3.53299">
        <ele>1093</ele>
        <time>2021-04-12T21:20:50Z</time>
      </trkpt>
      <trkpt lat="44.22996" lon="3.53194">
        <ele>1095</ele>
        <time>2021-04-12T21:22:40Z</time>
      </trkpt>
      <trkpt lat="44.22996" lon="3.53153">
        <ele>1097</ele>
        <time>2021-04-12T21:23:19Z</time>
      </trkpt>
      <trkpt lat="44.22995" lon="3.53144">
        <ele>1097</ele>
        <time>2021-04-12T21:23:28Z</time>
      </trkpt>
      <trkpt lat="44.22981" lon="3.53103">
        <ele>1099</ele>
        <time>2021-04-12T21:24:11Z</time>
      </trkpt>
      <trkpt lat="44.22932" lon="3.53023">
        <ele>1100</ele>
        <time>2021-04-12T21:25:52Z</time>
      </trkpt>
      <trkpt lat="44.22928" lon="3.53007">
        <ele>1100</ele>
        <time>2021-04-12T21:26:08Z</time>
      </trkpt>
      <trkpt lat="44.22927" lon="3.52993">
        <ele>1100</ele>
        <time>2021-04-12T21:26:21Z</time>
      </trkpt>
      <trkpt lat="44.22931" lon="3.52917">
        <ele>1101</ele>
        <time>2021-04-12T21:27:34Z</time>
      </trkpt>
      <trkpt lat="44.22928" lon="3.52904">
        <ele>1101</ele>
        <time>2021-04-12T21:27:47Z</time>
      </trkpt>
      <trkpt lat="44.22924" lon="3.52893">
        <ele>1102</ele>
        <time>2021-04-12T21:27:59Z</time>
      </trkpt>
      <trkpt lat="44.22911" lon="3.52876">
        <ele>1102</ele>
        <time>2021-04-12T21:28:23Z</time>
      </trkpt>
      <trkpt lat="44.22906" lon="3.52848">
        <ele>1104</ele>
        <time>2021-04-12T21:28:50Z</time>
      </trkpt>
      <trkpt lat="44.22905" lon="3.52834">
        <ele>1105</ele>
        <time>2021-04-12T21:29:04Z</time>
      </trkpt>
      <trkpt lat="44.22912" lon="3.52802">
        <ele>1107</ele>
        <time>2021-04-12T21:29:36Z</time>
      </trkpt>
      <trkpt lat="44.22923" lon="3.52789">
        <ele>1108</ele>
        <time>2021-04-12T21:29:55Z</time>
      </trkpt>
      <trkpt lat="44.22941" lon="3.52787">
        <ele>1108</ele>
        <time>2021-04-12T21:30:19Z</time>
      </trkpt>
      <trkpt lat="44.22956" lon="3.52777">
        <ele>1108</ele>
        <time>2021-04-12T21:30:41Z</time>
      </trkpt>
      <trkpt lat="44.22966" lon="3.52758">
        <ele>1108</ele>
        <time>2021-04-12T21:31:04Z</time>
      </trkpt>
      <trkpt lat="44.22972" lon="3.52742">
        <ele>1109</ele>
        <time>2021-04-12T21:31:21Z</time>
      </trkpt>
      <trkpt lat="44.22969" lon="3.5272">
        <ele>1110</ele>
        <time>2021-04-12T21:31:43Z</time>
      </trkpt>
      <trkpt lat="44.2296" lon="3.52711">
        <ele>1110</ele>
        <time>2021-04-12T21:31:57Z</time>
      </trkpt>
      <trkpt lat="44.22953" lon="3.52708">
        <ele>1110</ele>
        <time>2021-04-12T21:32:07Z</time>
      </trkpt>
      <trkpt lat="44.22948" lon="3.52697">
        <ele>1110</ele>
        <time>2021-04-12T21:32:20Z</time>
      </trkpt>
      <trkpt lat="44.2296" lon="3.52687">
        <ele>1111</ele>
        <time>2021-04-12T21:32:38Z</time>
      </trkpt>
      <trkpt lat="44.22971" lon="3.52669">
        <ele>1112</ele>
        <time>2021-04-12T21:33:01Z</time>
      </trkpt>
      <trkpt lat="44.22974" lon="3.52652">
        <ele>1114</ele>
        <time>2021-04-12T21:33:18Z</time>
      </trkpt>
      <trkpt lat="44.22973" lon="3.52639">
        <ele>1114</ele>
        <time>2021-04-12T21:33:30Z</time>
      </trkpt>
      <trkpt lat="44.22939" lon="3.52604">
        <ele>1111</ele>
        <time>2021-04-12T21:34:27Z</time>
      </trkpt>
      <trkpt lat="44.22936" lon="3.52585">
        <ele>1111</ele>
        <time>2021-04-12T21:34:45Z</time>
      </trkpt>
      <trkpt lat="44.22939" lon="3.5257">
        <ele>1111</ele>
        <time>2021-04-12T21:35:00Z</time>
      </trkpt>
      <trkpt lat="44.22944" lon="3.52564">
        <ele>1111</ele>
        <time>2021-04-12T21:35:09Z</time>
      </trkpt>
      <trkpt lat="44.22937" lon="3.52553">
        <ele>1110</ele>
        <time>2021-04-12T21:35:23Z</time>
      </trkpt>
      <trkpt lat="44.22941" lon="3.52536">
        <ele>1109</ele>
        <time>2021-04-12T21:35:40Z</time>
      </trkpt>
      <trkpt lat="44.22947" lon="3.52524">
        <ele>1110</ele>
        <time>2021-04-12T21:35:54Z</time>
      </trkpt>
      <trkpt lat="44.22954" lon="3.52504">
        <ele>1110</ele>
        <time>2021-04-12T21:36:15Z</time>
      </trkpt>
      <trkpt lat="44.22963" lon="3.52484">
        <ele>1109</ele>
        <time>2021-04-12T21:36:38Z</time>
      </trkpt>
      <trkpt lat="44.22963" lon="3.52474">
        <ele>1108</ele>
        <time>2021-04-12T21:36:47Z</time>
      </trkpt>
      <trkpt lat="44.22955" lon="3.52473">
        <ele>1107</ele>
        <time>2021-04-12T21:36:58Z</time>
      </trkpt>
      <trkpt lat="44.22935" lon="3.52465">
        <ele>1103</ele>
        <time>2021-04-12T21:37:26Z</time>
      </trkpt>
      <trkpt lat="44.22888" lon="3.52456">
        <ele>1096</ele>
        <time>2021-04-12T21:38:29Z</time>
      </trkpt>
      <trkpt lat="44.22884" lon="3.52449">
        <ele>1095</ele>
        <time>2021-04-12T21:38:38Z</time>
      </trkpt>
      <trkpt lat="44.22874" lon="3.52447">
        <ele>1093</ele>
        <time>2021-04-12T21:38:51Z</time>
      </trkpt>
      <trkpt lat="44.22886" lon="3.52425">
        <ele>1092</ele>
        <time>2021-04-12T21:39:18Z</time>
      </trkpt>
      <trkpt lat="44.22898" lon="3.52408">
        <ele>1092</ele>
        <time>2021-04-12T21:39:41Z</time>
      </trkpt>
      <trkpt lat="44.22901" lon="3.52396">
        <ele>1092</ele>
        <time>2021-04-12T21:39:53Z</time>
      </trkpt>
      <trkpt lat="44.22883" lon="3.52387">
        <ele>1089</ele>
        <time>2021-04-12T21:40:18Z</time>
      </trkpt>
      <trkpt lat="44.22875" lon="3.52357">
        <ele>1085</ele>
        <time>2021-04-12T21:40:49Z</time>
      </trkpt>
      <trkpt lat="44.22872" lon="3.52355">
        <ele>1085</ele>
        <time>2021-04-12T21:40:53Z</time>
      </trkpt>
      <trkpt lat="44.22869" lon="3.52344">
        <ele>1084</ele>
        <time>2021-04-12T21:41:04Z</time>
      </trkpt>
      <trkpt lat="44.22868" lon="3.523">
        <ele>1080</ele>
        <time>2021-04-12T21:41:47Z</time>
      </trkpt>
      <trkpt lat="44.22864" lon="3.52276">
        <ele>1078</ele>
        <time>2021-04-12T21:42:10Z</time>
      </trkpt>
      <trkpt lat="44.22863" lon="3.5225">
        <ele>1076</ele>
        <time>2021-04-12T21:42:35Z</time>
      </trkpt>
      <trkpt lat="44.22851" lon="3.52142">
        <ele>1070</ele>
        <time>2021-04-12T21:44:20Z</time>
      </trkpt>
      <trkpt lat="44.22849" lon="3.52107">
        <ele>1069</ele>
        <time>2021-04-12T21:44:53Z</time>
      </trkpt>
      <trkpt lat="44.2285" lon="3.52081">
        <ele>1068</ele>
        <time>2021-04-12T21:45:18Z</time>
      </trkpt>
      <trkpt lat="44.22834" lon="3.52044">
        <ele>1067</ele>
        <time>2021-04-12T21:45:59Z</time>
      </trkpt>
      <trkpt lat="44.22795" lon="3.51988">
        <ele>1066</ele>
        <time>2021-04-12T21:47:14Z</time>
      </trkpt>
      <trkpt lat="44.22792" lon="3.51975">
        <ele>1066</ele>
        <time>2021-04-12T21:47:27Z</time>
      </trkpt>
      <trkpt lat="44.22791" lon="3.51967">
        <ele>1066</ele>
        <time>2021-04-12T21:47:35Z</time>
      </trkpt>
      <trkpt lat="44.2278" lon="3.51934">
        <ele>1065</ele>
        <time>2021-04-12T21:48:10Z</time>
      </trkpt>
      <trkpt lat="44.22764" lon="3.51913">
        <ele>1065</ele>
        <time>2021-04-12T21:48:39Z</time>
      </trkpt>
      <trkpt lat="44.22741" lon="3.51895">
        <ele>1065</ele>
        <time>2021-04-12T21:49:14Z</time>
      </trkpt>
      <trkpt lat="44.22724" lon="3.51869">
        <ele>1065</ele>
        <time>2021-04-12T21:49:48Z</time>
      </trkpt>
      <trkpt lat="44.22712" lon="3.51844">
        <ele>1065</ele>
        <time>2021-04-12T21:50:17Z</time>
      </trkpt>
      <trkpt lat="44.22706" lon="3.51824">
        <ele>1065</ele>
        <time>2021-04-12T21:50:37Z</time>
      </trkpt>
      <trkpt lat="44.22705" lon="3.51807">
        <ele>1064</ele>
        <time>2021-04-12T21:50:54Z</time>
      </trkpt>
      <trkpt lat="44.22702" lon="3.51791">
        <ele>1064</ele>
        <time>2021-04-12T21:51:09Z</time>
      </trkpt>
      <trkpt lat="44.2269" lon="3.51752">
        <ele>1063</ele>
        <time>2021-04-12T21:51:50Z</time>
      </trkpt>
      <trkpt lat="44.22687" lon="3.51731">
        <ele>1063</ele>
        <time>2021-04-12T21:52:10Z</time>
      </trkpt>
      <trkpt lat="44.22677" lon="3.51695">
        <ele>1063</ele>
        <time>2021-04-12T21:52:47Z</time>
      </trkpt>
      <trkpt lat="44.22664" lon="3.5166">
        <ele>1063</ele>
        <time>2021-04-12T21:53:25Z</time>
      </trkpt>
      <trkpt lat="44.22659" lon="3.51641">
        <ele>1064</ele>
        <time>2021-04-12T21:53:44Z</time>
      </trkpt>
      <trkpt lat="44.22644" lon="3.51613">
        <ele>1065</ele>
        <time>2021-04-12T21:54:18Z</time>
      </trkpt>
      <trkpt lat="44.22634" lon="3.51603">
        <ele>1066</ele>
        <time>2021-04-12T21:54:34Z</time>
      </trkpt>
      <trkpt lat="44.2263" lon="3.51593">
        <ele>1066</ele>
        <time>2021-04-12T21:54:45Z</time>
      </trkpt>
      <trkpt lat="44.2263" lon="3.51583">
        <ele>1067</ele>
        <time>2021-04-12T21:54:55Z</time>
      </trkpt>
      <trkpt lat="44.22633" lon="3.51571">
        <ele>1069</ele>
        <time>2021-04-12T21:55:07Z</time>
      </trkpt>
      <trkpt lat="44.22631" lon="3.51557">
        <ele>1071</ele>
        <time>2021-04-12T21:55:21Z</time>
      </trkpt>
      <trkpt lat="44.22625" lon="3.51542">
        <ele>1072</ele>
        <time>2021-04-12T21:55:37Z</time>
      </trkpt>
      <trkpt lat="44.22616" lon="3.5153">
        <ele>1073</ele>
        <time>2021-04-12T21:55:54Z</time>
      </trkpt>
      <trkpt lat="44.22599" lon="3.51516">
        <ele>1073</ele>
        <time>2021-04-12T21:56:20Z</time>
      </trkpt>
      <trkpt lat="44.22595" lon="3.51506">
        <ele>1074</ele>
        <time>2021-04-12T21:56:31Z</time>
      </trkpt>
      <trkpt lat="44.22585" lon="3.51463">
        <ele>1077</ele>
        <time>2021-04-12T21:57:14Z</time>
      </trkpt>
      <trkpt lat="44.22572" lon="3.51434">
        <ele>1079</ele>
        <time>2021-04-12T21:57:47Z</time>
      </trkpt>
      <trkpt lat="44.22569" lon="3.51421">
        <ele>1080</ele>
        <time>2021-04-12T21:58:00Z</time>
      </trkpt>
      <trkpt lat="44.22565" lon="3.5141">
        <ele>1081</ele>
        <time>2021-04-12T21:58:12Z</time>
      </trkpt>
      <trkpt lat="44.22556" lon="3.51392">
        <ele>1081</ele>
        <time>2021-04-12T21:58:33Z</time>
      </trkpt>
      <trkpt lat="44.22543" lon="3.51378">
        <ele>1080</ele>
        <time>2021-04-12T21:58:55Z</time>
      </trkpt>
      <trkpt lat="44.22529" lon="3.51368">
        <ele>1079</ele>
        <time>2021-04-12T21:59:16Z</time>
      </trkpt>
      <trkpt lat="44.22532" lon="3.5136">
        <ele>1080</ele>
        <time>2021-04-12T21:59:24Z</time>
      </trkpt>
      <trkpt lat="44.22532" lon="3.51346">
        <ele>1081</ele>
        <time>2021-04-12T21:59:38Z</time>
      </trkpt>
      <trkpt lat="44.22549" lon="3.51318">
        <ele>1085</ele>
        <time>2021-04-12T22:00:13Z</time>
      </trkpt>
      <trkpt lat="44.22557" lon="3.51313">
        <ele>1087</ele>
        <time>2021-04-12T22:00:24Z</time>
      </trkpt>
      <trkpt lat="44.22566" lon="3.51296">
        <ele>1089</ele>
        <time>2021-04-12T22:00:45Z</time>
      </trkpt>
      <trkpt lat="44.22567" lon="3.51289">
        <ele>1089</ele>
        <time>2021-04-12T22:00:52Z</time>
      </trkpt>
      <trkpt lat="44.22564" lon="3.5128">
        <ele>1089</ele>
        <time>2021-04-12T22:01:01Z</time>
      </trkpt>
      <trkpt lat="44.22543" lon="3.51256">
        <ele>1086</ele>
        <time>2021-04-12T22:01:37Z</time>
      </trkpt>
      <trkpt lat="44.22536" lon="3.51242">
        <ele>1086</ele>
        <time>2021-04-12T22:01:54Z</time>
      </trkpt>
      <trkpt lat="44.22532" lon="3.51221">
        <ele>1086</ele>
        <time>2021-04-12T22:02:14Z</time>
      </trkpt>
      <trkpt lat="44.22529" lon="3.5119">
        <ele>1088</ele>
        <time>2021-04-12T22:02:44Z</time>
      </trkpt>
      <trkpt lat="44.22523" lon="3.51176">
        <ele>1088</ele>
        <time>2021-04-12T22:03:00Z</time>
      </trkpt>
      <trkpt lat="44.22521" lon="3.51141">
        <ele>1091</ele>
        <time>2021-04-12T22:03:33Z</time>
      </trkpt>
      <trkpt lat="44.22487" lon="3.51095">
        <ele>1091</ele>
        <time>2021-04-12T22:04:37Z</time>
      </trkpt>
      <trkpt lat="44.22476" lon="3.51067">
        <ele>1093</ele>
        <time>2021-04-12T22:05:07Z</time>
      </trkpt>
      <trkpt lat="44.22472" lon="3.51061">
        <ele>1094</ele>
        <time>2021-04-12T22:05:15Z</time>
      </trkpt>
      <trkpt lat="44.22466" lon="3.51057">
        <ele>1094</ele>
        <time>2021-04-12T22:05:24Z</time>
      </trkpt>
      <trkpt lat="44.22461" lon="3.51044">
        <ele>1095</ele>
        <time>2021-04-12T22:05:38Z</time>
      </trkpt>
      <trkpt lat="44.2245" lon="3.51042">
        <ele>1094</ele>
        <time>2021-04-12T22:05:53Z</time>
      </trkpt>
      <trkpt lat="44.22444" lon="3.51037">
        <ele>1094</ele>
        <time>2021-04-12T22:06:02Z</time>
      </trkpt>
      <trkpt lat="44.22441" lon="3.51028">
        <ele>1095</ele>
        <time>2021-04-12T22:06:12Z</time>
      </trkpt>
      <trkpt lat="44.22432" lon="3.51022">
        <ele>1096</ele>
        <time>2021-04-12T22:06:25Z</time>
      </trkpt>
      <trkpt lat="44.22424" lon="3.51004">
        <ele>1098</ele>
        <time>2021-04-12T22:06:45Z</time>
      </trkpt>
      <trkpt lat="44.22419" lon="3.50998">
        <ele>1098</ele>
        <time>2021-04-12T22:06:54Z</time>
      </trkpt>
      <trkpt lat="44.22402" lon="3.5099">
        <ele>1098</ele>
        <time>2021-04-12T22:07:18Z</time>
      </trkpt>
      <trkpt lat="44.2239" lon="3.50979">
        <ele>1099</ele>
        <time>2021-04-12T22:07:37Z</time>
      </trkpt>
      <trkpt lat="44.22387" lon="3.50973">
        <ele>1099</ele>
        <time>2021-04-12T22:07:44Z</time>
      </trkpt>
      <trkpt lat="44.22383" lon="3.50977">
        <ele>1099</ele>
        <time>2021-04-12T22:07:51Z</time>
      </trkpt>
      <trkpt lat="44.22379" lon="3.50974">
        <ele>1099</ele>
        <time>2021-04-12T22:07:57Z</time>
      </trkpt>
      <trkpt lat="44.22378" lon="3.50966">
        <ele>1100</ele>
        <time>2021-04-12T22:08:04Z</time>
      </trkpt>
      <trkpt lat="44.22381" lon="3.50951">
        <ele>1102</ele>
        <time>2021-04-12T22:08:19Z</time>
      </trkpt>
      <trkpt lat="44.22378" lon="3.5092">
        <ele>1105</ele>
        <time>2021-04-12T22:08:49Z</time>
      </trkpt>
      <trkpt lat="44.22381" lon="3.50911">
        <ele>1105</ele>
        <time>2021-04-12T22:08:59Z</time>
      </trkpt>
      <trkpt lat="44.22383" lon="3.50896">
        <ele>1106</ele>
        <time>2021-04-12T22:09:13Z</time>
      </trkpt>
      <trkpt lat="44.22381" lon="3.50875">
        <ele>1107</ele>
        <time>2021-04-12T22:09:34Z</time>
      </trkpt>
      <trkpt lat="44.22378" lon="3.50871">
        <ele>1107</ele>
        <time>2021-04-12T22:09:39Z</time>
      </trkpt>
      <trkpt lat="44.22378" lon="3.50867">
        <ele>1107</ele>
        <time>2021-04-12T22:09:43Z</time>
      </trkpt>
      <trkpt lat="44.22369" lon="3.50856">
        <ele>1107</ele>
        <time>2021-04-12T22:09:59Z</time>
      </trkpt>
      <trkpt lat="44.22361" lon="3.50848">
        <ele>1107</ele>
        <time>2021-04-12T22:10:12Z</time>
      </trkpt>
      <trkpt lat="44.2236" lon="3.50845">
        <ele>1107</ele>
        <time>2021-04-12T22:10:15Z</time>
      </trkpt>
      <trkpt lat="44.22354" lon="3.50842">
        <ele>1108</ele>
        <time>2021-04-12T22:10:24Z</time>
      </trkpt>
      <trkpt lat="44.22349" lon="3.50832">
        <ele>1108</ele>
        <time>2021-04-12T22:10:35Z</time>
      </trkpt>
      <trkpt lat="44.22349" lon="3.50818">
        <ele>1109</ele>
        <time>2021-04-12T22:10:49Z</time>
      </trkpt>
      <trkpt lat="44.22354" lon="3.50799">
        <ele>1110</ele>
        <time>2021-04-12T22:11:08Z</time>
      </trkpt>
      <trkpt lat="44.22356" lon="3.50776">
        <ele>1112</ele>
        <time>2021-04-12T22:11:30Z</time>
      </trkpt>
      <trkpt lat="44.22363" lon="3.50741">
        <ele>1114</ele>
        <time>2021-04-12T22:12:05Z</time>
      </trkpt>
      <trkpt lat="44.22363" lon="3.50717">
        <ele>1116</ele>
        <time>2021-04-12T22:12:28Z</time>
      </trkpt>
      <trkpt lat="44.22365" lon="3.50705">
        <ele>1117</ele>
        <time>2021-04-12T22:12:40Z</time>
      </trkpt>
      <trkpt lat="44.22364" lon="3.50701">
        <ele>1117</ele>
        <time>2021-04-12T22:12:44Z</time>
      </trkpt>
      <trkpt lat="44.22361" lon="3.50701">
        <ele>1117</ele>
        <time>2021-04-12T22:12:48Z</time>
      </trkpt>
      <trkpt lat="44.22361" lon="3.50696">
        <ele>1118</ele>
        <time>2021-04-12T22:12:53Z</time>
      </trkpt>
      <trkpt lat="44.22361" lon="3.50655">
        <ele>1121</ele>
        <time>2021-04-12T22:13:32Z</time>
      </trkpt>
      <trkpt lat="44.2236" lon="3.50641">
        <ele>1123</ele>
        <time>2021-04-12T22:13:45Z</time>
      </trkpt>
      <trkpt lat="44.22354" lon="3.50612">
        <ele>1127</ele>
        <time>2021-04-12T22:14:14Z</time>
      </trkpt>
      <trkpt lat="44.22345" lon="3.50596">
        <ele>1129</ele>
        <time>2021-04-12T22:14:34Z</time>
      </trkpt>
      <trkpt lat="44.22332" lon="3.50589">
        <ele>1129</ele>
        <time>2021-04-12T22:14:52Z</time>
      </trkpt>
      <trkpt lat="44.22326" lon="3.5058">
        <ele>1130</ele>
        <time>2021-04-12T22:15:04Z</time>
      </trkpt>
      <trkpt lat="44.22318" lon="3.50575">
        <ele>1129</ele>
        <time>2021-04-12T22:15:16Z</time>
      </trkpt>
      <trkpt lat="44.22308" lon="3.5058">
        <ele>1128</ele>
        <time>2021-04-12T22:15:30Z</time>
      </trkpt>
      <trkpt lat="44.22299" lon="3.5059">
        <ele>1126</ele>
        <time>2021-04-12T22:15:45Z</time>
      </trkpt>
      <trkpt lat="44.22278" lon="3.5059">
        <ele>1124</ele>
        <time>2021-04-12T22:16:13Z</time>
      </trkpt>
      <trkpt lat="44.22268" lon="3.5057">
        <ele>1124</ele>
        <time>2021-04-12T22:16:37Z</time>
      </trkpt>
      <trkpt lat="44.22267" lon="3.50562">
        <ele>1124</ele>
        <time>2021-04-12T22:16:44Z</time>
      </trkpt>
      <trkpt lat="44.22269" lon="3.50543">
        <ele>1125</ele>
        <time>2021-04-12T22:17:03Z</time>
      </trkpt>
      <trkpt lat="44.22265" lon="3.50536">
        <ele>1125</ele>
        <time>2021-04-12T22:17:11Z</time>
      </trkpt>
      <trkpt lat="44.22252" lon="3.50532">
        <ele>1124</ele>
        <time>2021-04-12T22:17:29Z</time>
      </trkpt>
      <trkpt lat="44.22246" lon="3.50515">
        <ele>1123</ele>
        <time>2021-04-12T22:17:47Z</time>
      </trkpt>
      <trkpt lat="44.22266" lon="3.5047">
        <ele>1127</ele>
        <time>2021-04-12T22:18:38Z</time>
      </trkpt>
      <trkpt lat="44.2228" lon="3.50466">
        <ele>1129</ele>
        <time>2021-04-12T22:18:57Z</time>
      </trkpt>
      <trkpt lat="44.22296" lon="3.50473">
        <ele>1132</ele>
        <time>2021-04-12T22:19:19Z</time>
      </trkpt>
      <trkpt lat="44.22302" lon="3.50472">
        <ele>1133</ele>
        <time>2021-04-12T22:19:27Z</time>
      </trkpt>
      <trkpt lat="44.22317" lon="3.50442">
        <ele>1136</ele>
        <time>2021-04-12T22:20:02Z</time>
      </trkpt>
      <trkpt lat="44.22317" lon="3.50434">
        <ele>1137</ele>
        <time>2021-04-12T22:20:10Z</time>
      </trkpt>
      <trkpt lat="44.22321" lon="3.50429">
        <ele>1137</ele>
        <time>2021-04-12T22:20:17Z</time>
      </trkpt>
      <trkpt lat="44.22318" lon="3.50421">
        <ele>1137</ele>
        <time>2021-04-12T22:20:26Z</time>
      </trkpt>
      <trkpt lat="44.2232" lon="3.50411">
        <ele>1137</ele>
        <time>2021-04-12T22:20:36Z</time>
      </trkpt>
      <trkpt lat="44.22305" lon="3.50399">
        <ele>1134</ele>
        <time>2021-04-12T22:20:59Z</time>
      </trkpt>
      <trkpt lat="44.22297" lon="3.50383">
        <ele>1132</ele>
        <time>2021-04-12T22:21:17Z</time>
      </trkpt>
      <trkpt lat="44.22292" lon="3.50379">
        <ele>1131</ele>
        <time>2021-04-12T22:21:25Z</time>
      </trkpt>
      <trkpt lat="44.22274" lon="3.50377">
        <ele>1127</ele>
        <time>2021-04-12T22:21:49Z</time>
      </trkpt>
      <trkpt lat="44.22269" lon="3.50371">
        <ele>1125</ele>
        <time>2021-04-12T22:21:58Z</time>
      </trkpt>
      <trkpt lat="44.22262" lon="3.50342">
        <ele>1122</ele>
        <time>2021-04-12T22:22:27Z</time>
      </trkpt>
      <trkpt lat="44.22276" lon="3.50321">
        <ele>1125</ele>
        <time>2021-04-12T22:22:55Z</time>
      </trkpt>
      <trkpt lat="44.22277" lon="3.50312">
        <ele>1124</ele>
        <time>2021-04-12T22:23:03Z</time>
      </trkpt>
      <trkpt lat="44.22258" lon="3.50277">
        <ele>1117</ele>
        <time>2021-04-12T22:23:45Z</time>
      </trkpt>
      <trkpt lat="44.2226" lon="3.50213">
        <ele>1116</ele>
        <time>2021-04-12T22:24:47Z</time>
      </trkpt>
      <trkpt lat="44.22275" lon="3.50196">
        <ele>1120</ele>
        <time>2021-04-12T22:25:12Z</time>
      </trkpt>
      <trkpt lat="44.2228" lon="3.5018">
        <ele>1121</ele>
        <time>2021-04-12T22:25:29Z</time>
      </trkpt>
      <trkpt lat="44.22278" lon="3.50173">
        <ele>1120</ele>
        <time>2021-04-12T22:25:36Z</time>
      </trkpt>
      <trkpt lat="44.22287" lon="3.50154">
        <ele>1123</ele>
        <time>2021-04-12T22:25:58Z</time>
      </trkpt>
      <trkpt lat="44.22283" lon="3.50126">
        <ele>1122</ele>
        <time>2021-04-12T22:26:25Z</time>
      </trkpt>
      <trkpt lat="44.22286" lon="3.5005">
        <ele>1122</ele>
        <time>2021-04-12T22:27:38Z</time>
      </trkpt>
      <trkpt lat="44.22295" lon="3.50028">
        <ele>1124</ele>
        <time>2021-04-12T22:28:02Z</time>
      </trkpt>
      <trkpt lat="44.2229" lon="3.50016">
        <ele>1122</ele>
        <time>2021-04-12T22:28:16Z</time>
      </trkpt>
      <trkpt lat="44.22293" lon="3.50002">
        <ele>1123</ele>
        <time>2021-04-12T22:28:30Z</time>
      </trkpt>
      <trkpt lat="44.22298" lon="3.50002">
        <ele>1124</ele>
        <time>2021-04-12T22:28:36Z</time>
      </trkpt>
      <trkpt lat="44.22304" lon="3.49988">
        <ele>1125</ele>
        <time>2021-04-12T22:28:52Z</time>
      </trkpt>
      <trkpt lat="44.22292" lon="3.49975">
        <ele>1122</ele>
        <time>2021-04-12T22:29:12Z</time>
      </trkpt>
      <trkpt lat="44.22289" lon="3.49965">
        <ele>1121</ele>
        <time>2021-04-12T22:29:23Z</time>
      </trkpt>
      <trkpt lat="44.22301" lon="3.49926">
        <ele>1123</ele>
        <time>2021-04-12T22:30:03Z</time>
      </trkpt>
      <trkpt lat="44.22275" lon="3.49867">
        <ele>1120</ele>
        <time>2021-04-12T22:31:09Z</time>
      </trkpt>
      <trkpt lat="44.22279" lon="3.4985">
        <ele>1121</ele>
        <time>2021-04-12T22:31:26Z</time>
      </trkpt>
      <trkpt lat="44.22265" lon="3.49783">
        <ele>1121</ele>
        <time>2021-04-12T22:32:33Z</time>
      </trkpt>
      <trkpt lat="44.22269" lon="3.49754">
        <ele>1122</ele>
        <time>2021-04-12T22:33:01Z</time>
      </trkpt>
      <trkpt lat="44.22269" lon="3.49738">
        <ele>1122</ele>
        <time>2021-04-12T22:33:17Z</time>
      </trkpt>
      <trkpt lat="44.22272" lon="3.49727">
        <ele>1123</ele>
        <time>2021-04-12T22:33:28Z</time>
      </trkpt>
      <trkpt lat="44.22284" lon="3.4971">
        <ele>1125</ele>
        <time>2021-04-12T22:33:51Z</time>
      </trkpt>
      <trkpt lat="44.22283" lon="3.49703">
        <ele>1125</ele>
        <time>2021-04-12T22:33:58Z</time>
      </trkpt>
      <trkpt lat="44.22271" lon="3.49686">
        <ele>1123</ele>
        <time>2021-04-12T22:34:20Z</time>
      </trkpt>
      <trkpt lat="44.22265" lon="3.49682">
        <ele>1122</ele>
        <time>2021-04-12T22:34:29Z</time>
      </trkpt>
      <trkpt lat="44.22254" lon="3.4967">
        <ele>1121</ele>
        <time>2021-04-12T22:34:48Z</time>
      </trkpt>
      <trkpt lat="44.22236" lon="3.49654">
        <ele>1118</ele>
        <time>2021-04-12T22:35:16Z</time>
      </trkpt>
      <trkpt lat="44.22228" lon="3.49642">
        <ele>1117</ele>
        <time>2021-04-12T22:35:32Z</time>
      </trkpt>
      <trkpt lat="44.22226" lon="3.49633">
        <ele>1117</ele>
        <time>2021-04-12T22:35:41Z</time>
      </trkpt>
      <trkpt lat="44.22226" lon="3.49615">
        <ele>1117</ele>
        <time>2021-04-12T22:35:58Z</time>
      </trkpt>
      <trkpt lat="44.22225" lon="3.49614">
        <ele>1117</ele>
        <time>2021-04-12T22:36:00Z</time>
      </trkpt>
      <trkpt lat="44.22212" lon="3.49605">
        <ele>1115</ele>
        <time>2021-04-12T22:36:19Z</time>
      </trkpt>
      <trkpt lat="44.22208" lon="3.4961">
        <ele>1114</ele>
        <time>2021-04-12T22:36:27Z</time>
      </trkpt>
      <trkpt lat="44.22193" lon="3.4959">
        <ele>1112</ele>
        <time>2021-04-12T22:36:54Z</time>
      </trkpt>
      <trkpt lat="44.2217" lon="3.49586">
        <ele>1108</ele>
        <time>2021-04-12T22:37:25Z</time>
      </trkpt>
      <trkpt lat="44.22156" lon="3.49576">
        <ele>1106</ele>
        <time>2021-04-12T22:37:46Z</time>
      </trkpt>
      <trkpt lat="44.22144" lon="3.49572">
        <ele>1104</ele>
        <time>2021-04-12T22:38:03Z</time>
      </trkpt>
      <trkpt lat="44.22126" lon="3.49544">
        <ele>1102</ele>
        <time>2021-04-12T22:38:39Z</time>
      </trkpt>
      <trkpt lat="44.22026" lon="3.49484">
        <ele>1094</ele>
        <time>2021-04-12T22:41:04Z</time>
      </trkpt>
      <trkpt lat="44.22011" lon="3.49478">
        <ele>1093</ele>
        <time>2021-04-12T22:41:25Z</time>
      </trkpt>
      <trkpt lat="44.21978" lon="3.49475">
        <ele>1091</ele>
        <time>2021-04-12T22:42:09Z</time>
      </trkpt>
      <trkpt lat="44.21959" lon="3.49469">
        <ele>1090</ele>
        <time>2021-04-12T22:42:35Z</time>
      </trkpt>
      <trkpt lat="44.21921" lon="3.49454">
        <ele>1089</ele>
        <time>2021-04-12T22:43:27Z</time>
      </trkpt>
      <trkpt lat="44.21907" lon="3.49445">
        <ele>1089</ele>
        <time>2021-04-12T22:43:48Z</time>
      </trkpt>
      <trkpt lat="44.21861" lon="3.49403">
        <ele>1090</ele>
        <time>2021-04-12T22:45:01Z</time>
      </trkpt>
      <trkpt lat="44.21842" lon="3.49386">
        <ele>1091</ele>
        <time>2021-04-12T22:45:32Z</time>
      </trkpt>
      <trkpt lat="44.21816" lon="3.49356">
        <ele>1094</ele>
        <time>2021-04-12T22:46:17Z</time>
      </trkpt>
      <trkpt lat="44.21794" lon="3.49335">
        <ele>1096</ele>
        <time>2021-04-12T22:46:52Z</time>
      </trkpt>
      <trkpt lat="44.21781" lon="3.49329">
        <ele>1097</ele>
        <time>2021-04-12T22:47:10Z</time>
      </trkpt>
      <trkpt lat="44.21752" lon="3.49326">
        <ele>1100</ele>
        <time>2021-04-12T22:47:49Z</time>
      </trkpt>
      <trkpt lat="44.21774" lon="3.49295">
        <ele>1098</ele>
        <time>2021-04-12T22:48:31Z</time>
      </trkpt>
      <trkpt lat="44.21788" lon="3.49269">
        <ele>1096</ele>
        <time>2021-04-12T22:49:02Z</time>
      </trkpt>
      <trkpt lat="44.21793" lon="3.49241">
        <ele>1096</ele>
        <time>2021-04-12T22:49:30Z</time>
      </trkpt>
      <trkpt lat="44.21801" lon="3.4921">
        <ele>1095</ele>
        <time>2021-04-12T22:50:01Z</time>
      </trkpt>
      <trkpt lat="44.21803" lon="3.49184">
        <ele>1095</ele>
        <time>2021-04-12T22:50:26Z</time>
      </trkpt>
      <trkpt lat="44.21814" lon="3.49132">
        <ele>1094</ele>
        <time>2021-04-12T22:51:18Z</time>
      </trkpt>
      <trkpt lat="44.21819" lon="3.49091">
        <ele>1092</ele>
        <time>2021-04-12T22:51:58Z</time>
      </trkpt>
      <trkpt lat="44.21827" lon="3.49044">
        <ele>1091</ele>
        <time>2021-04-12T22:52:44Z</time>
      </trkpt>
      <trkpt lat="44.21836" lon="3.48957">
        <ele>1090</ele>
        <time>2021-04-12T22:54:08Z</time>
      </trkpt>
      <trkpt lat="44.21838" lon="3.48917">
        <ele>1089</ele>
        <time>2021-04-12T22:54:46Z</time>
      </trkpt>
      <trkpt lat="44.2183" lon="3.48884">
        <ele>1092</ele>
        <time>2021-04-12T22:55:20Z</time>
      </trkpt>
      <trkpt lat="44.21826" lon="3.48871">
        <ele>1093</ele>
        <time>2021-04-12T22:55:33Z</time>
      </trkpt>
      <trkpt lat="44.21826" lon="3.48863">
        <ele>1094</ele>
        <time>2021-04-12T22:55:41Z</time>
      </trkpt>
      <trkpt lat="44.21836" lon="3.48839">
        <ele>1092</ele>
        <time>2021-04-12T22:56:07Z</time>
      </trkpt>
      <trkpt lat="44.21853" lon="3.48815">
        <ele>1090</ele>
        <time>2021-04-12T22:56:40Z</time>
      </trkpt>
      <trkpt lat="44.21872" lon="3.48796">
        <ele>1089</ele>
        <time>2021-04-12T22:57:11Z</time>
      </trkpt>
      <trkpt lat="44.21903" lon="3.48753">
        <ele>1088</ele>
        <time>2021-04-12T22:58:09Z</time>
      </trkpt>
      <trkpt lat="44.21911" lon="3.48745">
        <ele>1088</ele>
        <time>2021-04-12T22:58:22Z</time>
      </trkpt>
      <trkpt lat="44.21973" lon="3.48743">
        <ele>1088</ele>
        <time>2021-04-12T22:59:45Z</time>
      </trkpt>
      <trkpt lat="44.21988" lon="3.48736">
        <ele>1088</ele>
        <time>2021-04-12T23:00:06Z</time>
      </trkpt>
      <trkpt lat="44.21997" lon="3.48729">
        <ele>1089</ele>
        <time>2021-04-12T23:00:20Z</time>
      </trkpt>
      <trkpt lat="44.22002" lon="3.4872">
        <ele>1089</ele>
        <time>2021-04-12T23:00:31Z</time>
      </trkpt>
      <trkpt lat="44.22005" lon="3.48704">
        <ele>1090</ele>
        <time>2021-04-12T23:00:47Z</time>
      </trkpt>
      <trkpt lat="44.22002" lon="3.48681">
        <ele>1091</ele>
        <time>2021-04-12T23:01:09Z</time>
      </trkpt>
      <trkpt lat="44.21994" lon="3.48653">
        <ele>1092</ele>
        <time>2021-04-12T23:01:38Z</time>
      </trkpt>
      <trkpt lat="44.21983" lon="3.4863">
        <ele>1092</ele>
        <time>2021-04-12T23:02:04Z</time>
      </trkpt>
      <trkpt lat="44.21934" lon="3.48564">
        <ele>1093</ele>
        <time>2021-04-12T23:03:35Z</time>
      </trkpt>
      <trkpt lat="44.21783" lon="3.4845">
        <ele>1106</ele>
        <time>2021-04-12T23:07:24Z</time>
      </trkpt>
      <trkpt lat="44.2177" lon="3.48435">
        <ele>1108</ele>
        <time>2021-04-12T23:07:47Z</time>
      </trkpt>
      <trkpt lat="44.21755" lon="3.48399">
        <ele>1108</ele>
        <time>2021-04-12T23:08:27Z</time>
      </trkpt>
      <trkpt lat="44.21743" lon="3.48379">
        <ele>1107</ele>
        <time>2021-04-12T23:08:52Z</time>
      </trkpt>
      <trkpt lat="44.21741" lon="3.48368">
        <ele>1106</ele>
        <time>2021-04-12T23:09:02Z</time>
      </trkpt>
      <trkpt lat="44.21741" lon="3.48356">
        <ele>1105</ele>
        <time>2021-04-12T23:09:14Z</time>
      </trkpt>
      <trkpt lat="44.21744" lon="3.48346">
        <ele>1104</ele>
        <time>2021-04-12T23:09:24Z</time>
      </trkpt>
      <trkpt lat="44.21744" lon="3.48336">
        <ele>1102</ele>
        <time>2021-04-12T23:09:34Z</time>
      </trkpt>
      <trkpt lat="44.2174" lon="3.48325">
        <ele>1102</ele>
        <time>2021-04-12T23:09:46Z</time>
      </trkpt>
      <trkpt lat="44.21739" lon="3.48309">
        <ele>1101</ele>
        <time>2021-04-12T23:10:01Z</time>
      </trkpt>
      <trkpt lat="44.21742" lon="3.48296">
        <ele>1101</ele>
        <time>2021-04-12T23:10:14Z</time>
      </trkpt>
      <trkpt lat="44.21743" lon="3.48285">
        <ele>1101</ele>
        <time>2021-04-12T23:10:25Z</time>
      </trkpt>
      <trkpt lat="44.21739" lon="3.48276">
        <ele>1100</ele>
        <time>2021-04-12T23:10:35Z</time>
      </trkpt>
      <trkpt lat="44.21728" lon="3.48266">
        <ele>1099</ele>
        <time>2021-04-12T23:10:52Z</time>
      </trkpt>
      <trkpt lat="44.2172" lon="3.48252">
        <ele>1098</ele>
        <time>2021-04-12T23:11:09Z</time>
      </trkpt>
      <trkpt lat="44.21715" lon="3.48224">
        <ele>1098</ele>
        <time>2021-04-12T23:11:37Z</time>
      </trkpt>
      <trkpt lat="44.21708" lon="3.48204">
        <ele>1098</ele>
        <time>2021-04-12T23:11:58Z</time>
      </trkpt>
      <trkpt lat="44.21699" lon="3.48191">
        <ele>1097</ele>
        <time>2021-04-12T23:12:16Z</time>
      </trkpt>
      <trkpt lat="44.21685" lon="3.48177">
        <ele>1095</ele>
        <time>2021-04-12T23:12:39Z</time>
      </trkpt>
      <trkpt lat="44.21679" lon="3.48162">
        <ele>1095</ele>
        <time>2021-04-12T23:12:55Z</time>
      </trkpt>
      <trkpt lat="44.21675" lon="3.4814">
        <ele>1094</ele>
        <time>2021-04-12T23:13:17Z</time>
      </trkpt>
      <trkpt lat="44.21676" lon="3.48079">
        <ele>1092</ele>
        <time>2021-04-12T23:14:15Z</time>
      </trkpt>
      <trkpt lat="44.2167" lon="3.48037">
        <ele>1089</ele>
        <time>2021-04-12T23:14:56Z</time>
      </trkpt>
      <trkpt lat="44.21656" lon="3.48008">
        <ele>1086</ele>
        <time>2021-04-12T23:15:30Z</time>
      </trkpt>
      <trkpt lat="44.21641" lon="3.47995">
        <ele>1083</ele>
        <time>2021-04-12T23:15:53Z</time>
      </trkpt>
      <trkpt lat="44.21623" lon="3.47972">
        <ele>1080</ele>
        <time>2021-04-12T23:16:26Z</time>
      </trkpt>
      <trkpt lat="44.21602" lon="3.47941">
        <ele>1077</ele>
        <time>2021-04-12T23:17:06Z</time>
      </trkpt>
      <trkpt lat="44.21577" lon="3.4792">
        <ele>1073</ele>
        <time>2021-04-12T23:17:45Z</time>
      </trkpt>
      <trkpt lat="44.21516" lon="3.47873">
        <ele>1064</ele>
        <time>2021-04-12T23:19:18Z</time>
      </trkpt>
      <trkpt lat="44.21468" lon="3.47854">
        <ele>1060</ele>
        <time>2021-04-12T23:20:25Z</time>
      </trkpt>
      <trkpt lat="44.21462" lon="3.4785">
        <ele>1059</ele>
        <time>2021-04-12T23:20:34Z</time>
      </trkpt>
      <trkpt lat="44.21444" lon="3.47817">
        <ele>1058</ele>
        <time>2021-04-12T23:21:13Z</time>
      </trkpt>
      <trkpt lat="44.21426" lon="3.4781">
        <ele>1057</ele>
        <time>2021-04-12T23:21:38Z</time>
      </trkpt>
      <trkpt lat="44.21421" lon="3.47801">
        <ele>1056</ele>
        <time>2021-04-12T23:21:49Z</time>
      </trkpt>
      <trkpt lat="44.21418" lon="3.47787">
        <ele>1056</ele>
        <time>2021-04-12T23:22:03Z</time>
      </trkpt>
      <trkpt lat="44.21412" lon="3.47774">
        <ele>1055</ele>
        <time>2021-04-12T23:22:18Z</time>
      </trkpt>
      <trkpt lat="44.21377" lon="3.4776">
        <ele>1053</ele>
        <time>2021-04-12T23:23:07Z</time>
      </trkpt>
      <trkpt lat="44.21363" lon="3.47757">
        <ele>1052</ele>
        <time>2021-04-12T23:23:26Z</time>
      </trkpt>
      <trkpt lat="44.21355" lon="3.47753">
        <ele>1052</ele>
        <time>2021-04-12T23:23:37Z</time>
      </trkpt>
      <trkpt lat="44.21347" lon="3.47744">
        <ele>1052</ele>
        <time>2021-04-12T23:23:51Z</time>
      </trkpt>
      <trkpt lat="44.21325" lon="3.47707">
        <ele>1050</ele>
        <time>2021-04-12T23:24:37Z</time>
      </trkpt>
      <trkpt lat="44.21305" lon="3.47676">
        <ele>1049</ele>
        <time>2021-04-12T23:25:17Z</time>
      </trkpt>
      <trkpt lat="44.21253" lon="3.4759">
        <ele>1045</ele>
        <time>2021-04-12T23:27:04Z</time>
      </trkpt>
      <trkpt lat="44.21232" lon="3.47545">
        <ele>1043</ele>
        <time>2021-04-12T23:27:55Z</time>
      </trkpt>
      <trkpt lat="44.21187" lon="3.4746">
        <ele>1042</ele>
        <time>2021-04-12T23:29:37Z</time>
      </trkpt>
      <trkpt lat="44.21178" lon="3.47436">
        <ele>1041</ele>
        <time>2021-04-12T23:30:02Z</time>
      </trkpt>
      <trkpt lat="44.21175" lon="3.47417">
        <ele>1041</ele>
        <time>2021-04-12T23:30:21Z</time>
      </trkpt>
      <trkpt lat="44.21177" lon="3.47386">
        <ele>1042</ele>
        <time>2021-04-12T23:30:51Z</time>
      </trkpt>
      <trkpt lat="44.21177" lon="3.47268">
        <ele>1044</ele>
        <time>2021-04-12T23:32:44Z</time>
      </trkpt>
      <trkpt lat="44.2117" lon="3.47192">
        <ele>1042</ele>
        <time>2021-04-12T23:33:57Z</time>
      </trkpt>
      <trkpt lat="44.21168" lon="3.47133">
        <ele>1041</ele>
        <time>2021-04-12T23:34:54Z</time>
      </trkpt>
      <trkpt lat="44.21167" lon="3.47115">
        <ele>1041</ele>
        <time>2021-04-12T23:35:11Z</time>
      </trkpt>
      <trkpt lat="44.2116" lon="3.47097">
        <ele>1041</ele>
        <time>2021-04-12T23:35:30Z</time>
      </trkpt>
      <trkpt lat="44.21128" lon="3.47029">
        <ele>1045</ele>
        <time>2021-04-12T23:36:48Z</time>
      </trkpt>
      <trkpt lat="44.21108" lon="3.46982">
        <ele>1047</ele>
        <time>2021-04-12T23:37:40Z</time>
      </trkpt>
      <trkpt lat="44.21097" lon="3.46962">
        <ele>1048</ele>
        <time>2021-04-12T23:38:05Z</time>
      </trkpt>
      <trkpt lat="44.21036" lon="3.46866">
        <ele>1051</ele>
        <time>2021-04-12T23:40:07Z</time>
      </trkpt>
      <trkpt lat="44.20985" lon="3.46788">
        <ele>1057</ele>
        <time>2021-04-12T23:41:48Z</time>
      </trkpt>
      <trkpt lat="44.20971" lon="3.46771">
        <ele>1060</ele>
        <time>2021-04-12T23:42:13Z</time>
      </trkpt>
      <trkpt lat="44.20949" lon="3.46754">
        <ele>1063</ele>
        <time>2021-04-12T23:42:47Z</time>
      </trkpt>
      <trkpt lat="44.20937" lon="3.46752">
        <ele>1064</ele>
        <time>2021-04-12T23:43:03Z</time>
      </trkpt>
      <trkpt lat="44.20917" lon="3.46759">
        <ele>1065</ele>
        <time>2021-04-12T23:43:30Z</time>
      </trkpt>
      <trkpt lat="44.20896" lon="3.46757">
        <ele>1066</ele>
        <time>2021-04-12T23:43:58Z</time>
      </trkpt>
      <trkpt lat="44.20882" lon="3.46753">
        <ele>1067</ele>
        <time>2021-04-12T23:44:17Z</time>
      </trkpt>
      <trkpt lat="44.20862" lon="3.46743">
        <ele>1069</ele>
        <time>2021-04-12T23:44:46Z</time>
      </trkpt>
      <trkpt lat="44.20839" lon="3.46727">
        <ele>1070</ele>
        <time>2021-04-12T23:45:20Z</time>
      </trkpt>
      <trkpt lat="44.20801" lon="3.46708">
        <ele>1069</ele>
        <time>2021-04-12T23:46:14Z</time>
      </trkpt>
      <trkpt lat="44.20789" lon="3.46699">
        <ele>1069</ele>
        <time>2021-04-12T23:46:32Z</time>
      </trkpt>
      <trkpt lat="44.20778" lon="3.46686">
        <ele>1069</ele>
        <time>2021-04-12T23:46:51Z</time>
      </trkpt>
      <trkpt lat="44.20765" lon="3.46665">
        <ele>1070</ele>
        <time>2021-04-12T23:47:18Z</time>
      </trkpt>
      <trkpt lat="44.20729" lon="3.46593">
        <ele>1071</ele>
        <time>2021-04-12T23:48:42Z</time>
      </trkpt>
      <trkpt lat="44.20715" lon="3.46572">
        <ele>1071</ele>
        <time>2021-04-12T23:49:09Z</time>
      </trkpt>
      <trkpt lat="44.20686" lon="3.46536">
        <ele>1072</ele>
        <time>2021-04-12T23:50:01Z</time>
      </trkpt>
      <trkpt lat="44.20677" lon="3.46519">
        <ele>1073</ele>
        <time>2021-04-12T23:50:21Z</time>
      </trkpt>
      <trkpt lat="44.20662" lon="3.46479">
        <ele>1076</ele>
        <time>2021-04-12T23:51:04Z</time>
      </trkpt>
      <trkpt lat="44.20632" lon="3.46416">
        <ele>1082</ele>
        <time>2021-04-12T23:52:17Z</time>
      </trkpt>
      <trkpt lat="44.20598" lon="3.46361">
        <ele>1084</ele>
        <time>2021-04-12T23:53:26Z</time>
      </trkpt>
      <trkpt lat="44.20543" lon="3.46277">
        <ele>1087</ele>
        <time>2021-04-12T23:55:15Z</time>
      </trkpt>
      <trkpt lat="44.20531" lon="3.46253">
        <ele>1088</ele>
        <time>2021-04-12T23:55:43Z</time>
      </trkpt>
      <trkpt lat="44.20503" lon="3.46172">
        <ele>1089</ele>
        <time>2021-04-12T23:57:09Z</time>
      </trkpt>
      <trkpt lat="44.20495" lon="3.46144">
        <ele>1089</ele>
        <time>2021-04-12T23:57:38Z</time>
      </trkpt>
      <trkpt lat="44.20482" lon="3.46075">
        <ele>1087</ele>
        <time>2021-04-12T23:58:46Z</time>
      </trkpt>
      <trkpt lat="44.20472" lon="3.46033">
        <ele>1083</ele>
        <time>2021-04-12T23:59:29Z</time>
      </trkpt>
      <trkpt lat="44.20452" lon="3.45974">
        <ele>1076</ele>
        <time>2021-04-13T00:00:31Z</time>
      </trkpt>
      <trkpt lat="44.20412" lon="3.45866">
        <ele>1069</ele>
        <time>2021-04-13T00:02:27Z</time>
      </trkpt>
      <trkpt lat="44.20385" lon="3.45783">
        <ele>1063</ele>
        <time>2021-04-13T00:03:54Z</time>
      </trkpt>
      <trkpt lat="44.20373" lon="3.4573">
        <ele>1060</ele>
        <time>2021-04-13T00:04:48Z</time>
      </trkpt>
      <trkpt lat="44.20348" lon="3.45593">
        <ele>1057</ele>
        <time>2021-04-13T00:07:03Z</time>
      </trkpt>
      <trkpt lat="44.20344" lon="3.45559">
        <ele>1057</ele>
        <time>2021-04-13T00:07:36Z</time>
      </trkpt>
      <trkpt lat="44.20344" lon="3.45539">
        <ele>1057</ele>
        <time>2021-04-13T00:07:55Z</time>
      </trkpt>
      <trkpt lat="44.20346" lon="3.4552">
        <ele>1057</ele>
        <time>2021-04-13T00:08:13Z</time>
      </trkpt>
      <trkpt lat="44.20363" lon="3.45466">
        <ele>1056</ele>
        <time>2021-04-13T00:09:10Z</time>
      </trkpt>
      <trkpt lat="44.20413" lon="3.45355">
        <ele>1060</ele>
        <time>2021-04-13T00:11:15Z</time>
      </trkpt>
      <trkpt lat="44.20434" lon="3.45315">
        <ele>1059</ele>
        <time>2021-04-13T00:12:03Z</time>
      </trkpt>
      <trkpt lat="44.20445" lon="3.453">
        <ele>1058</ele>
        <time>2021-04-13T00:12:23Z</time>
      </trkpt>
      <trkpt lat="44.20453" lon="3.45294">
        <ele>1058</ele>
        <time>2021-04-13T00:12:35Z</time>
      </trkpt>
      <trkpt lat="44.20464" lon="3.45291">
        <ele>1058</ele>
        <time>2021-04-13T00:12:50Z</time>
      </trkpt>
      <trkpt lat="44.20472" lon="3.45292">
        <ele>1058</ele>
        <time>2021-04-13T00:13:01Z</time>
      </trkpt>
      <trkpt lat="44.20483" lon="3.453">
        <ele>1057</ele>
        <time>2021-04-13T00:13:17Z</time>
      </trkpt>
      <trkpt lat="44.20492" lon="3.45338">
        <ele>1056</ele>
        <time>2021-04-13T00:13:56Z</time>
      </trkpt>
      <trkpt lat="44.20495" lon="3.4533">
        <ele>1056</ele>
        <time>2021-04-13T00:14:04Z</time>
      </trkpt>
      <trkpt lat="44.20536" lon="3.45299">
        <ele>1055</ele>
        <time>2021-04-13T00:15:07Z</time>
      </trkpt>
      <trkpt lat="44.20542" lon="3.45291">
        <ele>1055</ele>
        <time>2021-04-13T00:15:18Z</time>
      </trkpt>
      <trkpt lat="44.2055" lon="3.45274">
        <ele>1055</ele>
        <time>2021-04-13T00:15:37Z</time>
      </trkpt>
      <trkpt lat="44.20577" lon="3.45247">
        <ele>1053</ele>
        <time>2021-04-13T00:16:22Z</time>
      </trkpt>
      <trkpt lat="44.20588" lon="3.45233">
        <ele>1052</ele>
        <time>2021-04-13T00:16:41Z</time>
      </trkpt>
      <trkpt lat="44.20598" lon="3.45216">
        <ele>1051</ele>
        <time>2021-04-13T00:17:02Z</time>
      </trkpt>
      <trkpt lat="44.20602" lon="3.45198">
        <ele>1050</ele>
        <time>2021-04-13T00:17:20Z</time>
      </trkpt>
      <trkpt lat="44.20601" lon="3.45162">
        <ele>1049</ele>
        <time>2021-04-13T00:17:55Z</time>
      </trkpt>
      <trkpt lat="44.20606" lon="3.45117">
        <ele>1048</ele>
        <time>2021-04-13T00:18:38Z</time>
      </trkpt>
      <trkpt lat="44.20602" lon="3.45093">
        <ele>1049</ele>
        <time>2021-04-13T00:19:02Z</time>
      </trkpt>
      <trkpt lat="44.20602" lon="3.45068">
        <ele>1049</ele>
        <time>2021-04-13T00:19:26Z</time>
      </trkpt>
      <trkpt lat="44.20595" lon="3.45033">
        <ele>1049</ele>
        <time>2021-04-13T00:20:01Z</time>
      </trkpt>
      <trkpt lat="44.2059" lon="3.45019">
        <ele>1049</ele>
        <time>2021-04-13T00:20:16Z</time>
      </trkpt>
      <trkpt lat="44.20557" lon="3.44947">
        <ele>1045</ele>
        <time>2021-04-13T00:21:37Z</time>
      </trkpt>
      <trkpt lat="44.20548" lon="3.44923">
        <ele>1044</ele>
        <time>2021-04-13T00:22:03Z</time>
      </trkpt>
      <trkpt lat="44.20527" lon="3.44886">
        <ele>1043</ele>
        <time>2021-04-13T00:22:48Z</time>
      </trkpt>
      <trkpt lat="44.20514" lon="3.44874">
        <ele>1043</ele>
        <time>2021-04-13T00:23:09Z</time>
      </trkpt>
      <trkpt lat="44.20495" lon="3.44843">
        <ele>1043</ele>
        <time>2021-04-13T00:23:48Z</time>
      </trkpt>
      <trkpt lat="44.2049" lon="3.44832">
        <ele>1042</ele>
        <time>2021-04-13T00:24:01Z</time>
      </trkpt>
      <trkpt lat="44.20487" lon="3.4482">
        <ele>1042</ele>
        <time>2021-04-13T00:24:13Z</time>
      </trkpt>
      <trkpt lat="44.20483" lon="3.44794">
        <ele>1042</ele>
        <time>2021-04-13T00:24:38Z</time>
      </trkpt>
      <trkpt lat="44.20479" lon="3.44716">
        <ele>1042</ele>
        <time>2021-04-13T00:25:53Z</time>
      </trkpt>
      <trkpt lat="44.2048" lon="3.447">
        <ele>1042</ele>
        <time>2021-04-13T00:26:09Z</time>
      </trkpt>
      <trkpt lat="44.20497" lon="3.4464">
        <ele>1040</ele>
        <time>2021-04-13T00:27:10Z</time>
      </trkpt>
      <trkpt lat="44.20498" lon="3.44628">
        <ele>1040</ele>
        <time>2021-04-13T00:27:22Z</time>
      </trkpt>
      <trkpt lat="44.20491" lon="3.44574">
        <ele>1036</ele>
        <time>2021-04-13T00:28:14Z</time>
      </trkpt>
      <trkpt lat="44.2047" lon="3.44523">
        <ele>1031</ele>
        <time>2021-04-13T00:29:11Z</time>
      </trkpt>
      <trkpt lat="44.20467" lon="3.44509">
        <ele>1030</ele>
        <time>2021-04-13T00:29:25Z</time>
      </trkpt>
      <trkpt lat="44.20465" lon="3.44478">
        <ele>1027</ele>
        <time>2021-04-13T00:29:54Z</time>
      </trkpt>
      <trkpt lat="44.2047" lon="3.44446">
        <ele>1025</ele>
        <time>2021-04-13T00:30:26Z</time>
      </trkpt>
      <trkpt lat="44.20474" lon="3.4444">
        <ele>1025</ele>
        <time>2021-04-13T00:30:33Z</time>
      </trkpt>
      <trkpt lat="44.20461" lon="3.44439">
        <ele>1024</ele>
        <time>2021-04-13T00:30:51Z</time>
      </trkpt>
      <trkpt lat="44.20454" lon="3.44436">
        <ele>1024</ele>
        <time>2021-04-13T00:31:01Z</time>
      </trkpt>
      <trkpt lat="44.20466" lon="3.44358">
        <ele>1024</ele>
        <time>2021-04-13T00:32:17Z</time>
      </trkpt>
      <trkpt lat="44.20466" lon="3.44342">
        <ele>1024</ele>
        <time>2021-04-13T00:32:32Z</time>
      </trkpt>
      <trkpt lat="44.20456" lon="3.44256">
        <ele>1023</ele>
        <time>2021-04-13T00:33:56Z</time>
      </trkpt>
      <trkpt lat="44.20451" lon="3.44236">
        <ele>1023</ele>
        <time>2021-04-13T00:34:16Z</time>
      </trkpt>
      <trkpt lat="44.20439" lon="3.44165">
        <ele>1024</ele>
        <time>2021-04-13T00:35:26Z</time>
      </trkpt>
      <trkpt lat="44.20435" lon="3.44151">
        <ele>1025</ele>
        <time>2021-04-13T00:35:40Z</time>
      </trkpt>
      <trkpt lat="44.20424" lon="3.44125">
        <ele>1026</ele>
        <time>2021-04-13T00:36:09Z</time>
      </trkpt>
      <trkpt lat="44.2042" lon="3.44092">
        <ele>1027</ele>
        <time>2021-04-13T00:36:41Z</time>
      </trkpt>
      <trkpt lat="44.20416" lon="3.44082">
        <ele>1028</ele>
        <time>2021-04-13T00:36:52Z</time>
      </trkpt>
      <trkpt lat="44.20411" lon="3.44075">
        <ele>1028</ele>
        <time>2021-04-13T00:37:01Z</time>
      </trkpt>
      <trkpt lat="44.20375" lon="3.4405">
        <ele>1025</ele>
        <time>2021-04-13T00:37:55Z</time>
      </trkpt>
      <trkpt lat="44.20345" lon="3.44032">
        <ele>1024</ele>
        <time>2021-04-13T00:38:39Z</time>
      </trkpt>
      <trkpt lat="44.20331" lon="3.4402">
        <ele>1023</ele>
        <time>2021-04-13T00:39:01Z</time>
      </trkpt>
      <trkpt lat="44.20314" lon="3.44019">
        <ele>1023</ele>
        <time>2021-04-13T00:39:23Z</time>
      </trkpt>
      <trkpt lat="44.20263" lon="3.44005">
        <ele>1023</ele>
        <time>2021-04-13T00:40:33Z</time>
      </trkpt>
      <trkpt lat="44.20244" lon="3.43995">
        <ele>1022</ele>
        <time>2021-04-13T00:41:00Z</time>
      </trkpt>
      <trkpt lat="44.20232" lon="3.43992">
        <ele>1020</ele>
        <time>2021-04-13T00:41:16Z</time>
      </trkpt>
      <trkpt lat="44.20211" lon="3.43979">
        <ele>1018</ele>
        <time>2021-04-13T00:41:47Z</time>
      </trkpt>
      <trkpt lat="44.20185" lon="3.43973">
        <ele>1015</ele>
        <time>2021-04-13T00:42:22Z</time>
      </trkpt>
      <trkpt lat="44.20162" lon="3.43962">
        <ele>1012</ele>
        <time>2021-04-13T00:42:54Z</time>
      </trkpt>
      <trkpt lat="44.20152" lon="3.43951">
        <ele>1012</ele>
        <time>2021-04-13T00:43:11Z</time>
      </trkpt>
      <trkpt lat="44.20124" lon="3.43931">
        <ele>1009</ele>
        <time>2021-04-13T00:43:53Z</time>
      </trkpt>
      <trkpt lat="44.20038" lon="3.43897">
        <ele>1005</ele>
        <time>2021-04-13T00:45:52Z</time>
      </trkpt>
      <trkpt lat="44.20021" lon="3.43897">
        <ele>1004</ele>
        <time>2021-04-13T00:46:15Z</time>
      </trkpt>
      <trkpt lat="44.19969" lon="3.43872">
        <ele>1002</ele>
        <time>2021-04-13T00:47:29Z</time>
      </trkpt>
      <trkpt lat="44.19906" lon="3.43849">
        <ele>999</ele>
        <time>2021-04-13T00:48:55Z</time>
      </trkpt>
      <trkpt lat="44.19883" lon="3.43842">
        <ele>998</ele>
        <time>2021-04-13T00:49:27Z</time>
      </trkpt>
      <trkpt lat="44.19855" lon="3.43818">
        <ele>997</ele>
        <time>2021-04-13T00:50:11Z</time>
      </trkpt>
      <trkpt lat="44.19832" lon="3.43789">
        <ele>997</ele>
        <time>2021-04-13T00:50:52Z</time>
      </trkpt>
      <trkpt lat="44.19812" lon="3.43741">
        <ele>997</ele>
        <time>2021-04-13T00:51:45Z</time>
      </trkpt>
      <trkpt lat="44.1978" lon="3.43633">
        <ele>1003</ele>
        <time>2021-04-13T00:53:37Z</time>
      </trkpt>
      <trkpt lat="44.19763" lon="3.43609">
        <ele>1006</ele>
        <time>2021-04-13T00:54:09Z</time>
      </trkpt>
      <trkpt lat="44.19693" lon="3.43588">
        <ele>1009</ele>
        <time>2021-04-13T00:55:45Z</time>
      </trkpt>
      <trkpt lat="44.19666" lon="3.43584">
        <ele>1010</ele>
        <time>2021-04-13T00:56:21Z</time>
      </trkpt>
      <trkpt lat="44.19641" lon="3.43566">
        <ele>1007</ele>
        <time>2021-04-13T00:56:59Z</time>
      </trkpt>
      <trkpt lat="44.19623" lon="3.43538">
        <ele>1007</ele>
        <time>2021-04-13T00:57:35Z</time>
      </trkpt>
      <trkpt lat="44.19617" lon="3.4351">
        <ele>1011</ele>
        <time>2021-04-13T00:58:03Z</time>
      </trkpt>
      <trkpt lat="44.19602" lon="3.43495">
        <ele>1011</ele>
        <time>2021-04-13T00:58:27Z</time>
      </trkpt>
      <trkpt lat="44.19587" lon="3.43491">
        <ele>1010</ele>
        <time>2021-04-13T00:58:48Z</time>
      </trkpt>
      <trkpt lat="44.1957" lon="3.43505">
        <ele>1007</ele>
        <time>2021-04-13T00:59:14Z</time>
      </trkpt>
      <trkpt lat="44.19546" lon="3.43505">
        <ele>1006</ele>
        <time>2021-04-13T00:59:46Z</time>
      </trkpt>
      <trkpt lat="44.19491" lon="3.43457">
        <ele>1013</ele>
        <time>2021-04-13T01:01:13Z</time>
      </trkpt>
      <trkpt lat="44.19382" lon="3.43433">
        <ele>1014</ele>
        <time>2021-04-13T01:03:40Z</time>
      </trkpt>
      <trkpt lat="44.19327" lon="3.43381">
        <ele>1022</ele>
        <time>2021-04-13T01:05:08Z</time>
      </trkpt>
      <trkpt lat="44.19255" lon="3.43353">
        <ele>1020</ele>
        <time>2021-04-13T01:06:48Z</time>
      </trkpt>
      <trkpt lat="44.19222" lon="3.43343">
        <ele>1019</ele>
        <time>2021-04-13T01:07:33Z</time>
      </trkpt>
      <trkpt lat="44.19212" lon="3.43344">
        <ele>1018</ele>
        <time>2021-04-13T01:07:47Z</time>
      </trkpt>
      <trkpt lat="44.19147" lon="3.43316">
        <ele>1011</ele>
        <time>2021-04-13T01:09:17Z</time>
      </trkpt>
      <trkpt lat="44.19138" lon="3.43308">
        <ele>1010</ele>
        <time>2021-04-13T01:09:32Z</time>
      </trkpt>
      <trkpt lat="44.19131" lon="3.43285">
        <ele>1008</ele>
        <time>2021-04-13T01:09:56Z</time>
      </trkpt>
      <trkpt lat="44.19129" lon="3.43231">
        <ele>1005</ele>
        <time>2021-04-13T01:10:47Z</time>
      </trkpt>
      <trkpt lat="44.19146" lon="3.4316">
        <ele>1004</ele>
        <time>2021-04-13T01:11:59Z</time>
      </trkpt>
      <trkpt lat="44.19123" lon="3.4311">
        <ele>1003</ele>
        <time>2021-04-13T01:12:56Z</time>
      </trkpt>
      <trkpt lat="44.19079" lon="3.43043">
        <ele>1002</ele>
        <time>2021-04-13T01:14:23Z</time>
      </trkpt>
      <trkpt lat="44.19062" lon="3.43043">
        <ele>999</ele>
        <time>2021-04-13T01:14:45Z</time>
      </trkpt>
      <trkpt lat="44.19038" lon="3.43053">
        <ele>994</ele>
        <time>2021-04-13T01:15:19Z</time>
      </trkpt>
      <trkpt lat="44.19031" lon="3.43053">
        <ele>993</ele>
        <time>2021-04-13T01:15:28Z</time>
      </trkpt>
      <trkpt lat="44.19025" lon="3.43049">
        <ele>993</ele>
        <time>2021-04-13T01:15:37Z</time>
      </trkpt>
      <trkpt lat="44.19023" lon="3.43039">
        <ele>993</ele>
        <time>2021-04-13T01:15:47Z</time>
      </trkpt>
      <trkpt lat="44.19022" lon="3.43025">
        <ele>994</ele>
        <time>2021-04-13T01:16:00Z</time>
      </trkpt>
      <trkpt lat="44.1902" lon="3.43017">
        <ele>994</ele>
        <time>2021-04-13T01:16:09Z</time>
      </trkpt>
      <trkpt lat="44.19012" lon="3.43013">
        <ele>993</ele>
        <time>2021-04-13T01:16:20Z</time>
      </trkpt>
      <trkpt lat="44.18909" lon="3.43059">
        <ele>974</ele>
        <time>2021-04-13T01:18:44Z</time>
      </trkpt>
      <trkpt lat="44.18843" lon="3.43059">
        <ele>963</ele>
        <time>2021-04-13T01:20:12Z</time>
      </trkpt>
      <trkpt lat="44.18837" lon="3.43066">
        <ele>962</ele>
        <time>2021-04-13T01:20:23Z</time>
      </trkpt>
      <trkpt lat="44.18819" lon="3.43066">
        <ele>959</ele>
        <time>2021-04-13T01:20:47Z</time>
      </trkpt>
      <trkpt lat="44.18818" lon="3.4307">
        <ele>958</ele>
        <time>2021-04-13T01:20:51Z</time>
      </trkpt>
      <trkpt lat="44.18819" lon="3.43096">
        <ele>957</ele>
        <time>2021-04-13T01:21:16Z</time>
      </trkpt>
      <trkpt lat="44.18816" lon="3.43106">
        <ele>956</ele>
        <time>2021-04-13T01:21:26Z</time>
      </trkpt>
      <trkpt lat="44.18806" lon="3.43121">
        <ele>954</ele>
        <time>2021-04-13T01:21:46Z</time>
      </trkpt>
      <trkpt lat="44.18792" lon="3.43131">
        <ele>951</ele>
        <time>2021-04-13T01:22:07Z</time>
      </trkpt>
      <trkpt lat="44.18771" lon="3.43157">
        <ele>946</ele>
        <time>2021-04-13T01:22:44Z</time>
      </trkpt>
      <trkpt lat="44.18765" lon="3.43159">
        <ele>944</ele>
        <time>2021-04-13T01:22:52Z</time>
      </trkpt>
      <trkpt lat="44.18732" lon="3.43149">
        <ele>936</ele>
        <time>2021-04-13T01:23:37Z</time>
      </trkpt>
      <trkpt lat="44.18723" lon="3.43149">
        <ele>932</ele>
        <time>2021-04-13T01:23:49Z</time>
      </trkpt>
      <trkpt lat="44.18718" lon="3.43146">
        <ele>931</ele>
        <time>2021-04-13T01:23:57Z</time>
      </trkpt>
      <trkpt lat="44.18715" lon="3.43139">
        <ele>931</ele>
        <time>2021-04-13T01:24:05Z</time>
      </trkpt>
      <trkpt lat="44.18708" lon="3.43111">
        <ele>933</ele>
        <time>2021-04-13T01:24:33Z</time>
      </trkpt>
      <trkpt lat="44.18705" lon="3.43105">
        <ele>933</ele>
        <time>2021-04-13T01:24:40Z</time>
      </trkpt>
      <trkpt lat="44.18696" lon="3.43105">
        <ele>931</ele>
        <time>2021-04-13T01:24:52Z</time>
      </trkpt>
      <trkpt lat="44.18685" lon="3.43109">
        <ele>927</ele>
        <time>2021-04-13T01:25:07Z</time>
      </trkpt>
      <trkpt lat="44.18681" lon="3.43107">
        <ele>926</ele>
        <time>2021-04-13T01:25:13Z</time>
      </trkpt>
      <trkpt lat="44.18679" lon="3.43102">
        <ele>927</ele>
        <time>2021-04-13T01:25:18Z</time>
      </trkpt>
      <trkpt lat="44.18678" lon="3.43096">
        <ele>928</ele>
        <time>2021-04-13T01:25:24Z</time>
      </trkpt>
      <trkpt lat="44.1868" lon="3.43087">
        <ele>930</ele>
        <time>2021-04-13T01:25:33Z</time>
      </trkpt>
      <trkpt lat="44.18684" lon="3.43076">
        <ele>932</ele>
        <time>2021-04-13T01:25:45Z</time>
      </trkpt>
      <trkpt lat="44.18692" lon="3.43064">
        <ele>934</ele>
        <time>2021-04-13T01:26:01Z</time>
      </trkpt>
      <trkpt lat="44.18693" lon="3.43059">
        <ele>934</ele>
        <time>2021-04-13T01:26:06Z</time>
      </trkpt>
      <trkpt lat="44.18691" lon="3.43055">
        <ele>934</ele>
        <time>2021-04-13T01:26:10Z</time>
      </trkpt>
      <trkpt lat="44.18688" lon="3.43053">
        <ele>934</ele>
        <time>2021-04-13T01:26:15Z</time>
      </trkpt>
      <trkpt lat="44.18667" lon="3.4306">
        <ele>929</ele>
        <time>2021-04-13T01:26:44Z</time>
      </trkpt>
      <trkpt lat="44.18604" lon="3.43068">
        <ele>917</ele>
        <time>2021-04-13T01:28:08Z</time>
      </trkpt>
      <trkpt lat="44.18574" lon="3.43074">
        <ele>910</ele>
        <time>2021-04-13T01:28:48Z</time>
      </trkpt>
      <trkpt lat="44.18569" lon="3.43073">
        <ele>909</ele>
        <time>2021-04-13T01:28:55Z</time>
      </trkpt>
      <trkpt lat="44.18564" lon="3.43066">
        <ele>908</ele>
        <time>2021-04-13T01:29:05Z</time>
      </trkpt>
      <trkpt lat="44.18544" lon="3.43">
        <ele>907</ele>
        <time>2021-04-13T01:30:13Z</time>
      </trkpt>
      <trkpt lat="44.18544" lon="3.42992">
        <ele>907</ele>
        <time>2021-04-13T01:30:21Z</time>
      </trkpt>
      <trkpt lat="44.18549" lon="3.42962">
        <ele>908</ele>
        <time>2021-04-13T01:30:50Z</time>
      </trkpt>
      <trkpt lat="44.18549" lon="3.42949">
        <ele>908</ele>
        <time>2021-04-13T01:31:03Z</time>
      </trkpt>
      <trkpt lat="44.18542" lon="3.42913">
        <ele>906</ele>
        <time>2021-04-13T01:31:38Z</time>
      </trkpt>
      <trkpt lat="44.18538" lon="3.429">
        <ele>906</ele>
        <time>2021-04-13T01:31:52Z</time>
      </trkpt>
      <trkpt lat="44.18522" lon="3.42877">
        <ele>902</ele>
        <time>2021-04-13T01:32:23Z</time>
      </trkpt>
      <trkpt lat="44.18504" lon="3.42844">
        <ele>898</ele>
        <time>2021-04-13T01:33:02Z</time>
      </trkpt>
      <trkpt lat="44.18496" lon="3.42817">
        <ele>893</ele>
        <time>2021-04-13T01:33:30Z</time>
      </trkpt>
      <trkpt lat="44.18495" lon="3.42808">
        <ele>891</ele>
        <time>2021-04-13T01:33:39Z</time>
      </trkpt>
      <trkpt lat="44.18503" lon="3.42796">
        <ele>892</ele>
        <time>2021-04-13T01:33:55Z</time>
      </trkpt>
      <trkpt lat="44.18532" lon="3.42742">
        <ele>893</ele>
        <time>2021-04-13T01:34:59Z</time>
      </trkpt>
      <trkpt lat="44.18575" lon="3.42676">
        <ele>889</ele>
        <time>2021-04-13T01:36:25Z</time>
      </trkpt>
      <trkpt lat="44.18622" lon="3.42599">
        <ele>882</ele>
        <time>2021-04-13T01:38:01Z</time>
      </trkpt>
      <trkpt lat="44.18694" lon="3.42468">
        <ele>867</ele>
        <time>2021-04-13T01:40:39Z</time>
      </trkpt>
      <trkpt lat="44.18712" lon="3.42431">
        <ele>865</ele>
        <time>2021-04-13T01:41:22Z</time>
      </trkpt>
      <trkpt lat="44.1874" lon="3.4233">
        <ele>851</ele>
        <time>2021-04-13T01:43:06Z</time>
      </trkpt>
      <trkpt lat="44.18728" lon="3.42342">
        <ele>849</ele>
        <time>2021-04-13T01:43:25Z</time>
      </trkpt>
      <trkpt lat="44.18727" lon="3.42347">
        <ele>850</ele>
        <time>2021-04-13T01:43:30Z</time>
      </trkpt>
      <trkpt lat="44.18699" lon="3.42403">
        <ele>851</ele>
        <time>2021-04-13T01:44:36Z</time>
      </trkpt>
      <trkpt lat="44.1864" lon="3.42466">
        <ele>842</ele>
        <time>2021-04-13T01:46:15Z</time>
      </trkpt>
      <trkpt lat="44.18592" lon="3.42501">
        <ele>834</ele>
        <time>2021-04-13T01:47:27Z</time>
      </trkpt>
      <trkpt lat="44.18542" lon="3.42552">
        <ele>832</ele>
        <time>2021-04-13T01:48:50Z</time>
      </trkpt>
      <trkpt lat="44.18502" lon="3.42587">
        <ele>826</ele>
        <time>2021-04-13T01:49:53Z</time>
      </trkpt>
      <trkpt lat="44.18388" lon="3.42681">
        <ele>810</ele>
        <time>2021-04-13T01:52:50Z</time>
      </trkpt>
      <trkpt lat="44.18357" lon="3.42709">
        <ele>808</ele>
        <time>2021-04-13T01:53:39Z</time>
      </trkpt>
      <trkpt lat="44.18354" lon="3.42715">
        <ele>808</ele>
        <time>2021-04-13T01:53:46Z</time>
      </trkpt>
      <trkpt lat="44.1833" lon="3.4273">
        <ele>803</ele>
        <time>2021-04-13T01:54:21Z</time>
      </trkpt>
      <trkpt lat="44.18308" lon="3.4275">
        <ele>799</ele>
        <time>2021-04-13T01:54:56Z</time>
      </trkpt>
      <trkpt lat="44.18278" lon="3.42796">
        <ele>789</ele>
        <time>2021-04-13T01:55:55Z</time>
      </trkpt>
      <trkpt lat="44.18268" lon="3.42824">
        <ele>787</ele>
        <time>2021-04-13T01:56:25Z</time>
      </trkpt>
      <trkpt lat="44.18264" lon="3.42831">
        <ele>785</ele>
        <time>2021-04-13T01:56:34Z</time>
      </trkpt>
      <trkpt lat="44.18256" lon="3.42859">
        <ele>779</ele>
        <time>2021-04-13T01:57:03Z</time>
      </trkpt>
      <trkpt lat="44.18252" lon="3.42861">
        <ele>777</ele>
        <time>2021-04-13T01:57:08Z</time>
      </trkpt>
      <trkpt lat="44.18228" lon="3.42864">
        <ele>767</ele>
        <time>2021-04-13T01:57:41Z</time>
      </trkpt>
      <trkpt lat="44.18226" lon="3.42862">
        <ele>766</ele>
        <time>2021-04-13T01:57:44Z</time>
      </trkpt>
      <trkpt lat="44.18216" lon="3.42863">
        <ele>762</ele>
        <time>2021-04-13T01:57:57Z</time>
      </trkpt>
      <trkpt lat="44.18211" lon="3.4287">
        <ele>759</ele>
        <time>2021-04-13T01:58:07Z</time>
      </trkpt>
      <trkpt lat="44.18204" lon="3.42857">
        <ele>757</ele>
        <time>2021-04-13T01:58:22Z</time>
      </trkpt>
      <trkpt lat="44.18199" lon="3.42858">
        <ele>755</ele>
        <time>2021-04-13T01:58:29Z</time>
      </trkpt>
      <trkpt lat="44.1819" lon="3.42845">
        <ele>752</ele>
        <time>2021-04-13T01:58:46Z</time>
      </trkpt>
      <trkpt lat="44.18186" lon="3.42852">
        <ele>750</ele>
        <time>2021-04-13T01:58:55Z</time>
      </trkpt>
      <trkpt lat="44.1818" lon="3.42869">
        <ele>747</ele>
        <time>2021-04-13T01:59:13Z</time>
      </trkpt>
      <trkpt lat="44.18177" lon="3.42866">
        <ele>746</ele>
        <time>2021-04-13T01:59:18Z</time>
      </trkpt>
      <trkpt lat="44.18178" lon="3.42864">
        <ele>746</ele>
        <time>2021-04-13T01:59:20Z</time>
      </trkpt>
      <trkpt lat="44.18177" lon="3.42859">
        <ele>746</ele>
        <time>2021-04-13T01:59:25Z</time>
      </trkpt>
      <trkpt lat="44.18165" lon="3.42871">
        <ele>741</ele>
        <time>2021-04-13T01:59:45Z</time>
      </trkpt>
      <trkpt lat="44.1816" lon="3.42871">
        <ele>739</ele>
        <time>2021-04-13T01:59:52Z</time>
      </trkpt>
      <trkpt lat="44.18157" lon="3.42879">
        <ele>738</ele>
        <time>2021-04-13T02:00:00Z</time>
      </trkpt>
      <trkpt lat="44.18149" lon="3.42891">
        <ele>735</ele>
        <time>2021-04-13T02:00:16Z</time>
      </trkpt>
      <trkpt lat="44.18144" lon="3.42887">
        <ele>733</ele>
        <time>2021-04-13T02:00:24Z</time>
      </trkpt>
      <trkpt lat="44.18138" lon="3.42872">
        <ele>730</ele>
        <time>2021-04-13T02:00:40Z</time>
      </trkpt>
      <trkpt lat="44.18134" lon="3.42872">
        <ele>729</ele>
        <time>2021-04-13T02:00:45Z</time>
      </trkpt>
      <trkpt lat="44.18129" lon="3.42879">
        <ele>727</ele>
        <time>2021-04-13T02:00:55Z</time>
      </trkpt>
      <trkpt lat="44.18122" lon="3.42894">
        <ele>724</ele>
        <time>2021-04-13T02:01:12Z</time>
      </trkpt>
      <trkpt lat="44.18119" lon="3.42901">
        <ele>723</ele>
        <time>2021-04-13T02:01:20Z</time>
      </trkpt>
      <trkpt lat="44.18119" lon="3.4291">
        <ele>724</ele>
        <time>2021-04-13T02:01:28Z</time>
      </trkpt>
      <trkpt lat="44.18116" lon="3.42918">
        <ele>723</ele>
        <time>2021-04-13T02:01:37Z</time>
      </trkpt>
      <trkpt lat="44.18118" lon="3.42926">
        <ele>723</ele>
        <time>2021-04-13T02:01:45Z</time>
      </trkpt>
      <trkpt lat="44.18116" lon="3.42946">
        <ele>721</ele>
        <time>2021-04-13T02:02:04Z</time>
      </trkpt>
      <trkpt lat="44.18123" lon="3.4296">
        <ele>722</ele>
        <time>2021-04-13T02:02:21Z</time>
      </trkpt>
      <trkpt lat="44.18123" lon="3.42966">
        <ele>722</ele>
        <time>2021-04-13T02:02:27Z</time>
      </trkpt>
      <trkpt lat="44.18122" lon="3.42974">
        <ele>721</ele>
        <time>2021-04-13T02:02:34Z</time>
      </trkpt>
      <trkpt lat="44.1812" lon="3.42982">
        <ele>720</ele>
        <time>2021-04-13T02:02:42Z</time>
      </trkpt>
      <trkpt lat="44.18108" lon="3.42991">
        <ele>716</ele>
        <time>2021-04-13T02:03:01Z</time>
      </trkpt>
      <trkpt lat="44.18104" lon="3.42993">
        <ele>715</ele>
        <time>2021-04-13T02:03:06Z</time>
      </trkpt>
      <trkpt lat="44.18096" lon="3.42991">
        <ele>712</ele>
        <time>2021-04-13T02:03:17Z</time>
      </trkpt>
      <trkpt lat="44.18088" lon="3.42995">
        <ele>710</ele>
        <time>2021-04-13T02:03:28Z</time>
      </trkpt>
      <trkpt lat="44.18078" lon="3.42993">
        <ele>708</ele>
        <time>2021-04-13T02:03:42Z</time>
      </trkpt>
      <trkpt lat="44.18058" lon="3.42986">
        <ele>706</ele>
        <time>2021-04-13T02:04:09Z</time>
      </trkpt>
      <trkpt lat="44.18025" lon="3.42982">
        <ele>703</ele>
        <time>2021-04-13T02:04:54Z</time>
      </trkpt>
      <trkpt lat="44.18023" lon="3.4301">
        <ele>703</ele>
        <time>2021-04-13T02:05:21Z</time>
      </trkpt>
      <trkpt lat="44.18013" lon="3.43075">
        <ele>703</ele>
        <time>2021-04-13T02:06:24Z</time>
      </trkpt>
      <trkpt lat="44.17987" lon="3.4306">
        <ele>702</ele>
        <time>2021-04-13T02:07:02Z</time>
      </trkpt>
      <trkpt lat="44.17956" lon="3.43042">
        <ele>702</ele>
        <time>2021-04-13T02:07:47Z</time>
      </trkpt>
      <trkpt lat="44.17955" lon="3.43041">
        <ele>702</ele>
        <time>2021-04-13T02:07:48Z</time>
      </trkpt>
      <trkpt lat="44.17937" lon="3.4303">
        <ele>702</ele>
        <time>2021-04-13T02:08:14Z</time>
      </trkpt>
      <trkpt lat="44.17934" lon="3.43025">
        <ele>702</ele>
        <time>2021-04-13T02:08:21Z</time>
      </trkpt>
      <trkpt lat="44.17933" lon="3.43018">
        <ele>702</ele>
        <time>2021-04-13T02:08:28Z</time>
      </trkpt>
      <trkpt lat="44.17905" lon="3.43018">
        <ele>702</ele>
        <time>2021-04-13T02:09:05Z</time>
      </trkpt>
      <trkpt lat="44.17868" lon="3.43031">
        <ele>704</ele>
        <time>2021-04-13T02:09:56Z</time>
      </trkpt>
      <trkpt lat="44.17868" lon="3.42998">
        <ele>703</ele>
        <time>2021-04-13T02:10:27Z</time>
      </trkpt>
      <trkpt lat="44.17871" lon="3.42961">
        <ele>704</ele>
        <time>2021-04-13T02:11:03Z</time>
      </trkpt>
      <trkpt lat="44.17849" lon="3.4294">
        <ele>704</ele>
        <time>2021-04-13T02:11:39Z</time>
      </trkpt>
      <trkpt lat="44.17837" lon="3.42922">
        <ele>704</ele>
        <time>2021-04-13T02:12:02Z</time>
      </trkpt>
      <trkpt lat="44.17834" lon="3.42925">
        <ele>704</ele>
        <time>2021-04-13T02:12:07Z</time>
      </trkpt>
      <trkpt lat="44.17818" lon="3.4295">
        <ele>704</ele>
        <time>2021-04-13T02:12:39Z</time>
      </trkpt>
      <trkpt lat="44.17789" lon="3.42942">
        <ele>704</ele>
        <time>2021-04-13T02:13:19Z</time>
      </trkpt>
      <trkpt lat="44.17783" lon="3.4293">
        <ele>704</ele>
        <time>2021-04-13T02:13:33Z</time>
      </trkpt>
      <trkpt lat="44.17775" lon="3.42926">
        <ele>704</ele>
        <time>2021-04-13T02:13:44Z</time>
      </trkpt>
      <trkpt lat="44.17742" lon="3.42935">
        <ele>704</ele>
        <time>2021-04-13T02:14:29Z</time>
      </trkpt>
      <trkpt lat="44.17726" lon="3.42934">
        <ele>705</ele>
        <time>2021-04-13T02:14:50Z</time>
      </trkpt>
      <trkpt lat="44.17714" lon="3.42937">
        <ele>705</ele>
        <time>2021-04-13T02:15:06Z</time>
      </trkpt>
      <trkpt lat="44.17709" lon="3.42941">
        <ele>705</ele>
        <time>2021-04-13T02:15:14Z</time>
      </trkpt>
      <trkpt lat="44.17664" lon="3.42998">
        <ele>708</ele>
        <time>2021-04-13T02:16:35Z</time>
      </trkpt>
      <trkpt lat="44.17647" lon="3.43021">
        <ele>708</ele>
        <time>2021-04-13T02:17:07Z</time>
      </trkpt>
      <trkpt lat="44.17626" lon="3.43035">
        <ele>707</ele>
        <time>2021-04-13T02:17:38Z</time>
      </trkpt>
      <trkpt lat="44.17579" lon="3.43061">
        <ele>707</ele>
        <time>2021-04-13T02:18:45Z</time>
      </trkpt>
      <trkpt lat="44.17547" lon="3.43083">
        <ele>708</ele>
        <time>2021-04-13T02:19:33Z</time>
      </trkpt>
      <trkpt lat="44.17526" lon="3.43101">
        <ele>709</ele>
        <time>2021-04-13T02:20:06Z</time>
      </trkpt>
      <trkpt lat="44.17482" lon="3.43123">
        <ele>711</ele>
        <time>2021-04-13T02:21:08Z</time>
      </trkpt>
      <trkpt lat="44.17462" lon="3.43126">
        <ele>711</ele>
        <time>2021-04-13T02:21:35Z</time>
      </trkpt>
      <trkpt lat="44.1743" lon="3.43123">
        <ele>711</ele>
        <time>2021-04-13T02:22:18Z</time>
      </trkpt>
      <trkpt lat="44.17398" lon="3.43127">
        <ele>711</ele>
        <time>2021-04-13T02:23:01Z</time>
      </trkpt>
      <trkpt lat="44.17392" lon="3.43134">
        <ele>711</ele>
        <time>2021-04-13T02:23:11Z</time>
      </trkpt>
      <trkpt lat="44.17389" lon="3.43132">
        <ele>711</ele>
        <time>2021-04-13T02:23:16Z</time>
      </trkpt>
      <trkpt lat="44.17376" lon="3.43132">
        <ele>711</ele>
        <time>2021-04-13T02:23:33Z</time>
      </trkpt>
      <trkpt lat="44.17356" lon="3.43142">
        <ele>711</ele>
        <time>2021-04-13T02:24:01Z</time>
      </trkpt>
      <trkpt lat="44.17318" lon="3.43155">
        <ele>711</ele>
        <time>2021-04-13T02:24:54Z</time>
      </trkpt>
      <trkpt lat="44.17288" lon="3.43174">
        <ele>712</ele>
        <time>2021-04-13T02:25:38Z</time>
      </trkpt>
      <trkpt lat="44.17274" lon="3.43188">
        <ele>713</ele>
        <time>2021-04-13T02:26:01Z</time>
      </trkpt>
      <trkpt lat="44.17269" lon="3.43189">
        <ele>713</ele>
        <time>2021-04-13T02:26:07Z</time>
      </trkpt>
      <trkpt lat="44.17266" lon="3.43188">
        <ele>713</ele>
        <time>2021-04-13T02:26:11Z</time>
      </trkpt>
      <trkpt lat="44.17263" lon="3.4318">
        <ele>713</ele>
        <time>2021-04-13T02:26:20Z</time>
      </trkpt>
      <trkpt lat="44.17257" lon="3.43168">
        <ele>712</ele>
        <time>2021-04-13T02:26:34Z</time>
      </trkpt>
      <trkpt lat="44.17255" lon="3.43163">
        <ele>712</ele>
        <time>2021-04-13T02:26:40Z</time>
      </trkpt>
      <trkpt lat="44.17226" lon="3.43178">
        <ele>713</ele>
        <time>2021-04-13T02:27:21Z</time>
      </trkpt>
      <trkpt lat="44.17083" lon="3.43236">
        <ele>720</ele>
        <time>2021-04-13T02:30:40Z</time>
      </trkpt>
      <trkpt lat="44.17039" lon="3.43242">
        <ele>723</ele>
        <time>2021-04-13T02:31:39Z</time>
      </trkpt>
      <trkpt lat="44.16998" lon="3.43241">
        <ele>727</ele>
        <time>2021-04-13T02:32:33Z</time>
      </trkpt>
      <trkpt lat="44.16973" lon="3.43239">
        <ele>733</ele>
        <time>2021-04-13T02:33:07Z</time>
      </trkpt>
      <trkpt lat="44.16923" lon="3.43277">
        <ele>735</ele>
        <time>2021-04-13T02:34:23Z</time>
      </trkpt>
      <trkpt lat="44.16858" lon="3.43347">
        <ele>734</ele>
        <time>2021-04-13T02:36:12Z</time>
      </trkpt>
      <trkpt lat="44.1685" lon="3.43354">
        <ele>735</ele>
        <time>2021-04-13T02:36:25Z</time>
      </trkpt>
      <trkpt lat="44.16839" lon="3.43361">
        <ele>735</ele>
        <time>2021-04-13T02:36:41Z</time>
      </trkpt>
      <trkpt lat="44.16812" lon="3.43375">
        <ele>738</ele>
        <time>2021-04-13T02:37:19Z</time>
      </trkpt>
      <trkpt lat="44.16806" lon="3.43383">
        <ele>737</ele>
        <time>2021-04-13T02:37:31Z</time>
      </trkpt>
      <trkpt lat="44.16804" lon="3.43387">
        <ele>737</ele>
        <time>2021-04-13T02:37:35Z</time>
      </trkpt>
      <trkpt lat="44.16798" lon="3.43405">
        <ele>733</ele>
        <time>2021-04-13T02:37:54Z</time>
      </trkpt>
      <trkpt lat="44.16726" lon="3.43634">
        <ele>736</ele>
        <time>2021-04-13T02:41:54Z</time>
      </trkpt>
      <trkpt lat="44.16712" lon="3.43666">
        <ele>739</ele>
        <time>2021-04-13T02:42:29Z</time>
      </trkpt>
      <trkpt lat="44.167" lon="3.43681">
        <ele>739</ele>
        <time>2021-04-13T02:42:51Z</time>
      </trkpt>
      <trkpt lat="44.16678" lon="3.43705">
        <ele>738</ele>
        <time>2021-04-13T02:43:28Z</time>
      </trkpt>
      <trkpt lat="44.16652" lon="3.43744">
        <ele>739</ele>
        <time>2021-04-13T02:44:19Z</time>
      </trkpt>
      <trkpt lat="44.16638" lon="3.43761">
        <ele>742</ele>
        <time>2021-04-13T02:44:44Z</time>
      </trkpt>
      <trkpt lat="44.16609" lon="3.43788">
        <ele>745</ele>
        <time>2021-04-13T02:45:30Z</time>
      </trkpt>
      <trkpt lat="44.16569" lon="3.43809">
        <ele>744</ele>
        <time>2021-04-13T02:46:28Z</time>
      </trkpt>
      <trkpt lat="44.1652" lon="3.43824">
        <ele>742</ele>
        <time>2021-04-13T02:47:34Z</time>
      </trkpt>
      <trkpt lat="44.16499" lon="3.43836">
        <ele>742</ele>
        <time>2021-04-13T02:48:05Z</time>
      </trkpt>
      <trkpt lat="44.16468" lon="3.43862">
        <ele>746</ele>
        <time>2021-04-13T02:48:53Z</time>
      </trkpt>
      <trkpt lat="44.16461" lon="3.43875">
        <ele>749</ele>
        <time>2021-04-13T02:49:09Z</time>
      </trkpt>
      <trkpt lat="44.1645" lon="3.43917">
        <ele>757</ele>
        <time>2021-04-13T02:49:51Z</time>
      </trkpt>
      <trkpt lat="44.16442" lon="3.43936">
        <ele>761</ele>
        <time>2021-04-13T02:50:12Z</time>
      </trkpt>
      <trkpt lat="44.16431" lon="3.43944">
        <ele>762</ele>
        <time>2021-04-13T02:50:29Z</time>
      </trkpt>
      <trkpt lat="44.16422" lon="3.43947">
        <ele>761</ele>
        <time>2021-04-13T02:50:41Z</time>
      </trkpt>
      <trkpt lat="44.16412" lon="3.43947">
        <ele>760</ele>
        <time>2021-04-13T02:50:55Z</time>
      </trkpt>
      <trkpt lat="44.16396" lon="3.43944">
        <ele>756</ele>
        <time>2021-04-13T02:51:16Z</time>
      </trkpt>
      <trkpt lat="44.16374" lon="3.43948">
        <ele>753</ele>
        <time>2021-04-13T02:51:46Z</time>
      </trkpt>
      <trkpt lat="44.16311" lon="3.43996">
        <ele>755</ele>
        <time>2021-04-13T02:53:22Z</time>
      </trkpt>
      <trkpt lat="44.16278" lon="3.44011">
        <ele>755</ele>
        <time>2021-04-13T02:54:08Z</time>
      </trkpt>
      <trkpt lat="44.16256" lon="3.44019">
        <ele>754</ele>
        <time>2021-04-13T02:54:38Z</time>
      </trkpt>
      <trkpt lat="44.16232" lon="3.44025">
        <ele>754</ele>
        <time>2021-04-13T02:55:11Z</time>
      </trkpt>
      <trkpt lat="44.16203" lon="3.4403">
        <ele>755</ele>
        <time>2021-04-13T02:55:50Z</time>
      </trkpt>
      <trkpt lat="44.16104" lon="3.44041">
        <ele>759</ele>
        <time>2021-04-13T02:58:02Z</time>
      </trkpt>
      <trkpt lat="44.16035" lon="3.44064">
        <ele>764</ele>
        <time>2021-04-13T02:59:37Z</time>
      </trkpt>
      <trkpt lat="44.15938" lon="3.44084">
        <ele>759</ele>
        <time>2021-04-13T03:01:48Z</time>
      </trkpt>
      <trkpt lat="44.15896" lon="3.44109">
        <ele>762</ele>
        <time>2021-04-13T03:02:49Z</time>
      </trkpt>
      <trkpt lat="44.15846" lon="3.44146">
        <ele>761</ele>
        <time>2021-04-13T03:04:04Z</time>
      </trkpt>
      <trkpt lat="44.15834" lon="3.44159">
        <ele>760</ele>
        <time>2021-04-13T03:04:25Z</time>
      </trkpt>
      <trkpt lat="44.15812" lon="3.44196">
        <ele>767</ele>
        <time>2021-04-13T03:05:11Z</time>
      </trkpt>
      <trkpt lat="44.15796" lon="3.44239">
        <ele>771</ele>
        <time>2021-04-13T03:05:57Z</time>
      </trkpt>
      <trkpt lat="44.1579" lon="3.44263">
        <ele>773</ele>
        <time>2021-04-13T03:06:21Z</time>
      </trkpt>
      <trkpt lat="44.15783" lon="3.44271">
        <ele>772</ele>
        <time>2021-04-13T03:06:33Z</time>
      </trkpt>
      <trkpt lat="44.15752" lon="3.44288">
        <ele>764</ele>
        <time>2021-04-13T03:07:18Z</time>
      </trkpt>
      <trkpt lat="44.15702" lon="3.44329">
        <ele>762</ele>
        <time>2021-04-13T03:08:35Z</time>
      </trkpt>
      <trkpt lat="44.15677" lon="3.44347">
        <ele>762</ele>
        <time>2021-04-13T03:09:13Z</time>
      </trkpt>
      <trkpt lat="44.15606" lon="3.44373">
        <ele>762</ele>
        <time>2021-04-13T03:10:51Z</time>
      </trkpt>
      <trkpt lat="44.15548" lon="3.4443">
        <ele>763</ele>
        <time>2021-04-13T03:12:26Z</time>
      </trkpt>
      <trkpt lat="44.15524" lon="3.44452">
        <ele>763</ele>
        <time>2021-04-13T03:13:04Z</time>
      </trkpt>
      <trkpt lat="44.15496" lon="3.44488">
        <ele>762</ele>
        <time>2021-04-13T03:13:55Z</time>
      </trkpt>
      <trkpt lat="44.15437" lon="3.44534">
        <ele>765</ele>
        <time>2021-04-13T03:15:25Z</time>
      </trkpt>
      <trkpt lat="44.15393" lon="3.44576">
        <ele>769</ele>
        <time>2021-04-13T03:16:36Z</time>
      </trkpt>
      <trkpt lat="44.1537" lon="3.44588">
        <ele>769</ele>
        <time>2021-04-13T03:17:09Z</time>
      </trkpt>
      <trkpt lat="44.15324" lon="3.44617">
        <ele>770</ele>
        <time>2021-04-13T03:18:16Z</time>
      </trkpt>
      <trkpt lat="44.15282" lon="3.44666">
        <ele>773</ele>
        <time>2021-04-13T03:19:29Z</time>
      </trkpt>
      <trkpt lat="44.1525" lon="3.44696">
        <ele>774</ele>
        <time>2021-04-13T03:20:21Z</time>
      </trkpt>
      <trkpt lat="44.15212" lon="3.44724">
        <ele>776</ele>
        <time>2021-04-13T03:21:18Z</time>
      </trkpt>
      <trkpt lat="44.15192" lon="3.44747">
        <ele>776</ele>
        <time>2021-04-13T03:21:53Z</time>
      </trkpt>
      <trkpt lat="44.15176" lon="3.44759">
        <ele>775</ele>
        <time>2021-04-13T03:22:17Z</time>
      </trkpt>
      <trkpt lat="44.15137" lon="3.44771">
        <ele>773</ele>
        <time>2021-04-13T03:23:10Z</time>
      </trkpt>
      <trkpt lat="44.15109" lon="3.44789">
        <ele>772</ele>
        <time>2021-04-13T03:23:51Z</time>
      </trkpt>
      <trkpt lat="44.15067" lon="3.44804">
        <ele>770</ele>
        <time>2021-04-13T03:24:49Z</time>
      </trkpt>
      <trkpt lat="44.15022" lon="3.44834">
        <ele>769</ele>
        <time>2021-04-13T03:25:56Z</time>
      </trkpt>
      <trkpt lat="44.14998" lon="3.44854">
        <ele>771</ele>
        <time>2021-04-13T03:26:33Z</time>
      </trkpt>
      <trkpt lat="44.14876" lon="3.44983">
        <ele>775</ele>
        <time>2021-04-13T03:29:58Z</time>
      </trkpt>
      <trkpt lat="44.14844" lon="3.4502">
        <ele>774</ele>
        <time>2021-04-13T03:30:53Z</time>
      </trkpt>
      <trkpt lat="44.1479" lon="3.45101">
        <ele>777</ele>
        <time>2021-04-13T03:32:39Z</time>
      </trkpt>
      <trkpt lat="44.14768" lon="3.45136">
        <ele>779</ele>
        <time>2021-04-13T03:33:23Z</time>
      </trkpt>
      <trkpt lat="44.14756" lon="3.45163">
        <ele>781</ele>
        <time>2021-04-13T03:33:54Z</time>
      </trkpt>
      <trkpt lat="44.14749" lon="3.45189">
        <ele>783</ele>
        <time>2021-04-13T03:34:20Z</time>
      </trkpt>
      <trkpt lat="44.14746" lon="3.45211">
        <ele>785</ele>
        <time>2021-04-13T03:34:42Z</time>
      </trkpt>
      <trkpt lat="44.14758" lon="3.45245">
        <ele>788</ele>
        <time>2021-04-13T03:35:18Z</time>
      </trkpt>
      <trkpt lat="44.14774" lon="3.45332">
        <ele>799</ele>
        <time>2021-04-13T03:36:44Z</time>
      </trkpt>
      <trkpt lat="44.14764" lon="3.45393">
        <ele>798</ele>
        <time>2021-04-13T03:37:44Z</time>
      </trkpt>
      <trkpt lat="44.14755" lon="3.45502">
        <ele>800</ele>
        <time>2021-04-13T03:39:29Z</time>
      </trkpt>
      <trkpt lat="44.14766" lon="3.45566">
        <ele>810</ele>
        <time>2021-04-13T03:40:32Z</time>
      </trkpt>
      <trkpt lat="44.14766" lon="3.45576">
        <ele>810</ele>
        <time>2021-04-13T03:40:42Z</time>
      </trkpt>
      <trkpt lat="44.14753" lon="3.45611">
        <ele>805</ele>
        <time>2021-04-13T03:41:20Z</time>
      </trkpt>
      <trkpt lat="44.14745" lon="3.45642">
        <ele>805</ele>
        <time>2021-04-13T03:41:51Z</time>
      </trkpt>
      <trkpt lat="44.14708" lon="3.45718">
        <ele>809</ele>
        <time>2021-04-13T03:43:19Z</time>
      </trkpt>
      <trkpt lat="44.14699" lon="3.45756">
        <ele>809</ele>
        <time>2021-04-13T03:43:57Z</time>
      </trkpt>
      <trkpt lat="44.14693" lon="3.45794">
        <ele>807</ele>
        <time>2021-04-13T03:44:35Z</time>
      </trkpt>
      <trkpt lat="44.14697" lon="3.45841">
        <ele>808</ele>
        <time>2021-04-13T03:45:20Z</time>
      </trkpt>
      <trkpt lat="44.14686" lon="3.45874">
        <ele>807</ele>
        <time>2021-04-13T03:45:55Z</time>
      </trkpt>
      <trkpt lat="44.14685" lon="3.4591">
        <ele>807</ele>
        <time>2021-04-13T03:46:29Z</time>
      </trkpt>
      <trkpt lat="44.1468" lon="3.45945">
        <ele>807</ele>
        <time>2021-04-13T03:47:03Z</time>
      </trkpt>
      <trkpt lat="44.14671" lon="3.45985">
        <ele>804</ele>
        <time>2021-04-13T03:47:44Z</time>
      </trkpt>
      <trkpt lat="44.14673" lon="3.46008">
        <ele>806</ele>
        <time>2021-04-13T03:48:06Z</time>
      </trkpt>
      <trkpt lat="44.14671" lon="3.46044">
        <ele>808</ele>
        <time>2021-04-13T03:48:40Z</time>
      </trkpt>
      <trkpt lat="44.14663" lon="3.46122">
        <ele>817</ele>
        <time>2021-04-13T03:49:56Z</time>
      </trkpt>
      <trkpt lat="44.14653" lon="3.46146">
        <ele>820</ele>
        <time>2021-04-13T03:50:22Z</time>
      </trkpt>
      <trkpt lat="44.14589" lon="3.46219">
        <ele>816</ele>
        <time>2021-04-13T03:52:13Z</time>
      </trkpt>
      <trkpt lat="44.14565" lon="3.46255">
        <ele>817</ele>
        <time>2021-04-13T03:53:00Z</time>
      </trkpt>
      <trkpt lat="44.14557" lon="3.46279">
        <ele>820</ele>
        <time>2021-04-13T03:53:25Z</time>
      </trkpt>
      <trkpt lat="44.1456" lon="3.46315">
        <ele>823</ele>
        <time>2021-04-13T03:54:00Z</time>
      </trkpt>
      <trkpt lat="44.14556" lon="3.46371">
        <ele>825</ele>
        <time>2021-04-13T03:54:54Z</time>
      </trkpt>
      <trkpt lat="44.14546" lon="3.46456">
        <ele>825</ele>
        <time>2021-04-13T03:56:16Z</time>
      </trkpt>
      <trkpt lat="44.14539" lon="3.46569">
        <ele>828</ele>
        <time>2021-04-13T03:58:05Z</time>
      </trkpt>
      <trkpt lat="44.14548" lon="3.46605">
        <ele>830</ele>
        <time>2021-04-13T03:58:41Z</time>
      </trkpt>
      <trkpt lat="44.14541" lon="3.46611">
        <ele>830</ele>
        <time>2021-04-13T03:58:52Z</time>
      </trkpt>
      <trkpt lat="44.14534" lon="3.46615">
        <ele>830</ele>
        <time>2021-04-13T03:59:02Z</time>
      </trkpt>
      <trkpt lat="44.14529" lon="3.4662">
        <ele>831</ele>
        <time>2021-04-13T03:59:11Z</time>
      </trkpt>
      <trkpt lat="44.14531" lon="3.46678">
        <ele>833</ele>
        <time>2021-04-13T04:00:06Z</time>
      </trkpt>
      <trkpt lat="44.14518" lon="3.46719">
        <ele>832</ele>
        <time>2021-04-13T04:00:49Z</time>
      </trkpt>
      <trkpt lat="44.14505" lon="3.46789">
        <ele>828</ele>
        <time>2021-04-13T04:01:58Z</time>
      </trkpt>
      <trkpt lat="44.14494" lon="3.46811">
        <ele>827</ele>
        <time>2021-04-13T04:02:24Z</time>
      </trkpt>
      <trkpt lat="44.14454" lon="3.46851">
        <ele>828</ele>
        <time>2021-04-13T04:03:30Z</time>
      </trkpt>
      <trkpt lat="44.14444" lon="3.46855">
        <ele>828</ele>
        <time>2021-04-13T04:03:44Z</time>
      </trkpt>
      <trkpt lat="44.14428" lon="3.46861">
        <ele>829</ele>
        <time>2021-04-13T04:04:06Z</time>
      </trkpt>
      <trkpt lat="44.14422" lon="3.4687">
        <ele>828</ele>
        <time>2021-04-13T04:04:17Z</time>
      </trkpt>
      <trkpt lat="44.14396" lon="3.46896">
        <ele>828</ele>
        <time>2021-04-13T04:05:00Z</time>
      </trkpt>
      <trkpt lat="44.14389" lon="3.46896">
        <ele>829</ele>
        <time>2021-04-13T04:05:10Z</time>
      </trkpt>
      <trkpt lat="44.14378" lon="3.46872">
        <ele>833</ele>
        <time>2021-04-13T04:05:37Z</time>
      </trkpt>
      <trkpt lat="44.14353" lon="3.46886">
        <ele>835</ele>
        <time>2021-04-13T04:06:13Z</time>
      </trkpt>
      <trkpt lat="44.14342" lon="3.46896">
        <ele>835</ele>
        <time>2021-04-13T04:06:30Z</time>
      </trkpt>
      <trkpt lat="44.14323" lon="3.46935">
        <ele>837</ele>
        <time>2021-04-13T04:07:15Z</time>
      </trkpt>
      <trkpt lat="44.143" lon="3.46975">
        <ele>842</ele>
        <time>2021-04-13T04:08:04Z</time>
      </trkpt>
      <trkpt lat="44.14296" lon="3.46989">
        <ele>842</ele>
        <time>2021-04-13T04:08:19Z</time>
      </trkpt>
      <trkpt lat="44.14281" lon="3.46999">
        <ele>844</ele>
        <time>2021-04-13T04:08:41Z</time>
      </trkpt>
      <trkpt lat="44.14266" lon="3.46998">
        <ele>847</ele>
        <time>2021-04-13T04:09:01Z</time>
      </trkpt>
      <trkpt lat="44.14238" lon="3.46976">
        <ele>853</ele>
        <time>2021-04-13T04:09:44Z</time>
      </trkpt>
      <trkpt lat="44.14215" lon="3.46961">
        <ele>858</ele>
        <time>2021-04-13T04:10:18Z</time>
      </trkpt>
      <trkpt lat="44.14186" lon="3.46931">
        <ele>862</ele>
        <time>2021-04-13T04:11:06Z</time>
      </trkpt>
      <trkpt lat="44.14165" lon="3.46916">
        <ele>864</ele>
        <time>2021-04-13T04:11:38Z</time>
      </trkpt>
      <trkpt lat="44.14124" lon="3.46883">
        <ele>878</ele>
        <time>2021-04-13T04:12:41Z</time>
      </trkpt>
      <trkpt lat="44.14103" lon="3.46873">
        <ele>881</ele>
        <time>2021-04-13T04:13:10Z</time>
      </trkpt>
      <trkpt lat="44.14065" lon="3.46836">
        <ele>889</ele>
        <time>2021-04-13T04:14:12Z</time>
      </trkpt>
      <trkpt lat="44.14053" lon="3.4682">
        <ele>896</ele>
        <time>2021-04-13T04:14:34Z</time>
      </trkpt>
      <trkpt lat="44.14013" lon="3.4679">
        <ele>913</ele>
        <time>2021-04-13T04:15:35Z</time>
      </trkpt>
      <trkpt lat="44.14003" lon="3.46789">
        <ele>914</ele>
        <time>2021-04-13T04:15:48Z</time>
      </trkpt>
      <trkpt lat="44.13988" lon="3.46797">
        <ele>912</ele>
        <time>2021-04-13T04:16:10Z</time>
      </trkpt>
      <trkpt lat="44.13974" lon="3.46792">
        <ele>917</ele>
        <time>2021-04-13T04:16:29Z</time>
      </trkpt>
      <trkpt lat="44.13958" lon="3.46793">
        <ele>919</ele>
        <time>2021-04-13T04:16:51Z</time>
      </trkpt>
      <trkpt lat="44.13938" lon="3.46774">
        <ele>929</ele>
        <time>2021-04-13T04:17:23Z</time>
      </trkpt>
      <trkpt lat="44.13925" lon="3.46771">
        <ele>932</ele>
        <time>2021-04-13T04:17:40Z</time>
      </trkpt>
      <trkpt lat="44.13918" lon="3.46745">
        <ele>941</ele>
        <time>2021-04-13T04:18:07Z</time>
      </trkpt>
      <trkpt lat="44.13906" lon="3.46751">
        <ele>940</ele>
        <time>2021-04-13T04:18:24Z</time>
      </trkpt>
      <trkpt lat="44.13879" lon="3.46743">
        <ele>947</ele>
        <time>2021-04-13T04:19:01Z</time>
      </trkpt>
      <trkpt lat="44.13869" lon="3.46734">
        <ele>950</ele>
        <time>2021-04-13T04:19:17Z</time>
      </trkpt>
      <trkpt lat="44.13856" lon="3.46749">
        <ele>948</ele>
        <time>2021-04-13T04:19:39Z</time>
      </trkpt>
      <trkpt lat="44.13839" lon="3.46737">
        <ele>952</ele>
        <time>2021-04-13T04:20:05Z</time>
      </trkpt>
      <trkpt lat="44.13828" lon="3.46709">
        <ele>958</ele>
        <time>2021-04-13T04:20:35Z</time>
      </trkpt>
      <trkpt lat="44.13821" lon="3.46684">
        <ele>962</ele>
        <time>2021-04-13T04:21:01Z</time>
      </trkpt>
      <trkpt lat="44.13789" lon="3.46661">
        <ele>969</ele>
        <time>2021-04-13T04:21:49Z</time>
      </trkpt>
      <trkpt lat="44.13747" lon="3.46622">
        <ele>973</ele>
        <time>2021-04-13T04:22:56Z</time>
      </trkpt>
      <trkpt lat="44.13699" lon="3.46585">
        <ele>982</ele>
        <time>2021-04-13T04:24:10Z</time>
      </trkpt>
      <trkpt lat="44.13686" lon="3.4657">
        <ele>984</ele>
        <time>2021-04-13T04:24:32Z</time>
      </trkpt>
      <trkpt lat="44.13668" lon="3.46561">
        <ele>986</ele>
        <time>2021-04-13T04:24:58Z</time>
      </trkpt>
      <trkpt lat="44.13641" lon="3.4652">
        <ele>989</ele>
        <time>2021-04-13T04:25:51Z</time>
      </trkpt>
      <trkpt lat="44.13622" lon="3.46523">
        <ele>994</ele>
        <time>2021-04-13T04:26:16Z</time>
      </trkpt>
      <trkpt lat="44.13601" lon="3.46508">
        <ele>995</ele>
        <time>2021-04-13T04:26:48Z</time>
      </trkpt>
      <trkpt lat="44.13582" lon="3.46509">
        <ele>1000</ele>
        <time>2021-04-13T04:27:13Z</time>
      </trkpt>
      <trkpt lat="44.13545" lon="3.46518">
        <ele>1008</ele>
        <time>2021-04-13T04:28:03Z</time>
      </trkpt>
      <trkpt lat="44.13517" lon="3.46527">
        <ele>1015</ele>
        <time>2021-04-13T04:28:42Z</time>
      </trkpt>
      <trkpt lat="44.13451" lon="3.46568">
        <ele>1034</ele>
        <time>2021-04-13T04:30:18Z</time>
      </trkpt>
      <trkpt lat="44.13414" lon="3.46601">
        <ele>1046</ele>
        <time>2021-04-13T04:31:17Z</time>
      </trkpt>
      <trkpt lat="44.13366" lon="3.46656">
        <ele>1064</ele>
        <time>2021-04-13T04:32:40Z</time>
      </trkpt>
      <trkpt lat="44.13322" lon="3.46696">
        <ele>1077</ele>
        <time>2021-04-13T04:33:50Z</time>
      </trkpt>
      <trkpt lat="44.13288" lon="3.46723">
        <ele>1087</ele>
        <time>2021-04-13T04:34:42Z</time>
      </trkpt>
      <trkpt lat="44.13264" lon="3.46735">
        <ele>1091</ele>
        <time>2021-04-13T04:35:16Z</time>
      </trkpt>
      <trkpt lat="44.13249" lon="3.46755">
        <ele>1092</ele>
        <time>2021-04-13T04:35:44Z</time>
      </trkpt>
      <trkpt lat="44.13224" lon="3.468">
        <ele>1109</ele>
        <time>2021-04-13T04:36:38Z</time>
      </trkpt>
      <trkpt lat="44.13255" lon="3.46807">
        <ele>1103</ele>
        <time>2021-04-13T04:37:20Z</time>
      </trkpt>
      <trkpt lat="44.1331" lon="3.46822">
        <ele>1106</ele>
        <time>2021-04-13T04:38:35Z</time>
      </trkpt>
      <trkpt lat="44.13348" lon="3.46822">
        <ele>1109</ele>
        <time>2021-04-13T04:39:26Z</time>
      </trkpt>
      <trkpt lat="44.13397" lon="3.46786">
        <ele>1105</ele>
        <time>2021-04-13T04:40:40Z</time>
      </trkpt>
      <trkpt lat="44.13466" lon="3.4675">
        <ele>1092</ele>
        <time>2021-04-13T04:42:18Z</time>
      </trkpt>
      <trkpt lat="44.13513" lon="3.46765">
        <ele>1091</ele>
        <time>2021-04-13T04:43:22Z</time>
      </trkpt>
      <trkpt lat="44.1354" lon="3.46797">
        <ele>1091</ele>
        <time>2021-04-13T04:44:10Z</time>
      </trkpt>
      <trkpt lat="44.13576" lon="3.46855">
        <ele>1094</ele>
        <time>2021-04-13T04:45:23Z</time>
      </trkpt>
      <trkpt lat="44.13607" lon="3.46944">
        <ele>1097</ele>
        <time>2021-04-13T04:46:58Z</time>
      </trkpt>
      <trkpt lat="44.13602" lon="3.47063">
        <ele>1111</ele>
        <time>2021-04-13T04:48:52Z</time>
      </trkpt>
      <trkpt lat="44.13574" lon="3.47161">
        <ele>1122</ele>
        <time>2021-04-13T04:50:33Z</time>
      </trkpt>
      <trkpt lat="44.1356" lon="3.47218">
        <ele>1119</ele>
        <time>2021-04-13T04:51:31Z</time>
      </trkpt>
      <trkpt lat="44.13543" lon="3.47251">
        <ele>1121</ele>
        <time>2021-04-13T04:52:10Z</time>
      </trkpt>
      <trkpt lat="44.13445" lon="3.4739">
        <ele>1135</ele>
        <time>2021-04-13T04:55:16Z</time>
      </trkpt>
      <trkpt lat="44.13428" lon="3.47436">
        <ele>1137</ele>
        <time>2021-04-13T04:56:06Z</time>
      </trkpt>
      <trkpt lat="44.13426" lon="3.47509">
        <ele>1125</ele>
        <time>2021-04-13T04:57:16Z</time>
      </trkpt>
      <trkpt lat="44.13409" lon="3.47551">
        <ele>1119</ele>
        <time>2021-04-13T04:58:02Z</time>
      </trkpt>
      <trkpt lat="44.13365" lon="3.47572">
        <ele>1120</ele>
        <time>2021-04-13T04:59:04Z</time>
      </trkpt>
      <trkpt lat="44.13239" lon="3.47596">
        <ele>1126</ele>
        <time>2021-04-13T05:01:54Z</time>
      </trkpt>
      <trkpt lat="44.12983" lon="3.47628">
        <ele>1143</ele>
        <time>2021-04-13T05:07:37Z</time>
      </trkpt>
      <trkpt lat="44.12976" lon="3.47632">
        <ele>1143</ele>
        <time>2021-04-13T05:07:47Z</time>
      </trkpt>
      <trkpt lat="44.12961" lon="3.47642">
        <ele>1142</ele>
        <time>2021-04-13T05:08:09Z</time>
      </trkpt>
      <trkpt lat="44.12881" lon="3.47676">
        <ele>1150</ele>
        <time>2021-04-13T05:10:01Z</time>
      </trkpt>
      <trkpt lat="44.12874" lon="3.47688">
        <ele>1151</ele>
        <time>2021-04-13T05:10:15Z</time>
      </trkpt>
      <trkpt lat="44.12887" lon="3.47709">
        <ele>1144</ele>
        <time>2021-04-13T05:10:42Z</time>
      </trkpt>
      <trkpt lat="44.1289" lon="3.47766">
        <ele>1137</ele>
        <time>2021-04-13T05:11:37Z</time>
      </trkpt>
      <trkpt lat="44.12855" lon="3.47808">
        <ele>1145</ele>
        <time>2021-04-13T05:12:38Z</time>
      </trkpt>
      <trkpt lat="44.12787" lon="3.47852">
        <ele>1151</ele>
        <time>2021-04-13T05:14:18Z</time>
      </trkpt>
      <trkpt lat="44.12712" lon="3.47896">
        <ele>1152</ele>
        <time>2021-04-13T05:16:07Z</time>
      </trkpt>
      <trkpt lat="44.12647" lon="3.47904">
        <ele>1157</ele>
        <time>2021-04-13T05:17:34Z</time>
      </trkpt>
      <trkpt lat="44.1259" lon="3.47878">
        <ele>1167</ele>
        <time>2021-04-13T05:18:54Z</time>
      </trkpt>
      <trkpt lat="44.12566" lon="3.47878">
        <ele>1169</ele>
        <time>2021-04-13T05:19:26Z</time>
      </trkpt>
      <trkpt lat="44.12543" lon="3.47896">
        <ele>1171</ele>
        <time>2021-04-13T05:20:01Z</time>
      </trkpt>
      <trkpt lat="44.12519" lon="3.47941">
        <ele>1170</ele>
        <time>2021-04-13T05:20:55Z</time>
      </trkpt>
      <trkpt lat="44.12442" lon="3.48019">
        <ele>1172</ele>
        <time>2021-04-13T05:23:02Z</time>
      </trkpt>
      <trkpt lat="44.12417" lon="3.48037">
        <ele>1175</ele>
        <time>2021-04-13T05:23:40Z</time>
      </trkpt>
      <trkpt lat="44.12414" lon="3.48037">
        <ele>1174</ele>
        <time>2021-04-13T05:23:44Z</time>
      </trkpt>
      <trkpt lat="44.12403" lon="3.48063">
        <ele>1171</ele>
        <time>2021-04-13T05:24:13Z</time>
      </trkpt>
      <trkpt lat="44.12389" lon="3.48044">
        <ele>1168</ele>
        <time>2021-04-13T05:24:39Z</time>
      </trkpt>
      <trkpt lat="44.12345" lon="3.48093">
        <ele>1160</ele>
        <time>2021-04-13T05:25:54Z</time>
      </trkpt>
      <trkpt lat="44.12333" lon="3.48091">
        <ele>1157</ele>
        <time>2021-04-13T05:26:10Z</time>
      </trkpt>
      <trkpt lat="44.12332" lon="3.48052">
        <ele>1155</ele>
        <time>2021-04-13T05:26:47Z</time>
      </trkpt>
      <trkpt lat="44.12337" lon="3.48001">
        <ele>1153</ele>
        <time>2021-04-13T05:27:37Z</time>
      </trkpt>
      <trkpt lat="44.12334" lon="3.47993">
        <ele>1151</ele>
        <time>2021-04-13T05:27:45Z</time>
      </trkpt>
      <trkpt lat="44.12309" lon="3.48027">
        <ele>1146</ele>
        <time>2021-04-13T05:28:32Z</time>
      </trkpt>
      <trkpt lat="44.12301" lon="3.47994">
        <ele>1141</ele>
        <time>2021-04-13T05:29:05Z</time>
      </trkpt>
      <trkpt lat="44.12294" lon="3.47997">
        <ele>1140</ele>
        <time>2021-04-13T05:29:15Z</time>
      </trkpt>
      <trkpt lat="44.12277" lon="3.48033">
        <ele>1137</ele>
        <time>2021-04-13T05:29:56Z</time>
      </trkpt>
      <trkpt lat="44.12261" lon="3.48071">
        <ele>1134</ele>
        <time>2021-04-13T05:30:39Z</time>
      </trkpt>
      <trkpt lat="44.12257" lon="3.48069">
        <ele>1133</ele>
        <time>2021-04-13T05:30:44Z</time>
      </trkpt>
      <trkpt lat="44.12256" lon="3.48045">
        <ele>1131</ele>
        <time>2021-04-13T05:31:07Z</time>
      </trkpt>
      <trkpt lat="44.12253" lon="3.4804">
        <ele>1130</ele>
        <time>2021-04-13T05:31:13Z</time>
      </trkpt>
      <trkpt lat="44.12259" lon="3.48011">
        <ele>1130</ele>
        <time>2021-04-13T05:31:42Z</time>
      </trkpt>
      <trkpt lat="44.12276" lon="3.47962">
        <ele>1132</ele>
        <time>2021-04-13T05:32:35Z</time>
      </trkpt>
      <trkpt lat="44.12261" lon="3.47952">
        <ele>1127</ele>
        <time>2021-04-13T05:32:57Z</time>
      </trkpt>
      <trkpt lat="44.12252" lon="3.47952">
        <ele>1125</ele>
        <time>2021-04-13T05:33:09Z</time>
      </trkpt>
      <trkpt lat="44.12247" lon="3.47961">
        <ele>1124</ele>
        <time>2021-04-13T05:33:20Z</time>
      </trkpt>
      <trkpt lat="44.12247" lon="3.47979">
        <ele>1125</ele>
        <time>2021-04-13T05:33:37Z</time>
      </trkpt>
      <trkpt lat="44.12251" lon="3.47992">
        <ele>1126</ele>
        <time>2021-04-13T05:33:50Z</time>
      </trkpt>
      <trkpt lat="44.12245" lon="3.48033">
        <ele>1128</ele>
        <time>2021-04-13T05:34:30Z</time>
      </trkpt>
      <trkpt lat="44.12244" lon="3.48035">
        <ele>1128</ele>
        <time>2021-04-13T05:34:33Z</time>
      </trkpt>
      <trkpt lat="44.12238" lon="3.48032">
        <ele>1126</ele>
        <time>2021-04-13T05:34:41Z</time>
      </trkpt>
      <trkpt lat="44.12236" lon="3.48028">
        <ele>1126</ele>
        <time>2021-04-13T05:34:46Z</time>
      </trkpt>
      <trkpt lat="44.12235" lon="3.48013">
        <ele>1125</ele>
        <time>2021-04-13T05:35:00Z</time>
      </trkpt>
      <trkpt lat="44.12231" lon="3.47997">
        <ele>1123</ele>
        <time>2021-04-13T05:35:17Z</time>
      </trkpt>
      <trkpt lat="44.12225" lon="3.47987">
        <ele>1122</ele>
        <time>2021-04-13T05:35:29Z</time>
      </trkpt>
      <trkpt lat="44.1222" lon="3.47982">
        <ele>1121</ele>
        <time>2021-04-13T05:35:37Z</time>
      </trkpt>
      <trkpt lat="44.12214" lon="3.47981">
        <ele>1121</ele>
        <time>2021-04-13T05:35:45Z</time>
      </trkpt>
      <trkpt lat="44.12207" lon="3.47978">
        <ele>1120</ele>
        <time>2021-04-13T05:35:55Z</time>
      </trkpt>
      <trkpt lat="44.12204" lon="3.47968">
        <ele>1119</ele>
        <time>2021-04-13T05:36:06Z</time>
      </trkpt>
      <trkpt lat="44.12199" lon="3.47962">
        <ele>1118</ele>
        <time>2021-04-13T05:36:14Z</time>
      </trkpt>
      <trkpt lat="44.12192" lon="3.47958">
        <ele>1117</ele>
        <time>2021-04-13T05:36:24Z</time>
      </trkpt>
      <trkpt lat="44.1214" lon="3.47954">
        <ele>1112</ele>
        <time>2021-04-13T05:37:34Z</time>
      </trkpt>
      <trkpt lat="44.12114" lon="3.47947">
        <ele>1110</ele>
        <time>2021-04-13T05:38:09Z</time>
      </trkpt>
      <trkpt lat="44.12058" lon="3.4794">
        <ele>1105</ele>
        <time>2021-04-13T05:39:24Z</time>
      </trkpt>
      <trkpt lat="44.1203" lon="3.4794">
        <ele>1103</ele>
        <time>2021-04-13T05:40:02Z</time>
      </trkpt>
      <trkpt lat="44.1202" lon="3.47942">
        <ele>1102</ele>
        <time>2021-04-13T05:40:15Z</time>
      </trkpt>
      <trkpt lat="44.12009" lon="3.47946">
        <ele>1101</ele>
        <time>2021-04-13T05:40:30Z</time>
      </trkpt>
      <trkpt lat="44.11999" lon="3.47954">
        <ele>1101</ele>
        <time>2021-04-13T05:40:46Z</time>
      </trkpt>
      <trkpt lat="44.11989" lon="3.47962">
        <ele>1101</ele>
        <time>2021-04-13T05:41:01Z</time>
      </trkpt>
      <trkpt lat="44.11982" lon="3.47972">
        <ele>1101</ele>
        <time>2021-04-13T05:41:15Z</time>
      </trkpt>
      <trkpt lat="44.1197" lon="3.47979">
        <ele>1101</ele>
        <time>2021-04-13T05:41:32Z</time>
      </trkpt>
      <trkpt lat="44.11919" lon="3.47987">
        <ele>1100</ele>
        <time>2021-04-13T05:42:40Z</time>
      </trkpt>
      <trkpt lat="44.11913" lon="3.47993">
        <ele>1100</ele>
        <time>2021-04-13T05:42:50Z</time>
      </trkpt>
      <trkpt lat="44.11903" lon="3.48025">
        <ele>1100</ele>
        <time>2021-04-13T05:43:24Z</time>
      </trkpt>
      <trkpt lat="44.11898" lon="3.48031">
        <ele>1100</ele>
        <time>2021-04-13T05:43:32Z</time>
      </trkpt>
      <trkpt lat="44.11894" lon="3.48031">
        <ele>1099</ele>
        <time>2021-04-13T05:43:38Z</time>
      </trkpt>
      <trkpt lat="44.11891" lon="3.48024">
        <ele>1099</ele>
        <time>2021-04-13T05:43:46Z</time>
      </trkpt>
      <trkpt lat="44.11865" lon="3.47978">
        <ele>1097</ele>
        <time>2021-04-13T05:44:42Z</time>
      </trkpt>
      <trkpt lat="44.11857" lon="3.47974">
        <ele>1097</ele>
        <time>2021-04-13T05:44:53Z</time>
      </trkpt>
      <trkpt lat="44.11826" lon="3.47947">
        <ele>1099</ele>
        <time>2021-04-13T05:45:42Z</time>
      </trkpt>
      <trkpt lat="44.1181" lon="3.47924">
        <ele>1102</ele>
        <time>2021-04-13T05:46:13Z</time>
      </trkpt>
      <trkpt lat="44.11791" lon="3.47905">
        <ele>1105</ele>
        <time>2021-04-13T05:46:44Z</time>
      </trkpt>
      <trkpt lat="44.1174" lon="3.479">
        <ele>1111</ele>
        <time>2021-04-13T05:47:52Z</time>
      </trkpt>
      <trkpt lat="44.1172" lon="3.47904">
        <ele>1113</ele>
        <time>2021-04-13T05:48:19Z</time>
      </trkpt>
      <trkpt lat="44.11695" lon="3.47899">
        <ele>1116</ele>
        <time>2021-04-13T05:48:53Z</time>
      </trkpt>
      <trkpt lat="44.11672" lon="3.47889">
        <ele>1119</ele>
        <time>2021-04-13T05:49:25Z</time>
      </trkpt>
      <trkpt lat="44.1165" lon="3.47865">
        <ele>1120</ele>
        <time>2021-04-13T05:50:02Z</time>
      </trkpt>
      <trkpt lat="44.11641" lon="3.4784">
        <ele>1120</ele>
        <time>2021-04-13T05:50:29Z</time>
      </trkpt>
      <trkpt lat="44.11637" lon="3.47863">
        <ele>1119</ele>
        <time>2021-04-13T05:50:52Z</time>
      </trkpt>
      <trkpt lat="44.11627" lon="3.47881">
        <ele>1119</ele>
        <time>2021-04-13T05:51:13Z</time>
      </trkpt>
      <trkpt lat="44.11623" lon="3.47885">
        <ele>1119</ele>
        <time>2021-04-13T05:51:20Z</time>
      </trkpt>
      <trkpt lat="44.11617" lon="3.47887">
        <ele>1119</ele>
        <time>2021-04-13T05:51:28Z</time>
      </trkpt>
      <trkpt lat="44.11602" lon="3.47884">
        <ele>1119</ele>
        <time>2021-04-13T05:51:48Z</time>
      </trkpt>
      <trkpt lat="44.11596" lon="3.47879">
        <ele>1119</ele>
        <time>2021-04-13T05:51:58Z</time>
      </trkpt>
      <trkpt lat="44.11594" lon="3.47871">
        <ele>1119</ele>
        <time>2021-04-13T05:52:06Z</time>
      </trkpt>
      <trkpt lat="44.11595" lon="3.47857">
        <ele>1118</ele>
        <time>2021-04-13T05:52:19Z</time>
      </trkpt>
      <trkpt lat="44.11595" lon="3.47849">
        <ele>1118</ele>
        <time>2021-04-13T05:52:27Z</time>
      </trkpt>
      <trkpt lat="44.11592" lon="3.47845">
        <ele>1118</ele>
        <time>2021-04-13T05:52:32Z</time>
      </trkpt>
      <trkpt lat="44.11579" lon="3.47836">
        <ele>1117</ele>
        <time>2021-04-13T05:52:52Z</time>
      </trkpt>
      <trkpt lat="44.11573" lon="3.47825">
        <ele>1116</ele>
        <time>2021-04-13T05:53:05Z</time>
      </trkpt>
      <trkpt lat="44.11568" lon="3.4782">
        <ele>1115</ele>
        <time>2021-04-13T05:53:13Z</time>
      </trkpt>
      <trkpt lat="44.11553" lon="3.47816">
        <ele>1113</ele>
        <time>2021-04-13T05:53:34Z</time>
      </trkpt>
      <trkpt lat="44.11537" lon="3.47807">
        <ele>1112</ele>
        <time>2021-04-13T05:53:57Z</time>
      </trkpt>
      <trkpt lat="44.11532" lon="3.47825">
        <ele>1112</ele>
        <time>2021-04-13T05:54:15Z</time>
      </trkpt>
      <trkpt lat="44.11523" lon="3.47843">
        <ele>1112</ele>
        <time>2021-04-13T05:54:36Z</time>
      </trkpt>
      <trkpt lat="44.11518" lon="3.47848">
        <ele>1112</ele>
        <time>2021-04-13T05:54:44Z</time>
      </trkpt>
      <trkpt lat="44.11506" lon="3.47856">
        <ele>1111</ele>
        <time>2021-04-13T05:55:02Z</time>
      </trkpt>
      <trkpt lat="44.11485" lon="3.47864">
        <ele>1110</ele>
        <time>2021-04-13T05:55:31Z</time>
      </trkpt>
      <trkpt lat="44.11473" lon="3.47866">
        <ele>1109</ele>
        <time>2021-04-13T05:55:47Z</time>
      </trkpt>
      <trkpt lat="44.11446" lon="3.47876">
        <ele>1108</ele>
        <time>2021-04-13T05:56:25Z</time>
      </trkpt>
      <trkpt lat="44.11391" lon="3.47907">
        <ele>1107</ele>
        <time>2021-04-13T05:57:44Z</time>
      </trkpt>
      <trkpt lat="44.11304" lon="3.47973">
        <ele>1105</ele>
        <time>2021-04-13T05:59:56Z</time>
      </trkpt>
      <trkpt lat="44.11314" lon="3.48">
        <ele>1106</ele>
        <time>2021-04-13T06:00:25Z</time>
      </trkpt>
      <trkpt lat="44.11317" lon="3.48032">
        <ele>1105</ele>
        <time>2021-04-13T06:00:56Z</time>
      </trkpt>
      <trkpt lat="44.11323" lon="3.48082">
        <ele>1105</ele>
        <time>2021-04-13T06:01:45Z</time>
      </trkpt>
      <trkpt lat="44.11347" lon="3.4821">
        <ele>1104</ele>
        <time>2021-04-13T06:03:51Z</time>
      </trkpt>
      <trkpt lat="44.11385" lon="3.4837">
        <ele>1104</ele>
        <time>2021-04-13T06:06:33Z</time>
      </trkpt>
      <trkpt lat="44.11394" lon="3.48384">
        <ele>1104</ele>
        <time>2021-04-13T06:06:51Z</time>
      </trkpt>
      <trkpt lat="44.11407" lon="3.48394">
        <ele>1104</ele>
        <time>2021-04-13T06:07:11Z</time>
      </trkpt>
      <trkpt lat="44.11411" lon="3.48399">
        <ele>1104</ele>
        <time>2021-04-13T06:07:18Z</time>
      </trkpt>
      <trkpt lat="44.11413" lon="3.4841">
        <ele>1104</ele>
        <time>2021-04-13T06:07:29Z</time>
      </trkpt>
      <trkpt lat="44.11411" lon="3.48424">
        <ele>1104</ele>
        <time>2021-04-13T06:07:42Z</time>
      </trkpt>
      <trkpt lat="44.11408" lon="3.48429">
        <ele>1104</ele>
        <time>2021-04-13T06:07:49Z</time>
      </trkpt>
      <trkpt lat="44.11402" lon="3.48433">
        <ele>1104</ele>
        <time>2021-04-13T06:07:58Z</time>
      </trkpt>
      <trkpt lat="44.114" lon="3.48438">
        <ele>1105</ele>
        <time>2021-04-13T06:08:03Z</time>
      </trkpt>
      <trkpt lat="44.11399" lon="3.48444">
        <ele>1105</ele>
        <time>2021-04-13T06:08:09Z</time>
      </trkpt>
      <trkpt lat="44.11402" lon="3.48455">
        <ele>1105</ele>
        <time>2021-04-13T06:08:20Z</time>
      </trkpt>
      <trkpt lat="44.11407" lon="3.48494">
        <ele>1105</ele>
        <time>2021-04-13T06:08:58Z</time>
      </trkpt>
      <trkpt lat="44.11412" lon="3.48527">
        <ele>1105</ele>
        <time>2021-04-13T06:09:30Z</time>
      </trkpt>
      <trkpt lat="44.11427" lon="3.48702">
        <ele>1108</ele>
        <time>2021-04-13T06:12:19Z</time>
      </trkpt>
      <trkpt lat="44.11432" lon="3.48744">
        <ele>1109</ele>
        <time>2021-04-13T06:13:00Z</time>
      </trkpt>
      <trkpt lat="44.11447" lon="3.48877">
        <ele>1110</ele>
        <time>2021-04-13T06:15:09Z</time>
      </trkpt>
      <trkpt lat="44.11449" lon="3.48957">
        <ele>1110</ele>
        <time>2021-04-13T06:16:26Z</time>
      </trkpt>
      <trkpt lat="44.11452" lon="3.49007">
        <ele>1110</ele>
        <time>2021-04-13T06:17:14Z</time>
      </trkpt>
      <trkpt lat="44.11455" lon="3.4903">
        <ele>1110</ele>
        <time>2021-04-13T06:17:36Z</time>
      </trkpt>
      <trkpt lat="44.11465" lon="3.49074">
        <ele>1110</ele>
        <time>2021-04-13T06:18:20Z</time>
      </trkpt>
      <trkpt lat="44.11471" lon="3.49092">
        <ele>1110</ele>
        <time>2021-04-13T06:18:39Z</time>
      </trkpt>
      <trkpt lat="44.11482" lon="3.4911">
        <ele>1110</ele>
        <time>2021-04-13T06:19:02Z</time>
      </trkpt>
      <trkpt lat="44.1149" lon="3.49117">
        <ele>1110</ele>
        <time>2021-04-13T06:19:15Z</time>
      </trkpt>
      <trkpt lat="44.11497" lon="3.49119">
        <ele>1109</ele>
        <time>2021-04-13T06:19:24Z</time>
      </trkpt>
      <trkpt lat="44.11502" lon="3.4912">
        <ele>1109</ele>
        <time>2021-04-13T06:19:31Z</time>
      </trkpt>
      <trkpt lat="44.11521" lon="3.49118">
        <ele>1111</ele>
        <time>2021-04-13T06:19:56Z</time>
      </trkpt>
      <trkpt lat="44.11557" lon="3.49107">
        <ele>1113</ele>
        <time>2021-04-13T06:20:46Z</time>
      </trkpt>
      <trkpt lat="44.1156" lon="3.4917">
        <ele>1116</ele>
        <time>2021-04-13T06:21:46Z</time>
      </trkpt>
      <trkpt lat="44.11557" lon="3.49199">
        <ele>1117</ele>
        <time>2021-04-13T06:22:14Z</time>
      </trkpt>
      <trkpt lat="44.11537" lon="3.49281">
        <ele>1119</ele>
        <time>2021-04-13T06:23:37Z</time>
      </trkpt>
      <trkpt lat="44.11513" lon="3.49364">
        <ele>1118</ele>
        <time>2021-04-13T06:25:03Z</time>
      </trkpt>
      <trkpt lat="44.11493" lon="3.49449">
        <ele>1117</ele>
        <time>2021-04-13T06:26:29Z</time>
      </trkpt>
      <trkpt lat="44.11465" lon="3.49616">
        <ele>1120</ele>
        <time>2021-04-13T06:29:13Z</time>
      </trkpt>
      <trkpt lat="44.11436" lon="3.49719">
        <ele>1120</ele>
        <time>2021-04-13T06:30:59Z</time>
      </trkpt>
      <trkpt lat="44.11411" lon="3.49811">
        <ele>1124</ele>
        <time>2021-04-13T06:32:33Z</time>
      </trkpt>
      <trkpt lat="44.11386" lon="3.49902">
        <ele>1124</ele>
        <time>2021-04-13T06:34:06Z</time>
      </trkpt>
      <trkpt lat="44.11382" lon="3.49926">
        <ele>1124</ele>
        <time>2021-04-13T06:34:30Z</time>
      </trkpt>
      <trkpt lat="44.11374" lon="3.49971">
        <ele>1123</ele>
        <time>2021-04-13T06:35:14Z</time>
      </trkpt>
      <trkpt lat="44.11361" lon="3.50058">
        <ele>1123</ele>
        <time>2021-04-13T06:36:40Z</time>
      </trkpt>
      <trkpt lat="44.11293" lon="3.50286">
        <ele>1127</ele>
        <time>2021-04-13T06:40:36Z</time>
      </trkpt>
      <trkpt lat="44.11284" lon="3.50353">
        <ele>1129</ele>
        <time>2021-04-13T06:41:41Z</time>
      </trkpt>
      <trkpt lat="44.11235" lon="3.50551">
        <ele>1132</ele>
        <time>2021-04-13T06:45:02Z</time>
      </trkpt>
      <trkpt lat="44.1121" lon="3.50633">
        <ele>1135</ele>
        <time>2021-04-13T06:46:27Z</time>
      </trkpt>
      <trkpt lat="44.1119" lon="3.50714">
        <ele>1134</ele>
        <time>2021-04-13T06:47:50Z</time>
      </trkpt>
      <trkpt lat="44.11189" lon="3.50736">
        <ele>1133</ele>
        <time>2021-04-13T06:48:11Z</time>
      </trkpt>
      <trkpt lat="44.11185" lon="3.50773">
        <ele>1133</ele>
        <time>2021-04-13T06:48:47Z</time>
      </trkpt>
      <trkpt lat="44.11176" lon="3.50796">
        <ele>1132</ele>
        <time>2021-04-13T06:49:12Z</time>
      </trkpt>
      <trkpt lat="44.11171" lon="3.50802">
        <ele>1132</ele>
        <time>2021-04-13T06:49:20Z</time>
      </trkpt>
      <trkpt lat="44.11165" lon="3.50805">
        <ele>1132</ele>
        <time>2021-04-13T06:49:29Z</time>
      </trkpt>
      <trkpt lat="44.11157" lon="3.50807">
        <ele>1133</ele>
        <time>2021-04-13T06:49:40Z</time>
      </trkpt>
      <trkpt lat="44.11151" lon="3.50809">
        <ele>1133</ele>
        <time>2021-04-13T06:49:48Z</time>
      </trkpt>
      <trkpt lat="44.11128" lon="3.50836">
        <ele>1136</ele>
        <time>2021-04-13T06:50:28Z</time>
      </trkpt>
      <trkpt lat="44.11095" lon="3.50901">
        <ele>1138</ele>
        <time>2021-04-13T06:51:44Z</time>
      </trkpt>
      <trkpt lat="44.10994" lon="3.5112">
        <ele>1142</ele>
        <time>2021-04-13T06:55:54Z</time>
      </trkpt>
      <trkpt lat="44.10929" lon="3.51253">
        <ele>1142</ele>
        <time>2021-04-13T06:58:28Z</time>
      </trkpt>
      <trkpt lat="44.10844" lon="3.51437">
        <ele>1146</ele>
        <time>2021-04-13T07:01:58Z</time>
      </trkpt>
      <trkpt lat="44.10755" lon="3.51616">
        <ele>1148</ele>
        <time>2021-04-13T07:05:26Z</time>
      </trkpt>
      <trkpt lat="44.10745" lon="3.51643">
        <ele>1148</ele>
        <time>2021-04-13T07:05:55Z</time>
      </trkpt>
      <trkpt lat="44.10704" lon="3.51808">
        <ele>1151</ele>
        <time>2021-04-13T07:08:43Z</time>
      </trkpt>
      <trkpt lat="44.10721" lon="3.51868">
        <ele>1151</ele>
        <time>2021-04-13T07:09:44Z</time>
      </trkpt>
      <trkpt lat="44.10722" lon="3.51879">
        <ele>1151</ele>
        <time>2021-04-13T07:09:55Z</time>
      </trkpt>
      <trkpt lat="44.10721" lon="3.51892">
        <ele>1152</ele>
        <time>2021-04-13T07:10:08Z</time>
      </trkpt>
      <trkpt lat="44.1072" lon="3.51911">
        <ele>1153</ele>
        <time>2021-04-13T07:10:26Z</time>
      </trkpt>
      <trkpt lat="44.10713" lon="3.51957">
        <ele>1154</ele>
        <time>2021-04-13T07:11:11Z</time>
      </trkpt>
      <trkpt lat="44.10703" lon="3.51993">
        <ele>1155</ele>
        <time>2021-04-13T07:11:48Z</time>
      </trkpt>
      <trkpt lat="44.10702" lon="3.52011">
        <ele>1155</ele>
        <time>2021-04-13T07:12:05Z</time>
      </trkpt>
      <trkpt lat="44.10703" lon="3.52053">
        <ele>1155</ele>
        <time>2021-04-13T07:12:45Z</time>
      </trkpt>
      <trkpt lat="44.10698" lon="3.52088">
        <ele>1156</ele>
        <time>2021-04-13T07:13:20Z</time>
      </trkpt>
      <trkpt lat="44.10698" lon="3.52095">
        <ele>1156</ele>
        <time>2021-04-13T07:13:26Z</time>
      </trkpt>
      <trkpt lat="44.10704" lon="3.52104">
        <ele>1155</ele>
        <time>2021-04-13T07:13:38Z</time>
      </trkpt>
      <trkpt lat="44.10703" lon="3.52121">
        <ele>1156</ele>
        <time>2021-04-13T07:13:54Z</time>
      </trkpt>
      <trkpt lat="44.10701" lon="3.5215">
        <ele>1156</ele>
        <time>2021-04-13T07:14:22Z</time>
      </trkpt>
      <trkpt lat="44.10698" lon="3.52159">
        <ele>1156</ele>
        <time>2021-04-13T07:14:32Z</time>
      </trkpt>
      <trkpt lat="44.10695" lon="3.52204">
        <ele>1156</ele>
        <time>2021-04-13T07:15:15Z</time>
      </trkpt>
      <trkpt lat="44.10688" lon="3.52273">
        <ele>1156</ele>
        <time>2021-04-13T07:16:22Z</time>
      </trkpt>
      <trkpt lat="44.10667" lon="3.5239">
        <ele>1159</ele>
        <time>2021-04-13T07:18:18Z</time>
      </trkpt>
      <trkpt lat="44.10658" lon="3.52462">
        <ele>1164</ele>
        <time>2021-04-13T07:19:28Z</time>
      </trkpt>
      <trkpt lat="44.10648" lon="3.52534">
        <ele>1168</ele>
        <time>2021-04-13T07:20:38Z</time>
      </trkpt>
      <trkpt lat="44.10646" lon="3.5256">
        <ele>1169</ele>
        <time>2021-04-13T07:21:03Z</time>
      </trkpt>
      <trkpt lat="44.10648" lon="3.52576">
        <ele>1170</ele>
        <time>2021-04-13T07:21:18Z</time>
      </trkpt>
      <trkpt lat="44.10647" lon="3.52592">
        <ele>1171</ele>
        <time>2021-04-13T07:21:34Z</time>
      </trkpt>
      <trkpt lat="44.10642" lon="3.52613">
        <ele>1172</ele>
        <time>2021-04-13T07:21:55Z</time>
      </trkpt>
      <trkpt lat="44.10642" lon="3.52633">
        <ele>1173</ele>
        <time>2021-04-13T07:22:14Z</time>
      </trkpt>
      <trkpt lat="44.10645" lon="3.52685">
        <ele>1176</ele>
        <time>2021-04-13T07:23:04Z</time>
      </trkpt>
      <trkpt lat="44.10644" lon="3.52745">
        <ele>1177</ele>
        <time>2021-04-13T07:24:02Z</time>
      </trkpt>
      <trkpt lat="44.10629" lon="3.52751">
        <ele>1175</ele>
        <time>2021-04-13T07:24:23Z</time>
      </trkpt>
      <trkpt lat="44.10616" lon="3.52763">
        <ele>1173</ele>
        <time>2021-04-13T07:24:43Z</time>
      </trkpt>
      <trkpt lat="44.10608" lon="3.52767">
        <ele>1172</ele>
        <time>2021-04-13T07:24:55Z</time>
      </trkpt>
      <trkpt lat="44.10603" lon="3.52763">
        <ele>1171</ele>
        <time>2021-04-13T07:25:02Z</time>
      </trkpt>
      <trkpt lat="44.10596" lon="3.52754">
        <ele>1170</ele>
        <time>2021-04-13T07:25:15Z</time>
      </trkpt>
      <trkpt lat="44.10584" lon="3.52744">
        <ele>1168</ele>
        <time>2021-04-13T07:25:34Z</time>
      </trkpt>
      <trkpt lat="44.10562" lon="3.52738">
        <ele>1173</ele>
        <time>2021-04-13T07:26:04Z</time>
      </trkpt>
      <trkpt lat="44.1055" lon="3.52755">
        <ele>1176</ele>
        <time>2021-04-13T07:26:27Z</time>
      </trkpt>
      <trkpt lat="44.10544" lon="3.52771">
        <ele>1178</ele>
        <time>2021-04-13T07:26:44Z</time>
      </trkpt>
      <trkpt lat="44.10538" lon="3.52775">
        <ele>1179</ele>
        <time>2021-04-13T07:26:53Z</time>
      </trkpt>
      <trkpt lat="44.10528" lon="3.52774">
        <ele>1181</ele>
        <time>2021-04-13T07:27:06Z</time>
      </trkpt>
      <trkpt lat="44.10522" lon="3.52787">
        <ele>1183</ele>
        <time>2021-04-13T07:27:21Z</time>
      </trkpt>
      <trkpt lat="44.10478" lon="3.52851">
        <ele>1200</ele>
        <time>2021-04-13T07:28:46Z</time>
      </trkpt>
      <trkpt lat="44.10467" lon="3.52859">
        <ele>1206</ele>
        <time>2021-04-13T07:29:02Z</time>
      </trkpt>
      <trkpt lat="44.10459" lon="3.52868">
        <ele>1210</ele>
        <time>2021-04-13T07:29:16Z</time>
      </trkpt>
      <trkpt lat="44.10454" lon="3.52869">
        <ele>1213</ele>
        <time>2021-04-13T07:29:23Z</time>
      </trkpt>
      <trkpt lat="44.10452" lon="3.52893">
        <ele>1213</ele>
        <time>2021-04-13T07:29:46Z</time>
      </trkpt>
      <trkpt lat="44.10436" lon="3.52957">
        <ele>1218</ele>
        <time>2021-04-13T07:30:51Z</time>
      </trkpt>
      <trkpt lat="44.1043" lon="3.52962">
        <ele>1221</ele>
        <time>2021-04-13T07:31:00Z</time>
      </trkpt>
      <trkpt lat="44.10424" lon="3.52974">
        <ele>1223</ele>
        <time>2021-04-13T07:31:14Z</time>
      </trkpt>
      <trkpt lat="44.10415" lon="3.52996">
        <ele>1226</ele>
        <time>2021-04-13T07:31:39Z</time>
      </trkpt>
      <trkpt lat="44.10394" lon="3.52999">
        <ele>1235</ele>
        <time>2021-04-13T07:32:07Z</time>
      </trkpt>
      <trkpt lat="44.10381" lon="3.53006">
        <ele>1241</ele>
        <time>2021-04-13T07:32:25Z</time>
      </trkpt>
      <trkpt lat="44.10363" lon="3.5301">
        <ele>1249</ele>
        <time>2021-04-13T07:32:50Z</time>
      </trkpt>
      <trkpt lat="44.10351" lon="3.53026">
        <ele>1252</ele>
        <time>2021-04-13T07:33:12Z</time>
      </trkpt>
      <trkpt lat="44.10332" lon="3.53035">
        <ele>1260</ele>
        <time>2021-04-13T07:33:39Z</time>
      </trkpt>
      <trkpt lat="44.10319" lon="3.53045">
        <ele>1263</ele>
        <time>2021-04-13T07:33:58Z</time>
      </trkpt>
      <trkpt lat="44.10325" lon="3.53065">
        <ele>1259</ele>
        <time>2021-04-13T07:34:19Z</time>
      </trkpt>
      <trkpt lat="44.10334" lon="3.5311">
        <ele>1254</ele>
        <time>2021-04-13T07:35:04Z</time>
      </trkpt>
      <trkpt lat="44.10338" lon="3.53123">
        <ele>1253</ele>
        <time>2021-04-13T07:35:17Z</time>
      </trkpt>
      <trkpt lat="44.10345" lon="3.53127">
        <ele>1250</ele>
        <time>2021-04-13T07:35:28Z</time>
      </trkpt>
      <trkpt lat="44.10357" lon="3.5313">
        <ele>1246</ele>
        <time>2021-04-13T07:35:44Z</time>
      </trkpt>
      <trkpt lat="44.10367" lon="3.53139">
        <ele>1242</ele>
        <time>2021-04-13T07:36:00Z</time>
      </trkpt>
      <trkpt lat="44.10375" lon="3.53166">
        <ele>1239</ele>
        <time>2021-04-13T07:36:28Z</time>
      </trkpt>
      <trkpt lat="44.10386" lon="3.53245">
        <ele>1238</ele>
        <time>2021-04-13T07:37:45Z</time>
      </trkpt>
      <trkpt lat="44.10387" lon="3.5328">
        <ele>1237</ele>
        <time>2021-04-13T07:38:18Z</time>
      </trkpt>
      <trkpt lat="44.10385" lon="3.53333">
        <ele>1236</ele>
        <time>2021-04-13T07:39:09Z</time>
      </trkpt>
      <trkpt lat="44.10382" lon="3.5337">
        <ele>1236</ele>
        <time>2021-04-13T07:39:45Z</time>
      </trkpt>
      <trkpt lat="44.10377" lon="3.53395">
        <ele>1237</ele>
        <time>2021-04-13T07:40:10Z</time>
      </trkpt>
      <trkpt lat="44.10382" lon="3.53426">
        <ele>1234</ele>
        <time>2021-04-13T07:40:40Z</time>
      </trkpt>
      <trkpt lat="44.1039" lon="3.53458">
        <ele>1229</ele>
        <time>2021-04-13T07:41:13Z</time>
      </trkpt>
      <trkpt lat="44.10391" lon="3.53488">
        <ele>1229</ele>
        <time>2021-04-13T07:41:41Z</time>
      </trkpt>
      <trkpt lat="44.10378" lon="3.53566">
        <ele>1235</ele>
        <time>2021-04-13T07:42:58Z</time>
      </trkpt>
      <trkpt lat="44.10374" lon="3.53614">
        <ele>1237</ele>
        <time>2021-04-13T07:43:45Z</time>
      </trkpt>
      <trkpt lat="44.10376" lon="3.53654">
        <ele>1236</ele>
        <time>2021-04-13T07:44:23Z</time>
      </trkpt>
      <trkpt lat="44.10392" lon="3.53718">
        <ele>1232</ele>
        <time>2021-04-13T07:45:28Z</time>
      </trkpt>
      <trkpt lat="44.1039" lon="3.53745">
        <ele>1235</ele>
        <time>2021-04-13T07:45:54Z</time>
      </trkpt>
      <trkpt lat="44.10395" lon="3.53763">
        <ele>1235</ele>
        <time>2021-04-13T07:46:12Z</time>
      </trkpt>
      <trkpt lat="44.10407" lon="3.53775">
        <ele>1232</ele>
        <time>2021-04-13T07:46:32Z</time>
      </trkpt>
      <trkpt lat="44.10421" lon="3.5378">
        <ele>1229</ele>
        <time>2021-04-13T07:46:51Z</time>
      </trkpt>
      <trkpt lat="44.10444" lon="3.53784">
        <ele>1232</ele>
        <time>2021-04-13T07:47:22Z</time>
      </trkpt>
      <trkpt lat="44.1045" lon="3.53792">
        <ele>1233</ele>
        <time>2021-04-13T07:47:33Z</time>
      </trkpt>
      <trkpt lat="44.10466" lon="3.53802">
        <ele>1236</ele>
        <time>2021-04-13T07:47:57Z</time>
      </trkpt>
      <trkpt lat="44.10469" lon="3.53811">
        <ele>1238</ele>
        <time>2021-04-13T07:48:06Z</time>
      </trkpt>
      <trkpt lat="44.10461" lon="3.53818">
        <ele>1238</ele>
        <time>2021-04-13T07:48:19Z</time>
      </trkpt>
      <trkpt lat="44.10432" lon="3.53831">
        <ele>1239</ele>
        <time>2021-04-13T07:49:00Z</time>
      </trkpt>
      <trkpt lat="44.10423" lon="3.53844">
        <ele>1241</ele>
        <time>2021-04-13T07:49:17Z</time>
      </trkpt>
      <trkpt lat="44.10425" lon="3.53852">
        <ele>1243</ele>
        <time>2021-04-13T07:49:25Z</time>
      </trkpt>
      <trkpt lat="44.1049" lon="3.53885">
        <ele>1257</ele>
        <time>2021-04-13T07:50:57Z</time>
      </trkpt>
      <trkpt lat="44.10492" lon="3.53895">
        <ele>1260</ele>
        <time>2021-04-13T07:51:07Z</time>
      </trkpt>
      <trkpt lat="44.10486" lon="3.53905">
        <ele>1263</ele>
        <time>2021-04-13T07:51:20Z</time>
      </trkpt>
      <trkpt lat="44.1047" lon="3.53914">
        <ele>1264</ele>
        <time>2021-04-13T07:51:43Z</time>
      </trkpt>
      <trkpt lat="44.10463" lon="3.53922">
        <ele>1266</ele>
        <time>2021-04-13T07:51:55Z</time>
      </trkpt>
      <trkpt lat="44.10452" lon="3.53947">
        <ele>1273</ele>
        <time>2021-04-13T07:52:23Z</time>
      </trkpt>
      <trkpt lat="44.10442" lon="3.53986">
        <ele>1285</ele>
        <time>2021-04-13T07:53:03Z</time>
      </trkpt>
      <trkpt lat="44.10431" lon="3.54007">
        <ele>1290</ele>
        <time>2021-04-13T07:53:28Z</time>
      </trkpt>
      <trkpt lat="44.10369" lon="3.5407">
        <ele>1304</ele>
        <time>2021-04-13T07:55:10Z</time>
      </trkpt>
      <trkpt lat="44.10346" lon="3.54087">
        <ele>1304</ele>
        <time>2021-04-13T07:55:45Z</time>
      </trkpt>
      <trkpt lat="44.10333" lon="3.54109">
        <ele>1303</ele>
        <time>2021-04-13T07:56:12Z</time>
      </trkpt>
      <trkpt lat="44.10311" lon="3.54103">
        <ele>1306</ele>
        <time>2021-04-13T07:56:42Z</time>
      </trkpt>
      <trkpt lat="44.10302" lon="3.54104">
        <ele>1307</ele>
        <time>2021-04-13T07:56:54Z</time>
      </trkpt>
      <trkpt lat="44.10303" lon="3.54112">
        <ele>1306</ele>
        <time>2021-04-13T07:57:02Z</time>
      </trkpt>
      <trkpt lat="44.10302" lon="3.5412">
        <ele>1306</ele>
        <time>2021-04-13T07:57:10Z</time>
      </trkpt>
      <trkpt lat="44.10301" lon="3.54124">
        <ele>1305</ele>
        <time>2021-04-13T07:57:14Z</time>
      </trkpt>
      <trkpt lat="44.103" lon="3.54126">
        <ele>1305</ele>
        <time>2021-04-13T07:57:16Z</time>
      </trkpt>
      <trkpt lat="44.10297" lon="3.54134">
        <ele>1305</ele>
        <time>2021-04-13T07:57:25Z</time>
      </trkpt>
      <trkpt lat="44.10289" lon="3.54148">
        <ele>1304</ele>
        <time>2021-04-13T07:57:42Z</time>
      </trkpt>
      <trkpt lat="44.10266" lon="3.54177">
        <ele>1301</ele>
        <time>2021-04-13T07:58:23Z</time>
      </trkpt>
      <trkpt lat="44.10232" lon="3.54203">
        <ele>1303</ele>
        <time>2021-04-13T07:59:15Z</time>
      </trkpt>
      <trkpt lat="44.10222" lon="3.5422">
        <ele>1304</ele>
        <time>2021-04-13T07:59:36Z</time>
      </trkpt>
      <trkpt lat="44.10226" lon="3.54225">
        <ele>1302</ele>
        <time>2021-04-13T07:59:43Z</time>
      </trkpt>
      <trkpt lat="44.10235" lon="3.54292">
        <ele>1290</ele>
        <time>2021-04-13T08:00:48Z</time>
      </trkpt>
      <trkpt lat="44.10234" lon="3.54324">
        <ele>1286</ele>
        <time>2021-04-13T08:01:19Z</time>
      </trkpt>
      <trkpt lat="44.10229" lon="3.54363">
        <ele>1281</ele>
        <time>2021-04-13T08:01:57Z</time>
      </trkpt>
      <trkpt lat="44.10204" lon="3.54439">
        <ele>1273</ele>
        <time>2021-04-13T08:03:17Z</time>
      </trkpt>
      <trkpt lat="44.10181" lon="3.5449">
        <ele>1264</ele>
        <time>2021-04-13T08:04:15Z</time>
      </trkpt>
      <trkpt lat="44.10166" lon="3.54521">
        <ele>1259</ele>
        <time>2021-04-13T08:04:51Z</time>
      </trkpt>
      <trkpt lat="44.10136" lon="3.54572">
        <ele>1252</ele>
        <time>2021-04-13T08:05:54Z</time>
      </trkpt>
      <trkpt lat="44.10117" lon="3.54597">
        <ele>1249</ele>
        <time>2021-04-13T08:06:29Z</time>
      </trkpt>
      <trkpt lat="44.10067" lon="3.54649">
        <ele>1243</ele>
        <time>2021-04-13T08:07:52Z</time>
      </trkpt>
      <trkpt lat="44.10031" lon="3.54693">
        <ele>1238</ele>
        <time>2021-04-13T08:08:56Z</time>
      </trkpt>
      <trkpt lat="44.09973" lon="3.54757">
        <ele>1230</ele>
        <time>2021-04-13T08:10:35Z</time>
      </trkpt>
      <trkpt lat="44.09953" lon="3.54787">
        <ele>1225</ele>
        <time>2021-04-13T08:11:14Z</time>
      </trkpt>
      <trkpt lat="44.09922" lon="3.5484">
        <ele>1213</ele>
        <time>2021-04-13T08:12:19Z</time>
      </trkpt>
      <trkpt lat="44.09907" lon="3.54872">
        <ele>1209</ele>
        <time>2021-04-13T08:12:56Z</time>
      </trkpt>
      <trkpt lat="44.09889" lon="3.54878">
        <ele>1210</ele>
        <time>2021-04-13T08:13:21Z</time>
      </trkpt>
      <trkpt lat="44.09872" lon="3.54875">
        <ele>1213</ele>
        <time>2021-04-13T08:13:44Z</time>
      </trkpt>
      <trkpt lat="44.09865" lon="3.54886">
        <ele>1211</ele>
        <time>2021-04-13T08:13:58Z</time>
      </trkpt>
      <trkpt lat="44.09854" lon="3.54921">
        <ele>1204</ele>
        <time>2021-04-13T08:14:34Z</time>
      </trkpt>
      <trkpt lat="44.09836" lon="3.54994">
        <ele>1191</ele>
        <time>2021-04-13T08:15:48Z</time>
      </trkpt>
      <trkpt lat="44.09833" lon="3.55035">
        <ele>1184</ele>
        <time>2021-04-13T08:16:28Z</time>
      </trkpt>
      <trkpt lat="44.09812" lon="3.55074">
        <ele>1180</ele>
        <time>2021-04-13T08:17:15Z</time>
      </trkpt>
      <trkpt lat="44.09804" lon="3.5508">
        <ele>1179</ele>
        <time>2021-04-13T08:17:27Z</time>
      </trkpt>
      <trkpt lat="44.09789" lon="3.55085">
        <ele>1179</ele>
        <time>2021-04-13T08:17:47Z</time>
      </trkpt>
      <trkpt lat="44.0975" lon="3.55087">
        <ele>1182</ele>
        <time>2021-04-13T08:18:39Z</time>
      </trkpt>
      <trkpt lat="44.09742" lon="3.5509">
        <ele>1183</ele>
        <time>2021-04-13T08:18:50Z</time>
      </trkpt>
      <trkpt lat="44.09727" lon="3.55099">
        <ele>1183</ele>
        <time>2021-04-13T08:19:12Z</time>
      </trkpt>
      <trkpt lat="44.09721" lon="3.55107">
        <ele>1183</ele>
        <time>2021-04-13T08:19:23Z</time>
      </trkpt>
      <trkpt lat="44.09716" lon="3.55116">
        <ele>1183</ele>
        <time>2021-04-13T08:19:34Z</time>
      </trkpt>
      <trkpt lat="44.09714" lon="3.55127">
        <ele>1182</ele>
        <time>2021-04-13T08:19:45Z</time>
      </trkpt>
      <trkpt lat="44.09714" lon="3.55138">
        <ele>1181</ele>
        <time>2021-04-13T08:19:56Z</time>
      </trkpt>
      <trkpt lat="44.09716" lon="3.55149">
        <ele>1179</ele>
        <time>2021-04-13T08:20:06Z</time>
      </trkpt>
      <trkpt lat="44.09728" lon="3.55167">
        <ele>1173</ele>
        <time>2021-04-13T08:20:30Z</time>
      </trkpt>
      <trkpt lat="44.0975" lon="3.5517">
        <ele>1167</ele>
        <time>2021-04-13T08:21:00Z</time>
      </trkpt>
      <trkpt lat="44.09774" lon="3.55179">
        <ele>1163</ele>
        <time>2021-04-13T08:21:33Z</time>
      </trkpt>
      <trkpt lat="44.09797" lon="3.55198">
        <ele>1157</ele>
        <time>2021-04-13T08:22:08Z</time>
      </trkpt>
      <trkpt lat="44.09807" lon="3.55211">
        <ele>1154</ele>
        <time>2021-04-13T08:22:27Z</time>
      </trkpt>
      <trkpt lat="44.09824" lon="3.55223">
        <ele>1149</ele>
        <time>2021-04-13T08:22:52Z</time>
      </trkpt>
      <trkpt lat="44.09836" lon="3.55251">
        <ele>1143</ele>
        <time>2021-04-13T08:23:23Z</time>
      </trkpt>
      <trkpt lat="44.09837" lon="3.5527">
        <ele>1138</ele>
        <time>2021-04-13T08:23:42Z</time>
      </trkpt>
      <trkpt lat="44.09831" lon="3.55292">
        <ele>1135</ele>
        <time>2021-04-13T08:24:04Z</time>
      </trkpt>
      <trkpt lat="44.09813" lon="3.5532">
        <ele>1135</ele>
        <time>2021-04-13T08:24:40Z</time>
      </trkpt>
      <trkpt lat="44.09779" lon="3.55343">
        <ele>1139</ele>
        <time>2021-04-13T08:25:31Z</time>
      </trkpt>
      <trkpt lat="44.09747" lon="3.55355">
        <ele>1145</ele>
        <time>2021-04-13T08:26:15Z</time>
      </trkpt>
      <trkpt lat="44.09728" lon="3.5539">
        <ele>1140</ele>
        <time>2021-04-13T08:26:57Z</time>
      </trkpt>
      <trkpt lat="44.09725" lon="3.55436">
        <ele>1126</ele>
        <time>2021-04-13T08:27:41Z</time>
      </trkpt>
      <trkpt lat="44.09719" lon="3.55451">
        <ele>1123</ele>
        <time>2021-04-13T08:27:58Z</time>
      </trkpt>
      <trkpt lat="44.09688" lon="3.55482">
        <ele>1126</ele>
        <time>2021-04-13T08:28:49Z</time>
      </trkpt>
      <trkpt lat="44.09671" lon="3.55502">
        <ele>1126</ele>
        <time>2021-04-13T08:29:18Z</time>
      </trkpt>
      <trkpt lat="44.09645" lon="3.55541">
        <ele>1123</ele>
        <time>2021-04-13T08:30:09Z</time>
      </trkpt>
      <trkpt lat="44.09614" lon="3.55655">
        <ele>1100</ele>
        <time>2021-04-13T08:32:06Z</time>
      </trkpt>
      <trkpt lat="44.09591" lon="3.557">
        <ele>1094</ele>
        <time>2021-04-13T08:32:59Z</time>
      </trkpt>
      <trkpt lat="44.09573" lon="3.55724">
        <ele>1091</ele>
        <time>2021-04-13T08:33:32Z</time>
      </trkpt>
      <trkpt lat="44.09553" lon="3.55746">
        <ele>1086</ele>
        <time>2021-04-13T08:34:06Z</time>
      </trkpt>
      <trkpt lat="44.09517" lon="3.55772">
        <ele>1082</ele>
        <time>2021-04-13T08:35:00Z</time>
      </trkpt>
      <trkpt lat="44.09475" lon="3.55788">
        <ele>1082</ele>
        <time>2021-04-13T08:35:58Z</time>
      </trkpt>
      <trkpt lat="44.09458" lon="3.55797">
        <ele>1081</ele>
        <time>2021-04-13T08:36:23Z</time>
      </trkpt>
      <trkpt lat="44.09418" lon="3.55829">
        <ele>1071</ele>
        <time>2021-04-13T08:37:24Z</time>
      </trkpt>
      <trkpt lat="44.09389" lon="3.55862">
        <ele>1069</ele>
        <time>2021-04-13T08:38:14Z</time>
      </trkpt>
      <trkpt lat="44.09377" lon="3.55881">
        <ele>1066</ele>
        <time>2021-04-13T08:38:39Z</time>
      </trkpt>
      <trkpt lat="44.09338" lon="3.55924">
        <ele>1067</ele>
        <time>2021-04-13T08:39:45Z</time>
      </trkpt>
      <trkpt lat="44.09333" lon="3.55935">
        <ele>1068</ele>
        <time>2021-04-13T08:39:57Z</time>
      </trkpt>
      <trkpt lat="44.09337" lon="3.55961">
        <ele>1064</ele>
        <time>2021-04-13T08:40:23Z</time>
      </trkpt>
      <trkpt lat="44.09346" lon="3.55992">
        <ele>1058</ele>
        <time>2021-04-13T08:40:55Z</time>
      </trkpt>
      <trkpt lat="44.09358" lon="3.56007">
        <ele>1052</ele>
        <time>2021-04-13T08:41:16Z</time>
      </trkpt>
      <trkpt lat="44.09376" lon="3.56026">
        <ele>1044</ele>
        <time>2021-04-13T08:41:47Z</time>
      </trkpt>
      <trkpt lat="44.09397" lon="3.56041">
        <ele>1034</ele>
        <time>2021-04-13T08:42:18Z</time>
      </trkpt>
      <trkpt lat="44.09385" lon="3.55997">
        <ele>1042</ele>
        <time>2021-04-13T08:43:03Z</time>
      </trkpt>
      <trkpt lat="44.09384" lon="3.55986">
        <ele>1043</ele>
        <time>2021-04-13T08:43:14Z</time>
      </trkpt>
      <trkpt lat="44.09387" lon="3.55975">
        <ele>1043</ele>
        <time>2021-04-13T08:43:25Z</time>
      </trkpt>
      <trkpt lat="44.09391" lon="3.55964">
        <ele>1043</ele>
        <time>2021-04-13T08:43:37Z</time>
      </trkpt>
      <trkpt lat="44.09407" lon="3.55947">
        <ele>1038</ele>
        <time>2021-04-13T08:44:04Z</time>
      </trkpt>
      <trkpt lat="44.09415" lon="3.55943">
        <ele>1036</ele>
        <time>2021-04-13T08:44:15Z</time>
      </trkpt>
      <trkpt lat="44.09456" lon="3.55943">
        <ele>1026</ele>
        <time>2021-04-13T08:45:10Z</time>
      </trkpt>
      <trkpt lat="44.09466" lon="3.55939">
        <ele>1025</ele>
        <time>2021-04-13T08:45:24Z</time>
      </trkpt>
      <trkpt lat="44.09476" lon="3.55933">
        <ele>1024</ele>
        <time>2021-04-13T08:45:38Z</time>
      </trkpt>
      <trkpt lat="44.09492" lon="3.55911">
        <ele>1027</ele>
        <time>2021-04-13T08:46:08Z</time>
      </trkpt>
      <trkpt lat="44.09509" lon="3.55878">
        <ele>1037</ele>
        <time>2021-04-13T08:46:47Z</time>
      </trkpt>
      <trkpt lat="44.09522" lon="3.55868">
        <ele>1040</ele>
        <time>2021-04-13T08:47:07Z</time>
      </trkpt>
      <trkpt lat="44.09536" lon="3.5586">
        <ele>1042</ele>
        <time>2021-04-13T08:47:27Z</time>
      </trkpt>
      <trkpt lat="44.09566" lon="3.55849">
        <ele>1044</ele>
        <time>2021-04-13T08:48:09Z</time>
      </trkpt>
      <trkpt lat="44.09589" lon="3.55849">
        <ele>1041</ele>
        <time>2021-04-13T08:48:39Z</time>
      </trkpt>
      <trkpt lat="44.096" lon="3.55855">
        <ele>1037</ele>
        <time>2021-04-13T08:48:55Z</time>
      </trkpt>
      <trkpt lat="44.09616" lon="3.55887">
        <ele>1022</ele>
        <time>2021-04-13T08:49:32Z</time>
      </trkpt>
      <trkpt lat="44.09625" lon="3.55899">
        <ele>1016</ele>
        <time>2021-04-13T08:49:49Z</time>
      </trkpt>
      <trkpt lat="44.0964" lon="3.55907">
        <ele>1011</ele>
        <time>2021-04-13T08:50:10Z</time>
      </trkpt>
      <trkpt lat="44.0965" lon="3.55906">
        <ele>1009</ele>
        <time>2021-04-13T08:50:24Z</time>
      </trkpt>
      <trkpt lat="44.09662" lon="3.55898">
        <ele>1010</ele>
        <time>2021-04-13T08:50:42Z</time>
      </trkpt>
      <trkpt lat="44.09676" lon="3.55878">
        <ele>1012</ele>
        <time>2021-04-13T08:51:08Z</time>
      </trkpt>
      <trkpt lat="44.09714" lon="3.55802">
        <ele>1015</ele>
        <time>2021-04-13T08:52:37Z</time>
      </trkpt>
      <trkpt lat="44.09732" lon="3.55784">
        <ele>1009</ele>
        <time>2021-04-13T08:53:07Z</time>
      </trkpt>
      <trkpt lat="44.09746" lon="3.55763">
        <ele>1004</ele>
        <time>2021-04-13T08:53:34Z</time>
      </trkpt>
      <trkpt lat="44.0975" lon="3.55752">
        <ele>1004</ele>
        <time>2021-04-13T08:53:46Z</time>
      </trkpt>
      <trkpt lat="44.09753" lon="3.5574">
        <ele>1006</ele>
        <time>2021-04-13T08:53:58Z</time>
      </trkpt>
      <trkpt lat="44.09755" lon="3.55694">
        <ele>1021</ele>
        <time>2021-04-13T08:54:42Z</time>
      </trkpt>
      <trkpt lat="44.09759" lon="3.55683">
        <ele>1022</ele>
        <time>2021-04-13T08:54:54Z</time>
      </trkpt>
      <trkpt lat="44.09781" lon="3.55655">
        <ele>1021</ele>
        <time>2021-04-13T08:55:34Z</time>
      </trkpt>
      <trkpt lat="44.09801" lon="3.55639">
        <ele>1017</ele>
        <time>2021-04-13T08:56:05Z</time>
      </trkpt>
      <trkpt lat="44.09833" lon="3.55618">
        <ele>1009</ele>
        <time>2021-04-13T08:56:52Z</time>
      </trkpt>
      <trkpt lat="44.09843" lon="3.55614">
        <ele>1005</ele>
        <time>2021-04-13T08:57:06Z</time>
      </trkpt>
      <trkpt lat="44.0985" lon="3.55614">
        <ele>1001</ele>
        <time>2021-04-13T08:57:15Z</time>
      </trkpt>
      <trkpt lat="44.09856" lon="3.55617">
        <ele>997</ele>
        <time>2021-04-13T08:57:24Z</time>
      </trkpt>
      <trkpt lat="44.09859" lon="3.55624">
        <ele>992</ele>
        <time>2021-04-13T08:57:31Z</time>
      </trkpt>
      <trkpt lat="44.09869" lon="3.55613">
        <ele>991</ele>
        <time>2021-04-13T08:57:48Z</time>
      </trkpt>
      <trkpt lat="44.09883" lon="3.55602">
        <ele>988</ele>
        <time>2021-04-13T08:58:10Z</time>
      </trkpt>
      <trkpt lat="44.09869" lon="3.55613">
        <ele>991</ele>
        <time>2021-04-13T08:58:31Z</time>
      </trkpt>
      <trkpt lat="44.09859" lon="3.55624">
        <ele>992</ele>
        <time>2021-04-13T08:58:48Z</time>
      </trkpt>
      <trkpt lat="44.09859" lon="3.55632">
        <ele>988</ele>
        <time>2021-04-13T08:58:56Z</time>
      </trkpt>
      <trkpt lat="44.09855" lon="3.5564">
        <ele>987</ele>
        <time>2021-04-13T08:59:05Z</time>
      </trkpt>
      <trkpt lat="44.0985" lon="3.55645">
        <ele>988</ele>
        <time>2021-04-13T08:59:14Z</time>
      </trkpt>
      <trkpt lat="44.0983" lon="3.55656">
        <ele>994</ele>
        <time>2021-04-13T08:59:42Z</time>
      </trkpt>
      <trkpt lat="44.09814" lon="3.55669">
        <ele>998</ele>
        <time>2021-04-13T09:00:07Z</time>
      </trkpt>
      <trkpt lat="44.09803" lon="3.55681">
        <ele>1000</ele>
        <time>2021-04-13T09:00:26Z</time>
      </trkpt>
      <trkpt lat="44.09794" lon="3.55695">
        <ele>1000</ele>
        <time>2021-04-13T09:00:44Z</time>
      </trkpt>
      <trkpt lat="44.09788" lon="3.55707">
        <ele>999</ele>
        <time>2021-04-13T09:00:58Z</time>
      </trkpt>
      <trkpt lat="44.09784" lon="3.55723">
        <ele>996</ele>
        <time>2021-04-13T09:01:14Z</time>
      </trkpt>
      <trkpt lat="44.09775" lon="3.55792">
        <ele>984</ele>
        <time>2021-04-13T09:02:21Z</time>
      </trkpt>
      <trkpt lat="44.0976" lon="3.55833">
        <ele>987</ele>
        <time>2021-04-13T09:03:05Z</time>
      </trkpt>
      <trkpt lat="44.09738" lon="3.55908">
        <ele>978</ele>
        <time>2021-04-13T09:04:23Z</time>
      </trkpt>
      <trkpt lat="44.0973" lon="3.55927">
        <ele>975</ele>
        <time>2021-04-13T09:04:44Z</time>
      </trkpt>
      <trkpt lat="44.09683" lon="3.55991">
        <ele>970</ele>
        <time>2021-04-13T09:06:12Z</time>
      </trkpt>
      <trkpt lat="44.09676" lon="3.55999">
        <ele>970</ele>
        <time>2021-04-13T09:06:24Z</time>
      </trkpt>
      <trkpt lat="44.09669" lon="3.56004">
        <ele>971</ele>
        <time>2021-04-13T09:06:34Z</time>
      </trkpt>
      <trkpt lat="44.0966" lon="3.56006">
        <ele>972</ele>
        <time>2021-04-13T09:06:46Z</time>
      </trkpt>
      <trkpt lat="44.09631" lon="3.56">
        <ele>980</ele>
        <time>2021-04-13T09:07:26Z</time>
      </trkpt>
      <trkpt lat="44.09624" lon="3.56">
        <ele>981</ele>
        <time>2021-04-13T09:07:35Z</time>
      </trkpt>
      <trkpt lat="44.09583" lon="3.56024">
        <ele>976</ele>
        <time>2021-04-13T09:08:34Z</time>
      </trkpt>
      <trkpt lat="44.09556" lon="3.56032">
        <ele>979</ele>
        <time>2021-04-13T09:09:11Z</time>
      </trkpt>
      <trkpt lat="44.09541" lon="3.56039">
        <ele>979</ele>
        <time>2021-04-13T09:09:32Z</time>
      </trkpt>
      <trkpt lat="44.09524" lon="3.56055">
        <ele>977</ele>
        <time>2021-04-13T09:10:00Z</time>
      </trkpt>
      <trkpt lat="44.09517" lon="3.56065">
        <ele>976</ele>
        <time>2021-04-13T09:10:13Z</time>
      </trkpt>
      <trkpt lat="44.09504" lon="3.56096">
        <ele>971</ele>
        <time>2021-04-13T09:10:47Z</time>
      </trkpt>
      <trkpt lat="44.09499" lon="3.56114">
        <ele>969</ele>
        <time>2021-04-13T09:11:06Z</time>
      </trkpt>
      <trkpt lat="44.09496" lon="3.56156">
        <ele>962</ele>
        <time>2021-04-13T09:11:46Z</time>
      </trkpt>
      <trkpt lat="44.09472" lon="3.56275">
        <ele>953</ele>
        <time>2021-04-13T09:13:45Z</time>
      </trkpt>
      <trkpt lat="44.09467" lon="3.56294">
        <ele>949</ele>
        <time>2021-04-13T09:14:04Z</time>
      </trkpt>
      <trkpt lat="44.09456" lon="3.56319">
        <ele>948</ele>
        <time>2021-04-13T09:14:32Z</time>
      </trkpt>
      <trkpt lat="44.09435" lon="3.56349">
        <ele>948</ele>
        <time>2021-04-13T09:15:12Z</time>
      </trkpt>
      <trkpt lat="44.09422" lon="3.56363">
        <ele>949</ele>
        <time>2021-04-13T09:15:34Z</time>
      </trkpt>
      <trkpt lat="44.09414" lon="3.56366">
        <ele>951</ele>
        <time>2021-04-13T09:15:45Z</time>
      </trkpt>
      <trkpt lat="44.09375" lon="3.56365">
        <ele>964</ele>
        <time>2021-04-13T09:16:37Z</time>
      </trkpt>
      <trkpt lat="44.09367" lon="3.56368">
        <ele>964</ele>
        <time>2021-04-13T09:16:48Z</time>
      </trkpt>
      <trkpt lat="44.09356" lon="3.56378">
        <ele>962</ele>
        <time>2021-04-13T09:17:06Z</time>
      </trkpt>
      <trkpt lat="44.09341" lon="3.56403">
        <ele>950</ele>
        <time>2021-04-13T09:17:37Z</time>
      </trkpt>
      <trkpt lat="44.09328" lon="3.56415">
        <ele>946</ele>
        <time>2021-04-13T09:17:58Z</time>
      </trkpt>
      <trkpt lat="44.09293" lon="3.56426">
        <ele>950</ele>
        <time>2021-04-13T09:18:46Z</time>
      </trkpt>
      <trkpt lat="44.09254" lon="3.56432">
        <ele>959</ele>
        <time>2021-04-13T09:19:38Z</time>
      </trkpt>
      <trkpt lat="44.09248" lon="3.56436">
        <ele>960</ele>
        <time>2021-04-13T09:19:47Z</time>
      </trkpt>
      <trkpt lat="44.09243" lon="3.56443">
        <ele>960</ele>
        <time>2021-04-13T09:19:57Z</time>
      </trkpt>
      <trkpt lat="44.09237" lon="3.56461">
        <ele>957</ele>
        <time>2021-04-13T09:20:16Z</time>
      </trkpt>
      <trkpt lat="44.09237" lon="3.56471">
        <ele>954</ele>
        <time>2021-04-13T09:20:25Z</time>
      </trkpt>
      <trkpt lat="44.09238" lon="3.56479">
        <ele>951</ele>
        <time>2021-04-13T09:20:33Z</time>
      </trkpt>
      <trkpt lat="44.09253" lon="3.56517">
        <ele>933</ele>
        <time>2021-04-13T09:21:15Z</time>
      </trkpt>
      <trkpt lat="44.09256" lon="3.56529">
        <ele>930</ele>
        <time>2021-04-13T09:21:27Z</time>
      </trkpt>
      <trkpt lat="44.09256" lon="3.56552">
        <ele>927</ele>
        <time>2021-04-13T09:21:49Z</time>
      </trkpt>
      <trkpt lat="44.09252" lon="3.56571">
        <ele>927</ele>
        <time>2021-04-13T09:22:08Z</time>
      </trkpt>
      <trkpt lat="44.09226" lon="3.56621">
        <ele>925</ele>
        <time>2021-04-13T09:23:07Z</time>
      </trkpt>
      <trkpt lat="44.09214" lon="3.56638">
        <ele>924</ele>
        <time>2021-04-13T09:23:30Z</time>
      </trkpt>
      <trkpt lat="44.09197" lon="3.5665">
        <ele>927</ele>
        <time>2021-04-13T09:23:55Z</time>
      </trkpt>
      <trkpt lat="44.09111" lon="3.56677">
        <ele>940</ele>
        <time>2021-04-13T09:25:53Z</time>
      </trkpt>
      <trkpt lat="44.09101" lon="3.56682">
        <ele>940</ele>
        <time>2021-04-13T09:26:07Z</time>
      </trkpt>
      <trkpt lat="44.09093" lon="3.56689">
        <ele>939</ele>
        <time>2021-04-13T09:26:20Z</time>
      </trkpt>
      <trkpt lat="44.09087" lon="3.56701">
        <ele>936</ele>
        <time>2021-04-13T09:26:34Z</time>
      </trkpt>
      <trkpt lat="44.09078" lon="3.56727">
        <ele>928</ele>
        <time>2021-04-13T09:27:01Z</time>
      </trkpt>
      <trkpt lat="44.09073" lon="3.56737">
        <ele>926</ele>
        <time>2021-04-13T09:27:13Z</time>
      </trkpt>
      <trkpt lat="44.09062" lon="3.56752">
        <ele>925</ele>
        <time>2021-04-13T09:27:34Z</time>
      </trkpt>
      <trkpt lat="44.09047" lon="3.56762">
        <ele>932</ele>
        <time>2021-04-13T09:27:56Z</time>
      </trkpt>
      <trkpt lat="44.09042" lon="3.56768">
        <ele>933</ele>
        <time>2021-04-13T09:28:05Z</time>
      </trkpt>
      <trkpt lat="44.0904" lon="3.56777">
        <ele>933</ele>
        <time>2021-04-13T09:28:14Z</time>
      </trkpt>
      <trkpt lat="44.09038" lon="3.56788">
        <ele>932</ele>
        <time>2021-04-13T09:28:24Z</time>
      </trkpt>
      <trkpt lat="44.09043" lon="3.5683">
        <ele>924</ele>
        <time>2021-04-13T09:29:05Z</time>
      </trkpt>
      <trkpt lat="44.09047" lon="3.56844">
        <ele>923</ele>
        <time>2021-04-13T09:29:20Z</time>
      </trkpt>
      <trkpt lat="44.09053" lon="3.56853">
        <ele>921</ele>
        <time>2021-04-13T09:29:31Z</time>
      </trkpt>
      <trkpt lat="44.09061" lon="3.56861">
        <ele>918</ele>
        <time>2021-04-13T09:29:45Z</time>
      </trkpt>
      <trkpt lat="44.09071" lon="3.56859">
        <ele>912</ele>
        <time>2021-04-13T09:29:58Z</time>
      </trkpt>
      <trkpt lat="44.09087" lon="3.56866">
        <ele>905</ele>
        <time>2021-04-13T09:30:20Z</time>
      </trkpt>
      <trkpt lat="44.09103" lon="3.56876">
        <ele>898</ele>
        <time>2021-04-13T09:30:44Z</time>
      </trkpt>
      <trkpt lat="44.09132" lon="3.56909">
        <ele>888</ele>
        <time>2021-04-13T09:31:34Z</time>
      </trkpt>
      <trkpt lat="44.09158" lon="3.56959">
        <ele>878</ele>
        <time>2021-04-13T09:32:33Z</time>
      </trkpt>
      <trkpt lat="44.09169" lon="3.56999">
        <ele>875</ele>
        <time>2021-04-13T09:33:14Z</time>
      </trkpt>
      <trkpt lat="44.09138" lon="3.57065">
        <ele>880</ele>
        <time>2021-04-13T09:34:30Z</time>
      </trkpt>
      <trkpt lat="44.09125" lon="3.57118">
        <ele>878</ele>
        <time>2021-04-13T09:35:23Z</time>
      </trkpt>
      <trkpt lat="44.09131" lon="3.57136">
        <ele>872</ele>
        <time>2021-04-13T09:35:42Z</time>
      </trkpt>
      <trkpt lat="44.09155" lon="3.57081">
        <ele>868</ele>
        <time>2021-04-13T09:36:44Z</time>
      </trkpt>
      <trkpt lat="44.09203" lon="3.57035">
        <ele>853</ele>
        <time>2021-04-13T09:38:02Z</time>
      </trkpt>
      <trkpt lat="44.09217" lon="3.57034">
        <ele>846</ele>
        <time>2021-04-13T09:38:21Z</time>
      </trkpt>
      <trkpt lat="44.09241" lon="3.56988">
        <ele>841</ele>
        <time>2021-04-13T09:39:15Z</time>
      </trkpt>
      <trkpt lat="44.09245" lon="3.56944">
        <ele>838</ele>
        <time>2021-04-13T09:39:58Z</time>
      </trkpt>
      <trkpt lat="44.09261" lon="3.56986">
        <ele>830</ele>
        <time>2021-04-13T09:40:43Z</time>
      </trkpt>
      <trkpt lat="44.09249" lon="3.5704">
        <ele>830</ele>
        <time>2021-04-13T09:41:37Z</time>
      </trkpt>
      <trkpt lat="44.09226" lon="3.57082">
        <ele>834</ele>
        <time>2021-04-13T09:42:28Z</time>
      </trkpt>
      <trkpt lat="44.09205" lon="3.57106">
        <ele>838</ele>
        <time>2021-04-13T09:43:04Z</time>
      </trkpt>
      <trkpt lat="44.09193" lon="3.57139">
        <ele>837</ele>
        <time>2021-04-13T09:43:40Z</time>
      </trkpt>
      <trkpt lat="44.09205" lon="3.57188">
        <ele>821</ele>
        <time>2021-04-13T09:44:29Z</time>
      </trkpt>
      <trkpt lat="44.09209" lon="3.5726">
        <ele>811</ele>
        <time>2021-04-13T09:45:38Z</time>
      </trkpt>
      <trkpt lat="44.09202" lon="3.57326">
        <ele>805</ele>
        <time>2021-04-13T09:46:42Z</time>
      </trkpt>
      <trkpt lat="44.09192" lon="3.57375">
        <ele>802</ele>
        <time>2021-04-13T09:47:31Z</time>
      </trkpt>
      <trkpt lat="44.09163" lon="3.57574">
        <ele>776</ele>
        <time>2021-04-13T09:50:46Z</time>
      </trkpt>
      <trkpt lat="44.09211" lon="3.57486">
        <ele>769</ele>
        <time>2021-04-13T09:52:32Z</time>
      </trkpt>
      <trkpt lat="44.09241" lon="3.57413">
        <ele>766</ele>
        <time>2021-04-13T09:53:52Z</time>
      </trkpt>
      <trkpt lat="44.09264" lon="3.57371">
        <ele>762</ele>
        <time>2021-04-13T09:54:43Z</time>
      </trkpt>
      <trkpt lat="44.09292" lon="3.57329">
        <ele>754</ele>
        <time>2021-04-13T09:55:38Z</time>
      </trkpt>
      <trkpt lat="44.09304" lon="3.57305">
        <ele>751</ele>
        <time>2021-04-13T09:56:06Z</time>
      </trkpt>
      <trkpt lat="44.09317" lon="3.57286">
        <ele>746</ele>
        <time>2021-04-13T09:56:31Z</time>
      </trkpt>
      <trkpt lat="44.09325" lon="3.5728">
        <ele>742</ele>
        <time>2021-04-13T09:56:43Z</time>
      </trkpt>
      <trkpt lat="44.09328" lon="3.57288">
        <ele>740</ele>
        <time>2021-04-13T09:56:52Z</time>
      </trkpt>
      <trkpt lat="44.09333" lon="3.57305">
        <ele>734</ele>
        <time>2021-04-13T09:57:09Z</time>
      </trkpt>
      <trkpt lat="44.09336" lon="3.57307">
        <ele>732</ele>
        <time>2021-04-13T09:57:14Z</time>
      </trkpt>
      <trkpt lat="44.09339" lon="3.57316">
        <ele>729</ele>
        <time>2021-04-13T09:57:23Z</time>
      </trkpt>
      <trkpt lat="44.09337" lon="3.5733">
        <ele>728</ele>
        <time>2021-04-13T09:57:37Z</time>
      </trkpt>
      <trkpt lat="44.09314" lon="3.57365">
        <ele>735</ele>
        <time>2021-04-13T09:58:23Z</time>
      </trkpt>
      <trkpt lat="44.09292" lon="3.57416">
        <ele>737</ele>
        <time>2021-04-13T09:59:20Z</time>
      </trkpt>
      <trkpt lat="44.09289" lon="3.57446">
        <ele>734</ele>
        <time>2021-04-13T09:59:49Z</time>
      </trkpt>
      <trkpt lat="44.09294" lon="3.57461">
        <ele>728</ele>
        <time>2021-04-13T10:00:04Z</time>
      </trkpt>
      <trkpt lat="44.09294" lon="3.57467">
        <ele>727</ele>
        <time>2021-04-13T10:00:10Z</time>
      </trkpt>
      <trkpt lat="44.09309" lon="3.57513">
        <ele>710</ele>
        <time>2021-04-13T10:00:59Z</time>
      </trkpt>
      <trkpt lat="44.09309" lon="3.57535">
        <ele>706</ele>
        <time>2021-04-13T10:01:20Z</time>
      </trkpt>
      <trkpt lat="44.09293" lon="3.57576">
        <ele>709</ele>
        <time>2021-04-13T10:02:04Z</time>
      </trkpt>
      <trkpt lat="44.09288" lon="3.57605">
        <ele>708</ele>
        <time>2021-04-13T10:02:33Z</time>
      </trkpt>
      <trkpt lat="44.09294" lon="3.57634">
        <ele>700</ele>
        <time>2021-04-13T10:03:02Z</time>
      </trkpt>
      <trkpt lat="44.09296" lon="3.57679">
        <ele>692</ele>
        <time>2021-04-13T10:03:45Z</time>
      </trkpt>
      <trkpt lat="44.09285" lon="3.57753">
        <ele>684</ele>
        <time>2021-04-13T10:04:58Z</time>
      </trkpt>
      <trkpt lat="44.09282" lon="3.57801">
        <ele>673</ele>
        <time>2021-04-13T10:05:44Z</time>
      </trkpt>
      <trkpt lat="44.09227" lon="3.5794">
        <ele>661</ele>
        <time>2021-04-13T10:08:16Z</time>
      </trkpt>
      <trkpt lat="44.09212" lon="3.57971">
        <ele>659</ele>
        <time>2021-04-13T10:08:52Z</time>
      </trkpt>
      <trkpt lat="44.09216" lon="3.57982">
        <ele>654</ele>
        <time>2021-04-13T10:09:03Z</time>
      </trkpt>
      <trkpt lat="44.09197" lon="3.58026">
        <ele>649</ele>
        <time>2021-04-13T10:09:53Z</time>
      </trkpt>
      <trkpt lat="44.09189" lon="3.58048">
        <ele>645</ele>
        <time>2021-04-13T10:10:16Z</time>
      </trkpt>
      <trkpt lat="44.09134" lon="3.58143">
        <ele>621</ele>
        <time>2021-04-13T10:12:13Z</time>
      </trkpt>
      <trkpt lat="44.09114" lon="3.58161">
        <ele>615</ele>
        <time>2021-04-13T10:12:45Z</time>
      </trkpt>
      <trkpt lat="44.0912" lon="3.58172">
        <ele>612</ele>
        <time>2021-04-13T10:12:58Z</time>
      </trkpt>
      <trkpt lat="44.09145" lon="3.5817">
        <ele>613</ele>
        <time>2021-04-13T10:13:32Z</time>
      </trkpt>
      <trkpt lat="44.09182" lon="3.58143">
        <ele>617</ele>
        <time>2021-04-13T10:14:27Z</time>
      </trkpt>
      <trkpt lat="44.09257" lon="3.58081">
        <ele>610</ele>
        <time>2021-04-13T10:16:24Z</time>
      </trkpt>
      <trkpt lat="44.0925" lon="3.58114">
        <ele>602</ele>
        <time>2021-04-13T10:16:57Z</time>
      </trkpt>
      <trkpt lat="44.09223" lon="3.58162">
        <ele>596</ele>
        <time>2021-04-13T10:17:55Z</time>
      </trkpt>
      <trkpt lat="44.09199" lon="3.58215">
        <ele>586</ele>
        <time>2021-04-13T10:18:55Z</time>
      </trkpt>
      <trkpt lat="44.09117" lon="3.58304">
        <ele>563</ele>
        <time>2021-04-13T10:21:14Z</time>
      </trkpt>
      <trkpt lat="44.09092" lon="3.58299">
        <ele>567</ele>
        <time>2021-04-13T10:21:48Z</time>
      </trkpt>
      <trkpt lat="44.09058" lon="3.58287">
        <ele>577</ele>
        <time>2021-04-13T10:22:35Z</time>
      </trkpt>
      <trkpt lat="44.09049" lon="3.58271">
        <ele>584</ele>
        <time>2021-04-13T10:22:54Z</time>
      </trkpt>
      <trkpt lat="44.0904" lon="3.58271">
        <ele>585</ele>
        <time>2021-04-13T10:23:06Z</time>
      </trkpt>
      <trkpt lat="44.0904" lon="3.58296">
        <ele>578</ele>
        <time>2021-04-13T10:23:30Z</time>
      </trkpt>
      <trkpt lat="44.09043" lon="3.5831">
        <ele>573</ele>
        <time>2021-04-13T10:23:44Z</time>
      </trkpt>
      <trkpt lat="44.09041" lon="3.58331">
        <ele>567</ele>
        <time>2021-04-13T10:24:04Z</time>
      </trkpt>
      <trkpt lat="44.09046" lon="3.58374">
        <ele>554</ele>
        <time>2021-04-13T10:24:46Z</time>
      </trkpt>
      <trkpt lat="44.09056" lon="3.58402">
        <ele>544</ele>
        <time>2021-04-13T10:25:16Z</time>
      </trkpt>
      <trkpt lat="44.09056" lon="3.58414">
        <ele>541</ele>
        <time>2021-04-13T10:25:28Z</time>
      </trkpt>
      <trkpt lat="44.09053" lon="3.58444">
        <ele>536</ele>
        <time>2021-04-13T10:25:57Z</time>
      </trkpt>
      <trkpt lat="44.09046" lon="3.58445">
        <ele>537</ele>
        <time>2021-04-13T10:26:06Z</time>
      </trkpt>
      <trkpt lat="44.09017" lon="3.58433">
        <ele>546</ele>
        <time>2021-04-13T10:26:46Z</time>
      </trkpt>
      <trkpt lat="44.08998" lon="3.58428">
        <ele>552</ele>
        <time>2021-04-13T10:27:12Z</time>
      </trkpt>
      <trkpt lat="44.08991" lon="3.58428">
        <ele>554</ele>
        <time>2021-04-13T10:27:21Z</time>
      </trkpt>
      <trkpt lat="44.08985" lon="3.58432">
        <ele>555</ele>
        <time>2021-04-13T10:27:30Z</time>
      </trkpt>
      <trkpt lat="44.08978" lon="3.58442">
        <ele>556</ele>
        <time>2021-04-13T10:27:44Z</time>
      </trkpt>
      <trkpt lat="44.08975" lon="3.5845">
        <ele>556</ele>
        <time>2021-04-13T10:27:52Z</time>
      </trkpt>
      <trkpt lat="44.0899" lon="3.5848">
        <ele>547</ele>
        <time>2021-04-13T10:28:27Z</time>
      </trkpt>
      <trkpt lat="44.09023" lon="3.58529">
        <ele>532</ele>
        <time>2021-04-13T10:29:32Z</time>
      </trkpt>
      <trkpt lat="44.0903" lon="3.58563">
        <ele>528</ele>
        <time>2021-04-13T10:30:06Z</time>
      </trkpt>
      <trkpt lat="44.09018" lon="3.58644">
        <ele>524</ele>
        <time>2021-04-13T10:31:25Z</time>
      </trkpt>
      <trkpt lat="44.09" lon="3.58707">
        <ele>523</ele>
        <time>2021-04-13T10:32:30Z</time>
      </trkpt>
      <trkpt lat="44.08981" lon="3.58803">
        <ele>513</ele>
        <time>2021-04-13T10:34:05Z</time>
      </trkpt>
      <trkpt lat="44.08967" lon="3.58888">
        <ele>499</ele>
        <time>2021-04-13T10:35:29Z</time>
      </trkpt>
      <trkpt lat="44.08954" lon="3.58908">
        <ele>498</ele>
        <time>2021-04-13T10:35:55Z</time>
      </trkpt>
      <trkpt lat="44.08933" lon="3.58923">
        <ele>500</ele>
        <time>2021-04-13T10:36:26Z</time>
      </trkpt>
      <trkpt lat="44.08924" lon="3.58939">
        <ele>500</ele>
        <time>2021-04-13T10:36:46Z</time>
      </trkpt>
      <trkpt lat="44.08932" lon="3.58956">
        <ele>497</ele>
        <time>2021-04-13T10:37:05Z</time>
      </trkpt>
      <trkpt lat="44.08941" lon="3.58969">
        <ele>493</ele>
        <time>2021-04-13T10:37:23Z</time>
      </trkpt>
      <trkpt lat="44.08949" lon="3.59007">
        <ele>487</ele>
        <time>2021-04-13T10:38:01Z</time>
      </trkpt>
      <trkpt lat="44.08949" lon="3.59022">
        <ele>485</ele>
        <time>2021-04-13T10:38:15Z</time>
      </trkpt>
      <trkpt lat="44.08942" lon="3.59061">
        <ele>484</ele>
        <time>2021-04-13T10:38:53Z</time>
      </trkpt>
      <trkpt lat="44.08935" lon="3.59086">
        <ele>483</ele>
        <time>2021-04-13T10:39:19Z</time>
      </trkpt>
      <trkpt lat="44.08922" lon="3.5912">
        <ele>481</ele>
        <time>2021-04-13T10:39:56Z</time>
      </trkpt>
      <trkpt lat="44.08918" lon="3.59141">
        <ele>478</ele>
        <time>2021-04-13T10:40:17Z</time>
      </trkpt>
      <trkpt lat="44.08922" lon="3.59158">
        <ele>475</ele>
        <time>2021-04-13T10:40:34Z</time>
      </trkpt>
      <trkpt lat="44.08914" lon="3.59217">
        <ele>471</ele>
        <time>2021-04-13T10:41:32Z</time>
      </trkpt>
      <trkpt lat="44.08913" lon="3.59243">
        <ele>469</ele>
        <time>2021-04-13T10:41:57Z</time>
      </trkpt>
      <trkpt lat="44.08906" lon="3.59273">
        <ele>468</ele>
        <time>2021-04-13T10:42:27Z</time>
      </trkpt>
      <trkpt lat="44.08886" lon="3.59338">
        <ele>470</ele>
        <time>2021-04-13T10:43:35Z</time>
      </trkpt>
      <trkpt lat="44.08853" lon="3.59413">
        <ele>469</ele>
        <time>2021-04-13T10:44:59Z</time>
      </trkpt>
      <trkpt lat="44.08844" lon="3.59435">
        <ele>468</ele>
        <time>2021-04-13T10:45:23Z</time>
      </trkpt>
      <trkpt lat="44.08839" lon="3.59454">
        <ele>466</ele>
        <time>2021-04-13T10:45:43Z</time>
      </trkpt>
      <trkpt lat="44.08831" lon="3.59511">
        <ele>458</ele>
        <time>2021-04-13T10:46:38Z</time>
      </trkpt>
      <trkpt lat="44.08828" lon="3.59542">
        <ele>458</ele>
        <time>2021-04-13T10:47:08Z</time>
      </trkpt>
      <trkpt lat="44.08827" lon="3.59582">
        <ele>455</ele>
        <time>2021-04-13T10:47:47Z</time>
      </trkpt>
      <trkpt lat="44.08824" lon="3.5963">
        <ele>455</ele>
        <time>2021-04-13T10:48:33Z</time>
      </trkpt>
      <trkpt lat="44.08822" lon="3.59665">
        <ele>455</ele>
        <time>2021-04-13T10:49:06Z</time>
      </trkpt>
      <trkpt lat="44.08817" lon="3.59754">
        <ele>451</ele>
        <time>2021-04-13T10:50:32Z</time>
      </trkpt>
      <trkpt lat="44.08813" lon="3.59794">
        <ele>451</ele>
        <time>2021-04-13T10:51:11Z</time>
      </trkpt>
      <trkpt lat="44.0881" lon="3.59811">
        <ele>451</ele>
        <time>2021-04-13T10:51:27Z</time>
      </trkpt>
      <trkpt lat="44.08805" lon="3.59827">
        <ele>452</ele>
        <time>2021-04-13T10:51:44Z</time>
      </trkpt>
      <trkpt lat="44.08746" lon="3.59969">
        <ele>449</ele>
        <time>2021-04-13T10:54:21Z</time>
      </trkpt>
      <trkpt lat="44.08712" lon="3.60059">
        <ele>446</ele>
        <time>2021-04-13T10:55:59Z</time>
      </trkpt>
      <trkpt lat="44.08692" lon="3.60104">
        <ele>445</ele>
        <time>2021-04-13T10:56:50Z</time>
      </trkpt>
      <trkpt lat="44.08671" lon="3.60143">
        <ele>444</ele>
        <time>2021-04-13T10:57:36Z</time>
      </trkpt>
      <trkpt lat="44.08668" lon="3.6015">
        <ele>443</ele>
        <time>2021-04-13T10:57:44Z</time>
      </trkpt>
      <trkpt lat="44.08644" lon="3.60194">
        <ele>446</ele>
        <time>2021-04-13T10:58:37Z</time>
      </trkpt>
      <trkpt lat="44.08638" lon="3.60214">
        <ele>446</ele>
        <time>2021-04-13T10:58:58Z</time>
      </trkpt>
      <trkpt lat="44.08634" lon="3.6023">
        <ele>446</ele>
        <time>2021-04-13T10:59:14Z</time>
      </trkpt>
      <trkpt lat="44.08633" lon="3.60264">
        <ele>445</ele>
        <time>2021-04-13T10:59:47Z</time>
      </trkpt>
      <trkpt lat="44.08635" lon="3.60278">
        <ele>445</ele>
        <time>2021-04-13T11:00:00Z</time>
      </trkpt>
      <trkpt lat="44.08643" lon="3.60304">
        <ele>442</ele>
        <time>2021-04-13T11:00:28Z</time>
      </trkpt>
      <trkpt lat="44.08656" lon="3.60332">
        <ele>437</ele>
        <time>2021-04-13T11:01:00Z</time>
      </trkpt>
      <trkpt lat="44.08679" lon="3.60372">
        <ele>436</ele>
        <time>2021-04-13T11:01:49Z</time>
      </trkpt>
      <trkpt lat="44.08684" lon="3.60384">
        <ele>436</ele>
        <time>2021-04-13T11:02:02Z</time>
      </trkpt>
      <trkpt lat="44.08689" lon="3.60398">
        <ele>437</ele>
        <time>2021-04-13T11:02:17Z</time>
      </trkpt>
      <trkpt lat="44.08691" lon="3.60412">
        <ele>437</ele>
        <time>2021-04-13T11:02:31Z</time>
      </trkpt>
      <trkpt lat="44.0869" lon="3.6044">
        <ele>435</ele>
        <time>2021-04-13T11:02:57Z</time>
      </trkpt>
      <trkpt lat="44.08683" lon="3.60475">
        <ele>434</ele>
        <time>2021-04-13T11:03:32Z</time>
      </trkpt>
      <trkpt lat="44.0865" lon="3.60593">
        <ele>430</ele>
        <time>2021-04-13T11:05:34Z</time>
      </trkpt>
      <trkpt lat="44.08636" lon="3.60691">
        <ele>432</ele>
        <time>2021-04-13T11:07:09Z</time>
      </trkpt>
      <trkpt lat="44.08619" lon="3.60773">
        <ele>431</ele>
        <time>2021-04-13T11:08:31Z</time>
      </trkpt>
      <trkpt lat="44.08578" lon="3.60885">
        <ele>425</ele>
        <time>2021-04-13T11:10:32Z</time>
      </trkpt>
      <trkpt lat="44.08569" lon="3.60923">
        <ele>424</ele>
        <time>2021-04-13T11:11:10Z</time>
      </trkpt>
      <trkpt lat="44.08564" lon="3.60964">
        <ele>422</ele>
        <time>2021-04-13T11:11:50Z</time>
      </trkpt>
      <trkpt lat="44.08558" lon="3.61045">
        <ele>420</ele>
        <time>2021-04-13T11:13:08Z</time>
      </trkpt>
      <trkpt lat="44.0856" lon="3.61088">
        <ele>419</ele>
        <time>2021-04-13T11:13:49Z</time>
      </trkpt>
      <trkpt lat="44.08564" lon="3.61101">
        <ele>418</ele>
        <time>2021-04-13T11:14:03Z</time>
      </trkpt>
      <trkpt lat="44.08569" lon="3.61115">
        <ele>416</ele>
        <time>2021-04-13T11:14:18Z</time>
      </trkpt>
      <trkpt lat="44.08575" lon="3.61127">
        <ele>414</ele>
        <time>2021-04-13T11:14:32Z</time>
      </trkpt>
      <trkpt lat="44.08595" lon="3.61162">
        <ele>414</ele>
        <time>2021-04-13T11:15:15Z</time>
      </trkpt>
      <trkpt lat="44.08644" lon="3.61243">
        <ele>417</ele>
        <time>2021-04-13T11:16:56Z</time>
      </trkpt>
      <trkpt lat="44.08653" lon="3.61265">
        <ele>417</ele>
        <time>2021-04-13T11:17:21Z</time>
      </trkpt>
      <trkpt lat="44.08659" lon="3.61285">
        <ele>417</ele>
        <time>2021-04-13T11:17:41Z</time>
      </trkpt>
      <trkpt lat="44.08662" lon="3.61306">
        <ele>416</ele>
        <time>2021-04-13T11:18:02Z</time>
      </trkpt>
      <trkpt lat="44.08661" lon="3.61329">
        <ele>415</ele>
        <time>2021-04-13T11:18:24Z</time>
      </trkpt>
      <trkpt lat="44.08659" lon="3.61352">
        <ele>413</ele>
        <time>2021-04-13T11:18:46Z</time>
      </trkpt>
      <trkpt lat="44.08653" lon="3.61377">
        <ele>412</ele>
        <time>2021-04-13T11:19:11Z</time>
      </trkpt>
      <trkpt lat="44.08647" lon="3.61393">
        <ele>410</ele>
        <time>2021-04-13T11:19:29Z</time>
      </trkpt>
      <trkpt lat="44.08622" lon="3.6145">
        <ele>407</ele>
        <time>2021-04-13T11:20:33Z</time>
      </trkpt>
      <trkpt lat="44.08608" lon="3.61496">
        <ele>406</ele>
        <time>2021-04-13T11:21:21Z</time>
      </trkpt>
      <trkpt lat="44.08596" lon="3.61524">
        <ele>405</ele>
        <time>2021-04-13T11:21:52Z</time>
      </trkpt>
      <trkpt lat="44.0858" lon="3.61545">
        <ele>404</ele>
        <time>2021-04-13T11:22:21Z</time>
      </trkpt>
      <trkpt lat="44.08548" lon="3.6158">
        <ele>402</ele>
        <time>2021-04-13T11:23:15Z</time>
      </trkpt>
      <trkpt lat="44.08491" lon="3.61656">
        <ele>400</ele>
        <time>2021-04-13T11:25:01Z</time>
      </trkpt>
      <trkpt lat="44.08466" lon="3.61699">
        <ele>400</ele>
        <time>2021-04-13T11:25:54Z</time>
      </trkpt>
      <trkpt lat="44.08375" lon="3.61877">
        <ele>397</ele>
        <time>2021-04-13T11:29:23Z</time>
      </trkpt>
      <trkpt lat="44.08337" lon="3.61959">
        <ele>399</ele>
        <time>2021-04-13T11:30:57Z</time>
      </trkpt>
      <trkpt lat="44.08318" lon="3.61987">
        <ele>401</ele>
        <time>2021-04-13T11:31:34Z</time>
      </trkpt>
      <trkpt lat="44.0828" lon="3.62036">
        <ele>402</ele>
        <time>2021-04-13T11:32:43Z</time>
      </trkpt>
      <trkpt lat="44.08273" lon="3.62048">
        <ele>401</ele>
        <time>2021-04-13T11:32:58Z</time>
      </trkpt>
      <trkpt lat="44.08264" lon="3.62071">
        <ele>400</ele>
        <time>2021-04-13T11:33:23Z</time>
      </trkpt>
      <trkpt lat="44.0824" lon="3.62177">
        <ele>396</ele>
        <time>2021-04-13T11:35:09Z</time>
      </trkpt>
      <trkpt lat="44.08228" lon="3.62202">
        <ele>397</ele>
        <time>2021-04-13T11:35:38Z</time>
      </trkpt>
      <trkpt lat="44.08199" lon="3.62239">
        <ele>403</ele>
        <time>2021-04-13T11:36:31Z</time>
      </trkpt>
      <trkpt lat="44.08195" lon="3.62249">
        <ele>403</ele>
        <time>2021-04-13T11:36:42Z</time>
      </trkpt>
      <trkpt lat="44.08175" lon="3.62459">
        <ele>392</ele>
        <time>2021-04-13T11:40:05Z</time>
      </trkpt>
      <trkpt lat="44.08164" lon="3.62544">
        <ele>388</ele>
        <time>2021-04-13T11:41:27Z</time>
      </trkpt>
      <trkpt lat="44.08148" lon="3.6264">
        <ele>392</ele>
        <time>2021-04-13T11:43:02Z</time>
      </trkpt>
      <trkpt lat="44.0814" lon="3.62715">
        <ele>392</ele>
        <time>2021-04-13T11:44:15Z</time>
      </trkpt>
      <trkpt lat="44.08127" lon="3.62752">
        <ele>395</ele>
        <time>2021-04-13T11:44:54Z</time>
      </trkpt>
      <trkpt lat="44.08124" lon="3.62768">
        <ele>396</ele>
        <time>2021-04-13T11:45:10Z</time>
      </trkpt>
      <trkpt lat="44.08123" lon="3.62783">
        <ele>396</ele>
        <time>2021-04-13T11:45:24Z</time>
      </trkpt>
      <trkpt lat="44.08123" lon="3.62798">
        <ele>396</ele>
        <time>2021-04-13T11:45:39Z</time>
      </trkpt>
      <trkpt lat="44.08125" lon="3.6281">
        <ele>396</ele>
        <time>2021-04-13T11:45:51Z</time>
      </trkpt>
      <trkpt lat="44.08147" lon="3.62881">
        <ele>390</ele>
        <time>2021-04-13T11:47:05Z</time>
      </trkpt>
      <trkpt lat="44.08162" lon="3.62918">
        <ele>386</ele>
        <time>2021-04-13T11:47:45Z</time>
      </trkpt>
      <trkpt lat="44.0817" lon="3.62931">
        <ele>385</ele>
        <time>2021-04-13T11:48:02Z</time>
      </trkpt>
      <trkpt lat="44.08194" lon="3.62964">
        <ele>385</ele>
        <time>2021-04-13T11:48:47Z</time>
      </trkpt>
      <trkpt lat="44.082" lon="3.62976">
        <ele>384</ele>
        <time>2021-04-13T11:49:01Z</time>
      </trkpt>
      <trkpt lat="44.08205" lon="3.62998">
        <ele>384</ele>
        <time>2021-04-13T11:49:23Z</time>
      </trkpt>
      <trkpt lat="44.08205" lon="3.63011">
        <ele>383</ele>
        <time>2021-04-13T11:49:35Z</time>
      </trkpt>
      <trkpt lat="44.08199" lon="3.63037">
        <ele>382</ele>
        <time>2021-04-13T11:50:02Z</time>
      </trkpt>
      <trkpt lat="44.08193" lon="3.63049">
        <ele>382</ele>
        <time>2021-04-13T11:50:16Z</time>
      </trkpt>
      <trkpt lat="44.08184" lon="3.6306">
        <ele>382</ele>
        <time>2021-04-13T11:50:32Z</time>
      </trkpt>
      <trkpt lat="44.08155" lon="3.63083">
        <ele>386</ele>
        <time>2021-04-13T11:51:16Z</time>
      </trkpt>
      <trkpt lat="44.0815" lon="3.63092">
        <ele>386</ele>
        <time>2021-04-13T11:51:27Z</time>
      </trkpt>
      <trkpt lat="44.08131" lon="3.63153">
        <ele>385</ele>
        <time>2021-04-13T11:52:31Z</time>
      </trkpt>
      <trkpt lat="44.08108" lon="3.63213">
        <ele>386</ele>
        <time>2021-04-13T11:53:36Z</time>
      </trkpt>
      <trkpt lat="44.08099" lon="3.63245">
        <ele>384</ele>
        <time>2021-04-13T11:54:09Z</time>
      </trkpt>
      <trkpt lat="44.08092" lon="3.63285">
        <ele>381</ele>
        <time>2021-04-13T11:54:48Z</time>
      </trkpt>
      <trkpt lat="44.08092" lon="3.63365">
        <ele>375</ele>
        <time>2021-04-13T11:56:05Z</time>
      </trkpt>
      <trkpt lat="44.08084" lon="3.63453">
        <ele>371</ele>
        <time>2021-04-13T11:57:30Z</time>
      </trkpt>
      <trkpt lat="44.08078" lon="3.63587">
        <ele>366</ele>
        <time>2021-04-13T11:59:39Z</time>
      </trkpt>
      <trkpt lat="44.08077" lon="3.63663">
        <ele>364</ele>
        <time>2021-04-13T12:00:52Z</time>
      </trkpt>
      <trkpt lat="44.08082" lon="3.63798">
        <ele>361</ele>
        <time>2021-04-13T12:03:01Z</time>
      </trkpt>
      <trkpt lat="44.08081" lon="3.63813">
        <ele>361</ele>
        <time>2021-04-13T12:03:16Z</time>
      </trkpt>
      <trkpt lat="44.08085" lon="3.63815">
        <ele>360</ele>
        <time>2021-04-13T12:03:21Z</time>
      </trkpt>
      <trkpt lat="44.0809" lon="3.63816">
        <ele>361</ele>
        <time>2021-04-13T12:03:28Z</time>
      </trkpt>
      <trkpt lat="44.08111" lon="3.63822">
        <ele>362</ele>
        <time>2021-04-13T12:03:57Z</time>
      </trkpt>
      <trkpt lat="44.08125" lon="3.63821">
        <ele>363</ele>
        <time>2021-04-13T12:04:15Z</time>
      </trkpt>
      <trkpt lat="44.08127" lon="3.63808">
        <ele>363</ele>
        <time>2021-04-13T12:04:28Z</time>
      </trkpt>
      <trkpt lat="44.08133" lon="3.63798">
        <ele>364</ele>
        <time>2021-04-13T12:04:41Z</time>
      </trkpt>
      <trkpt lat="44.08143" lon="3.63767">
        <ele>366</ele>
        <time>2021-04-13T12:05:13Z</time>
      </trkpt>
      <trkpt lat="44.0815" lon="3.63759">
        <ele>367</ele>
        <time>2021-04-13T12:05:25Z</time>
      </trkpt>
      <trkpt lat="44.08148" lon="3.63726">
        <ele>369</ele>
        <time>2021-04-13T12:05:57Z</time>
      </trkpt>
      <trkpt lat="44.08156" lon="3.63701">
        <ele>371</ele>
        <time>2021-04-13T12:06:23Z</time>
      </trkpt>
      <trkpt lat="44.08155" lon="3.63682">
        <ele>372</ele>
        <time>2021-04-13T12:06:42Z</time>
      </trkpt>
      <trkpt lat="44.0817" lon="3.63688">
        <ele>375</ele>
        <time>2021-04-13T12:07:02Z</time>
      </trkpt>
      <trkpt lat="44.08208" lon="3.63677">
        <ele>389</ele>
        <time>2021-04-13T12:07:54Z</time>
      </trkpt>
      <trkpt lat="44.08219" lon="3.63671">
        <ele>394</ele>
        <time>2021-04-13T12:08:10Z</time>
      </trkpt>
      <trkpt lat="44.08224" lon="3.63674">
        <ele>395</ele>
        <time>2021-04-13T12:08:17Z</time>
      </trkpt>
      <trkpt lat="44.0823" lon="3.63716">
        <ele>392</ele>
        <time>2021-04-13T12:08:58Z</time>
      </trkpt>
      <trkpt lat="44.08238" lon="3.63732">
        <ele>393</ele>
        <time>2021-04-13T12:09:17Z</time>
      </trkpt>
      <trkpt lat="44.08237" lon="3.63724">
        <ele>394</ele>
        <time>2021-04-13T12:09:25Z</time>
      </trkpt>
      <trkpt lat="44.08236" lon="3.63716">
        <ele>394</ele>
        <time>2021-04-13T12:09:33Z</time>
      </trkpt>
      <trkpt lat="44.08235" lon="3.63703">
        <ele>396</ele>
        <time>2021-04-13T12:09:45Z</time>
      </trkpt>
      <trkpt lat="44.08237" lon="3.63688">
        <ele>398</ele>
        <time>2021-04-13T12:10:00Z</time>
      </trkpt>
      <trkpt lat="44.08242" lon="3.63669">
        <ele>403</ele>
        <time>2021-04-13T12:10:19Z</time>
      </trkpt>
      <trkpt lat="44.08244" lon="3.63665">
        <ele>404</ele>
        <time>2021-04-13T12:10:24Z</time>
      </trkpt>
      <trkpt lat="44.08245" lon="3.6366">
        <ele>405</ele>
        <time>2021-04-13T12:10:29Z</time>
      </trkpt>
      <trkpt lat="44.08242" lon="3.63646">
        <ele>405</ele>
        <time>2021-04-13T12:10:43Z</time>
      </trkpt>
      <trkpt lat="44.0822" lon="3.6364">
        <ele>397</ele>
        <time>2021-04-13T12:11:13Z</time>
      </trkpt>
      <trkpt lat="44.08213" lon="3.63632">
        <ele>395</ele>
        <time>2021-04-13T12:11:25Z</time>
      </trkpt>
      <trkpt lat="44.08211" lon="3.63623">
        <ele>395</ele>
        <time>2021-04-13T12:11:34Z</time>
      </trkpt>
      <trkpt lat="44.08212" lon="3.63595">
        <ele>398</ele>
        <time>2021-04-13T12:12:01Z</time>
      </trkpt>
      <trkpt lat="44.08214" lon="3.63588">
        <ele>399</ele>
        <time>2021-04-13T12:12:08Z</time>
      </trkpt>
      <trkpt lat="44.0822" lon="3.63585">
        <ele>402</ele>
        <time>2021-04-13T12:12:16Z</time>
      </trkpt>
      <trkpt lat="44.08225" lon="3.63586">
        <ele>404</ele>
        <time>2021-04-13T12:12:23Z</time>
      </trkpt>
      <trkpt lat="44.08227" lon="3.63575">
        <ele>405</ele>
        <time>2021-04-13T12:12:34Z</time>
      </trkpt>
      <trkpt lat="44.08225" lon="3.63563">
        <ele>405</ele>
        <time>2021-04-13T12:12:46Z</time>
      </trkpt>
      <trkpt lat="44.08227" lon="3.63575">
        <ele>405</ele>
        <time>2021-04-13T12:12:58Z</time>
      </trkpt>
      <trkpt lat="44.08225" lon="3.63586">
        <ele>404</ele>
        <time>2021-04-13T12:13:09Z</time>
      </trkpt>
      <trkpt lat="44.0822" lon="3.63585">
        <ele>402</ele>
        <time>2021-04-13T12:13:15Z</time>
      </trkpt>
      <trkpt lat="44.08214" lon="3.63588">
        <ele>399</ele>
        <time>2021-04-13T12:13:24Z</time>
      </trkpt>
      <trkpt lat="44.08212" lon="3.63595">
        <ele>398</ele>
        <time>2021-04-13T12:13:31Z</time>
      </trkpt>
      <trkpt lat="44.08211" lon="3.63623">
        <ele>395</ele>
        <time>2021-04-13T12:13:58Z</time>
      </trkpt>
      <trkpt lat="44.08213" lon="3.63632">
        <ele>395</ele>
        <time>2021-04-13T12:14:07Z</time>
      </trkpt>
      <trkpt lat="44.0822" lon="3.6364">
        <ele>397</ele>
        <time>2021-04-13T12:14:19Z</time>
      </trkpt>
      <trkpt lat="44.08242" lon="3.63646">
        <ele>405</ele>
        <time>2021-04-13T12:14:49Z</time>
      </trkpt>
      <trkpt lat="44.08245" lon="3.6366">
        <ele>405</ele>
        <time>2021-04-13T12:15:03Z</time>
      </trkpt>
      <trkpt lat="44.08237" lon="3.63688">
        <ele>398</ele>
        <time>2021-04-13T12:15:32Z</time>
      </trkpt>
      <trkpt lat="44.08235" lon="3.63703">
        <ele>396</ele>
        <time>2021-04-13T12:15:46Z</time>
      </trkpt>
      <trkpt lat="44.08238" lon="3.63732">
        <ele>393</ele>
        <time>2021-04-13T12:16:15Z</time>
      </trkpt>
      <trkpt lat="44.08255" lon="3.63766">
        <ele>395</ele>
        <time>2021-04-13T12:16:54Z</time>
      </trkpt>
      <trkpt lat="44.08262" lon="3.63817">
        <ele>393</ele>
        <time>2021-04-13T12:17:44Z</time>
      </trkpt>
      <trkpt lat="44.0824" lon="3.63914">
        <ele>381</ele>
        <time>2021-04-13T12:19:22Z</time>
      </trkpt>
      <trkpt lat="44.08235" lon="3.63925">
        <ele>380</ele>
        <time>2021-04-13T12:19:34Z</time>
      </trkpt>
      <trkpt lat="44.08226" lon="3.63932">
        <ele>378</ele>
        <time>2021-04-13T12:19:48Z</time>
      </trkpt>
      <trkpt lat="44.08216" lon="3.63929">
        <ele>376</ele>
        <time>2021-04-13T12:20:01Z</time>
      </trkpt>
      <trkpt lat="44.08203" lon="3.63906">
        <ele>372</ele>
        <time>2021-04-13T12:20:29Z</time>
      </trkpt>
      <trkpt lat="44.08193" lon="3.63979">
        <ele>372</ele>
        <time>2021-04-13T12:21:41Z</time>
      </trkpt>
      <trkpt lat="44.08189" lon="3.64018">
        <ele>373</ele>
        <time>2021-04-13T12:22:18Z</time>
      </trkpt>
      <trkpt lat="44.08181" lon="3.64032">
        <ele>371</ele>
        <time>2021-04-13T12:22:36Z</time>
      </trkpt>
      <trkpt lat="44.08172" lon="3.64071">
        <ele>371</ele>
        <time>2021-04-13T12:23:15Z</time>
      </trkpt>
      <trkpt lat="44.08172" lon="3.64081">
        <ele>372</ele>
        <time>2021-04-13T12:23:24Z</time>
      </trkpt>
      <trkpt lat="44.08174" lon="3.64095">
        <ele>373</ele>
        <time>2021-04-13T12:23:38Z</time>
      </trkpt>
      <trkpt lat="44.08169" lon="3.64149">
        <ele>374</ele>
        <time>2021-04-13T12:24:30Z</time>
      </trkpt>
      <trkpt lat="44.08166" lon="3.64161">
        <ele>374</ele>
        <time>2021-04-13T12:24:43Z</time>
      </trkpt>
      <trkpt lat="44.08171" lon="3.64167">
        <ele>375</ele>
        <time>2021-04-13T12:24:51Z</time>
      </trkpt>
      <trkpt lat="44.0817" lon="3.6417">
        <ele>375</ele>
        <time>2021-04-13T12:24:54Z</time>
      </trkpt>
      <trkpt lat="44.08175" lon="3.64174">
        <ele>376</ele>
        <time>2021-04-13T12:25:02Z</time>
      </trkpt>
      <trkpt lat="44.08174" lon="3.64182">
        <ele>375</ele>
        <time>2021-04-13T12:25:10Z</time>
      </trkpt>
      <trkpt lat="44.08178" lon="3.6418">
        <ele>377</ele>
        <time>2021-04-13T12:25:16Z</time>
      </trkpt>
      <trkpt lat="44.08179" lon="3.64185">
        <ele>377</ele>
        <time>2021-04-13T12:25:21Z</time>
      </trkpt>
      <trkpt lat="44.08185" lon="3.64189">
        <ele>378</ele>
        <time>2021-04-13T12:25:29Z</time>
      </trkpt>
      <trkpt lat="44.0819" lon="3.64182">
        <ele>380</ele>
        <time>2021-04-13T12:25:39Z</time>
      </trkpt>
      <trkpt lat="44.08197" lon="3.64187">
        <ele>381</ele>
        <time>2021-04-13T12:25:49Z</time>
      </trkpt>
      <trkpt lat="44.08199" lon="3.64181">
        <ele>383</ele>
        <time>2021-04-13T12:25:56Z</time>
      </trkpt>
      <trkpt lat="44.08219" lon="3.64164">
        <ele>392</ele>
        <time>2021-04-13T12:26:27Z</time>
      </trkpt>
      <trkpt lat="44.08279" lon="3.64124">
        <ele>408</ele>
        <time>2021-04-13T12:27:56Z</time>
      </trkpt>
      <trkpt lat="44.08289" lon="3.64115">
        <ele>412</ele>
        <time>2021-04-13T12:28:12Z</time>
      </trkpt>
      <trkpt lat="44.08321" lon="3.64107">
        <ele>422</ele>
        <time>2021-04-13T12:28:55Z</time>
      </trkpt>
      <trkpt lat="44.08354" lon="3.6408">
        <ele>433</ele>
        <time>2021-04-13T12:29:46Z</time>
      </trkpt>
      <trkpt lat="44.08362" lon="3.64068">
        <ele>434</ele>
        <time>2021-04-13T12:30:02Z</time>
      </trkpt>
      <trkpt lat="44.0839" lon="3.64049">
        <ele>438</ele>
        <time>2021-04-13T12:30:43Z</time>
      </trkpt>
      <trkpt lat="44.08458" lon="3.63987">
        <ele>449</ele>
        <time>2021-04-13T12:32:32Z</time>
      </trkpt>
      <trkpt lat="44.08463" lon="3.63975">
        <ele>452</ele>
        <time>2021-04-13T12:32:45Z</time>
      </trkpt>
      <trkpt lat="44.08485" lon="3.63949">
        <ele>460</ele>
        <time>2021-04-13T12:33:24Z</time>
      </trkpt>
      <trkpt lat="44.08488" lon="3.63933">
        <ele>467</ele>
        <time>2021-04-13T12:33:40Z</time>
      </trkpt>
      <trkpt lat="44.08483" lon="3.6393">
        <ele>469</ele>
        <time>2021-04-13T12:33:47Z</time>
      </trkpt>
      <trkpt lat="44.0848" lon="3.63934">
        <ele>467</ele>
        <time>2021-04-13T12:33:52Z</time>
      </trkpt>
      <trkpt lat="44.08474" lon="3.63926">
        <ele>470</ele>
        <time>2021-04-13T12:34:03Z</time>
      </trkpt>
      <trkpt lat="44.08464" lon="3.63928">
        <ele>468</ele>
        <time>2021-04-13T12:34:17Z</time>
      </trkpt>
      <trkpt lat="44.08454" lon="3.63919">
        <ele>470</ele>
        <time>2021-04-13T12:34:33Z</time>
      </trkpt>
      <trkpt lat="44.08455" lon="3.63899">
        <ele>474</ele>
        <time>2021-04-13T12:34:52Z</time>
      </trkpt>
      <trkpt lat="44.08466" lon="3.63886">
        <ele>479</ele>
        <time>2021-04-13T12:35:11Z</time>
      </trkpt>
      <trkpt lat="44.08485" lon="3.63851">
        <ele>492</ele>
        <time>2021-04-13T12:35:53Z</time>
      </trkpt>
      <trkpt lat="44.0849" lon="3.63835">
        <ele>498</ele>
        <time>2021-04-13T12:36:10Z</time>
      </trkpt>
      <trkpt lat="44.08496" lon="3.63828">
        <ele>502</ele>
        <time>2021-04-13T12:36:21Z</time>
      </trkpt>
      <trkpt lat="44.08495" lon="3.63816">
        <ele>504</ele>
        <time>2021-04-13T12:36:32Z</time>
      </trkpt>
      <trkpt lat="44.08506" lon="3.63807">
        <ele>506</ele>
        <time>2021-04-13T12:36:49Z</time>
      </trkpt>
      <trkpt lat="44.08509" lon="3.63798">
        <ele>508</ele>
        <time>2021-04-13T12:36:59Z</time>
      </trkpt>
      <trkpt lat="44.08504" lon="3.63777">
        <ele>513</ele>
        <time>2021-04-13T12:37:20Z</time>
      </trkpt>
      <trkpt lat="44.08507" lon="3.6376">
        <ele>516</ele>
        <time>2021-04-13T12:37:37Z</time>
      </trkpt>
      <trkpt lat="44.08514" lon="3.63746">
        <ele>518</ele>
        <time>2021-04-13T12:37:53Z</time>
      </trkpt>
      <trkpt lat="44.08522" lon="3.63739">
        <ele>519</ele>
        <time>2021-04-13T12:38:06Z</time>
      </trkpt>
      <trkpt lat="44.08539" lon="3.6372">
        <ele>522</ele>
        <time>2021-04-13T12:38:35Z</time>
      </trkpt>
      <trkpt lat="44.08547" lon="3.63703">
        <ele>525</ele>
        <time>2021-04-13T12:38:54Z</time>
      </trkpt>
      <trkpt lat="44.08553" lon="3.6365">
        <ele>536</ele>
        <time>2021-04-13T12:39:46Z</time>
      </trkpt>
      <trkpt lat="44.08569" lon="3.63575">
        <ele>552</ele>
        <time>2021-04-13T12:41:01Z</time>
      </trkpt>
      <trkpt lat="44.08575" lon="3.63552">
        <ele>559</ele>
        <time>2021-04-13T12:41:24Z</time>
      </trkpt>
      <trkpt lat="44.08583" lon="3.63527">
        <ele>566</ele>
        <time>2021-04-13T12:41:50Z</time>
      </trkpt>
      <trkpt lat="44.08585" lon="3.63508">
        <ele>570</ele>
        <time>2021-04-13T12:42:09Z</time>
      </trkpt>
      <trkpt lat="44.08591" lon="3.63487">
        <ele>571</ele>
        <time>2021-04-13T12:42:30Z</time>
      </trkpt>
      <trkpt lat="44.08602" lon="3.63466">
        <ele>572</ele>
        <time>2021-04-13T12:42:55Z</time>
      </trkpt>
      <trkpt lat="44.08603" lon="3.63452">
        <ele>574</ele>
        <time>2021-04-13T12:43:09Z</time>
      </trkpt>
      <trkpt lat="44.08613" lon="3.63434">
        <ele>575</ele>
        <time>2021-04-13T12:43:31Z</time>
      </trkpt>
      <trkpt lat="44.08614" lon="3.6339">
        <ele>581</ele>
        <time>2021-04-13T12:44:13Z</time>
      </trkpt>
      <trkpt lat="44.08616" lon="3.63373">
        <ele>582</ele>
        <time>2021-04-13T12:44:29Z</time>
      </trkpt>
      <trkpt lat="44.08623" lon="3.63357">
        <ele>585</ele>
        <time>2021-04-13T12:44:47Z</time>
      </trkpt>
      <trkpt lat="44.08632" lon="3.63342">
        <ele>588</ele>
        <time>2021-04-13T12:45:06Z</time>
      </trkpt>
      <trkpt lat="44.08639" lon="3.63338">
        <ele>590</ele>
        <time>2021-04-13T12:45:16Z</time>
      </trkpt>
      <trkpt lat="44.08647" lon="3.63318">
        <ele>594</ele>
        <time>2021-04-13T12:45:38Z</time>
      </trkpt>
      <trkpt lat="44.08655" lon="3.63304">
        <ele>598</ele>
        <time>2021-04-13T12:45:55Z</time>
      </trkpt>
      <trkpt lat="44.08664" lon="3.63297">
        <ele>602</ele>
        <time>2021-04-13T12:46:09Z</time>
      </trkpt>
      <trkpt lat="44.08664" lon="3.63288">
        <ele>603</ele>
        <time>2021-04-13T12:46:18Z</time>
      </trkpt>
      <trkpt lat="44.08669" lon="3.63281">
        <ele>605</ele>
        <time>2021-04-13T12:46:27Z</time>
      </trkpt>
      <trkpt lat="44.08681" lon="3.63274">
        <ele>608</ele>
        <time>2021-04-13T12:46:44Z</time>
      </trkpt>
      <trkpt lat="44.08683" lon="3.63265">
        <ele>610</ele>
        <time>2021-04-13T12:46:53Z</time>
      </trkpt>
      <trkpt lat="44.08694" lon="3.6326">
        <ele>612</ele>
        <time>2021-04-13T12:47:09Z</time>
      </trkpt>
      <trkpt lat="44.08703" lon="3.63251">
        <ele>616</ele>
        <time>2021-04-13T12:47:24Z</time>
      </trkpt>
      <trkpt lat="44.08709" lon="3.63231">
        <ele>620</ele>
        <time>2021-04-13T12:47:44Z</time>
      </trkpt>
      <trkpt lat="44.08724" lon="3.63222">
        <ele>626</ele>
        <time>2021-04-13T12:48:06Z</time>
      </trkpt>
      <trkpt lat="44.08734" lon="3.63212">
        <ele>631</ele>
        <time>2021-04-13T12:48:23Z</time>
      </trkpt>
      <trkpt lat="44.08744" lon="3.63199">
        <ele>638</ele>
        <time>2021-04-13T12:48:41Z</time>
      </trkpt>
      <trkpt lat="44.08766" lon="3.63187">
        <ele>644</ele>
        <time>2021-04-13T12:49:12Z</time>
      </trkpt>
      <trkpt lat="44.08777" lon="3.63172">
        <ele>648</ele>
        <time>2021-04-13T12:49:33Z</time>
      </trkpt>
      <trkpt lat="44.08795" lon="3.63142">
        <ele>654</ele>
        <time>2021-04-13T12:50:10Z</time>
      </trkpt>
      <trkpt lat="44.08803" lon="3.6312">
        <ele>658</ele>
        <time>2021-04-13T12:50:34Z</time>
      </trkpt>
      <trkpt lat="44.08821" lon="3.63086">
        <ele>667</ele>
        <time>2021-04-13T12:51:15Z</time>
      </trkpt>
      <trkpt lat="44.08838" lon="3.63036">
        <ele>675</ele>
        <time>2021-04-13T12:52:08Z</time>
      </trkpt>
      <trkpt lat="44.08863" lon="3.62998">
        <ele>676</ele>
        <time>2021-04-13T12:52:57Z</time>
      </trkpt>
      <trkpt lat="44.08869" lon="3.62983">
        <ele>677</ele>
        <time>2021-04-13T12:53:13Z</time>
      </trkpt>
      <trkpt lat="44.08876" lon="3.62973">
        <ele>678</ele>
        <time>2021-04-13T12:53:27Z</time>
      </trkpt>
      <trkpt lat="44.08888" lon="3.62964">
        <ele>679</ele>
        <time>2021-04-13T12:53:45Z</time>
      </trkpt>
      <trkpt lat="44.08902" lon="3.62931">
        <ele>688</ele>
        <time>2021-04-13T12:54:22Z</time>
      </trkpt>
      <trkpt lat="44.08918" lon="3.62898">
        <ele>699</ele>
        <time>2021-04-13T12:55:00Z</time>
      </trkpt>
      <trkpt lat="44.08946" lon="3.62851">
        <ele>710</ele>
        <time>2021-04-13T12:55:58Z</time>
      </trkpt>
      <trkpt lat="44.08959" lon="3.62832">
        <ele>715</ele>
        <time>2021-04-13T12:56:24Z</time>
      </trkpt>
      <trkpt lat="44.0898" lon="3.62817">
        <ele>719</ele>
        <time>2021-04-13T12:56:55Z</time>
      </trkpt>
      <trkpt lat="44.08993" lon="3.62804">
        <ele>724</ele>
        <time>2021-04-13T12:57:16Z</time>
      </trkpt>
      <trkpt lat="44.09" lon="3.6279">
        <ele>730</ele>
        <time>2021-04-13T12:57:33Z</time>
      </trkpt>
      <trkpt lat="44.09011" lon="3.62778">
        <ele>733</ele>
        <time>2021-04-13T12:57:51Z</time>
      </trkpt>
      <trkpt lat="44.09027" lon="3.62768">
        <ele>735</ele>
        <time>2021-04-13T12:58:15Z</time>
      </trkpt>
      <trkpt lat="44.09045" lon="3.62765">
        <ele>734</ele>
        <time>2021-04-13T12:58:39Z</time>
      </trkpt>
      <trkpt lat="44.09057" lon="3.62753">
        <ele>738</ele>
        <time>2021-04-13T12:58:59Z</time>
      </trkpt>
      <trkpt lat="44.09071" lon="3.62745">
        <ele>739</ele>
        <time>2021-04-13T12:59:19Z</time>
      </trkpt>
      <trkpt lat="44.09094" lon="3.62739">
        <ele>739</ele>
        <time>2021-04-13T12:59:50Z</time>
      </trkpt>
      <trkpt lat="44.09119" lon="3.62726">
        <ele>742</ele>
        <time>2021-04-13T13:00:26Z</time>
      </trkpt>
      <trkpt lat="44.09134" lon="3.62722">
        <ele>742</ele>
        <time>2021-04-13T13:00:46Z</time>
      </trkpt>
      <trkpt lat="44.09146" lon="3.62706">
        <ele>748</ele>
        <time>2021-04-13T13:01:08Z</time>
      </trkpt>
      <trkpt lat="44.09165" lon="3.62667">
        <ele>762</ele>
        <time>2021-04-13T13:01:54Z</time>
      </trkpt>
      <trkpt lat="44.09176" lon="3.62649">
        <ele>768</ele>
        <time>2021-04-13T13:02:16Z</time>
      </trkpt>
      <trkpt lat="44.09219" lon="3.62634">
        <ele>764</ele>
        <time>2021-04-13T13:03:15Z</time>
      </trkpt>
      <trkpt lat="44.09239" lon="3.62598">
        <ele>772</ele>
        <time>2021-04-13T13:03:59Z</time>
      </trkpt>
      <trkpt lat="44.09253" lon="3.62578">
        <ele>774</ele>
        <time>2021-04-13T13:04:26Z</time>
      </trkpt>
      <trkpt lat="44.09264" lon="3.62559">
        <ele>774</ele>
        <time>2021-04-13T13:04:49Z</time>
      </trkpt>
      <trkpt lat="44.09272" lon="3.62536">
        <ele>777</ele>
        <time>2021-04-13T13:05:14Z</time>
      </trkpt>
      <trkpt lat="44.0928" lon="3.6252">
        <ele>777</ele>
        <time>2021-04-13T13:05:32Z</time>
      </trkpt>
      <trkpt lat="44.09283" lon="3.62505">
        <ele>780</ele>
        <time>2021-04-13T13:05:47Z</time>
      </trkpt>
      <trkpt lat="44.09299" lon="3.62466">
        <ele>783</ele>
        <time>2021-04-13T13:06:30Z</time>
      </trkpt>
      <trkpt lat="44.09313" lon="3.62441">
        <ele>784</ele>
        <time>2021-04-13T13:07:01Z</time>
      </trkpt>
      <trkpt lat="44.09324" lon="3.62409">
        <ele>787</ele>
        <time>2021-04-13T13:07:35Z</time>
      </trkpt>
      <trkpt lat="44.0935" lon="3.62339">
        <ele>796</ele>
        <time>2021-04-13T13:08:50Z</time>
      </trkpt>
      <trkpt lat="44.0937" lon="3.62298">
        <ele>800</ele>
        <time>2021-04-13T13:09:38Z</time>
      </trkpt>
      <trkpt lat="44.09388" lon="3.62269">
        <ele>803</ele>
        <time>2021-04-13T13:10:14Z</time>
      </trkpt>
      <trkpt lat="44.09401" lon="3.62236">
        <ele>810</ele>
        <time>2021-04-13T13:10:50Z</time>
      </trkpt>
      <trkpt lat="44.0941" lon="3.62218">
        <ele>813</ele>
        <time>2021-04-13T13:11:11Z</time>
      </trkpt>
      <trkpt lat="44.09429" lon="3.62199">
        <ele>814</ele>
        <time>2021-04-13T13:11:43Z</time>
      </trkpt>
      <trkpt lat="44.09476" lon="3.62139">
        <ele>821</ele>
        <time>2021-04-13T13:13:08Z</time>
      </trkpt>
      <trkpt lat="44.095" lon="3.62103">
        <ele>829</ele>
        <time>2021-04-13T13:13:55Z</time>
      </trkpt>
      <trkpt lat="44.09529" lon="3.62048">
        <ele>834</ele>
        <time>2021-04-13T13:15:00Z</time>
      </trkpt>
      <trkpt lat="44.09557" lon="3.62007">
        <ele>837</ele>
        <time>2021-04-13T13:15:54Z</time>
      </trkpt>
      <trkpt lat="44.09593" lon="3.61921">
        <ele>847</ele>
        <time>2021-04-13T13:17:30Z</time>
      </trkpt>
      <trkpt lat="44.09609" lon="3.6187">
        <ele>846</ele>
        <time>2021-04-13T13:18:23Z</time>
      </trkpt>
      <trkpt lat="44.09613" lon="3.61822">
        <ele>850</ele>
        <time>2021-04-13T13:19:10Z</time>
      </trkpt>
      <trkpt lat="44.09619" lon="3.61791">
        <ele>852</ele>
        <time>2021-04-13T13:19:40Z</time>
      </trkpt>
      <trkpt lat="44.0962" lon="3.61769">
        <ele>855</ele>
        <time>2021-04-13T13:20:01Z</time>
      </trkpt>
      <trkpt lat="44.09629" lon="3.61738">
        <ele>861</ele>
        <time>2021-04-13T13:20:33Z</time>
      </trkpt>
      <trkpt lat="44.09653" lon="3.61692">
        <ele>879</ele>
        <time>2021-04-13T13:21:28Z</time>
      </trkpt>
      <trkpt lat="44.09664" lon="3.61677">
        <ele>887</ele>
        <time>2021-04-13T13:21:49Z</time>
      </trkpt>
      <trkpt lat="44.09706" lon="3.61638">
        <ele>889</ele>
        <time>2021-04-13T13:22:56Z</time>
      </trkpt>
      <trkpt lat="44.09719" lon="3.61619">
        <ele>892</ele>
        <time>2021-04-13T13:23:21Z</time>
      </trkpt>
      <trkpt lat="44.09788" lon="3.61566">
        <ele>889</ele>
        <time>2021-04-13T13:25:06Z</time>
      </trkpt>
      <trkpt lat="44.0981" lon="3.61541">
        <ele>888</ele>
        <time>2021-04-13T13:25:44Z</time>
      </trkpt>
      <trkpt lat="44.09823" lon="3.61516">
        <ele>891</ele>
        <time>2021-04-13T13:26:14Z</time>
      </trkpt>
      <trkpt lat="44.09828" lon="3.61497">
        <ele>894</ele>
        <time>2021-04-13T13:26:33Z</time>
      </trkpt>
      <trkpt lat="44.09827" lon="3.61474">
        <ele>898</ele>
        <time>2021-04-13T13:26:55Z</time>
      </trkpt>
      <trkpt lat="44.09823" lon="3.61453">
        <ele>902</ele>
        <time>2021-04-13T13:27:16Z</time>
      </trkpt>
      <trkpt lat="44.09827" lon="3.61428">
        <ele>904</ele>
        <time>2021-04-13T13:27:41Z</time>
      </trkpt>
      <trkpt lat="44.09844" lon="3.61361">
        <ele>903</ele>
        <time>2021-04-13T13:28:49Z</time>
      </trkpt>
      <trkpt lat="44.09853" lon="3.61309">
        <ele>906</ele>
        <time>2021-04-13T13:29:40Z</time>
      </trkpt>
      <trkpt lat="44.09865" lon="3.61265">
        <ele>908</ele>
        <time>2021-04-13T13:30:25Z</time>
      </trkpt>
      <trkpt lat="44.09891" lon="3.61179">
        <ele>914</ele>
        <time>2021-04-13T13:31:54Z</time>
      </trkpt>
      <trkpt lat="44.09901" lon="3.61173">
        <ele>912</ele>
        <time>2021-04-13T13:32:09Z</time>
      </trkpt>
      <trkpt lat="44.09907" lon="3.61158">
        <ele>912</ele>
        <time>2021-04-13T13:32:25Z</time>
      </trkpt>
      <trkpt lat="44.09919" lon="3.61138">
        <ele>913</ele>
        <time>2021-04-13T13:32:50Z</time>
      </trkpt>
      <trkpt lat="44.09934" lon="3.61129">
        <ele>914</ele>
        <time>2021-04-13T13:33:12Z</time>
      </trkpt>
      <trkpt lat="44.09947" lon="3.61133">
        <ele>912</ele>
        <time>2021-04-13T13:33:30Z</time>
      </trkpt>
      <trkpt lat="44.09961" lon="3.61123">
        <ele>914</ele>
        <time>2021-04-13T13:33:51Z</time>
      </trkpt>
      <trkpt lat="44.09997" lon="3.61103">
        <ele>919</ele>
        <time>2021-04-13T13:34:43Z</time>
      </trkpt>
      <trkpt lat="44.10072" lon="3.61014">
        <ele>934</ele>
        <time>2021-04-13T13:36:54Z</time>
      </trkpt>
      <trkpt lat="44.10118" lon="3.60967">
        <ele>935</ele>
        <time>2021-04-13T13:38:10Z</time>
      </trkpt>
      <trkpt lat="44.1014" lon="3.6095">
        <ele>936</ele>
        <time>2021-04-13T13:38:44Z</time>
      </trkpt>
      <trkpt lat="44.10153" lon="3.60931">
        <ele>938</ele>
        <time>2021-04-13T13:39:09Z</time>
      </trkpt>
      <trkpt lat="44.10161" lon="3.60927">
        <ele>939</ele>
        <time>2021-04-13T13:39:20Z</time>
      </trkpt>
      <trkpt lat="44.10191" lon="3.60899">
        <ele>938</ele>
        <time>2021-04-13T13:40:09Z</time>
      </trkpt>
      <trkpt lat="44.10201" lon="3.60891">
        <ele>938</ele>
        <time>2021-04-13T13:40:24Z</time>
      </trkpt>
      <trkpt lat="44.10219" lon="3.60873">
        <ele>940</ele>
        <time>2021-04-13T13:40:53Z</time>
      </trkpt>
      <trkpt lat="44.10237" lon="3.60843">
        <ele>947</ele>
        <time>2021-04-13T13:41:31Z</time>
      </trkpt>
      <trkpt lat="44.10253" lon="3.60789">
        <ele>948</ele>
        <time>2021-04-13T13:42:27Z</time>
      </trkpt>
      <trkpt lat="44.10288" lon="3.60734">
        <ele>954</ele>
        <time>2021-04-13T13:43:37Z</time>
      </trkpt>
      <trkpt lat="44.10304" lon="3.60712">
        <ele>956</ele>
        <time>2021-04-13T13:44:07Z</time>
      </trkpt>
      <trkpt lat="44.1033" lon="3.60691">
        <ele>963</ele>
        <time>2021-04-13T13:44:47Z</time>
      </trkpt>
      <trkpt lat="44.10342" lon="3.60691">
        <ele>967</ele>
        <time>2021-04-13T13:45:03Z</time>
      </trkpt>
      <trkpt lat="44.10382" lon="3.60654">
        <ele>966</ele>
        <time>2021-04-13T13:46:08Z</time>
      </trkpt>
      <trkpt lat="44.10412" lon="3.60633">
        <ele>969</ele>
        <time>2021-04-13T13:46:52Z</time>
      </trkpt>
      <trkpt lat="44.10467" lon="3.60589">
        <ele>973</ele>
        <time>2021-04-13T13:48:17Z</time>
      </trkpt>
      <trkpt lat="44.1048" lon="3.60571">
        <ele>975</ele>
        <time>2021-04-13T13:48:41Z</time>
      </trkpt>
      <trkpt lat="44.10533" lon="3.60518">
        <ele>971</ele>
        <time>2021-04-13T13:50:09Z</time>
      </trkpt>
      <trkpt lat="44.10547" lon="3.60493">
        <ele>969</ele>
        <time>2021-04-13T13:50:39Z</time>
      </trkpt>
      <trkpt lat="44.10553" lon="3.6047">
        <ele>969</ele>
        <time>2021-04-13T13:51:02Z</time>
      </trkpt>
      <trkpt lat="44.10554" lon="3.60449">
        <ele>970</ele>
        <time>2021-04-13T13:51:23Z</time>
      </trkpt>
      <trkpt lat="44.10564" lon="3.60417">
        <ele>972</ele>
        <time>2021-04-13T13:51:56Z</time>
      </trkpt>
      <trkpt lat="44.10579" lon="3.60386">
        <ele>973</ele>
        <time>2021-04-13T13:52:32Z</time>
      </trkpt>
      <trkpt lat="44.1059" lon="3.60356">
        <ele>971</ele>
        <time>2021-04-13T13:53:04Z</time>
      </trkpt>
      <trkpt lat="44.10588" lon="3.6034">
        <ele>972</ele>
        <time>2021-04-13T13:53:20Z</time>
      </trkpt>
      <trkpt lat="44.10592" lon="3.60327">
        <ele>971</ele>
        <time>2021-04-13T13:53:33Z</time>
      </trkpt>
      <trkpt lat="44.10601" lon="3.60313">
        <ele>968</ele>
        <time>2021-04-13T13:53:51Z</time>
      </trkpt>
      <trkpt lat="44.10601" lon="3.603">
        <ele>967</ele>
        <time>2021-04-13T13:54:04Z</time>
      </trkpt>
      <trkpt lat="44.10607" lon="3.6027">
        <ele>967</ele>
        <time>2021-04-13T13:54:33Z</time>
      </trkpt>
      <trkpt lat="44.10605" lon="3.60256">
        <ele>967</ele>
        <time>2021-04-13T13:54:47Z</time>
      </trkpt>
      <trkpt lat="44.10608" lon="3.60238">
        <ele>967</ele>
        <time>2021-04-13T13:55:05Z</time>
      </trkpt>
      <trkpt lat="44.10612" lon="3.60222">
        <ele>968</ele>
        <time>2021-04-13T13:55:21Z</time>
      </trkpt>
      <trkpt lat="44.10618" lon="3.60208">
        <ele>969</ele>
        <time>2021-04-13T13:55:37Z</time>
      </trkpt>
      <trkpt lat="44.10627" lon="3.60199">
        <ele>972</ele>
        <time>2021-04-13T13:55:52Z</time>
      </trkpt>
      <trkpt lat="44.10635" lon="3.60184">
        <ele>975</ele>
        <time>2021-04-13T13:56:09Z</time>
      </trkpt>
      <trkpt lat="44.10639" lon="3.60172">
        <ele>978</ele>
        <time>2021-04-13T13:56:22Z</time>
      </trkpt>
      <trkpt lat="44.10645" lon="3.60146">
        <ele>986</ele>
        <time>2021-04-13T13:56:48Z</time>
      </trkpt>
      <trkpt lat="44.10639" lon="3.6013">
        <ele>987</ele>
        <time>2021-04-13T13:57:06Z</time>
      </trkpt>
      <trkpt lat="44.10634" lon="3.60093">
        <ele>993</ele>
        <time>2021-04-13T13:57:42Z</time>
      </trkpt>
      <trkpt lat="44.10631" lon="3.60065">
        <ele>997</ele>
        <time>2021-04-13T13:58:09Z</time>
      </trkpt>
      <trkpt lat="44.10637" lon="3.60006">
        <ele>1014</ele>
        <time>2021-04-13T13:59:06Z</time>
      </trkpt>
      <trkpt lat="44.10643" lon="3.59986">
        <ele>1021</ele>
        <time>2021-04-13T13:59:27Z</time>
      </trkpt>
      <trkpt lat="44.1064" lon="3.59969">
        <ele>1020</ele>
        <time>2021-04-13T13:59:43Z</time>
      </trkpt>
      <trkpt lat="44.1064" lon="3.59945">
        <ele>1023</ele>
        <time>2021-04-13T14:00:06Z</time>
      </trkpt>
      <trkpt lat="44.10625" lon="3.59911">
        <ele>1015</ele>
        <time>2021-04-13T14:00:45Z</time>
      </trkpt>
      <trkpt lat="44.10625" lon="3.59894">
        <ele>1016</ele>
        <time>2021-04-13T14:01:01Z</time>
      </trkpt>
      <trkpt lat="44.10628" lon="3.59876">
        <ele>1019</ele>
        <time>2021-04-13T14:01:19Z</time>
      </trkpt>
      <trkpt lat="44.10641" lon="3.59855">
        <ele>1030</ele>
        <time>2021-04-13T14:01:45Z</time>
      </trkpt>
      <trkpt lat="44.10648" lon="3.59837">
        <ele>1036</ele>
        <time>2021-04-13T14:02:05Z</time>
      </trkpt>
      <trkpt lat="44.10648" lon="3.59823">
        <ele>1039</ele>
        <time>2021-04-13T14:02:18Z</time>
      </trkpt>
      <trkpt lat="44.10652" lon="3.59808">
        <ele>1045</ele>
        <time>2021-04-13T14:02:34Z</time>
      </trkpt>
      <trkpt lat="44.10652" lon="3.59796">
        <ele>1048</ele>
        <time>2021-04-13T14:02:45Z</time>
      </trkpt>
      <trkpt lat="44.10658" lon="3.59777">
        <ele>1058</ele>
        <time>2021-04-13T14:03:05Z</time>
      </trkpt>
      <trkpt lat="44.10657" lon="3.59764">
        <ele>1060</ele>
        <time>2021-04-13T14:03:17Z</time>
      </trkpt>
      <trkpt lat="44.10629" lon="3.59741">
        <ele>1045</ele>
        <time>2021-04-13T14:04:01Z</time>
      </trkpt>
      <trkpt lat="44.10625" lon="3.59722">
        <ele>1045</ele>
        <time>2021-04-13T14:04:20Z</time>
      </trkpt>
      <trkpt lat="44.10623" lon="3.59692">
        <ele>1050</ele>
        <time>2021-04-13T14:04:49Z</time>
      </trkpt>
      <trkpt lat="44.10625" lon="3.59666">
        <ele>1056</ele>
        <time>2021-04-13T14:05:14Z</time>
      </trkpt>
      <trkpt lat="44.10623" lon="3.59645">
        <ele>1061</ele>
        <time>2021-04-13T14:05:34Z</time>
      </trkpt>
      <trkpt lat="44.10635" lon="3.59576">
        <ele>1086</ele>
        <time>2021-04-13T14:06:42Z</time>
      </trkpt>
      <trkpt lat="44.10634" lon="3.5956">
        <ele>1089</ele>
        <time>2021-04-13T14:06:57Z</time>
      </trkpt>
      <trkpt lat="44.10628" lon="3.5955">
        <ele>1088</ele>
        <time>2021-04-13T14:07:10Z</time>
      </trkpt>
      <trkpt lat="44.10628" lon="3.5953">
        <ele>1093</ele>
        <time>2021-04-13T14:07:29Z</time>
      </trkpt>
      <trkpt lat="44.10635" lon="3.59536">
        <ele>1094</ele>
        <time>2021-04-13T14:07:40Z</time>
      </trkpt>
      <trkpt lat="44.10643" lon="3.59536">
        <ele>1096</ele>
        <time>2021-04-13T14:07:51Z</time>
      </trkpt>
      <trkpt lat="44.10641" lon="3.59518">
        <ele>1098</ele>
        <time>2021-04-13T14:08:08Z</time>
      </trkpt>
      <trkpt lat="44.10648" lon="3.59514">
        <ele>1100</ele>
        <time>2021-04-13T14:08:18Z</time>
      </trkpt>
      <trkpt lat="44.10648" lon="3.59506">
        <ele>1101</ele>
        <time>2021-04-13T14:08:26Z</time>
      </trkpt>
      <trkpt lat="44.10657" lon="3.59498">
        <ele>1102</ele>
        <time>2021-04-13T14:08:40Z</time>
      </trkpt>
      <trkpt lat="44.10663" lon="3.59486">
        <ele>1101</ele>
        <time>2021-04-13T14:08:54Z</time>
      </trkpt>
      <trkpt lat="44.10699" lon="3.59464">
        <ele>1109</ele>
        <time>2021-04-13T14:09:47Z</time>
      </trkpt>
      <trkpt lat="44.10734" lon="3.59449">
        <ele>1118</ele>
        <time>2021-04-13T14:10:36Z</time>
      </trkpt>
      <trkpt lat="44.10736" lon="3.5944">
        <ele>1117</ele>
        <time>2021-04-13T14:10:45Z</time>
      </trkpt>
      <trkpt lat="44.10732" lon="3.59432">
        <ele>1114</ele>
        <time>2021-04-13T14:10:54Z</time>
      </trkpt>
      <trkpt lat="44.10733" lon="3.5942">
        <ele>1112</ele>
        <time>2021-04-13T14:11:06Z</time>
      </trkpt>
      <trkpt lat="44.10752" lon="3.59419">
        <ele>1119</ele>
        <time>2021-04-13T14:11:31Z</time>
      </trkpt>
      <trkpt lat="44.10761" lon="3.5941">
        <ele>1123</ele>
        <time>2021-04-13T14:11:46Z</time>
      </trkpt>
      <trkpt lat="44.10768" lon="3.59398">
        <ele>1127</ele>
        <time>2021-04-13T14:12:01Z</time>
      </trkpt>
      <trkpt lat="44.10767" lon="3.59388">
        <ele>1129</ele>
        <time>2021-04-13T14:12:10Z</time>
      </trkpt>
      <trkpt lat="44.10761" lon="3.59385">
        <ele>1129</ele>
        <time>2021-04-13T14:12:19Z</time>
      </trkpt>
      <trkpt lat="44.10761" lon="3.59379">
        <ele>1130</ele>
        <time>2021-04-13T14:12:24Z</time>
      </trkpt>
      <trkpt lat="44.10769" lon="3.59361">
        <ele>1136</ele>
        <time>2021-04-13T14:12:45Z</time>
      </trkpt>
      <trkpt lat="44.10778" lon="3.59356">
        <ele>1138</ele>
        <time>2021-04-13T14:12:58Z</time>
      </trkpt>
      <trkpt lat="44.10797" lon="3.59353">
        <ele>1141</ele>
        <time>2021-04-13T14:13:23Z</time>
      </trkpt>
      <trkpt lat="44.10806" lon="3.59347">
        <ele>1143</ele>
        <time>2021-04-13T14:13:36Z</time>
      </trkpt>
      <trkpt lat="44.10915" lon="3.59258">
        <ele>1172</ele>
        <time>2021-04-13T14:16:25Z</time>
      </trkpt>
      <trkpt lat="44.10923" lon="3.59255">
        <ele>1174</ele>
        <time>2021-04-13T14:16:36Z</time>
      </trkpt>
      <trkpt lat="44.10925" lon="3.59244">
        <ele>1177</ele>
        <time>2021-04-13T14:16:47Z</time>
      </trkpt>
      <trkpt lat="44.1092" lon="3.59236">
        <ele>1178</ele>
        <time>2021-04-13T14:16:57Z</time>
      </trkpt>
      <trkpt lat="44.10923" lon="3.59224">
        <ele>1183</ele>
        <time>2021-04-13T14:17:09Z</time>
      </trkpt>
      <trkpt lat="44.10936" lon="3.59215">
        <ele>1188</ele>
        <time>2021-04-13T14:17:29Z</time>
      </trkpt>
      <trkpt lat="44.10946" lon="3.59215">
        <ele>1190</ele>
        <time>2021-04-13T14:17:42Z</time>
      </trkpt>
      <trkpt lat="44.10959" lon="3.59202">
        <ele>1196</ele>
        <time>2021-04-13T14:18:03Z</time>
      </trkpt>
      <trkpt lat="44.10976" lon="3.59196">
        <ele>1200</ele>
        <time>2021-04-13T14:18:27Z</time>
      </trkpt>
      <trkpt lat="44.11" lon="3.59207">
        <ele>1201</ele>
        <time>2021-04-13T14:19:01Z</time>
      </trkpt>
      <trkpt lat="44.11" lon="3.59201">
        <ele>1202</ele>
        <time>2021-04-13T14:19:06Z</time>
      </trkpt>
      <trkpt lat="44.11005" lon="3.59195">
        <ele>1205</ele>
        <time>2021-04-13T14:19:15Z</time>
      </trkpt>
      <trkpt lat="44.11015" lon="3.59197">
        <ele>1208</ele>
        <time>2021-04-13T14:19:29Z</time>
      </trkpt>
      <trkpt lat="44.11021" lon="3.59194">
        <ele>1211</ele>
        <time>2021-04-13T14:19:37Z</time>
      </trkpt>
      <trkpt lat="44.11022" lon="3.59187">
        <ele>1212</ele>
        <time>2021-04-13T14:19:44Z</time>
      </trkpt>
      <trkpt lat="44.11053" lon="3.59164">
        <ele>1225</ele>
        <time>2021-04-13T14:20:31Z</time>
      </trkpt>
      <trkpt lat="44.11061" lon="3.59165">
        <ele>1227</ele>
        <time>2021-04-13T14:20:42Z</time>
      </trkpt>
      <trkpt lat="44.11087" lon="3.59149">
        <ele>1239</ele>
        <time>2021-04-13T14:21:19Z</time>
      </trkpt>
      <trkpt lat="44.11094" lon="3.59152">
        <ele>1240</ele>
        <time>2021-04-13T14:21:29Z</time>
      </trkpt>
      <trkpt lat="44.11095" lon="3.59145">
        <ele>1242</ele>
        <time>2021-04-13T14:21:36Z</time>
      </trkpt>
      <trkpt lat="44.11104" lon="3.59138">
        <ele>1247</ele>
        <time>2021-04-13T14:21:50Z</time>
      </trkpt>
      <trkpt lat="44.11116" lon="3.59144">
        <ele>1249</ele>
        <time>2021-04-13T14:22:07Z</time>
      </trkpt>
      <trkpt lat="44.1113" lon="3.59143">
        <ele>1253</ele>
        <time>2021-04-13T14:22:26Z</time>
      </trkpt>
      <trkpt lat="44.11138" lon="3.59147">
        <ele>1255</ele>
        <time>2021-04-13T14:22:37Z</time>
      </trkpt>
      <trkpt lat="44.11154" lon="3.59144">
        <ele>1260</ele>
        <time>2021-04-13T14:22:58Z</time>
      </trkpt>
      <trkpt lat="44.11179" lon="3.59148">
        <ele>1266</ele>
        <time>2021-04-13T14:23:32Z</time>
      </trkpt>
      <trkpt lat="44.11199" lon="3.5916">
        <ele>1269</ele>
        <time>2021-04-13T14:24:01Z</time>
      </trkpt>
      <trkpt lat="44.11205" lon="3.59167">
        <ele>1269</ele>
        <time>2021-04-13T14:24:12Z</time>
      </trkpt>
      <trkpt lat="44.11233" lon="3.59165">
        <ele>1277</ele>
        <time>2021-04-13T14:24:49Z</time>
      </trkpt>
      <trkpt lat="44.11253" lon="3.59145">
        <ele>1286</ele>
        <time>2021-04-13T14:25:22Z</time>
      </trkpt>
      <trkpt lat="44.11272" lon="3.59133">
        <ele>1291</ele>
        <time>2021-04-13T14:25:50Z</time>
      </trkpt>
      <trkpt lat="44.11295" lon="3.59132">
        <ele>1295</ele>
        <time>2021-04-13T14:26:20Z</time>
      </trkpt>
      <trkpt lat="44.11328" lon="3.59136">
        <ele>1301</ele>
        <time>2021-04-13T14:27:05Z</time>
      </trkpt>
      <trkpt lat="44.11319" lon="3.59145">
        <ele>1298</ele>
        <time>2021-04-13T14:27:19Z</time>
      </trkpt>
      <trkpt lat="44.11308" lon="3.59163">
        <ele>1293</ele>
        <time>2021-04-13T14:27:42Z</time>
      </trkpt>
      <trkpt lat="44.11309" lon="3.59173">
        <ele>1294</ele>
        <time>2021-04-13T14:27:52Z</time>
      </trkpt>
      <trkpt lat="44.11298" lon="3.59202">
        <ele>1295</ele>
        <time>2021-04-13T14:28:23Z</time>
      </trkpt>
      <trkpt lat="44.1129" lon="3.59238">
        <ele>1297</ele>
        <time>2021-04-13T14:28:59Z</time>
      </trkpt>
      <trkpt lat="44.11281" lon="3.59261">
        <ele>1297</ele>
        <time>2021-04-13T14:29:24Z</time>
      </trkpt>
      <trkpt lat="44.11276" lon="3.59293">
        <ele>1301</ele>
        <time>2021-04-13T14:29:56Z</time>
      </trkpt>
      <trkpt lat="44.1127" lon="3.5931">
        <ele>1302</ele>
        <time>2021-04-13T14:30:14Z</time>
      </trkpt>
      <trkpt lat="44.1127" lon="3.59345">
        <ele>1306</ele>
        <time>2021-04-13T14:30:47Z</time>
      </trkpt>
      <trkpt lat="44.1128" lon="3.59365">
        <ele>1308</ele>
        <time>2021-04-13T14:31:11Z</time>
      </trkpt>
      <trkpt lat="44.11305" lon="3.59392">
        <ele>1313</ele>
        <time>2021-04-13T14:31:53Z</time>
      </trkpt>
      <trkpt lat="44.11318" lon="3.59393">
        <ele>1317</ele>
        <time>2021-04-13T14:32:10Z</time>
      </trkpt>
      <trkpt lat="44.11328" lon="3.59398">
        <ele>1319</ele>
        <time>2021-04-13T14:32:24Z</time>
      </trkpt>
      <trkpt lat="44.1134" lon="3.5939">
        <ele>1321</ele>
        <time>2021-04-13T14:32:42Z</time>
      </trkpt>
      <trkpt lat="44.11343" lon="3.59376">
        <ele>1322</ele>
        <time>2021-04-13T14:32:56Z</time>
      </trkpt>
      <trkpt lat="44.11351" lon="3.59375">
        <ele>1323</ele>
        <time>2021-04-13T14:33:07Z</time>
      </trkpt>
      <trkpt lat="44.11375" lon="3.59343">
        <ele>1331</ele>
        <time>2021-04-13T14:33:51Z</time>
      </trkpt>
      <trkpt lat="44.11379" lon="3.59316">
        <ele>1333</ele>
        <time>2021-04-13T14:34:18Z</time>
      </trkpt>
      <trkpt lat="44.11415" lon="3.59267">
        <ele>1341</ele>
        <time>2021-04-13T14:35:25Z</time>
      </trkpt>
      <trkpt lat="44.11446" lon="3.59236">
        <ele>1347</ele>
        <time>2021-04-13T14:36:16Z</time>
      </trkpt>
      <trkpt lat="44.1147" lon="3.59201">
        <ele>1348</ele>
        <time>2021-04-13T14:37:02Z</time>
      </trkpt>
      <trkpt lat="44.11513" lon="3.59168">
        <ele>1358</ele>
        <time>2021-04-13T14:38:08Z</time>
      </trkpt>
      <trkpt lat="44.11537" lon="3.5914">
        <ele>1368</ele>
        <time>2021-04-13T14:38:49Z</time>
      </trkpt>
      <trkpt lat="44.11541" lon="3.59129">
        <ele>1370</ele>
        <time>2021-04-13T14:39:01Z</time>
      </trkpt>
      <trkpt lat="44.11538" lon="3.59116">
        <ele>1369</ele>
        <time>2021-04-13T14:39:14Z</time>
      </trkpt>
      <trkpt lat="44.11532" lon="3.5909">
        <ele>1367</ele>
        <time>2021-04-13T14:39:41Z</time>
      </trkpt>
      <trkpt lat="44.11533" lon="3.59086">
        <ele>1367</ele>
        <time>2021-04-13T14:39:45Z</time>
      </trkpt>
      <trkpt lat="44.1153" lon="3.59034">
        <ele>1369</ele>
        <time>2021-04-13T14:40:35Z</time>
      </trkpt>
      <trkpt lat="44.11508" lon="3.58927">
        <ele>1376</ele>
        <time>2021-04-13T14:42:21Z</time>
      </trkpt>
      <trkpt lat="44.11471" lon="3.58862">
        <ele>1381</ele>
        <time>2021-04-13T14:43:41Z</time>
      </trkpt>
      <trkpt lat="44.1145" lon="3.58846">
        <ele>1378</ele>
        <time>2021-04-13T14:44:13Z</time>
      </trkpt>
      <trkpt lat="44.11411" lon="3.58796">
        <ele>1370</ele>
        <time>2021-04-13T14:45:23Z</time>
      </trkpt>
      <trkpt lat="44.11403" lon="3.58771">
        <ele>1366</ele>
        <time>2021-04-13T14:45:50Z</time>
      </trkpt>
      <trkpt lat="44.11399" lon="3.58746">
        <ele>1363</ele>
        <time>2021-04-13T14:46:14Z</time>
      </trkpt>
      <trkpt lat="44.114" lon="3.58727">
        <ele>1361</ele>
        <time>2021-04-13T14:46:32Z</time>
      </trkpt>
      <trkpt lat="44.11407" lon="3.58713">
        <ele>1363</ele>
        <time>2021-04-13T14:46:49Z</time>
      </trkpt>
      <trkpt lat="44.11416" lon="3.5871">
        <ele>1368</ele>
        <time>2021-04-13T14:47:01Z</time>
      </trkpt>
      <trkpt lat="44.11427" lon="3.58711">
        <ele>1372</ele>
        <time>2021-04-13T14:47:16Z</time>
      </trkpt>
      <trkpt lat="44.11443" lon="3.58705">
        <ele>1377</ele>
        <time>2021-04-13T14:47:38Z</time>
      </trkpt>
      <trkpt lat="44.11462" lon="3.58689">
        <ele>1381</ele>
        <time>2021-04-13T14:48:07Z</time>
      </trkpt>
      <trkpt lat="44.11477" lon="3.5867">
        <ele>1384</ele>
        <time>2021-04-13T14:48:35Z</time>
      </trkpt>
      <trkpt lat="44.1147" lon="3.58673">
        <ele>1382</ele>
        <time>2021-04-13T14:48:44Z</time>
      </trkpt>
      <trkpt lat="44.11457" lon="3.58658">
        <ele>1374</ele>
        <time>2021-04-13T14:49:07Z</time>
      </trkpt>
      <trkpt lat="44.11445" lon="3.58622">
        <ele>1359</ele>
        <time>2021-04-13T14:49:45Z</time>
      </trkpt>
      <trkpt lat="44.11444" lon="3.58612">
        <ele>1355</ele>
        <time>2021-04-13T14:49:55Z</time>
      </trkpt>
      <trkpt lat="44.11457" lon="3.58591">
        <ele>1354</ele>
        <time>2021-04-13T14:50:21Z</time>
      </trkpt>
      <trkpt lat="44.11464" lon="3.5856">
        <ele>1349</ele>
        <time>2021-04-13T14:50:52Z</time>
      </trkpt>
      <trkpt lat="44.11476" lon="3.58542">
        <ele>1350</ele>
        <time>2021-04-13T14:51:16Z</time>
      </trkpt>
      <trkpt lat="44.11496" lon="3.58507">
        <ele>1352</ele>
        <time>2021-04-13T14:51:59Z</time>
      </trkpt>
      <trkpt lat="44.11556" lon="3.58471">
        <ele>1345</ele>
        <time>2021-04-13T14:53:26Z</time>
      </trkpt>
      <trkpt lat="44.11486" lon="3.58447">
        <ele>1333</ele>
        <time>2021-04-13T14:55:02Z</time>
      </trkpt>
      <trkpt lat="44.11466" lon="3.58435">
        <ele>1322</ele>
        <time>2021-04-13T14:55:31Z</time>
      </trkpt>
      <trkpt lat="44.11441" lon="3.58427">
        <ele>1310</ele>
        <time>2021-04-13T14:56:05Z</time>
      </trkpt>
      <trkpt lat="44.11431" lon="3.58414">
        <ele>1304</ele>
        <time>2021-04-13T14:56:24Z</time>
      </trkpt>
      <trkpt lat="44.11441" lon="3.58427">
        <ele>1310</ele>
        <time>2021-04-13T14:56:42Z</time>
      </trkpt>
      <trkpt lat="44.11466" lon="3.58435">
        <ele>1322</ele>
        <time>2021-04-13T14:57:16Z</time>
      </trkpt>
      <trkpt lat="44.11486" lon="3.58447">
        <ele>1333</ele>
        <time>2021-04-13T14:57:45Z</time>
      </trkpt>
      <trkpt lat="44.11556" lon="3.58471">
        <ele>1345</ele>
        <time>2021-04-13T14:59:21Z</time>
      </trkpt>
      <trkpt lat="44.11496" lon="3.58507">
        <ele>1352</ele>
        <time>2021-04-13T15:00:48Z</time>
      </trkpt>
      <trkpt lat="44.11476" lon="3.58542">
        <ele>1350</ele>
        <time>2021-04-13T15:01:31Z</time>
      </trkpt>
      <trkpt lat="44.11464" lon="3.5856">
        <ele>1349</ele>
        <time>2021-04-13T15:01:55Z</time>
      </trkpt>
      <trkpt lat="44.11457" lon="3.58591">
        <ele>1354</ele>
        <time>2021-04-13T15:02:26Z</time>
      </trkpt>
      <trkpt lat="44.11444" lon="3.58612">
        <ele>1355</ele>
        <time>2021-04-13T15:02:53Z</time>
      </trkpt>
      <trkpt lat="44.11445" lon="3.58622">
        <ele>1359</ele>
        <time>2021-04-13T15:03:02Z</time>
      </trkpt>
      <trkpt lat="44.11457" lon="3.58658">
        <ele>1374</ele>
        <time>2021-04-13T15:03:40Z</time>
      </trkpt>
      <trkpt lat="44.1147" lon="3.58673">
        <ele>1382</ele>
        <time>2021-04-13T15:04:03Z</time>
      </trkpt>
      <trkpt lat="44.11477" lon="3.5867">
        <ele>1384</ele>
        <time>2021-04-13T15:04:13Z</time>
      </trkpt>
      <trkpt lat="44.11546" lon="3.58726">
        <ele>1406</ele>
        <time>2021-04-13T15:05:59Z</time>
      </trkpt>
      <trkpt lat="44.11625" lon="3.58826">
        <ele>1436</ele>
        <time>2021-04-13T15:08:22Z</time>
      </trkpt>
      <trkpt lat="44.1164" lon="3.58809">
        <ele>1438</ele>
        <time>2021-04-13T15:08:47Z</time>
      </trkpt>
      <trkpt lat="44.1166" lon="3.58803">
        <ele>1443</ele>
        <time>2021-04-13T15:09:15Z</time>
      </trkpt>
      <trkpt lat="44.11698" lon="3.58784">
        <ele>1450</ele>
        <time>2021-04-13T15:10:09Z</time>
      </trkpt>
      <trkpt lat="44.11744" lon="3.58772">
        <ele>1461</ele>
        <time>2021-04-13T15:11:11Z</time>
      </trkpt>
      <trkpt lat="44.11789" lon="3.58767">
        <ele>1473</ele>
        <time>2021-04-13T15:12:11Z</time>
      </trkpt>
      <trkpt lat="44.11865" lon="3.58745">
        <ele>1486</ele>
        <time>2021-04-13T15:13:55Z</time>
      </trkpt>
      <trkpt lat="44.1191" lon="3.5872">
        <ele>1491</ele>
        <time>2021-04-13T15:15:00Z</time>
      </trkpt>
      <trkpt lat="44.11937" lon="3.58686">
        <ele>1492</ele>
        <time>2021-04-13T15:15:48Z</time>
      </trkpt>
      <trkpt lat="44.11944" lon="3.58673">
        <ele>1493</ele>
        <time>2021-04-13T15:16:04Z</time>
      </trkpt>
      <trkpt lat="44.11948" lon="3.5867">
        <ele>1494</ele>
        <time>2021-04-13T15:16:10Z</time>
      </trkpt>
      <trkpt lat="44.11966" lon="3.58635">
        <ele>1498</ele>
        <time>2021-04-13T15:16:51Z</time>
      </trkpt>
      <trkpt lat="44.11981" lon="3.58598">
        <ele>1503</ele>
        <time>2021-04-13T15:17:32Z</time>
      </trkpt>
      <trkpt lat="44.12007" lon="3.58509">
        <ele>1515</ele>
        <time>2021-04-13T15:19:04Z</time>
      </trkpt>
      <trkpt lat="44.12088" lon="3.58276">
        <ele>1536</ele>
        <time>2021-04-13T15:23:12Z</time>
      </trkpt>
      <trkpt lat="44.12092" lon="3.58262">
        <ele>1537</ele>
        <time>2021-04-13T15:23:26Z</time>
      </trkpt>
      <trkpt lat="44.12092" lon="3.58253">
        <ele>1536</ele>
        <time>2021-04-13T15:23:35Z</time>
      </trkpt>
      <trkpt lat="44.12102" lon="3.58215">
        <ele>1539</ele>
        <time>2021-04-13T15:24:14Z</time>
      </trkpt>
      <trkpt lat="44.12107" lon="3.58211">
        <ele>1541</ele>
        <time>2021-04-13T15:24:21Z</time>
      </trkpt>
      <trkpt lat="44.1211" lon="3.58217">
        <ele>1541</ele>
        <time>2021-04-13T15:24:28Z</time>
      </trkpt>
      <trkpt lat="44.12116" lon="3.58212">
        <ele>1543</ele>
        <time>2021-04-13T15:24:38Z</time>
      </trkpt>
      <trkpt lat="44.12126" lon="3.58193">
        <ele>1545</ele>
        <time>2021-04-13T15:25:00Z</time>
      </trkpt>
      <trkpt lat="44.12131" lon="3.58199">
        <ele>1546</ele>
        <time>2021-04-13T15:25:09Z</time>
      </trkpt>
      <trkpt lat="44.12136" lon="3.58198">
        <ele>1547</ele>
        <time>2021-04-13T15:25:16Z</time>
      </trkpt>
      <trkpt lat="44.12139" lon="3.58195">
        <ele>1548</ele>
        <time>2021-04-13T15:25:21Z</time>
      </trkpt>
      <trkpt lat="44.1214" lon="3.58188">
        <ele>1549</ele>
        <time>2021-04-13T15:25:27Z</time>
      </trkpt>
      <trkpt lat="44.12161" lon="3.58187">
        <ele>1553</ele>
        <time>2021-04-13T15:25:56Z</time>
      </trkpt>
      <trkpt lat="44.12167" lon="3.58163">
        <ele>1555</ele>
        <time>2021-04-13T15:26:20Z</time>
      </trkpt>
      <trkpt lat="44.1216" lon="3.58149">
        <ele>1553</ele>
        <time>2021-04-13T15:26:36Z</time>
      </trkpt>
      <trkpt lat="44.12167" lon="3.58163">
        <ele>1555</ele>
        <time>2021-04-13T15:26:53Z</time>
      </trkpt>
      <trkpt lat="44.12152" lon="3.58217">
        <ele>1551</ele>
        <time>2021-04-13T15:27:48Z</time>
      </trkpt>
      <trkpt lat="44.12152" lon="3.58259">
        <ele>1549</ele>
        <time>2021-04-13T15:28:28Z</time>
      </trkpt>
      <trkpt lat="44.1215" lon="3.58294">
        <ele>1546</ele>
        <time>2021-04-13T15:29:02Z</time>
      </trkpt>
      <trkpt lat="44.1215" lon="3.58335">
        <ele>1544</ele>
        <time>2021-04-13T15:29:41Z</time>
      </trkpt>
      <trkpt lat="44.12146" lon="3.58351">
        <ele>1543</ele>
        <time>2021-04-13T15:29:57Z</time>
      </trkpt>
      <trkpt lat="44.12129" lon="3.5837">
        <ele>1542</ele>
        <time>2021-04-13T15:30:26Z</time>
      </trkpt>
      <trkpt lat="44.12124" lon="3.58387">
        <ele>1542</ele>
        <time>2021-04-13T15:30:44Z</time>
      </trkpt>
      <trkpt lat="44.12105" lon="3.58438">
        <ele>1540</ele>
        <time>2021-04-13T15:31:39Z</time>
      </trkpt>
      <trkpt lat="44.12097" lon="3.58465">
        <ele>1538</ele>
        <time>2021-04-13T15:32:07Z</time>
      </trkpt>
      <trkpt lat="44.12087" lon="3.5849">
        <ele>1537</ele>
        <time>2021-04-13T15:32:35Z</time>
      </trkpt>
      <trkpt lat="44.12082" lon="3.58492">
        <ele>1537</ele>
        <time>2021-04-13T15:32:41Z</time>
      </trkpt>
      <trkpt lat="44.12073" lon="3.5851">
        <ele>1533</ele>
        <time>2021-04-13T15:33:02Z</time>
      </trkpt>
      <trkpt lat="44.12066" lon="3.58517">
        <ele>1530</ele>
        <time>2021-04-13T15:33:14Z</time>
      </trkpt>
      <trkpt lat="44.12059" lon="3.58533">
        <ele>1527</ele>
        <time>2021-04-13T15:33:32Z</time>
      </trkpt>
      <trkpt lat="44.12054" lon="3.58558">
        <ele>1523</ele>
        <time>2021-04-13T15:33:57Z</time>
      </trkpt>
      <trkpt lat="44.1205" lon="3.58567">
        <ele>1521</ele>
        <time>2021-04-13T15:34:07Z</time>
      </trkpt>
      <trkpt lat="44.12039" lon="3.58575">
        <ele>1519</ele>
        <time>2021-04-13T15:34:23Z</time>
      </trkpt>
      <trkpt lat="44.12008" lon="3.5863">
        <ele>1510</ele>
        <time>2021-04-13T15:35:30Z</time>
      </trkpt>
      <trkpt lat="44.12003" lon="3.58644">
        <ele>1509</ele>
        <time>2021-04-13T15:35:45Z</time>
      </trkpt>
      <trkpt lat="44.11973" lon="3.58693">
        <ele>1498</ele>
        <time>2021-04-13T15:36:47Z</time>
      </trkpt>
      <trkpt lat="44.1197" lon="3.58702">
        <ele>1497</ele>
        <time>2021-04-13T15:36:57Z</time>
      </trkpt>
      <trkpt lat="44.1196" lon="3.58705">
        <ele>1496</ele>
        <time>2021-04-13T15:37:10Z</time>
      </trkpt>
      <trkpt lat="44.11952" lon="3.58702">
        <ele>1495</ele>
        <time>2021-04-13T15:37:21Z</time>
      </trkpt>
      <trkpt lat="44.11948" lon="3.5871">
        <ele>1495</ele>
        <time>2021-04-13T15:37:31Z</time>
      </trkpt>
      <trkpt lat="44.11933" lon="3.58761">
        <ele>1497</ele>
        <time>2021-04-13T15:38:23Z</time>
      </trkpt>
      <trkpt lat="44.11918" lon="3.58774">
        <ele>1500</ele>
        <time>2021-04-13T15:38:47Z</time>
      </trkpt>
      <trkpt lat="44.11891" lon="3.58794">
        <ele>1500</ele>
        <time>2021-04-13T15:39:28Z</time>
      </trkpt>
      <trkpt lat="44.1189" lon="3.588">
        <ele>1501</ele>
        <time>2021-04-13T15:39:34Z</time>
      </trkpt>
      <trkpt lat="44.11891" lon="3.58805">
        <ele>1502</ele>
        <time>2021-04-13T15:39:39Z</time>
      </trkpt>
      <trkpt lat="44.11894" lon="3.58807">
        <ele>1502</ele>
        <time>2021-04-13T15:39:43Z</time>
      </trkpt>
      <trkpt lat="44.11908" lon="3.58806">
        <ele>1504</ele>
        <time>2021-04-13T15:40:02Z</time>
      </trkpt>
      <trkpt lat="44.11913" lon="3.5881">
        <ele>1505</ele>
        <time>2021-04-13T15:40:10Z</time>
      </trkpt>
      <trkpt lat="44.11918" lon="3.58815">
        <ele>1505</ele>
        <time>2021-04-13T15:40:18Z</time>
      </trkpt>
      <trkpt lat="44.11922" lon="3.58827">
        <ele>1506</ele>
        <time>2021-04-13T15:40:30Z</time>
      </trkpt>
      <trkpt lat="44.11934" lon="3.58899">
        <ele>1505</ele>
        <time>2021-04-13T15:41:41Z</time>
      </trkpt>
      <trkpt lat="44.1195" lon="3.58956">
        <ele>1502</ele>
        <time>2021-04-13T15:42:40Z</time>
      </trkpt>
      <trkpt lat="44.11965" lon="3.59005">
        <ele>1499</ele>
        <time>2021-04-13T15:43:31Z</time>
      </trkpt>
      <trkpt lat="44.11994" lon="3.59079">
        <ele>1494</ele>
        <time>2021-04-13T15:44:52Z</time>
      </trkpt>
      <trkpt lat="44.12021" lon="3.59152">
        <ele>1482</ele>
        <time>2021-04-13T15:46:10Z</time>
      </trkpt>
      <trkpt lat="44.12026" lon="3.59172">
        <ele>1478</ele>
        <time>2021-04-13T15:46:31Z</time>
      </trkpt>
      <trkpt lat="44.12025" lon="3.59179">
        <ele>1477</ele>
        <time>2021-04-13T15:46:38Z</time>
      </trkpt>
      <trkpt lat="44.12021" lon="3.59188">
        <ele>1475</ele>
        <time>2021-04-13T15:46:48Z</time>
      </trkpt>
      <trkpt lat="44.12014" lon="3.59198">
        <ele>1472</ele>
        <time>2021-04-13T15:47:01Z</time>
      </trkpt>
      <trkpt lat="44.11991" lon="3.59206">
        <ele>1468</ele>
        <time>2021-04-13T15:47:33Z</time>
      </trkpt>
      <trkpt lat="44.1199" lon="3.59212">
        <ele>1465</ele>
        <time>2021-04-13T15:47:39Z</time>
      </trkpt>
      <trkpt lat="44.11995" lon="3.5922">
        <ele>1464</ele>
        <time>2021-04-13T15:47:49Z</time>
      </trkpt>
      <trkpt lat="44.12011" lon="3.59222">
        <ele>1465</ele>
        <time>2021-04-13T15:48:10Z</time>
      </trkpt>
      <trkpt lat="44.12008" lon="3.59248">
        <ele>1456</ele>
        <time>2021-04-13T15:48:35Z</time>
      </trkpt>
      <trkpt lat="44.11994" lon="3.59265">
        <ele>1449</ele>
        <time>2021-04-13T15:49:00Z</time>
      </trkpt>
      <trkpt lat="44.11991" lon="3.59277">
        <ele>1444</ele>
        <time>2021-04-13T15:49:12Z</time>
      </trkpt>
      <trkpt lat="44.11967" lon="3.59306">
        <ele>1425</ele>
        <time>2021-04-13T15:49:55Z</time>
      </trkpt>
      <trkpt lat="44.11968" lon="3.59312">
        <ele>1424</ele>
        <time>2021-04-13T15:50:01Z</time>
      </trkpt>
      <trkpt lat="44.11966" lon="3.59318">
        <ele>1422</ele>
        <time>2021-04-13T15:50:07Z</time>
      </trkpt>
      <trkpt lat="44.11969" lon="3.59324">
        <ele>1421</ele>
        <time>2021-04-13T15:50:14Z</time>
      </trkpt>
      <trkpt lat="44.11967" lon="3.59345">
        <ele>1416</ele>
        <time>2021-04-13T15:50:34Z</time>
      </trkpt>
      <trkpt lat="44.11963" lon="3.59364">
        <ele>1411</ele>
        <time>2021-04-13T15:50:53Z</time>
      </trkpt>
      <trkpt lat="44.11959" lon="3.59371">
        <ele>1409</ele>
        <time>2021-04-13T15:51:02Z</time>
      </trkpt>
      <trkpt lat="44.11957" lon="3.59379">
        <ele>1407</ele>
        <time>2021-04-13T15:51:10Z</time>
      </trkpt>
      <trkpt lat="44.11939" lon="3.59404">
        <ele>1396</ele>
        <time>2021-04-13T15:51:44Z</time>
      </trkpt>
      <trkpt lat="44.11928" lon="3.59428">
        <ele>1390</ele>
        <time>2021-04-13T15:52:11Z</time>
      </trkpt>
      <trkpt lat="44.11926" lon="3.5945">
        <ele>1389</ele>
        <time>2021-04-13T15:52:32Z</time>
      </trkpt>
      <trkpt lat="44.11919" lon="3.59459">
        <ele>1387</ele>
        <time>2021-04-13T15:52:45Z</time>
      </trkpt>
      <trkpt lat="44.11918" lon="3.59467">
        <ele>1386</ele>
        <time>2021-04-13T15:52:53Z</time>
      </trkpt>
      <trkpt lat="44.11922" lon="3.59472">
        <ele>1387</ele>
        <time>2021-04-13T15:53:00Z</time>
      </trkpt>
      <trkpt lat="44.11922" lon="3.59521">
        <ele>1386</ele>
        <time>2021-04-13T15:53:47Z</time>
      </trkpt>
      <trkpt lat="44.11942" lon="3.59659">
        <ele>1379</ele>
        <time>2021-04-13T15:56:02Z</time>
      </trkpt>
      <trkpt lat="44.11947" lon="3.59745">
        <ele>1371</ele>
        <time>2021-04-13T15:57:25Z</time>
      </trkpt>
      <trkpt lat="44.11946" lon="3.59767">
        <ele>1366</ele>
        <time>2021-04-13T15:57:46Z</time>
      </trkpt>
      <trkpt lat="44.11932" lon="3.59792">
        <ele>1362</ele>
        <time>2021-04-13T15:58:16Z</time>
      </trkpt>
      <trkpt lat="44.11919" lon="3.59803">
        <ele>1361</ele>
        <time>2021-04-13T15:58:36Z</time>
      </trkpt>
      <trkpt lat="44.11905" lon="3.5981">
        <ele>1353</ele>
        <time>2021-04-13T15:58:56Z</time>
      </trkpt>
      <trkpt lat="44.11899" lon="3.59809">
        <ele>1350</ele>
        <time>2021-04-13T15:59:04Z</time>
      </trkpt>
      <trkpt lat="44.11894" lon="3.59813">
        <ele>1346</ele>
        <time>2021-04-13T15:59:12Z</time>
      </trkpt>
      <trkpt lat="44.11898" lon="3.59821">
        <ele>1347</ele>
        <time>2021-04-13T15:59:21Z</time>
      </trkpt>
      <trkpt lat="44.11928" lon="3.59836">
        <ele>1351</ele>
        <time>2021-04-13T16:00:04Z</time>
      </trkpt>
      <trkpt lat="44.11965" lon="3.59843">
        <ele>1347</ele>
        <time>2021-04-13T16:00:54Z</time>
      </trkpt>
      <trkpt lat="44.11992" lon="3.59846">
        <ele>1344</ele>
        <time>2021-04-13T16:01:30Z</time>
      </trkpt>
      <trkpt lat="44.12017" lon="3.5986">
        <ele>1340</ele>
        <time>2021-04-13T16:02:06Z</time>
      </trkpt>
      <trkpt lat="44.12032" lon="3.59877">
        <ele>1337</ele>
        <time>2021-04-13T16:02:32Z</time>
      </trkpt>
      <trkpt lat="44.12049" lon="3.59904">
        <ele>1335</ele>
        <time>2021-04-13T16:03:06Z</time>
      </trkpt>
      <trkpt lat="44.12056" lon="3.59945">
        <ele>1332</ele>
        <time>2021-04-13T16:03:46Z</time>
      </trkpt>
      <trkpt lat="44.12055" lon="3.60007">
        <ele>1325</ele>
        <time>2021-04-13T16:04:46Z</time>
      </trkpt>
      <trkpt lat="44.12057" lon="3.60063">
        <ele>1315</ele>
        <time>2021-04-13T16:05:39Z</time>
      </trkpt>
      <trkpt lat="44.1205" lon="3.6009">
        <ele>1307</ele>
        <time>2021-04-13T16:06:07Z</time>
      </trkpt>
      <trkpt lat="44.12046" lon="3.60117">
        <ele>1301</ele>
        <time>2021-04-13T16:06:33Z</time>
      </trkpt>
      <trkpt lat="44.12047" lon="3.60142">
        <ele>1297</ele>
        <time>2021-04-13T16:06:57Z</time>
      </trkpt>
      <trkpt lat="44.1206" lon="3.60168">
        <ele>1297</ele>
        <time>2021-04-13T16:07:28Z</time>
      </trkpt>
      <trkpt lat="44.1208" lon="3.60214">
        <ele>1294</ele>
        <time>2021-04-13T16:08:19Z</time>
      </trkpt>
      <trkpt lat="44.12091" lon="3.60236">
        <ele>1289</ele>
        <time>2021-04-13T16:08:45Z</time>
      </trkpt>
      <trkpt lat="44.12103" lon="3.60246">
        <ele>1287</ele>
        <time>2021-04-13T16:09:04Z</time>
      </trkpt>
      <trkpt lat="44.12123" lon="3.60249">
        <ele>1285</ele>
        <time>2021-04-13T16:09:30Z</time>
      </trkpt>
      <trkpt lat="44.12152" lon="3.60247">
        <ele>1285</ele>
        <time>2021-04-13T16:10:09Z</time>
      </trkpt>
      <trkpt lat="44.12176" lon="3.60242">
        <ele>1286</ele>
        <time>2021-04-13T16:10:42Z</time>
      </trkpt>
      <trkpt lat="44.12184" lon="3.60246">
        <ele>1284</ele>
        <time>2021-04-13T16:10:53Z</time>
      </trkpt>
      <trkpt lat="44.1218" lon="3.60258">
        <ele>1280</ele>
        <time>2021-04-13T16:11:06Z</time>
      </trkpt>
      <trkpt lat="44.12152" lon="3.60288">
        <ele>1272</ele>
        <time>2021-04-13T16:11:53Z</time>
      </trkpt>
      <trkpt lat="44.12123" lon="3.6032">
        <ele>1266</ele>
        <time>2021-04-13T16:12:42Z</time>
      </trkpt>
      <trkpt lat="44.12087" lon="3.60389">
        <ele>1254</ele>
        <time>2021-04-13T16:14:04Z</time>
      </trkpt>
      <trkpt lat="44.12075" lon="3.60427">
        <ele>1245</ele>
        <time>2021-04-13T16:14:44Z</time>
      </trkpt>
      <trkpt lat="44.1206" lon="3.60485">
        <ele>1232</ele>
        <time>2021-04-13T16:15:43Z</time>
      </trkpt>
      <trkpt lat="44.12044" lon="3.60555">
        <ele>1222</ele>
        <time>2021-04-13T16:16:53Z</time>
      </trkpt>
      <trkpt lat="44.12036" lon="3.60593">
        <ele>1217</ele>
        <time>2021-04-13T16:17:31Z</time>
      </trkpt>
      <trkpt lat="44.12037" lon="3.60626">
        <ele>1213</ele>
        <time>2021-04-13T16:18:03Z</time>
      </trkpt>
      <trkpt lat="44.12031" lon="3.60644">
        <ele>1211</ele>
        <time>2021-04-13T16:18:22Z</time>
      </trkpt>
      <trkpt lat="44.12021" lon="3.60639">
        <ele>1211</ele>
        <time>2021-04-13T16:18:36Z</time>
      </trkpt>
      <trkpt lat="44.12006" lon="3.6061">
        <ele>1213</ele>
        <time>2021-04-13T16:19:10Z</time>
      </trkpt>
      <trkpt lat="44.11993" lon="3.60575">
        <ele>1214</ele>
        <time>2021-04-13T16:19:48Z</time>
      </trkpt>
      <trkpt lat="44.11978" lon="3.60549">
        <ele>1211</ele>
        <time>2021-04-13T16:20:20Z</time>
      </trkpt>
      <trkpt lat="44.11948" lon="3.6052">
        <ele>1204</ele>
        <time>2021-04-13T16:21:08Z</time>
      </trkpt>
      <trkpt lat="44.11923" lon="3.60498">
        <ele>1199</ele>
        <time>2021-04-13T16:21:48Z</time>
      </trkpt>
      <trkpt lat="44.11899" lon="3.60486">
        <ele>1188</ele>
        <time>2021-04-13T16:22:22Z</time>
      </trkpt>
      <trkpt lat="44.11897" lon="3.60441">
        <ele>1190</ele>
        <time>2021-04-13T16:23:05Z</time>
      </trkpt>
      <trkpt lat="44.11904" lon="3.60399">
        <ele>1196</ele>
        <time>2021-04-13T16:23:46Z</time>
      </trkpt>
      <trkpt lat="44.11907" lon="3.60366">
        <ele>1199</ele>
        <time>2021-04-13T16:24:18Z</time>
      </trkpt>
      <trkpt lat="44.11902" lon="3.6034">
        <ele>1198</ele>
        <time>2021-04-13T16:24:44Z</time>
      </trkpt>
      <trkpt lat="44.11884" lon="3.60323">
        <ele>1191</ele>
        <time>2021-04-13T16:25:13Z</time>
      </trkpt>
      <trkpt lat="44.11875" lon="3.60311">
        <ele>1188</ele>
        <time>2021-04-13T16:25:30Z</time>
      </trkpt>
      <trkpt lat="44.11862" lon="3.60287">
        <ele>1186</ele>
        <time>2021-04-13T16:25:59Z</time>
      </trkpt>
      <trkpt lat="44.11854" lon="3.60266">
        <ele>1186</ele>
        <time>2021-04-13T16:26:21Z</time>
      </trkpt>
      <trkpt lat="44.11852" lon="3.60247">
        <ele>1188</ele>
        <time>2021-04-13T16:26:40Z</time>
      </trkpt>
      <trkpt lat="44.11857" lon="3.60234">
        <ele>1195</ele>
        <time>2021-04-13T16:26:54Z</time>
      </trkpt>
      <trkpt lat="44.11859" lon="3.60219">
        <ele>1200</ele>
        <time>2021-04-13T16:27:08Z</time>
      </trkpt>
      <trkpt lat="44.11853" lon="3.60215">
        <ele>1199</ele>
        <time>2021-04-13T16:27:17Z</time>
      </trkpt>
      <trkpt lat="44.11827" lon="3.60218">
        <ele>1191</ele>
        <time>2021-04-13T16:27:52Z</time>
      </trkpt>
      <trkpt lat="44.11814" lon="3.60222">
        <ele>1188</ele>
        <time>2021-04-13T16:28:10Z</time>
      </trkpt>
      <trkpt lat="44.11793" lon="3.60212">
        <ele>1191</ele>
        <time>2021-04-13T16:28:39Z</time>
      </trkpt>
      <trkpt lat="44.11778" lon="3.60209">
        <ele>1191</ele>
        <time>2021-04-13T16:29:00Z</time>
      </trkpt>
      <trkpt lat="44.1176" lon="3.60215">
        <ele>1188</ele>
        <time>2021-04-13T16:29:24Z</time>
      </trkpt>
      <trkpt lat="44.11735" lon="3.60231">
        <ele>1182</ele>
        <time>2021-04-13T16:30:01Z</time>
      </trkpt>
      <trkpt lat="44.11712" lon="3.60258">
        <ele>1176</ele>
        <time>2021-04-13T16:30:41Z</time>
      </trkpt>
      <trkpt lat="44.1169" lon="3.60315">
        <ele>1167</ele>
        <time>2021-04-13T16:31:43Z</time>
      </trkpt>
      <trkpt lat="44.11666" lon="3.60365">
        <ele>1161</ele>
        <time>2021-04-13T16:32:41Z</time>
      </trkpt>
      <trkpt lat="44.11652" lon="3.60409">
        <ele>1155</ele>
        <time>2021-04-13T16:33:27Z</time>
      </trkpt>
      <trkpt lat="44.11631" lon="3.60531">
        <ele>1135</ele>
        <time>2021-04-13T16:35:27Z</time>
      </trkpt>
      <trkpt lat="44.11632" lon="3.60583">
        <ele>1122</ele>
        <time>2021-04-13T16:36:17Z</time>
      </trkpt>
      <trkpt lat="44.11638" lon="3.60665">
        <ele>1112</ele>
        <time>2021-04-13T16:37:36Z</time>
      </trkpt>
      <trkpt lat="44.11636" lon="3.6069">
        <ele>1106</ele>
        <time>2021-04-13T16:38:00Z</time>
      </trkpt>
      <trkpt lat="44.11643" lon="3.60716">
        <ele>1104</ele>
        <time>2021-04-13T16:38:27Z</time>
      </trkpt>
      <trkpt lat="44.11656" lon="3.60747">
        <ele>1104</ele>
        <time>2021-04-13T16:39:01Z</time>
      </trkpt>
      <trkpt lat="44.11663" lon="3.60754">
        <ele>1107</ele>
        <time>2021-04-13T16:39:13Z</time>
      </trkpt>
      <trkpt lat="44.11663" lon="3.60799">
        <ele>1104</ele>
        <time>2021-04-13T16:39:56Z</time>
      </trkpt>
      <trkpt lat="44.11665" lon="3.60863">
        <ele>1102</ele>
        <time>2021-04-13T16:40:57Z</time>
      </trkpt>
      <trkpt lat="44.11667" lon="3.60885">
        <ele>1102</ele>
        <time>2021-04-13T16:41:18Z</time>
      </trkpt>
      <trkpt lat="44.11664" lon="3.60915">
        <ele>1100</ele>
        <time>2021-04-13T16:41:47Z</time>
      </trkpt>
      <trkpt lat="44.11666" lon="3.6094">
        <ele>1100</ele>
        <time>2021-04-13T16:42:11Z</time>
      </trkpt>
      <trkpt lat="44.11664" lon="3.60977">
        <ele>1098</ele>
        <time>2021-04-13T16:42:47Z</time>
      </trkpt>
      <trkpt lat="44.11677" lon="3.61033">
        <ele>1098</ele>
        <time>2021-04-13T16:43:43Z</time>
      </trkpt>
      <trkpt lat="44.11717" lon="3.6113">
        <ele>1093</ele>
        <time>2021-04-13T16:45:31Z</time>
      </trkpt>
      <trkpt lat="44.11754" lon="3.61267">
        <ele>1088</ele>
        <time>2021-04-13T16:47:51Z</time>
      </trkpt>
      <trkpt lat="44.11772" lon="3.61304">
        <ele>1080</ele>
        <time>2021-04-13T16:48:34Z</time>
      </trkpt>
      <trkpt lat="44.1178" lon="3.6133">
        <ele>1074</ele>
        <time>2021-04-13T16:49:01Z</time>
      </trkpt>
      <trkpt lat="44.11796" lon="3.61373">
        <ele>1066</ele>
        <time>2021-04-13T16:49:47Z</time>
      </trkpt>
      <trkpt lat="44.11834" lon="3.61417">
        <ele>1063</ele>
        <time>2021-04-13T16:50:53Z</time>
      </trkpt>
      <trkpt lat="44.11843" lon="3.61437">
        <ele>1062</ele>
        <time>2021-04-13T16:51:16Z</time>
      </trkpt>
      <trkpt lat="44.11847" lon="3.61458">
        <ele>1061</ele>
        <time>2021-04-13T16:51:36Z</time>
      </trkpt>
      <trkpt lat="44.11852" lon="3.61468">
        <ele>1061</ele>
        <time>2021-04-13T16:51:48Z</time>
      </trkpt>
      <trkpt lat="44.119" lon="3.61526">
        <ele>1065</ele>
        <time>2021-04-13T16:53:13Z</time>
      </trkpt>
      <trkpt lat="44.1194" lon="3.61581">
        <ele>1069</ele>
        <time>2021-04-13T16:54:28Z</time>
      </trkpt>
      <trkpt lat="44.11952" lon="3.61621">
        <ele>1069</ele>
        <time>2021-04-13T16:55:09Z</time>
      </trkpt>
      <trkpt lat="44.11978" lon="3.61669">
        <ele>1070</ele>
        <time>2021-04-13T16:56:07Z</time>
      </trkpt>
      <trkpt lat="44.11992" lon="3.61706">
        <ele>1076</ele>
        <time>2021-04-13T16:56:47Z</time>
      </trkpt>
      <trkpt lat="44.12024" lon="3.61754">
        <ele>1080</ele>
        <time>2021-04-13T16:57:50Z</time>
      </trkpt>
      <trkpt lat="44.12048" lon="3.61778">
        <ele>1080</ele>
        <time>2021-04-13T16:58:29Z</time>
      </trkpt>
      <trkpt lat="44.12084" lon="3.6181">
        <ele>1083</ele>
        <time>2021-04-13T16:59:26Z</time>
      </trkpt>
      <trkpt lat="44.12126" lon="3.61834">
        <ele>1078</ele>
        <time>2021-04-13T17:00:27Z</time>
      </trkpt>
      <trkpt lat="44.12152" lon="3.61862">
        <ele>1077</ele>
        <time>2021-04-13T17:01:11Z</time>
      </trkpt>
      <trkpt lat="44.12171" lon="3.61886">
        <ele>1077</ele>
        <time>2021-04-13T17:01:45Z</time>
      </trkpt>
      <trkpt lat="44.12196" lon="3.61906">
        <ele>1076</ele>
        <time>2021-04-13T17:02:23Z</time>
      </trkpt>
      <trkpt lat="44.12255" lon="3.61985">
        <ele>1078</ele>
        <time>2021-04-13T17:04:13Z</time>
      </trkpt>
      <trkpt lat="44.12262" lon="3.62">
        <ele>1080</ele>
        <time>2021-04-13T17:04:30Z</time>
      </trkpt>
      <trkpt lat="44.12253" lon="3.62018">
        <ele>1080</ele>
        <time>2021-04-13T17:04:51Z</time>
      </trkpt>
      <trkpt lat="44.12233" lon="3.62038">
        <ele>1082</ele>
        <time>2021-04-13T17:05:24Z</time>
      </trkpt>
      <trkpt lat="44.12173" lon="3.62076">
        <ele>1091</ele>
        <time>2021-04-13T17:06:52Z</time>
      </trkpt>
      <trkpt lat="44.12151" lon="3.62078">
        <ele>1094</ele>
        <time>2021-04-13T17:07:21Z</time>
      </trkpt>
      <trkpt lat="44.12125" lon="3.62093">
        <ele>1096</ele>
        <time>2021-04-13T17:07:59Z</time>
      </trkpt>
      <trkpt lat="44.12099" lon="3.62115">
        <ele>1097</ele>
        <time>2021-04-13T17:08:39Z</time>
      </trkpt>
      <trkpt lat="44.12083" lon="3.6214">
        <ele>1098</ele>
        <time>2021-04-13T17:09:11Z</time>
      </trkpt>
      <trkpt lat="44.12068" lon="3.62182">
        <ele>1099</ele>
        <time>2021-04-13T17:09:56Z</time>
      </trkpt>
      <trkpt lat="44.12064" lon="3.62243">
        <ele>1098</ele>
        <time>2021-04-13T17:10:55Z</time>
      </trkpt>
      <trkpt lat="44.12064" lon="3.6229">
        <ele>1096</ele>
        <time>2021-04-13T17:11:40Z</time>
      </trkpt>
      <trkpt lat="44.1207" lon="3.62328">
        <ele>1093</ele>
        <time>2021-04-13T17:12:17Z</time>
      </trkpt>
      <trkpt lat="44.12082" lon="3.6237">
        <ele>1086</ele>
        <time>2021-04-13T17:13:00Z</time>
      </trkpt>
      <trkpt lat="44.12077" lon="3.62396">
        <ele>1085</ele>
        <time>2021-04-13T17:13:26Z</time>
      </trkpt>
      <trkpt lat="44.12059" lon="3.62411">
        <ele>1088</ele>
        <time>2021-04-13T17:13:54Z</time>
      </trkpt>
      <trkpt lat="44.12025" lon="3.62426">
        <ele>1095</ele>
        <time>2021-04-13T17:14:42Z</time>
      </trkpt>
      <trkpt lat="44.11995" lon="3.62453">
        <ele>1096</ele>
        <time>2021-04-13T17:15:30Z</time>
      </trkpt>
      <trkpt lat="44.1198" lon="3.62481">
        <ele>1093</ele>
        <time>2021-04-13T17:16:03Z</time>
      </trkpt>
      <trkpt lat="44.11963" lon="3.6253">
        <ele>1089</ele>
        <time>2021-04-13T17:16:55Z</time>
      </trkpt>
      <trkpt lat="44.11954" lon="3.62583">
        <ele>1087</ele>
        <time>2021-04-13T17:17:47Z</time>
      </trkpt>
      <trkpt lat="44.11953" lon="3.62631">
        <ele>1087</ele>
        <time>2021-04-13T17:18:33Z</time>
      </trkpt>
      <trkpt lat="44.11964" lon="3.62665">
        <ele>1086</ele>
        <time>2021-04-13T17:19:09Z</time>
      </trkpt>
      <trkpt lat="44.11987" lon="3.62687">
        <ele>1085</ele>
        <time>2021-04-13T17:19:46Z</time>
      </trkpt>
      <trkpt lat="44.12028" lon="3.62707">
        <ele>1087</ele>
        <time>2021-04-13T17:20:44Z</time>
      </trkpt>
      <trkpt lat="44.12121" lon="3.62706">
        <ele>1086</ele>
        <time>2021-04-13T17:22:48Z</time>
      </trkpt>
      <trkpt lat="44.12147" lon="3.62699">
        <ele>1083</ele>
        <time>2021-04-13T17:23:24Z</time>
      </trkpt>
      <trkpt lat="44.12171" lon="3.62702">
        <ele>1082</ele>
        <time>2021-04-13T17:23:56Z</time>
      </trkpt>
      <trkpt lat="44.12194" lon="3.62723">
        <ele>1082</ele>
        <time>2021-04-13T17:24:33Z</time>
      </trkpt>
      <trkpt lat="44.12231" lon="3.62782">
        <ele>1086</ele>
        <time>2021-04-13T17:25:48Z</time>
      </trkpt>
      <trkpt lat="44.12259" lon="3.62821">
        <ele>1088</ele>
        <time>2021-04-13T17:26:40Z</time>
      </trkpt>
      <trkpt lat="44.12292" lon="3.62859">
        <ele>1087</ele>
        <time>2021-04-13T17:27:38Z</time>
      </trkpt>
      <trkpt lat="44.12311" lon="3.62898">
        <ele>1088</ele>
        <time>2021-04-13T17:28:23Z</time>
      </trkpt>
      <trkpt lat="44.12325" lon="3.62957">
        <ele>1091</ele>
        <time>2021-04-13T17:29:22Z</time>
      </trkpt>
      <trkpt lat="44.12352" lon="3.63023">
        <ele>1090</ele>
        <time>2021-04-13T17:30:35Z</time>
      </trkpt>
      <trkpt lat="44.12372" lon="3.63131">
        <ele>1093</ele>
        <time>2021-04-13T17:32:22Z</time>
      </trkpt>
      <trkpt lat="44.12392" lon="3.63166">
        <ele>1090</ele>
        <time>2021-04-13T17:33:05Z</time>
      </trkpt>
      <trkpt lat="44.12423" lon="3.63234">
        <ele>1090</ele>
        <time>2021-04-13T17:34:22Z</time>
      </trkpt>
      <trkpt lat="44.12498" lon="3.63404">
        <ele>1090</ele>
        <time>2021-04-13T17:37:33Z</time>
      </trkpt>
      <trkpt lat="44.12499" lon="3.63414">
        <ele>1090</ele>
        <time>2021-04-13T17:37:43Z</time>
      </trkpt>
      <trkpt lat="44.1251" lon="3.63411">
        <ele>1091</ele>
        <time>2021-04-13T17:37:58Z</time>
      </trkpt>
      <trkpt lat="44.12546" lon="3.63391">
        <ele>1095</ele>
        <time>2021-04-13T17:38:49Z</time>
      </trkpt>
      <trkpt lat="44.12555" lon="3.63396">
        <ele>1096</ele>
        <time>2021-04-13T17:39:02Z</time>
      </trkpt>
      <trkpt lat="44.12565" lon="3.63395">
        <ele>1097</ele>
        <time>2021-04-13T17:39:16Z</time>
      </trkpt>
      <trkpt lat="44.12572" lon="3.6339">
        <ele>1098</ele>
        <time>2021-04-13T17:39:26Z</time>
      </trkpt>
      <trkpt lat="44.12585" lon="3.63379">
        <ele>1101</ele>
        <time>2021-04-13T17:39:46Z</time>
      </trkpt>
      <trkpt lat="44.1259" lon="3.63372">
        <ele>1102</ele>
        <time>2021-04-13T17:39:56Z</time>
      </trkpt>
      <trkpt lat="44.12592" lon="3.63329">
        <ele>1106</ele>
        <time>2021-04-13T17:40:37Z</time>
      </trkpt>
      <trkpt lat="44.12635" lon="3.6338">
        <ele>1112</ele>
        <time>2021-04-13T17:41:53Z</time>
      </trkpt>
      <trkpt lat="44.12656" lon="3.63387">
        <ele>1117</ele>
        <time>2021-04-13T17:42:21Z</time>
      </trkpt>
      <trkpt lat="44.12668" lon="3.63401">
        <ele>1118</ele>
        <time>2021-04-13T17:42:42Z</time>
      </trkpt>
      <trkpt lat="44.12673" lon="3.63431">
        <ele>1117</ele>
        <time>2021-04-13T17:43:12Z</time>
      </trkpt>
      <trkpt lat="44.12735" lon="3.63515">
        <ele>1113</ele>
        <time>2021-04-13T17:45:07Z</time>
      </trkpt>
      <trkpt lat="44.12753" lon="3.63513">
        <ele>1114</ele>
        <time>2021-04-13T17:45:31Z</time>
      </trkpt>
      <trkpt lat="44.12769" lon="3.63494">
        <ele>1117</ele>
        <time>2021-04-13T17:45:59Z</time>
      </trkpt>
      <trkpt lat="44.12788" lon="3.63482">
        <ele>1119</ele>
        <time>2021-04-13T17:46:27Z</time>
      </trkpt>
      <trkpt lat="44.12807" lon="3.63492">
        <ele>1114</ele>
        <time>2021-04-13T17:46:54Z</time>
      </trkpt>
      <trkpt lat="44.12827" lon="3.63481">
        <ele>1117</ele>
        <time>2021-04-13T17:47:23Z</time>
      </trkpt>
      <trkpt lat="44.12872" lon="3.63463">
        <ele>1124</ele>
        <time>2021-04-13T17:48:25Z</time>
      </trkpt>
      <trkpt lat="44.12898" lon="3.6346">
        <ele>1124</ele>
        <time>2021-04-13T17:49:00Z</time>
      </trkpt>
      <trkpt lat="44.12926" lon="3.63451">
        <ele>1130</ele>
        <time>2021-04-13T17:49:39Z</time>
      </trkpt>
      <trkpt lat="44.12945" lon="3.63434">
        <ele>1141</ele>
        <time>2021-04-13T17:50:09Z</time>
      </trkpt>
      <trkpt lat="44.12959" lon="3.63437">
        <ele>1142</ele>
        <time>2021-04-13T17:50:28Z</time>
      </trkpt>
      <trkpt lat="44.12983" lon="3.63451">
        <ele>1140</ele>
        <time>2021-04-13T17:51:02Z</time>
      </trkpt>
      <trkpt lat="44.13006" lon="3.63492">
        <ele>1128</ele>
        <time>2021-04-13T17:51:52Z</time>
      </trkpt>
      <trkpt lat="44.13053" lon="3.63499">
        <ele>1137</ele>
        <time>2021-04-13T17:52:55Z</time>
      </trkpt>
      <trkpt lat="44.13073" lon="3.63511">
        <ele>1137</ele>
        <time>2021-04-13T17:53:24Z</time>
      </trkpt>
      <trkpt lat="44.1313" lon="3.63587">
        <ele>1123</ele>
        <time>2021-04-13T17:55:10Z</time>
      </trkpt>
      <trkpt lat="44.13177" lon="3.63613">
        <ele>1123</ele>
        <time>2021-04-13T17:56:17Z</time>
      </trkpt>
      <trkpt lat="44.13207" lon="3.63604">
        <ele>1131</ele>
        <time>2021-04-13T17:56:58Z</time>
      </trkpt>
      <trkpt lat="44.13219" lon="3.63606">
        <ele>1131</ele>
        <time>2021-04-13T17:57:14Z</time>
      </trkpt>
      <trkpt lat="44.13233" lon="3.63624">
        <ele>1127</ele>
        <time>2021-04-13T17:57:40Z</time>
      </trkpt>
      <trkpt lat="44.13244" lon="3.63673">
        <ele>1112</ele>
        <time>2021-04-13T17:58:29Z</time>
      </trkpt>
      <trkpt lat="44.13261" lon="3.63675">
        <ele>1114</ele>
        <time>2021-04-13T17:58:52Z</time>
      </trkpt>
      <trkpt lat="44.13315" lon="3.63703">
        <ele>1105</ele>
        <time>2021-04-13T18:00:08Z</time>
      </trkpt>
      <trkpt lat="44.13369" lon="3.63654">
        <ele>1119</ele>
        <time>2021-04-13T18:01:34Z</time>
      </trkpt>
      <trkpt lat="44.13402" lon="3.63647">
        <ele>1118</ele>
        <time>2021-04-13T18:02:19Z</time>
      </trkpt>
      <trkpt lat="44.13447" lon="3.63634">
        <ele>1124</ele>
        <time>2021-04-13T18:03:20Z</time>
      </trkpt>
      <trkpt lat="44.13492" lon="3.63638">
        <ele>1128</ele>
        <time>2021-04-13T18:04:20Z</time>
      </trkpt>
      <trkpt lat="44.13526" lon="3.63661">
        <ele>1126</ele>
        <time>2021-04-13T18:05:11Z</time>
      </trkpt>
      <trkpt lat="44.13576" lon="3.63675">
        <ele>1127</ele>
        <time>2021-04-13T18:06:19Z</time>
      </trkpt>
      <trkpt lat="44.13597" lon="3.63667">
        <ele>1132</ele>
        <time>2021-04-13T18:06:48Z</time>
      </trkpt>
      <trkpt lat="44.1363" lon="3.63657">
        <ele>1138</ele>
        <time>2021-04-13T18:07:33Z</time>
      </trkpt>
      <trkpt lat="44.13668" lon="3.63663">
        <ele>1140</ele>
        <time>2021-04-13T18:08:24Z</time>
      </trkpt>
      <trkpt lat="44.13705" lon="3.63689">
        <ele>1133</ele>
        <time>2021-04-13T18:09:19Z</time>
      </trkpt>
      <trkpt lat="44.13725" lon="3.63691">
        <ele>1134</ele>
        <time>2021-04-13T18:09:46Z</time>
      </trkpt>
      <trkpt lat="44.13756" lon="3.63703">
        <ele>1133</ele>
        <time>2021-04-13T18:10:29Z</time>
      </trkpt>
      <trkpt lat="44.1379" lon="3.63707">
        <ele>1142</ele>
        <time>2021-04-13T18:11:15Z</time>
      </trkpt>
      <trkpt lat="44.13798" lon="3.63734">
        <ele>1134</ele>
        <time>2021-04-13T18:11:43Z</time>
      </trkpt>
      <trkpt lat="44.1381" lon="3.63811">
        <ele>1109</ele>
        <time>2021-04-13T18:12:58Z</time>
      </trkpt>
      <trkpt lat="44.13831" lon="3.63853">
        <ele>1105</ele>
        <time>2021-04-13T18:13:47Z</time>
      </trkpt>
      <trkpt lat="44.13845" lon="3.63869">
        <ele>1101</ele>
        <time>2021-04-13T18:14:11Z</time>
      </trkpt>
      <trkpt lat="44.1387" lon="3.63837">
        <ele>1114</ele>
        <time>2021-04-13T18:14:57Z</time>
      </trkpt>
      <trkpt lat="44.13896" lon="3.63835">
        <ele>1117</ele>
        <time>2021-04-13T18:15:31Z</time>
      </trkpt>
      <trkpt lat="44.13923" lon="3.63815">
        <ele>1126</ele>
        <time>2021-04-13T18:16:12Z</time>
      </trkpt>
      <trkpt lat="44.14016" lon="3.63775">
        <ele>1134</ele>
        <time>2021-04-13T18:18:22Z</time>
      </trkpt>
      <trkpt lat="44.1406" lon="3.63783">
        <ele>1135</ele>
        <time>2021-04-13T18:19:21Z</time>
      </trkpt>
      <trkpt lat="44.14117" lon="3.63832">
        <ele>1128</ele>
        <time>2021-04-13T18:20:51Z</time>
      </trkpt>
      <trkpt lat="44.14148" lon="3.63894">
        <ele>1118</ele>
        <time>2021-04-13T18:22:03Z</time>
      </trkpt>
      <trkpt lat="44.14159" lon="3.63952">
        <ele>1106</ele>
        <time>2021-04-13T18:23:00Z</time>
      </trkpt>
      <trkpt lat="44.14153" lon="3.63974">
        <ele>1097</ele>
        <time>2021-04-13T18:23:23Z</time>
      </trkpt>
      <trkpt lat="44.14151" lon="3.63991">
        <ele>1091</ele>
        <time>2021-04-13T18:23:39Z</time>
      </trkpt>
      <trkpt lat="44.14132" lon="3.64046">
        <ele>1074</ele>
        <time>2021-04-13T18:24:38Z</time>
      </trkpt>
      <trkpt lat="44.14129" lon="3.64059">
        <ele>1071</ele>
        <time>2021-04-13T18:24:51Z</time>
      </trkpt>
      <trkpt lat="44.14134" lon="3.64091">
        <ele>1071</ele>
        <time>2021-04-13T18:25:22Z</time>
      </trkpt>
      <trkpt lat="44.14145" lon="3.64109">
        <ele>1077</ele>
        <time>2021-04-13T18:25:45Z</time>
      </trkpt>
      <trkpt lat="44.14171" lon="3.64137">
        <ele>1092</ele>
        <time>2021-04-13T18:26:29Z</time>
      </trkpt>
      <trkpt lat="44.14185" lon="3.64173">
        <ele>1092</ele>
        <time>2021-04-13T18:27:08Z</time>
      </trkpt>
      <trkpt lat="44.14189" lon="3.64204">
        <ele>1090</ele>
        <time>2021-04-13T18:27:38Z</time>
      </trkpt>
      <trkpt lat="44.14195" lon="3.64216">
        <ele>1090</ele>
        <time>2021-04-13T18:27:52Z</time>
      </trkpt>
      <trkpt lat="44.14203" lon="3.64226">
        <ele>1091</ele>
        <time>2021-04-13T18:28:07Z</time>
      </trkpt>
      <trkpt lat="44.14205" lon="3.64221">
        <ele>1092</ele>
        <time>2021-04-13T18:28:12Z</time>
      </trkpt>
      <trkpt lat="44.14221" lon="3.64207">
        <ele>1098</ele>
        <time>2021-04-13T18:28:37Z</time>
      </trkpt>
      <trkpt lat="44.14251" lon="3.64192">
        <ele>1107</ele>
        <time>2021-04-13T18:29:20Z</time>
      </trkpt>
      <trkpt lat="44.14275" lon="3.64186">
        <ele>1107</ele>
        <time>2021-04-13T18:29:52Z</time>
      </trkpt>
      <trkpt lat="44.14314" lon="3.64189">
        <ele>1106</ele>
        <time>2021-04-13T18:30:44Z</time>
      </trkpt>
      <trkpt lat="44.14355" lon="3.6418">
        <ele>1101</ele>
        <time>2021-04-13T18:31:40Z</time>
      </trkpt>
      <trkpt lat="44.14366" lon="3.64172">
        <ele>1099</ele>
        <time>2021-04-13T18:31:56Z</time>
      </trkpt>
      <trkpt lat="44.1437" lon="3.64165">
        <ele>1098</ele>
        <time>2021-04-13T18:32:05Z</time>
      </trkpt>
      <trkpt lat="44.14447" lon="3.64275">
        <ele>1072</ele>
        <time>2021-04-13T18:34:32Z</time>
      </trkpt>
      <trkpt lat="44.14508" lon="3.64374">
        <ele>1053</ele>
        <time>2021-04-13T18:36:37Z</time>
      </trkpt>
      <trkpt lat="44.14529" lon="3.64394">
        <ele>1048</ele>
        <time>2021-04-13T18:37:11Z</time>
      </trkpt>
      <trkpt lat="44.14567" lon="3.64416">
        <ele>1041</ele>
        <time>2021-04-13T18:38:06Z</time>
      </trkpt>
      <trkpt lat="44.14568" lon="3.64439">
        <ele>1043</ele>
        <time>2021-04-13T18:38:28Z</time>
      </trkpt>
      <trkpt lat="44.1458" lon="3.64452">
        <ele>1042</ele>
        <time>2021-04-13T18:38:48Z</time>
      </trkpt>
      <trkpt lat="44.14596" lon="3.64443">
        <ele>1044</ele>
        <time>2021-04-13T18:39:11Z</time>
      </trkpt>
      <trkpt lat="44.14627" lon="3.64381">
        <ele>1048</ele>
        <time>2021-04-13T18:40:24Z</time>
      </trkpt>
      <trkpt lat="44.14681" lon="3.64244">
        <ele>1051</ele>
        <time>2021-04-13T18:42:53Z</time>
      </trkpt>
      <trkpt lat="44.14706" lon="3.64237">
        <ele>1058</ele>
        <time>2021-04-13T18:43:27Z</time>
      </trkpt>
      <trkpt lat="44.14729" lon="3.64186">
        <ele>1057</ele>
        <time>2021-04-13T18:44:25Z</time>
      </trkpt>
      <trkpt lat="44.148" lon="3.64102">
        <ele>1065</ele>
        <time>2021-04-13T18:46:29Z</time>
      </trkpt>
      <trkpt lat="44.14849" lon="3.64085">
        <ele>1072</ele>
        <time>2021-04-13T18:47:37Z</time>
      </trkpt>
      <trkpt lat="44.14923" lon="3.64087">
        <ele>1075</ele>
        <time>2021-04-13T18:49:15Z</time>
      </trkpt>
      <trkpt lat="44.15012" lon="3.64031">
        <ele>1073</ele>
        <time>2021-04-13T18:51:26Z</time>
      </trkpt>
      <trkpt lat="44.15115" lon="3.63943">
        <ele>1074</ele>
        <time>2021-04-13T18:54:07Z</time>
      </trkpt>
      <trkpt lat="44.15138" lon="3.63882">
        <ele>1077</ele>
        <time>2021-04-13T18:55:13Z</time>
      </trkpt>
      <trkpt lat="44.15137" lon="3.63865">
        <ele>1078</ele>
        <time>2021-04-13T18:55:29Z</time>
      </trkpt>
      <trkpt lat="44.15114" lon="3.6382">
        <ele>1085</ele>
        <time>2021-04-13T18:56:22Z</time>
      </trkpt>
      <trkpt lat="44.15065" lon="3.6375">
        <ele>1094</ele>
        <time>2021-04-13T18:57:56Z</time>
      </trkpt>
      <trkpt lat="44.15043" lon="3.63744">
        <ele>1093</ele>
        <time>2021-04-13T18:58:26Z</time>
      </trkpt>
      <trkpt lat="44.14993" lon="3.63757">
        <ele>1086</ele>
        <time>2021-04-13T18:59:34Z</time>
      </trkpt>
      <trkpt lat="44.14985" lon="3.63752">
        <ele>1085</ele>
        <time>2021-04-13T18:59:45Z</time>
      </trkpt>
      <trkpt lat="44.14983" lon="3.6374">
        <ele>1084</ele>
        <time>2021-04-13T18:59:57Z</time>
      </trkpt>
      <trkpt lat="44.14983" lon="3.63725">
        <ele>1083</ele>
        <time>2021-04-13T19:00:11Z</time>
      </trkpt>
      <trkpt lat="44.1499" lon="3.63707">
        <ele>1083</ele>
        <time>2021-04-13T19:00:31Z</time>
      </trkpt>
      <trkpt lat="44.15037" lon="3.63652">
        <ele>1090</ele>
        <time>2021-04-13T19:01:53Z</time>
      </trkpt>
      <trkpt lat="44.15074" lon="3.63598">
        <ele>1092</ele>
        <time>2021-04-13T19:03:04Z</time>
      </trkpt>
      <trkpt lat="44.15103" lon="3.63516">
        <ele>1086</ele>
        <time>2021-04-13T19:04:32Z</time>
      </trkpt>
      <trkpt lat="44.15184" lon="3.63431">
        <ele>1086</ele>
        <time>2021-04-13T19:06:47Z</time>
      </trkpt>
      <trkpt lat="44.15209" lon="3.63382">
        <ele>1081</ele>
        <time>2021-04-13T19:07:45Z</time>
      </trkpt>
      <trkpt lat="44.15204" lon="3.63317">
        <ele>1084</ele>
        <time>2021-04-13T19:08:47Z</time>
      </trkpt>
      <trkpt lat="44.15201" lon="3.63201">
        <ele>1091</ele>
        <time>2021-04-13T19:10:39Z</time>
      </trkpt>
      <trkpt lat="44.15224" lon="3.6319">
        <ele>1092</ele>
        <time>2021-04-13T19:11:11Z</time>
      </trkpt>
      <trkpt lat="44.15284" lon="3.63038">
        <ele>1090</ele>
        <time>2021-04-13T19:13:57Z</time>
      </trkpt>
      <trkpt lat="44.15326" lon="3.63008">
        <ele>1087</ele>
        <time>2021-04-13T19:15:00Z</time>
      </trkpt>
      <trkpt lat="44.1534" lon="3.62963">
        <ele>1091</ele>
        <time>2021-04-13T19:15:47Z</time>
      </trkpt>
      <trkpt lat="44.15389" lon="3.62879">
        <ele>1088</ele>
        <time>2021-04-13T19:17:31Z</time>
      </trkpt>
      <trkpt lat="44.15434" lon="3.62783">
        <ele>1090</ele>
        <time>2021-04-13T19:19:21Z</time>
      </trkpt>
      <trkpt lat="44.15435" lon="3.62703">
        <ele>1101</ele>
        <time>2021-04-13T19:20:37Z</time>
      </trkpt>
      <trkpt lat="44.15449" lon="3.62669">
        <ele>1099</ele>
        <time>2021-04-13T19:21:15Z</time>
      </trkpt>
      <trkpt lat="44.15504" lon="3.62571">
        <ele>1091</ele>
        <time>2021-04-13T19:23:14Z</time>
      </trkpt>
      <trkpt lat="44.15508" lon="3.62484">
        <ele>1098</ele>
        <time>2021-04-13T19:24:37Z</time>
      </trkpt>
      <trkpt lat="44.15519" lon="3.6245">
        <ele>1095</ele>
        <time>2021-04-13T19:25:13Z</time>
      </trkpt>
      <trkpt lat="44.15554" lon="3.62373">
        <ele>1088</ele>
        <time>2021-04-13T19:26:40Z</time>
      </trkpt>
      <trkpt lat="44.15619" lon="3.62289">
        <ele>1078</ele>
        <time>2021-04-13T19:28:39Z</time>
      </trkpt>
      <trkpt lat="44.15666" lon="3.62216">
        <ele>1071</ele>
        <time>2021-04-13T19:30:12Z</time>
      </trkpt>
      <trkpt lat="44.1568" lon="3.62132">
        <ele>1074</ele>
        <time>2021-04-13T19:31:35Z</time>
      </trkpt>
      <trkpt lat="44.15712" lon="3.62074">
        <ele>1071</ele>
        <time>2021-04-13T19:32:45Z</time>
      </trkpt>
      <trkpt lat="44.15766" lon="3.6207">
        <ele>1058</ele>
        <time>2021-04-13T19:33:57Z</time>
      </trkpt>
      <trkpt lat="44.15808" lon="3.62034">
        <ele>1056</ele>
        <time>2021-04-13T19:35:03Z</time>
      </trkpt>
      <trkpt lat="44.15828" lon="3.61991">
        <ele>1057</ele>
        <time>2021-04-13T19:35:52Z</time>
      </trkpt>
      <trkpt lat="44.15861" lon="3.61955">
        <ele>1055</ele>
        <time>2021-04-13T19:36:48Z</time>
      </trkpt>
      <trkpt lat="44.15887" lon="3.61933">
        <ele>1051</ele>
        <time>2021-04-13T19:37:29Z</time>
      </trkpt>
      <trkpt lat="44.1601" lon="3.61858">
        <ele>1045</ele>
        <time>2021-04-13T19:40:28Z</time>
      </trkpt>
      <trkpt lat="44.16037" lon="3.61846">
        <ele>1043</ele>
        <time>2021-04-13T19:41:06Z</time>
      </trkpt>
      <trkpt lat="44.16069" lon="3.61839">
        <ele>1040</ele>
        <time>2021-04-13T19:41:49Z</time>
      </trkpt>
      <trkpt lat="44.16127" lon="3.61832">
        <ele>1028</ele>
        <time>2021-04-13T19:43:06Z</time>
      </trkpt>
      <trkpt lat="44.16148" lon="3.61827">
        <ele>1023</ele>
        <time>2021-04-13T19:43:35Z</time>
      </trkpt>
      <trkpt lat="44.1618" lon="3.61807">
        <ele>1019</ele>
        <time>2021-04-13T19:44:22Z</time>
      </trkpt>
      <trkpt lat="44.16222" lon="3.61768">
        <ele>1016</ele>
        <time>2021-04-13T19:45:29Z</time>
      </trkpt>
      <trkpt lat="44.16251" lon="3.61746">
        <ele>1012</ele>
        <time>2021-04-13T19:46:13Z</time>
      </trkpt>
      <trkpt lat="44.16268" lon="3.61738">
        <ele>1011</ele>
        <time>2021-04-13T19:46:37Z</time>
      </trkpt>
      <trkpt lat="44.1633" lon="3.61727">
        <ele>1012</ele>
        <time>2021-04-13T19:48:00Z</time>
      </trkpt>
      <trkpt lat="44.1637" lon="3.61708">
        <ele>1011</ele>
        <time>2021-04-13T19:48:57Z</time>
      </trkpt>
      <trkpt lat="44.16435" lon="3.61667">
        <ele>1017</ele>
        <time>2021-04-13T19:50:32Z</time>
      </trkpt>
      <trkpt lat="44.16474" lon="3.61648">
        <ele>1018</ele>
        <time>2021-04-13T19:51:27Z</time>
      </trkpt>
      <trkpt lat="44.16497" lon="3.61624">
        <ele>1018</ele>
        <time>2021-04-13T19:52:06Z</time>
      </trkpt>
      <trkpt lat="44.1653" lon="3.616">
        <ele>1026</ele>
        <time>2021-04-13T19:52:55Z</time>
      </trkpt>
      <trkpt lat="44.16562" lon="3.61564">
        <ele>1035</ele>
        <time>2021-04-13T19:53:50Z</time>
      </trkpt>
      <trkpt lat="44.16587" lon="3.61491">
        <ele>1042</ele>
        <time>2021-04-13T19:55:08Z</time>
      </trkpt>
      <trkpt lat="44.16631" lon="3.61439">
        <ele>1048</ele>
        <time>2021-04-13T19:56:24Z</time>
      </trkpt>
      <trkpt lat="44.16713" lon="3.61392">
        <ele>1064</ele>
        <time>2021-04-13T19:58:23Z</time>
      </trkpt>
      <trkpt lat="44.16781" lon="3.61291">
        <ele>1071</ele>
        <time>2021-04-13T20:00:35Z</time>
      </trkpt>
      <trkpt lat="44.1681" lon="3.6125">
        <ele>1079</ele>
        <time>2021-04-13T20:01:31Z</time>
      </trkpt>
      <trkpt lat="44.16878" lon="3.61186">
        <ele>1086</ele>
        <time>2021-04-13T20:03:20Z</time>
      </trkpt>
      <trkpt lat="44.16952" lon="3.6115">
        <ele>1094</ele>
        <time>2021-04-13T20:05:05Z</time>
      </trkpt>
      <trkpt lat="44.16985" lon="3.6111">
        <ele>1096</ele>
        <time>2021-04-13T20:06:03Z</time>
      </trkpt>
      <trkpt lat="44.17025" lon="3.61073">
        <ele>1102</ele>
        <time>2021-04-13T20:07:07Z</time>
      </trkpt>
      <trkpt lat="44.17058" lon="3.61037">
        <ele>1104</ele>
        <time>2021-04-13T20:08:03Z</time>
      </trkpt>
      <trkpt lat="44.17162" lon="3.60982">
        <ele>1113</ele>
        <time>2021-04-13T20:10:31Z</time>
      </trkpt>
      <trkpt lat="44.17246" lon="3.60963">
        <ele>1116</ele>
        <time>2021-04-13T20:12:25Z</time>
      </trkpt>
      <trkpt lat="44.17287" lon="3.60914">
        <ele>1124</ele>
        <time>2021-04-13T20:13:37Z</time>
      </trkpt>
      <trkpt lat="44.17341" lon="3.60826">
        <ele>1136</ele>
        <time>2021-04-13T20:15:28Z</time>
      </trkpt>
      <trkpt lat="44.17379" lon="3.60789">
        <ele>1140</ele>
        <time>2021-04-13T20:16:30Z</time>
      </trkpt>
      <trkpt lat="44.17413" lon="3.60738">
        <ele>1146</ele>
        <time>2021-04-13T20:17:36Z</time>
      </trkpt>
      <trkpt lat="44.17426" lon="3.6066">
        <ele>1142</ele>
        <time>2021-04-13T20:18:53Z</time>
      </trkpt>
      <trkpt lat="44.17453" lon="3.60626">
        <ele>1138</ele>
        <time>2021-04-13T20:19:42Z</time>
      </trkpt>
      <trkpt lat="44.17516" lon="3.60577">
        <ele>1136</ele>
        <time>2021-04-13T20:21:18Z</time>
      </trkpt>
      <trkpt lat="44.17635" lon="3.60527">
        <ele>1134</ele>
        <time>2021-04-13T20:24:04Z</time>
      </trkpt>
      <trkpt lat="44.17689" lon="3.6054">
        <ele>1128</ele>
        <time>2021-04-13T20:25:17Z</time>
      </trkpt>
      <trkpt lat="44.17758" lon="3.60564">
        <ele>1119</ele>
        <time>2021-04-13T20:26:52Z</time>
      </trkpt>
      <trkpt lat="44.17949" lon="3.607">
        <ele>1092</ele>
        <time>2021-04-13T20:31:38Z</time>
      </trkpt>
      <trkpt lat="44.17972" lon="3.60753">
        <ele>1085</ele>
        <time>2021-04-13T20:32:37Z</time>
      </trkpt>
      <trkpt lat="44.18063" lon="3.60894">
        <ele>1070</ele>
        <time>2021-04-13T20:35:39Z</time>
      </trkpt>
      <trkpt lat="44.18103" lon="3.60952">
        <ele>1063</ele>
        <time>2021-04-13T20:36:56Z</time>
      </trkpt>
      <trkpt lat="44.18147" lon="3.60965">
        <ele>1057</ele>
        <time>2021-04-13T20:37:56Z</time>
      </trkpt>
      <trkpt lat="44.18217" lon="3.6097">
        <ele>1046</ele>
        <time>2021-04-13T20:39:29Z</time>
      </trkpt>
      <trkpt lat="44.18251" lon="3.60954">
        <ele>1040</ele>
        <time>2021-04-13T20:40:17Z</time>
      </trkpt>
      <trkpt lat="44.18283" lon="3.60935">
        <ele>1029</ele>
        <time>2021-04-13T20:41:04Z</time>
      </trkpt>
      <trkpt lat="44.18347" lon="3.6091">
        <ele>1013</ele>
        <time>2021-04-13T20:42:32Z</time>
      </trkpt>
      <trkpt lat="44.18403" lon="3.60884">
        <ele>1005</ele>
        <time>2021-04-13T20:43:51Z</time>
      </trkpt>
      <trkpt lat="44.18427" lon="3.60883">
        <ele>1005</ele>
        <time>2021-04-13T20:44:23Z</time>
      </trkpt>
      <trkpt lat="44.18455" lon="3.60871">
        <ele>1008</ele>
        <time>2021-04-13T20:45:02Z</time>
      </trkpt>
      <trkpt lat="44.18489" lon="3.60843">
        <ele>1013</ele>
        <time>2021-04-13T20:45:55Z</time>
      </trkpt>
      <trkpt lat="44.18515" lon="3.6083">
        <ele>1018</ele>
        <time>2021-04-13T20:46:32Z</time>
      </trkpt>
      <trkpt lat="44.18607" lon="3.60766">
        <ele>1029</ele>
        <time>2021-04-13T20:48:49Z</time>
      </trkpt>
      <trkpt lat="44.18658" lon="3.60727">
        <ele>1038</ele>
        <time>2021-04-13T20:50:06Z</time>
      </trkpt>
      <trkpt lat="44.18707" lon="3.60673">
        <ele>1048</ele>
        <time>2021-04-13T20:51:30Z</time>
      </trkpt>
      <trkpt lat="44.18714" lon="3.60676">
        <ele>1051</ele>
        <time>2021-04-13T20:51:40Z</time>
      </trkpt>
      <trkpt lat="44.18715" lon="3.60683">
        <ele>1052</ele>
        <time>2021-04-13T20:51:46Z</time>
      </trkpt>
      <trkpt lat="44.18707" lon="3.60692">
        <ele>1050</ele>
        <time>2021-04-13T20:52:00Z</time>
      </trkpt>
      <trkpt lat="44.18696" lon="3.60711">
        <ele>1048</ele>
        <time>2021-04-13T20:52:24Z</time>
      </trkpt>
      <trkpt lat="44.18665" lon="3.60798">
        <ele>1045</ele>
        <time>2021-04-13T20:53:56Z</time>
      </trkpt>
      <trkpt lat="44.18664" lon="3.60809">
        <ele>1046</ele>
        <time>2021-04-13T20:54:07Z</time>
      </trkpt>
      <trkpt lat="44.18667" lon="3.60819">
        <ele>1047</ele>
        <time>2021-04-13T20:54:17Z</time>
      </trkpt>
      <trkpt lat="44.18673" lon="3.60825">
        <ele>1047</ele>
        <time>2021-04-13T20:54:27Z</time>
      </trkpt>
      <trkpt lat="44.18735" lon="3.60813">
        <ele>1052</ele>
        <time>2021-04-13T20:55:51Z</time>
      </trkpt>
      <trkpt lat="44.18768" lon="3.60797">
        <ele>1056</ele>
        <time>2021-04-13T20:56:37Z</time>
      </trkpt>
      <trkpt lat="44.18788" lon="3.60786">
        <ele>1058</ele>
        <time>2021-04-13T20:57:06Z</time>
      </trkpt>
      <trkpt lat="44.18837" lon="3.6075">
        <ele>1067</ele>
        <time>2021-04-13T20:58:20Z</time>
      </trkpt>
      <trkpt lat="44.18863" lon="3.60728">
        <ele>1070</ele>
        <time>2021-04-13T20:59:01Z</time>
      </trkpt>
      <trkpt lat="44.18899" lon="3.60707">
        <ele>1074</ele>
        <time>2021-04-13T20:59:53Z</time>
      </trkpt>
      <trkpt lat="44.18908" lon="3.60705">
        <ele>1075</ele>
        <time>2021-04-13T21:00:05Z</time>
      </trkpt>
      <trkpt lat="44.18927" lon="3.60707">
        <ele>1073</ele>
        <time>2021-04-13T21:00:30Z</time>
      </trkpt>
      <trkpt lat="44.18937" lon="3.60705">
        <ele>1073</ele>
        <time>2021-04-13T21:00:44Z</time>
      </trkpt>
      <trkpt lat="44.18984" lon="3.60677">
        <ele>1082</ele>
        <time>2021-04-13T21:01:52Z</time>
      </trkpt>
      <trkpt lat="44.19007" lon="3.60668">
        <ele>1084</ele>
        <time>2021-04-13T21:02:24Z</time>
      </trkpt>
      <trkpt lat="44.19072" lon="3.60649">
        <ele>1080</ele>
        <time>2021-04-13T21:03:53Z</time>
      </trkpt>
      <trkpt lat="44.19181" lon="3.60636">
        <ele>1079</ele>
        <time>2021-04-13T21:06:18Z</time>
      </trkpt>
      <trkpt lat="44.19209" lon="3.60637">
        <ele>1078</ele>
        <time>2021-04-13T21:06:56Z</time>
      </trkpt>
      <trkpt lat="44.19236" lon="3.60642">
        <ele>1077</ele>
        <time>2021-04-13T21:07:32Z</time>
      </trkpt>
      <trkpt lat="44.19292" lon="3.60657">
        <ele>1074</ele>
        <time>2021-04-13T21:08:48Z</time>
      </trkpt>
      <trkpt lat="44.19417" lon="3.60674">
        <ele>1065</ele>
        <time>2021-04-13T21:11:36Z</time>
      </trkpt>
      <trkpt lat="44.19466" lon="3.60673">
        <ele>1061</ele>
        <time>2021-04-13T21:12:41Z</time>
      </trkpt>
      <trkpt lat="44.19513" lon="3.60667">
        <ele>1057</ele>
        <time>2021-04-13T21:13:44Z</time>
      </trkpt>
      <trkpt lat="44.19526" lon="3.6066">
        <ele>1056</ele>
        <time>2021-04-13T21:14:03Z</time>
      </trkpt>
      <trkpt lat="44.19547" lon="3.60655">
        <ele>1054</ele>
        <time>2021-04-13T21:14:31Z</time>
      </trkpt>
      <trkpt lat="44.19601" lon="3.60654">
        <ele>1053</ele>
        <time>2021-04-13T21:15:43Z</time>
      </trkpt>
      <trkpt lat="44.19643" lon="3.60655">
        <ele>1057</ele>
        <time>2021-04-13T21:16:39Z</time>
      </trkpt>
      <trkpt lat="44.19705" lon="3.60641">
        <ele>1062</ele>
        <time>2021-04-13T21:18:03Z</time>
      </trkpt>
      <trkpt lat="44.1974" lon="3.60624">
        <ele>1063</ele>
        <time>2021-04-13T21:18:53Z</time>
      </trkpt>
      <trkpt lat="44.19759" lon="3.60618">
        <ele>1064</ele>
        <time>2021-04-13T21:19:19Z</time>
      </trkpt>
      <trkpt lat="44.19813" lon="3.60614">
        <ele>1067</ele>
        <time>2021-04-13T21:20:31Z</time>
      </trkpt>
      <trkpt lat="44.19828" lon="3.60618">
        <ele>1069</ele>
        <time>2021-04-13T21:20:51Z</time>
      </trkpt>
      <trkpt lat="44.19844" lon="3.60619">
        <ele>1070</ele>
        <time>2021-04-13T21:21:13Z</time>
      </trkpt>
      <trkpt lat="44.19874" lon="3.60615">
        <ele>1071</ele>
        <time>2021-04-13T21:21:53Z</time>
      </trkpt>
      <trkpt lat="44.199" lon="3.60617">
        <ele>1072</ele>
        <time>2021-04-13T21:22:28Z</time>
      </trkpt>
      <trkpt lat="44.19951" lon="3.60634">
        <ele>1074</ele>
        <time>2021-04-13T21:23:38Z</time>
      </trkpt>
      <trkpt lat="44.19975" lon="3.60634">
        <ele>1073</ele>
        <time>2021-04-13T21:24:10Z</time>
      </trkpt>
      <trkpt lat="44.19988" lon="3.60633">
        <ele>1072</ele>
        <time>2021-04-13T21:24:27Z</time>
      </trkpt>
      <trkpt lat="44.2006" lon="3.60611">
        <ele>1069</ele>
        <time>2021-04-13T21:26:05Z</time>
      </trkpt>
      <trkpt lat="44.20095" lon="3.60597">
        <ele>1068</ele>
        <time>2021-04-13T21:26:54Z</time>
      </trkpt>
      <trkpt lat="44.2011" lon="3.60596">
        <ele>1069</ele>
        <time>2021-04-13T21:27:14Z</time>
      </trkpt>
      <trkpt lat="44.20137" lon="3.60596">
        <ele>1070</ele>
        <time>2021-04-13T21:27:50Z</time>
      </trkpt>
      <trkpt lat="44.20221" lon="3.60607">
        <ele>1072</ele>
        <time>2021-04-13T21:29:43Z</time>
      </trkpt>
      <trkpt lat="44.20279" lon="3.60619">
        <ele>1073</ele>
        <time>2021-04-13T21:31:01Z</time>
      </trkpt>
      <trkpt lat="44.20377" lon="3.60658">
        <ele>1073</ele>
        <time>2021-04-13T21:33:17Z</time>
      </trkpt>
      <trkpt lat="44.20398" lon="3.60661">
        <ele>1073</ele>
        <time>2021-04-13T21:33:45Z</time>
      </trkpt>
      <trkpt lat="44.20467" lon="3.60665">
        <ele>1072</ele>
        <time>2021-04-13T21:35:17Z</time>
      </trkpt>
      <trkpt lat="44.20556" lon="3.60656">
        <ele>1071</ele>
        <time>2021-04-13T21:37:16Z</time>
      </trkpt>
      <trkpt lat="44.20594" lon="3.60648">
        <ele>1070</ele>
        <time>2021-04-13T21:38:07Z</time>
      </trkpt>
      <trkpt lat="44.20708" lon="3.60619">
        <ele>1066</ele>
        <time>2021-04-13T21:40:42Z</time>
      </trkpt>
      <trkpt lat="44.20738" lon="3.60606">
        <ele>1065</ele>
        <time>2021-04-13T21:41:24Z</time>
      </trkpt>
      <trkpt lat="44.20785" lon="3.60579">
        <ele>1064</ele>
        <time>2021-04-13T21:42:32Z</time>
      </trkpt>
      <trkpt lat="44.20829" lon="3.60561">
        <ele>1061</ele>
        <time>2021-04-13T21:43:33Z</time>
      </trkpt>
      <trkpt lat="44.20844" lon="3.6056">
        <ele>1061</ele>
        <time>2021-04-13T21:43:53Z</time>
      </trkpt>
      <trkpt lat="44.20859" lon="3.60561">
        <ele>1060</ele>
        <time>2021-04-13T21:44:13Z</time>
      </trkpt>
      <trkpt lat="44.20889" lon="3.60568">
        <ele>1059</ele>
        <time>2021-04-13T21:44:54Z</time>
      </trkpt>
      <trkpt lat="44.21011" lon="3.60616">
        <ele>1059</ele>
        <time>2021-04-13T21:47:43Z</time>
      </trkpt>
      <trkpt lat="44.21026" lon="3.60617">
        <ele>1059</ele>
        <time>2021-04-13T21:48:03Z</time>
      </trkpt>
      <trkpt lat="44.21136" lon="3.60619">
        <ele>1063</ele>
        <time>2021-04-13T21:50:30Z</time>
      </trkpt>
      <trkpt lat="44.21267" lon="3.60591">
        <ele>1059</ele>
        <time>2021-04-13T21:53:27Z</time>
      </trkpt>
      <trkpt lat="44.21338" lon="3.60572">
        <ele>1057</ele>
        <time>2021-04-13T21:55:03Z</time>
      </trkpt>
      <trkpt lat="44.2136" lon="3.60569">
        <ele>1055</ele>
        <time>2021-04-13T21:55:33Z</time>
      </trkpt>
      <trkpt lat="44.21381" lon="3.60572">
        <ele>1055</ele>
        <time>2021-04-13T21:56:01Z</time>
      </trkpt>
      <trkpt lat="44.21396" lon="3.60579">
        <ele>1054</ele>
        <time>2021-04-13T21:56:22Z</time>
      </trkpt>
      <trkpt lat="44.21515" lon="3.60648">
        <ele>1058</ele>
        <time>2021-04-13T21:59:14Z</time>
      </trkpt>
      <trkpt lat="44.21539" lon="3.60665">
        <ele>1060</ele>
        <time>2021-04-13T21:59:50Z</time>
      </trkpt>
      <trkpt lat="44.21584" lon="3.60694">
        <ele>1063</ele>
        <time>2021-04-13T22:00:56Z</time>
      </trkpt>
      <trkpt lat="44.21596" lon="3.60708">
        <ele>1064</ele>
        <time>2021-04-13T22:01:17Z</time>
      </trkpt>
      <trkpt lat="44.21615" lon="3.60737">
        <ele>1065</ele>
        <time>2021-04-13T22:01:54Z</time>
      </trkpt>
      <trkpt lat="44.21625" lon="3.60756">
        <ele>1065</ele>
        <time>2021-04-13T22:02:17Z</time>
      </trkpt>
      <trkpt lat="44.2163" lon="3.6077">
        <ele>1064</ele>
        <time>2021-04-13T22:02:32Z</time>
      </trkpt>
      <trkpt lat="44.2163" lon="3.60798">
        <ele>1063</ele>
        <time>2021-04-13T22:02:59Z</time>
      </trkpt>
      <trkpt lat="44.21635" lon="3.60821">
        <ele>1062</ele>
        <time>2021-04-13T22:03:22Z</time>
      </trkpt>
      <trkpt lat="44.21639" lon="3.60829">
        <ele>1062</ele>
        <time>2021-04-13T22:03:31Z</time>
      </trkpt>
      <trkpt lat="44.21645" lon="3.60836">
        <ele>1061</ele>
        <time>2021-04-13T22:03:41Z</time>
      </trkpt>
      <trkpt lat="44.21651" lon="3.6084">
        <ele>1061</ele>
        <time>2021-04-13T22:03:50Z</time>
      </trkpt>
      <trkpt lat="44.21663" lon="3.60839">
        <ele>1060</ele>
        <time>2021-04-13T22:04:06Z</time>
      </trkpt>
      <trkpt lat="44.21684" lon="3.60831">
        <ele>1059</ele>
        <time>2021-04-13T22:04:35Z</time>
      </trkpt>
      <trkpt lat="44.21694" lon="3.60834">
        <ele>1058</ele>
        <time>2021-04-13T22:04:49Z</time>
      </trkpt>
      <trkpt lat="44.21796" lon="3.60911">
        <ele>1057</ele>
        <time>2021-04-13T22:07:24Z</time>
      </trkpt>
      <trkpt lat="44.21875" lon="3.6098">
        <ele>1059</ele>
        <time>2021-04-13T22:09:28Z</time>
      </trkpt>
      <trkpt lat="44.21889" lon="3.60983">
        <ele>1058</ele>
        <time>2021-04-13T22:09:47Z</time>
      </trkpt>
      <trkpt lat="44.21906" lon="3.6099">
        <ele>1059</ele>
        <time>2021-04-13T22:10:11Z</time>
      </trkpt>
      <trkpt lat="44.21917" lon="3.60998">
        <ele>1062</ele>
        <time>2021-04-13T22:10:27Z</time>
      </trkpt>
      <trkpt lat="44.21933" lon="3.61026">
        <ele>1064</ele>
        <time>2021-04-13T22:11:01Z</time>
      </trkpt>
      <trkpt lat="44.21953" lon="3.61033">
        <ele>1061</ele>
        <time>2021-04-13T22:11:29Z</time>
      </trkpt>
      <trkpt lat="44.21957" lon="3.61036">
        <ele>1061</ele>
        <time>2021-04-13T22:11:35Z</time>
      </trkpt>
      <trkpt lat="44.21969" lon="3.61054">
        <ele>1064</ele>
        <time>2021-04-13T22:11:59Z</time>
      </trkpt>
      <trkpt lat="44.22004" lon="3.61076">
        <ele>1064</ele>
        <time>2021-04-13T22:12:50Z</time>
      </trkpt>
      <trkpt lat="44.22016" lon="3.61088">
        <ele>1064</ele>
        <time>2021-04-13T22:13:09Z</time>
      </trkpt>
      <trkpt lat="44.22042" lon="3.61123">
        <ele>1065</ele>
        <time>2021-04-13T22:13:58Z</time>
      </trkpt>
      <trkpt lat="44.22065" lon="3.61143">
        <ele>1066</ele>
        <time>2021-04-13T22:14:34Z</time>
      </trkpt>
      <trkpt lat="44.22087" lon="3.61151">
        <ele>1065</ele>
        <time>2021-04-13T22:15:04Z</time>
      </trkpt>
      <trkpt lat="44.22093" lon="3.61155">
        <ele>1065</ele>
        <time>2021-04-13T22:15:13Z</time>
      </trkpt>
      <trkpt lat="44.22109" lon="3.61172">
        <ele>1068</ele>
        <time>2021-04-13T22:15:40Z</time>
      </trkpt>
      <trkpt lat="44.22175" lon="3.61219">
        <ele>1067</ele>
        <time>2021-04-13T22:17:19Z</time>
      </trkpt>
      <trkpt lat="44.22266" lon="3.61275">
        <ele>1066</ele>
        <time>2021-04-13T22:19:32Z</time>
      </trkpt>
      <trkpt lat="44.2229" lon="3.61286">
        <ele>1066</ele>
        <time>2021-04-13T22:20:05Z</time>
      </trkpt>
      <trkpt lat="44.22312" lon="3.61289">
        <ele>1065</ele>
        <time>2021-04-13T22:20:35Z</time>
      </trkpt>
      <trkpt lat="44.22333" lon="3.61289">
        <ele>1065</ele>
        <time>2021-04-13T22:21:03Z</time>
      </trkpt>
      <trkpt lat="44.22365" lon="3.61305">
        <ele>1062</ele>
        <time>2021-04-13T22:21:48Z</time>
      </trkpt>
      <trkpt lat="44.22389" lon="3.61356">
        <ele>1059</ele>
        <time>2021-04-13T22:22:46Z</time>
      </trkpt>
      <trkpt lat="44.22415" lon="3.61388">
        <ele>1057</ele>
        <time>2021-04-13T22:23:33Z</time>
      </trkpt>
      <trkpt lat="44.22422" lon="3.61402">
        <ele>1056</ele>
        <time>2021-04-13T22:23:49Z</time>
      </trkpt>
      <trkpt lat="44.22427" lon="3.61428">
        <ele>1056</ele>
        <time>2021-04-13T22:24:15Z</time>
      </trkpt>
      <trkpt lat="44.2244" lon="3.61527">
        <ele>1054</ele>
        <time>2021-04-13T22:25:51Z</time>
      </trkpt>
      <trkpt lat="44.22448" lon="3.61546">
        <ele>1053</ele>
        <time>2021-04-13T22:26:12Z</time>
      </trkpt>
      <trkpt lat="44.22457" lon="3.6156">
        <ele>1053</ele>
        <time>2021-04-13T22:26:30Z</time>
      </trkpt>
      <trkpt lat="44.22502" lon="3.6161">
        <ele>1052</ele>
        <time>2021-04-13T22:27:47Z</time>
      </trkpt>
      <trkpt lat="44.22539" lon="3.61655">
        <ele>1047</ele>
        <time>2021-04-13T22:28:52Z</time>
      </trkpt>
      <trkpt lat="44.22578" lon="3.61695">
        <ele>1043</ele>
        <time>2021-04-13T22:29:57Z</time>
      </trkpt>
      <trkpt lat="44.22624" lon="3.61769">
        <ele>1040</ele>
        <time>2021-04-13T22:31:31Z</time>
      </trkpt>
      <trkpt lat="44.22695" lon="3.61878">
        <ele>1042</ele>
        <time>2021-04-13T22:33:51Z</time>
      </trkpt>
      <trkpt lat="44.22733" lon="3.61867">
        <ele>1044</ele>
        <time>2021-04-13T22:34:43Z</time>
      </trkpt>
      <trkpt lat="44.22784" lon="3.61857">
        <ele>1045</ele>
        <time>2021-04-13T22:35:52Z</time>
      </trkpt>
      <trkpt lat="44.22821" lon="3.61859">
        <ele>1046</ele>
        <time>2021-04-13T22:36:41Z</time>
      </trkpt>
      <trkpt lat="44.22907" lon="3.61875">
        <ele>1044</ele>
        <time>2021-04-13T22:38:37Z</time>
      </trkpt>
      <trkpt lat="44.22964" lon="3.61883">
        <ele>1041</ele>
        <time>2021-04-13T22:39:54Z</time>
      </trkpt>
      <trkpt lat="44.23113" lon="3.61893">
        <ele>1030</ele>
        <time>2021-04-13T22:43:13Z</time>
      </trkpt>
      <trkpt lat="44.2314" lon="3.61894">
        <ele>1030</ele>
        <time>2021-04-13T22:43:49Z</time>
      </trkpt>
      <trkpt lat="44.23162" lon="3.61891">
        <ele>1030</ele>
        <time>2021-04-13T22:44:18Z</time>
      </trkpt>
      <trkpt lat="44.23209" lon="3.61877">
        <ele>1028</ele>
        <time>2021-04-13T22:45:22Z</time>
      </trkpt>
      <trkpt lat="44.23499" lon="3.61753">
        <ele>1025</ele>
        <time>2021-04-13T22:52:07Z</time>
      </trkpt>
      <trkpt lat="44.23648" lon="3.61711">
        <ele>1017</ele>
        <time>2021-04-13T22:55:30Z</time>
      </trkpt>
      <trkpt lat="44.23671" lon="3.61708">
        <ele>1016</ele>
        <time>2021-04-13T22:56:01Z</time>
      </trkpt>
      <trkpt lat="44.23804" lon="3.61716">
        <ele>1005</ele>
        <time>2021-04-13T22:58:58Z</time>
      </trkpt>
      <trkpt lat="44.23836" lon="3.61713">
        <ele>1007</ele>
        <time>2021-04-13T22:59:41Z</time>
      </trkpt>
      <trkpt lat="44.24023" lon="3.6167">
        <ele>1010</ele>
        <time>2021-04-13T23:03:54Z</time>
      </trkpt>
      <trkpt lat="44.24059" lon="3.6167">
        <ele>1008</ele>
        <time>2021-04-13T23:04:42Z</time>
      </trkpt>
      <trkpt lat="44.24094" lon="3.61677">
        <ele>1007</ele>
        <time>2021-04-13T23:05:29Z</time>
      </trkpt>
      <trkpt lat="44.24116" lon="3.61688">
        <ele>1008</ele>
        <time>2021-04-13T23:06:01Z</time>
      </trkpt>
      <trkpt lat="44.24139" lon="3.61703">
        <ele>1009</ele>
        <time>2021-04-13T23:06:34Z</time>
      </trkpt>
      <trkpt lat="44.24163" lon="3.6173">
        <ele>1010</ele>
        <time>2021-04-13T23:07:16Z</time>
      </trkpt>
      <trkpt lat="44.24256" lon="3.61876">
        <ele>1014</ele>
        <time>2021-04-13T23:10:22Z</time>
      </trkpt>
      <trkpt lat="44.24378" lon="3.62103">
        <ele>1012</ele>
        <time>2021-04-13T23:14:54Z</time>
      </trkpt>
      <trkpt lat="44.24394" lon="3.62124">
        <ele>1012</ele>
        <time>2021-04-13T23:15:23Z</time>
      </trkpt>
      <trkpt lat="44.24409" lon="3.62141">
        <ele>1011</ele>
        <time>2021-04-13T23:15:49Z</time>
      </trkpt>
      <trkpt lat="44.24431" lon="3.62158">
        <ele>1011</ele>
        <time>2021-04-13T23:16:22Z</time>
      </trkpt>
      <trkpt lat="44.2452" lon="3.62216">
        <ele>1007</ele>
        <time>2021-04-13T23:18:33Z</time>
      </trkpt>
      <trkpt lat="44.24614" lon="3.62358">
        <ele>1007</ele>
        <time>2021-04-13T23:21:38Z</time>
      </trkpt>
      <trkpt lat="44.24648" lon="3.62334">
        <ele>1006</ele>
        <time>2021-04-13T23:22:29Z</time>
      </trkpt>
      <trkpt lat="44.24681" lon="3.62307">
        <ele>1004</ele>
        <time>2021-04-13T23:23:20Z</time>
      </trkpt>
      <trkpt lat="44.24696" lon="3.62292">
        <ele>1002</ele>
        <time>2021-04-13T23:23:45Z</time>
      </trkpt>
      <trkpt lat="44.24751" lon="3.62207">
        <ele>994</ele>
        <time>2021-04-13T23:25:34Z</time>
      </trkpt>
      <trkpt lat="44.24812" lon="3.6212">
        <ele>986</ele>
        <time>2021-04-13T23:27:31Z</time>
      </trkpt>
      <trkpt lat="44.24826" lon="3.62092">
        <ele>982</ele>
        <time>2021-04-13T23:28:03Z</time>
      </trkpt>
      <trkpt lat="44.24835" lon="3.62068">
        <ele>978</ele>
        <time>2021-04-13T23:28:29Z</time>
      </trkpt>
      <trkpt lat="44.2484" lon="3.62042">
        <ele>974</ele>
        <time>2021-04-13T23:28:55Z</time>
      </trkpt>
      <trkpt lat="44.24841" lon="3.62016">
        <ele>970</ele>
        <time>2021-04-13T23:29:20Z</time>
      </trkpt>
      <trkpt lat="44.24839" lon="3.61993">
        <ele>968</ele>
        <time>2021-04-13T23:29:42Z</time>
      </trkpt>
      <trkpt lat="44.2483" lon="3.6197">
        <ele>968</ele>
        <time>2021-04-13T23:30:07Z</time>
      </trkpt>
      <trkpt lat="44.24819" lon="3.61961">
        <ele>970</ele>
        <time>2021-04-13T23:30:24Z</time>
      </trkpt>
      <trkpt lat="44.24807" lon="3.61957">
        <ele>973</ele>
        <time>2021-04-13T23:30:40Z</time>
      </trkpt>
      <trkpt lat="44.24803" lon="3.6195">
        <ele>973</ele>
        <time>2021-04-13T23:30:49Z</time>
      </trkpt>
      <trkpt lat="44.24801" lon="3.61936">
        <ele>973</ele>
        <time>2021-04-13T23:31:03Z</time>
      </trkpt>
      <trkpt lat="44.24818" lon="3.61879">
        <ele>965</ele>
        <time>2021-04-13T23:32:02Z</time>
      </trkpt>
      <trkpt lat="44.24823" lon="3.61868">
        <ele>963</ele>
        <time>2021-04-13T23:32:14Z</time>
      </trkpt>
      <trkpt lat="44.24827" lon="3.61866">
        <ele>961</ele>
        <time>2021-04-13T23:32:20Z</time>
      </trkpt>
      <trkpt lat="44.24829" lon="3.61874">
        <ele>960</ele>
        <time>2021-04-13T23:32:28Z</time>
      </trkpt>
      <trkpt lat="44.24827" lon="3.61896">
        <ele>961</ele>
        <time>2021-04-13T23:32:49Z</time>
      </trkpt>
      <trkpt lat="44.24831" lon="3.61899">
        <ele>960</ele>
        <time>2021-04-13T23:32:55Z</time>
      </trkpt>
      <trkpt lat="44.24835" lon="3.61895">
        <ele>958</ele>
        <time>2021-04-13T23:33:02Z</time>
      </trkpt>
      <trkpt lat="44.2484" lon="3.61866">
        <ele>956</ele>
        <time>2021-04-13T23:33:30Z</time>
      </trkpt>
      <trkpt lat="44.24844" lon="3.6182">
        <ele>956</ele>
        <time>2021-04-13T23:34:14Z</time>
      </trkpt>
      <trkpt lat="44.24847" lon="3.61809">
        <ele>957</ele>
        <time>2021-04-13T23:34:26Z</time>
      </trkpt>
      <trkpt lat="44.24854" lon="3.61801">
        <ele>956</ele>
        <time>2021-04-13T23:34:38Z</time>
      </trkpt>
      <trkpt lat="44.24863" lon="3.61797">
        <ele>952</ele>
        <time>2021-04-13T23:34:50Z</time>
      </trkpt>
      <trkpt lat="44.24886" lon="3.61795">
        <ele>942</ele>
        <time>2021-04-13T23:35:21Z</time>
      </trkpt>
      <trkpt lat="44.24896" lon="3.61788">
        <ele>939</ele>
        <time>2021-04-13T23:35:36Z</time>
      </trkpt>
      <trkpt lat="44.2491" lon="3.61767">
        <ele>935</ele>
        <time>2021-04-13T23:36:04Z</time>
      </trkpt>
      <trkpt lat="44.24926" lon="3.61728">
        <ele>932</ele>
        <time>2021-04-13T23:36:46Z</time>
      </trkpt>
      <trkpt lat="44.24935" lon="3.61693">
        <ele>934</ele>
        <time>2021-04-13T23:37:22Z</time>
      </trkpt>
      <trkpt lat="44.24944" lon="3.61673">
        <ele>932</ele>
        <time>2021-04-13T23:37:45Z</time>
      </trkpt>
      <trkpt lat="44.24955" lon="3.61656">
        <ele>929</ele>
        <time>2021-04-13T23:38:07Z</time>
      </trkpt>
      <trkpt lat="44.24968" lon="3.61642">
        <ele>925</ele>
        <time>2021-04-13T23:38:28Z</time>
      </trkpt>
      <trkpt lat="44.24975" lon="3.61629">
        <ele>923</ele>
        <time>2021-04-13T23:38:44Z</time>
      </trkpt>
      <trkpt lat="44.24985" lon="3.61599">
        <ele>921</ele>
        <time>2021-04-13T23:39:16Z</time>
      </trkpt>
      <trkpt lat="44.24989" lon="3.61593">
        <ele>919</ele>
        <time>2021-04-13T23:39:23Z</time>
      </trkpt>
      <trkpt lat="44.24992" lon="3.61594">
        <ele>918</ele>
        <time>2021-04-13T23:39:28Z</time>
      </trkpt>
      <trkpt lat="44.24993" lon="3.61601">
        <ele>916</ele>
        <time>2021-04-13T23:39:34Z</time>
      </trkpt>
      <trkpt lat="44.2498" lon="3.61638">
        <ele>919</ele>
        <time>2021-04-13T23:40:14Z</time>
      </trkpt>
      <trkpt lat="44.24981" lon="3.61647">
        <ele>917</ele>
        <time>2021-04-13T23:40:22Z</time>
      </trkpt>
      <trkpt lat="44.24985" lon="3.61648">
        <ele>915</ele>
        <time>2021-04-13T23:40:28Z</time>
      </trkpt>
      <trkpt lat="44.25021" lon="3.61591">
        <ele>905</ele>
        <time>2021-04-13T23:41:41Z</time>
      </trkpt>
      <trkpt lat="44.25033" lon="3.61566">
        <ele>904</ele>
        <time>2021-04-13T23:42:09Z</time>
      </trkpt>
      <trkpt lat="44.25049" lon="3.61518">
        <ele>906</ele>
        <time>2021-04-13T23:43:00Z</time>
      </trkpt>
      <trkpt lat="44.25054" lon="3.61509">
        <ele>905</ele>
        <time>2021-04-13T23:43:11Z</time>
      </trkpt>
      <trkpt lat="44.25073" lon="3.61491">
        <ele>901</ele>
        <time>2021-04-13T23:43:41Z</time>
      </trkpt>
      <trkpt lat="44.25089" lon="3.61468">
        <ele>901</ele>
        <time>2021-04-13T23:44:12Z</time>
      </trkpt>
      <trkpt lat="44.25098" lon="3.6146">
        <ele>901</ele>
        <time>2021-04-13T23:44:26Z</time>
      </trkpt>
      <trkpt lat="44.2511" lon="3.61453">
        <ele>899</ele>
        <time>2021-04-13T23:44:44Z</time>
      </trkpt>
      <trkpt lat="44.25144" lon="3.61442">
        <ele>891</ele>
        <time>2021-04-13T23:45:30Z</time>
      </trkpt>
      <trkpt lat="44.25156" lon="3.61432">
        <ele>889</ele>
        <time>2021-04-13T23:45:49Z</time>
      </trkpt>
      <trkpt lat="44.25183" lon="3.614">
        <ele>887</ele>
        <time>2021-04-13T23:46:36Z</time>
      </trkpt>
      <trkpt lat="44.25197" lon="3.61386">
        <ele>886</ele>
        <time>2021-04-13T23:46:59Z</time>
      </trkpt>
      <trkpt lat="44.2522" lon="3.6137">
        <ele>882</ele>
        <time>2021-04-13T23:47:33Z</time>
      </trkpt>
      <trkpt lat="44.25258" lon="3.61312">
        <ele>879</ele>
        <time>2021-04-13T23:48:49Z</time>
      </trkpt>
      <trkpt lat="44.25267" lon="3.61293">
        <ele>880</ele>
        <time>2021-04-13T23:49:10Z</time>
      </trkpt>
      <trkpt lat="44.25294" lon="3.61268">
        <ele>875</ele>
        <time>2021-04-13T23:49:54Z</time>
      </trkpt>
      <trkpt lat="44.25324" lon="3.6125">
        <ele>866</ele>
        <time>2021-04-13T23:50:37Z</time>
      </trkpt>
      <trkpt lat="44.2536" lon="3.61153">
        <ele>860</ele>
        <time>2021-04-13T23:52:22Z</time>
      </trkpt>
      <trkpt lat="44.25375" lon="3.61153">
        <ele>856</ele>
        <time>2021-04-13T23:52:42Z</time>
      </trkpt>
      <trkpt lat="44.2538" lon="3.61231">
        <ele>850</ele>
        <time>2021-04-13T23:53:56Z</time>
      </trkpt>
      <trkpt lat="44.25377" lon="3.6134">
        <ele>839</ele>
        <time>2021-04-13T23:55:41Z</time>
      </trkpt>
      <trkpt lat="44.25438" lon="3.6123">
        <ele>830</ele>
        <time>2021-04-13T23:57:54Z</time>
      </trkpt>
      <trkpt lat="44.25472" lon="3.61206">
        <ele>818</ele>
        <time>2021-04-13T23:58:44Z</time>
      </trkpt>
      <trkpt lat="44.25482" lon="3.61177">
        <ele>817</ele>
        <time>2021-04-13T23:59:15Z</time>
      </trkpt>
      <trkpt lat="44.25484" lon="3.61142">
        <ele>822</ele>
        <time>2021-04-13T23:59:49Z</time>
      </trkpt>
      <trkpt lat="44.25491" lon="3.61134">
        <ele>821</ele>
        <time>2021-04-14T00:00:01Z</time>
      </trkpt>
      <trkpt lat="44.25512" lon="3.61123">
        <ele>816</ele>
        <time>2021-04-14T00:00:31Z</time>
      </trkpt>
      <trkpt lat="44.2556" lon="3.61081">
        <ele>810</ele>
        <time>2021-04-14T00:01:46Z</time>
      </trkpt>
      <trkpt lat="44.2558" lon="3.61068">
        <ele>803</ele>
        <time>2021-04-14T00:02:16Z</time>
      </trkpt>
      <trkpt lat="44.25609" lon="3.6106">
        <ele>793</ele>
        <time>2021-04-14T00:02:55Z</time>
      </trkpt>
      <trkpt lat="44.25613" lon="3.61053">
        <ele>791</ele>
        <time>2021-04-14T00:03:04Z</time>
      </trkpt>
      <trkpt lat="44.25613" lon="3.61048">
        <ele>791</ele>
        <time>2021-04-14T00:03:09Z</time>
      </trkpt>
      <trkpt lat="44.25609" lon="3.61039">
        <ele>791</ele>
        <time>2021-04-14T00:03:19Z</time>
      </trkpt>
      <trkpt lat="44.25594" lon="3.61028">
        <ele>795</ele>
        <time>2021-04-14T00:03:41Z</time>
      </trkpt>
      <trkpt lat="44.25575" lon="3.61006">
        <ele>800</ele>
        <time>2021-04-14T00:04:14Z</time>
      </trkpt>
      <trkpt lat="44.25552" lon="3.60971">
        <ele>796</ele>
        <time>2021-04-14T00:05:00Z</time>
      </trkpt>
      <trkpt lat="44.25512" lon="3.60923">
        <ele>792</ele>
        <time>2021-04-14T00:06:10Z</time>
      </trkpt>
      <trkpt lat="44.25485" lon="3.60877">
        <ele>792</ele>
        <time>2021-04-14T00:07:07Z</time>
      </trkpt>
      <trkpt lat="44.25462" lon="3.60857">
        <ele>795</ele>
        <time>2021-04-14T00:07:43Z</time>
      </trkpt>
      <trkpt lat="44.25447" lon="3.60834">
        <ele>795</ele>
        <time>2021-04-14T00:08:13Z</time>
      </trkpt>
      <trkpt lat="44.25445" lon="3.60825">
        <ele>797</ele>
        <time>2021-04-14T00:08:22Z</time>
      </trkpt>
      <trkpt lat="44.25447" lon="3.60818">
        <ele>798</ele>
        <time>2021-04-14T00:08:29Z</time>
      </trkpt>
      <trkpt lat="44.25454" lon="3.60811">
        <ele>797</ele>
        <time>2021-04-14T00:08:41Z</time>
      </trkpt>
      <trkpt lat="44.25479" lon="3.60799">
        <ele>793</ele>
        <time>2021-04-14T00:09:16Z</time>
      </trkpt>
      <trkpt lat="44.25494" lon="3.60797">
        <ele>789</ele>
        <time>2021-04-14T00:09:36Z</time>
      </trkpt>
      <trkpt lat="44.25527" lon="3.60809">
        <ele>782</ele>
        <time>2021-04-14T00:10:21Z</time>
      </trkpt>
      <trkpt lat="44.25531" lon="3.60813">
        <ele>780</ele>
        <time>2021-04-14T00:10:28Z</time>
      </trkpt>
      <trkpt lat="44.25545" lon="3.60815">
        <ele>778</ele>
        <time>2021-04-14T00:10:47Z</time>
      </trkpt>
      <trkpt lat="44.25568" lon="3.60815">
        <ele>775</ele>
        <time>2021-04-14T00:11:17Z</time>
      </trkpt>
      <trkpt lat="44.25644" lon="3.60794">
        <ele>762</ele>
        <time>2021-04-14T00:13:01Z</time>
      </trkpt>
      <trkpt lat="44.25657" lon="3.60786">
        <ele>760</ele>
        <time>2021-04-14T00:13:20Z</time>
      </trkpt>
      <trkpt lat="44.25669" lon="3.60775">
        <ele>759</ele>
        <time>2021-04-14T00:13:39Z</time>
      </trkpt>
      <trkpt lat="44.25687" lon="3.60739">
        <ele>757</ele>
        <time>2021-04-14T00:14:21Z</time>
      </trkpt>
      <trkpt lat="44.25707" lon="3.60717">
        <ele>749</ele>
        <time>2021-04-14T00:14:55Z</time>
      </trkpt>
      <trkpt lat="44.25712" lon="3.60703">
        <ele>747</ele>
        <time>2021-04-14T00:15:10Z</time>
      </trkpt>
      <trkpt lat="44.25711" lon="3.60691">
        <ele>748</ele>
        <time>2021-04-14T00:15:21Z</time>
      </trkpt>
      <trkpt lat="44.25704" lon="3.60673">
        <ele>752</ele>
        <time>2021-04-14T00:15:41Z</time>
      </trkpt>
      <trkpt lat="44.25701" lon="3.60654">
        <ele>755</ele>
        <time>2021-04-14T00:16:00Z</time>
      </trkpt>
      <trkpt lat="44.25685" lon="3.60623">
        <ele>764</ele>
        <time>2021-04-14T00:16:36Z</time>
      </trkpt>
      <trkpt lat="44.25685" lon="3.60614">
        <ele>765</ele>
        <time>2021-04-14T00:16:45Z</time>
      </trkpt>
      <trkpt lat="44.25689" lon="3.60607">
        <ele>764</ele>
        <time>2021-04-14T00:16:53Z</time>
      </trkpt>
      <trkpt lat="44.25698" lon="3.60606">
        <ele>761</ele>
        <time>2021-04-14T00:17:05Z</time>
      </trkpt>
      <trkpt lat="44.25716" lon="3.6061">
        <ele>755</ele>
        <time>2021-04-14T00:17:30Z</time>
      </trkpt>
      <trkpt lat="44.25727" lon="3.60611">
        <ele>751</ele>
        <time>2021-04-14T00:17:44Z</time>
      </trkpt>
      <trkpt lat="44.25749" lon="3.6061">
        <ele>743</ele>
        <time>2021-04-14T00:18:14Z</time>
      </trkpt>
      <trkpt lat="44.25759" lon="3.60613">
        <ele>739</ele>
        <time>2021-04-14T00:18:27Z</time>
      </trkpt>
      <trkpt lat="44.25785" lon="3.60638">
        <ele>728</ele>
        <time>2021-04-14T00:19:09Z</time>
      </trkpt>
      <trkpt lat="44.25795" lon="3.60641">
        <ele>724</ele>
        <time>2021-04-14T00:19:23Z</time>
      </trkpt>
      <trkpt lat="44.25802" lon="3.6064">
        <ele>722</ele>
        <time>2021-04-14T00:19:33Z</time>
      </trkpt>
      <trkpt lat="44.25811" lon="3.6063">
        <ele>721</ele>
        <time>2021-04-14T00:19:48Z</time>
      </trkpt>
      <trkpt lat="44.25837" lon="3.60582">
        <ele>721</ele>
        <time>2021-04-14T00:20:45Z</time>
      </trkpt>
      <trkpt lat="44.25847" lon="3.60548">
        <ele>722</ele>
        <time>2021-04-14T00:21:21Z</time>
      </trkpt>
      <trkpt lat="44.25859" lon="3.60524">
        <ele>721</ele>
        <time>2021-04-14T00:21:49Z</time>
      </trkpt>
      <trkpt lat="44.25861" lon="3.60515">
        <ele>721</ele>
        <time>2021-04-14T00:21:58Z</time>
      </trkpt>
      <trkpt lat="44.25857" lon="3.60486">
        <ele>727</ele>
        <time>2021-04-14T00:22:26Z</time>
      </trkpt>
      <trkpt lat="44.25861" lon="3.60475">
        <ele>728</ele>
        <time>2021-04-14T00:22:38Z</time>
      </trkpt>
      <trkpt lat="44.2589" lon="3.60457">
        <ele>724</ele>
        <time>2021-04-14T00:23:20Z</time>
      </trkpt>
      <trkpt lat="44.25906" lon="3.60455">
        <ele>720</ele>
        <time>2021-04-14T00:23:41Z</time>
      </trkpt>
      <trkpt lat="44.25916" lon="3.60451">
        <ele>718</ele>
        <time>2021-04-14T00:23:55Z</time>
      </trkpt>
      <trkpt lat="44.25957" lon="3.60409">
        <ele>718</ele>
        <time>2021-04-14T00:25:03Z</time>
      </trkpt>
      <trkpt lat="44.25964" lon="3.60394">
        <ele>720</ele>
        <time>2021-04-14T00:25:20Z</time>
      </trkpt>
      <trkpt lat="44.25997" lon="3.60353">
        <ele>722</ele>
        <time>2021-04-14T00:26:19Z</time>
      </trkpt>
      <trkpt lat="44.26006" lon="3.60336">
        <ele>724</ele>
        <time>2021-04-14T00:26:39Z</time>
      </trkpt>
      <trkpt lat="44.26008" lon="3.60326">
        <ele>727</ele>
        <time>2021-04-14T00:26:49Z</time>
      </trkpt>
      <trkpt lat="44.26013" lon="3.60321">
        <ele>727</ele>
        <time>2021-04-14T00:26:57Z</time>
      </trkpt>
      <trkpt lat="44.26029" lon="3.60317">
        <ele>723</ele>
        <time>2021-04-14T00:27:19Z</time>
      </trkpt>
      <trkpt lat="44.26068" lon="3.60304">
        <ele>715</ele>
        <time>2021-04-14T00:28:13Z</time>
      </trkpt>
      <trkpt lat="44.26081" lon="3.60291">
        <ele>715</ele>
        <time>2021-04-14T00:28:34Z</time>
      </trkpt>
      <trkpt lat="44.26091" lon="3.60285">
        <ele>715</ele>
        <time>2021-04-14T00:28:49Z</time>
      </trkpt>
      <trkpt lat="44.26111" lon="3.60282">
        <ele>713</ele>
        <time>2021-04-14T00:29:15Z</time>
      </trkpt>
      <trkpt lat="44.2613" lon="3.60271">
        <ele>713</ele>
        <time>2021-04-14T00:29:43Z</time>
      </trkpt>
      <trkpt lat="44.2618" lon="3.60261">
        <ele>707</ele>
        <time>2021-04-14T00:30:50Z</time>
      </trkpt>
      <trkpt lat="44.26199" lon="3.60253">
        <ele>705</ele>
        <time>2021-04-14T00:31:17Z</time>
      </trkpt>
      <trkpt lat="44.26207" lon="3.60246">
        <ele>705</ele>
        <time>2021-04-14T00:31:29Z</time>
      </trkpt>
      <trkpt lat="44.26219" lon="3.60217">
        <ele>712</ele>
        <time>2021-04-14T00:32:01Z</time>
      </trkpt>
      <trkpt lat="44.26229" lon="3.60208">
        <ele>713</ele>
        <time>2021-04-14T00:32:17Z</time>
      </trkpt>
      <trkpt lat="44.26239" lon="3.60205">
        <ele>711</ele>
        <time>2021-04-14T00:32:31Z</time>
      </trkpt>
      <trkpt lat="44.26265" lon="3.60208">
        <ele>705</ele>
        <time>2021-04-14T00:33:06Z</time>
      </trkpt>
      <trkpt lat="44.26295" lon="3.60207">
        <ele>700</ele>
        <time>2021-04-14T00:33:46Z</time>
      </trkpt>
      <trkpt lat="44.26322" lon="3.60203">
        <ele>697</ele>
        <time>2021-04-14T00:34:22Z</time>
      </trkpt>
      <trkpt lat="44.26336" lon="3.60196">
        <ele>696</ele>
        <time>2021-04-14T00:34:42Z</time>
      </trkpt>
      <trkpt lat="44.26375" lon="3.60163">
        <ele>692</ele>
        <time>2021-04-14T00:35:43Z</time>
      </trkpt>
      <trkpt lat="44.26393" lon="3.60158">
        <ele>687</ele>
        <time>2021-04-14T00:36:07Z</time>
      </trkpt>
      <trkpt lat="44.26401" lon="3.60152">
        <ele>686</ele>
        <time>2021-04-14T00:36:19Z</time>
      </trkpt>
      <trkpt lat="44.26408" lon="3.60142">
        <ele>685</ele>
        <time>2021-04-14T00:36:33Z</time>
      </trkpt>
      <trkpt lat="44.26411" lon="3.60127">
        <ele>688</ele>
        <time>2021-04-14T00:36:47Z</time>
      </trkpt>
      <trkpt lat="44.26415" lon="3.60085">
        <ele>695</ele>
        <time>2021-04-14T00:37:28Z</time>
      </trkpt>
      <trkpt lat="44.2642" lon="3.60069">
        <ele>698</ele>
        <time>2021-04-14T00:37:45Z</time>
      </trkpt>
      <trkpt lat="44.26428" lon="3.60061">
        <ele>698</ele>
        <time>2021-04-14T00:37:58Z</time>
      </trkpt>
      <trkpt lat="44.26438" lon="3.60058">
        <ele>696</ele>
        <time>2021-04-14T00:38:11Z</time>
      </trkpt>
      <trkpt lat="44.26453" lon="3.60063">
        <ele>691</ele>
        <time>2021-04-14T00:38:32Z</time>
      </trkpt>
      <trkpt lat="44.26478" lon="3.60053">
        <ele>687</ele>
        <time>2021-04-14T00:39:07Z</time>
      </trkpt>
      <trkpt lat="44.26501" lon="3.60038">
        <ele>685</ele>
        <time>2021-04-14T00:39:41Z</time>
      </trkpt>
      <trkpt lat="44.26522" lon="3.60016">
        <ele>686</ele>
        <time>2021-04-14T00:40:16Z</time>
      </trkpt>
      <trkpt lat="44.26536" lon="3.59997">
        <ele>687</ele>
        <time>2021-04-14T00:40:42Z</time>
      </trkpt>
      <trkpt lat="44.26546" lon="3.59989">
        <ele>687</ele>
        <time>2021-04-14T00:40:57Z</time>
      </trkpt>
      <trkpt lat="44.26577" lon="3.59981">
        <ele>682</ele>
        <time>2021-04-14T00:41:39Z</time>
      </trkpt>
      <trkpt lat="44.2659" lon="3.59974">
        <ele>680</ele>
        <time>2021-04-14T00:41:58Z</time>
      </trkpt>
      <trkpt lat="44.26612" lon="3.59956">
        <ele>678</ele>
        <time>2021-04-14T00:42:32Z</time>
      </trkpt>
      <trkpt lat="44.26634" lon="3.59947">
        <ele>673</ele>
        <time>2021-04-14T00:43:02Z</time>
      </trkpt>
      <trkpt lat="44.26644" lon="3.59936">
        <ele>672</ele>
        <time>2021-04-14T00:43:19Z</time>
      </trkpt>
      <trkpt lat="44.26658" lon="3.59918">
        <ele>671</ele>
        <time>2021-04-14T00:43:45Z</time>
      </trkpt>
      <trkpt lat="44.26668" lon="3.599">
        <ele>670</ele>
        <time>2021-04-14T00:44:06Z</time>
      </trkpt>
      <trkpt lat="44.26672" lon="3.59904">
        <ele>668</ele>
        <time>2021-04-14T00:44:13Z</time>
      </trkpt>
      <trkpt lat="44.26672" lon="3.59912">
        <ele>668</ele>
        <time>2021-04-14T00:44:21Z</time>
      </trkpt>
      <trkpt lat="44.26659" lon="3.5994">
        <ele>667</ele>
        <time>2021-04-14T00:44:53Z</time>
      </trkpt>
      <trkpt lat="44.26635" lon="3.59971">
        <ele>668</ele>
        <time>2021-04-14T00:45:36Z</time>
      </trkpt>
      <trkpt lat="44.2662" lon="3.60004">
        <ele>666</ele>
        <time>2021-04-14T00:46:14Z</time>
      </trkpt>
      <trkpt lat="44.26612" lon="3.60013">
        <ele>667</ele>
        <time>2021-04-14T00:46:27Z</time>
      </trkpt>
      <trkpt lat="44.26587" lon="3.60028">
        <ele>669</ele>
        <time>2021-04-14T00:47:04Z</time>
      </trkpt>
      <trkpt lat="44.26574" lon="3.60042">
        <ele>668</ele>
        <time>2021-04-14T00:47:25Z</time>
      </trkpt>
      <trkpt lat="44.26542" lon="3.60111">
        <ele>664</ele>
        <time>2021-04-14T00:48:44Z</time>
      </trkpt>
      <trkpt lat="44.26522" lon="3.60135">
        <ele>665</ele>
        <time>2021-04-14T00:49:19Z</time>
      </trkpt>
      <trkpt lat="44.26521" lon="3.60143">
        <ele>664</ele>
        <time>2021-04-14T00:49:27Z</time>
      </trkpt>
      <trkpt lat="44.26527" lon="3.60147">
        <ele>664</ele>
        <time>2021-04-14T00:49:36Z</time>
      </trkpt>
      <trkpt lat="44.26533" lon="3.60146">
        <ele>663</ele>
        <time>2021-04-14T00:49:44Z</time>
      </trkpt>
      <trkpt lat="44.26559" lon="3.60133">
        <ele>663</ele>
        <time>2021-04-14T00:50:21Z</time>
      </trkpt>
      <trkpt lat="44.2657" lon="3.60125">
        <ele>662</ele>
        <time>2021-04-14T00:50:37Z</time>
      </trkpt>
      <trkpt lat="44.26579" lon="3.60121">
        <ele>660</ele>
        <time>2021-04-14T00:50:50Z</time>
      </trkpt>
      <trkpt lat="44.26593" lon="3.60119">
        <ele>661</ele>
        <time>2021-04-14T00:51:09Z</time>
      </trkpt>
      <trkpt lat="44.26609" lon="3.60113">
        <ele>662</ele>
        <time>2021-04-14T00:51:31Z</time>
      </trkpt>
      <trkpt lat="44.26643" lon="3.60105">
        <ele>664</ele>
        <time>2021-04-14T00:52:17Z</time>
      </trkpt>
      <trkpt lat="44.26668" lon="3.60105">
        <ele>666</ele>
        <time>2021-04-14T00:52:50Z</time>
      </trkpt>
      <trkpt lat="44.26676" lon="3.60102">
        <ele>668</ele>
        <time>2021-04-14T00:53:01Z</time>
      </trkpt>
      <trkpt lat="44.26701" lon="3.60085">
        <ele>671</ele>
        <time>2021-04-14T00:53:38Z</time>
      </trkpt>
      <trkpt lat="44.26717" lon="3.6008">
        <ele>675</ele>
        <time>2021-04-14T00:54:00Z</time>
      </trkpt>
      <trkpt lat="44.26727" lon="3.60082">
        <ele>678</ele>
        <time>2021-04-14T00:54:14Z</time>
      </trkpt>
      <trkpt lat="44.26732" lon="3.60078">
        <ele>679</ele>
        <time>2021-04-14T00:54:21Z</time>
      </trkpt>
      <trkpt lat="44.26741" lon="3.60053">
        <ele>676</ele>
        <time>2021-04-14T00:54:48Z</time>
      </trkpt>
      <trkpt lat="44.26758" lon="3.60031">
        <ele>677</ele>
        <time>2021-04-14T00:55:19Z</time>
      </trkpt>
      <trkpt lat="44.26773" lon="3.60003">
        <ele>677</ele>
        <time>2021-04-14T00:55:52Z</time>
      </trkpt>
      <trkpt lat="44.2678" lon="3.59997">
        <ele>679</ele>
        <time>2021-04-14T00:56:03Z</time>
      </trkpt>
      <trkpt lat="44.26786" lon="3.59996">
        <ele>681</ele>
        <time>2021-04-14T00:56:12Z</time>
      </trkpt>
      <trkpt lat="44.26809" lon="3.60004">
        <ele>692</ele>
        <time>2021-04-14T00:56:43Z</time>
      </trkpt>
      <trkpt lat="44.26815" lon="3.60004">
        <ele>695</ele>
        <time>2021-04-14T00:56:51Z</time>
      </trkpt>
      <trkpt lat="44.26819" lon="3.60001">
        <ele>696</ele>
        <time>2021-04-14T00:56:57Z</time>
      </trkpt>
      <trkpt lat="44.26825" lon="3.59978">
        <ele>695</ele>
        <time>2021-04-14T00:57:21Z</time>
      </trkpt>
      <trkpt lat="44.26829" lon="3.5995">
        <ele>692</ele>
        <time>2021-04-14T00:57:48Z</time>
      </trkpt>
      <trkpt lat="44.26834" lon="3.5993">
        <ele>691</ele>
        <time>2021-04-14T00:58:08Z</time>
      </trkpt>
      <trkpt lat="44.26901" lon="3.59788">
        <ele>706</ele>
        <time>2021-04-14T01:00:51Z</time>
      </trkpt>
      <trkpt lat="44.26912" lon="3.59756">
        <ele>709</ele>
        <time>2021-04-14T01:01:25Z</time>
      </trkpt>
      <trkpt lat="44.26922" lon="3.59721">
        <ele>712</ele>
        <time>2021-04-14T01:02:01Z</time>
      </trkpt>
      <trkpt lat="44.26929" lon="3.5968">
        <ele>714</ele>
        <time>2021-04-14T01:02:41Z</time>
      </trkpt>
      <trkpt lat="44.26933" lon="3.59643">
        <ele>716</ele>
        <time>2021-04-14T01:03:17Z</time>
      </trkpt>
      <trkpt lat="44.26932" lon="3.59601">
        <ele>717</ele>
        <time>2021-04-14T01:03:57Z</time>
      </trkpt>
      <trkpt lat="44.26935" lon="3.59574">
        <ele>719</ele>
        <time>2021-04-14T01:04:23Z</time>
      </trkpt>
      <trkpt lat="44.26947" lon="3.59521">
        <ele>728</ele>
        <time>2021-04-14T01:05:16Z</time>
      </trkpt>
      <trkpt lat="44.26945" lon="3.59493">
        <ele>728</ele>
        <time>2021-04-14T01:05:43Z</time>
      </trkpt>
      <trkpt lat="44.26947" lon="3.5944">
        <ele>730</ele>
        <time>2021-04-14T01:06:34Z</time>
      </trkpt>
      <trkpt lat="44.26944" lon="3.59398">
        <ele>731</ele>
        <time>2021-04-14T01:07:14Z</time>
      </trkpt>
      <trkpt lat="44.26933" lon="3.59318">
        <ele>734</ele>
        <time>2021-04-14T01:08:32Z</time>
      </trkpt>
      <trkpt lat="44.26935" lon="3.59306">
        <ele>734</ele>
        <time>2021-04-14T01:08:44Z</time>
      </trkpt>
      <trkpt lat="44.2694" lon="3.59301">
        <ele>734</ele>
        <time>2021-04-14T01:08:52Z</time>
      </trkpt>
      <trkpt lat="44.26949" lon="3.59303">
        <ele>735</ele>
        <time>2021-04-14T01:09:04Z</time>
      </trkpt>
      <trkpt lat="44.26961" lon="3.59315">
        <ele>736</ele>
        <time>2021-04-14T01:09:24Z</time>
      </trkpt>
      <trkpt lat="44.26969" lon="3.59329">
        <ele>738</ele>
        <time>2021-04-14T01:09:41Z</time>
      </trkpt>
      <trkpt lat="44.26975" lon="3.59353">
        <ele>739</ele>
        <time>2021-04-14T01:10:05Z</time>
      </trkpt>
      <trkpt lat="44.26995" lon="3.59388">
        <ele>744</ele>
        <time>2021-04-14T01:10:48Z</time>
      </trkpt>
      <trkpt lat="44.27002" lon="3.59431">
        <ele>747</ele>
        <time>2021-04-14T01:11:30Z</time>
      </trkpt>
      <trkpt lat="44.27015" lon="3.59487">
        <ele>748</ele>
        <time>2021-04-14T01:12:26Z</time>
      </trkpt>
      <trkpt lat="44.2703" lon="3.5954">
        <ele>752</ele>
        <time>2021-04-14T01:13:21Z</time>
      </trkpt>
      <trkpt lat="44.27045" lon="3.59582">
        <ele>757</ele>
        <time>2021-04-14T01:14:05Z</time>
      </trkpt>
      <trkpt lat="44.27058" lon="3.59613">
        <ele>761</ele>
        <time>2021-04-14T01:14:40Z</time>
      </trkpt>
      <trkpt lat="44.27079" lon="3.59657">
        <ele>768</ele>
        <time>2021-04-14T01:15:30Z</time>
      </trkpt>
      <trkpt lat="44.27084" lon="3.59666">
        <ele>770</ele>
        <time>2021-04-14T01:15:41Z</time>
      </trkpt>
      <trkpt lat="44.2709" lon="3.5967">
        <ele>770</ele>
        <time>2021-04-14T01:15:50Z</time>
      </trkpt>
      <trkpt lat="44.27106" lon="3.5967">
        <ele>771</ele>
        <time>2021-04-14T01:16:11Z</time>
      </trkpt>
      <trkpt lat="44.27115" lon="3.59675">
        <ele>771</ele>
        <time>2021-04-14T01:16:24Z</time>
      </trkpt>
      <trkpt lat="44.27127" lon="3.59701">
        <ele>774</ele>
        <time>2021-04-14T01:16:54Z</time>
      </trkpt>
      <trkpt lat="44.27133" lon="3.59708">
        <ele>776</ele>
        <time>2021-04-14T01:17:04Z</time>
      </trkpt>
      <trkpt lat="44.27141" lon="3.59712">
        <ele>777</ele>
        <time>2021-04-14T01:17:16Z</time>
      </trkpt>
      <trkpt lat="44.27175" lon="3.59722">
        <ele>779</ele>
        <time>2021-04-14T01:18:02Z</time>
      </trkpt>
      <trkpt lat="44.27192" lon="3.59731">
        <ele>779</ele>
        <time>2021-04-14T01:18:26Z</time>
      </trkpt>
      <trkpt lat="44.27205" lon="3.59748">
        <ele>780</ele>
        <time>2021-04-14T01:18:50Z</time>
      </trkpt>
      <trkpt lat="44.2723" lon="3.5979">
        <ele>789</ele>
        <time>2021-04-14T01:19:42Z</time>
      </trkpt>
      <trkpt lat="44.27236" lon="3.598">
        <ele>791</ele>
        <time>2021-04-14T01:19:55Z</time>
      </trkpt>
      <trkpt lat="44.27274" lon="3.59841">
        <ele>799</ele>
        <time>2021-04-14T01:20:59Z</time>
      </trkpt>
      <trkpt lat="44.27283" lon="3.59856">
        <ele>802</ele>
        <time>2021-04-14T01:21:18Z</time>
      </trkpt>
      <trkpt lat="44.27288" lon="3.59852">
        <ele>800</ele>
        <time>2021-04-14T01:21:25Z</time>
      </trkpt>
      <trkpt lat="44.27292" lon="3.59852">
        <ele>799</ele>
        <time>2021-04-14T01:21:31Z</time>
      </trkpt>
    </trkseg>
  </trk>
</gpx>